GFSWCAN_prec_precacc_054.txt.gz
Total_Precipitation_Accumulation
0.55 0.43 0.31 0.32 0.21 0.12 0.08 0.06 0.07 0.07 0.05 0.07 0.08 0.08 0.12 0.07 0.02 0.03 0.06 0.09 0.22 0.12 0.02 0.00 0.00 0.01 0.01 0.02 0.03 0.01 0.02 0.02 0.06 0.12 0.11 0.06 0.02 0.01 0.00 0.00 0.00 0.01 0.03 0.06 0.06 0.07 0.00 0.00 0.00 0.00 0.00 0.00 0.00 0.00
0.50 0.47 0.30 0.29 0.21 0.12 0.09 0.08 0.07 0.06 0.05 0.07 0.08 0.08 0.19 0.12 0.09 0.07 0.04 0.08 0.15 0.14 0.04 0.00 0.00 0.00 0.00 0.01 0.01 0.00 0.03 0.01 0.04 0.12 0.16 0.10 0.04 0.01 0.00 0.00 0.00 0.00 0.00 0.00 0.00 0.00 0.00 0.00 0.00 0.00 0.00 0.00 0.00 0.01
0.42 0.43 0.39 0.30 0.23 0.13 0.12 0.10 0.09 0.07 0.07 0.07 0.08 0.10 0.15 0.15 0.16 0.23 0.10 0.04 0.10 0.13 0.02 0.00 0.01 0.00 0.00 0.00 0.01 0.01 0.02 0.01 0.04 0.12 0.26 0.11 0.06 0.04 0.02 0.01 0.00 0.00 0.00 0.00 0.00 0.00 0.00 0.00 0.00 0.00 0.00 0.00 0.00 0.02
0.56 0.43 0.44 0.32 0.23 0.15 0.12 0.13 0.11 0.09 0.09 0.10 0.08 0.09 0.11 0.13 0.21 0.17 0.05 0.06 0.12 0.12 0.10 0.02 0.00 0.00 0.00 0.00 0.01 0.02 0.04 0.02 0.08 0.16 0.18 0.14 0.06 0.03 0.02 0.01 0.00 0.01 0.00 0.00 0.00 0.00 0.00 0.00 0.00 0.00 0.00 0.00 0.00 0.00
0.48 0.47 0.36 0.34 0.22 0.15 0.13 0.12 0.11 0.14 0.14 0.10 0.09 0.09 0.13 0.17 0.11 0.06 0.02 0.04 0.08 0.16 0.20 0.05 0.05 0.00 0.00 0.01 0.04 0.04 0.08 0.15 0.15 0.27 0.31 0.16 0.07 0.05 0.01 0.00 0.00 0.00 0.00 0.00 0.00 0.00 0.00 0.00 0.00 0.00 0.00 0.00 0.00 0.00
0.46 0.42 0.34 0.24 0.18 0.16 0.17 0.20 0.19 0.17 0.15 0.15 0.10 0.14 0.15 0.08 0.10 0.07 0.08 0.23 0.16 0.16 0.38 0.18 0.23 0.03 0.03 0.05 0.14 0.15 0.17 0.30 0.40 0.30 0.28 0.28 0.14 0.15 0.12 0.03 0.00 0.00 0.00 0.00 0.00 0.00 0.00 0.00 0.00 0.00 0.00 0.00 0.00 0.00
0.53 0.41 0.29 0.23 0.24 0.27 0.29 0.24 0.18 0.17 0.17 0.12 0.13 0.12 0.04 0.03 0.07 0.04 0.13 0.56 0.28 0.21 0.34 0.41 0.58 0.15 0.13 0.21 0.20 0.41 0.29 0.47 0.50 0.46 0.29 0.21 0.22 0.48 0.31 0.05 0.00 0.00 0.00 0.00 0.00 0.00 0.00 0.00 0.00 0.00 0.00 0.00 0.00 0.00
0.69 0.46 0.32 0.29 0.29 0.27 0.20 0.16 0.14 0.14 0.12 0.10 0.07 0.02 0.01 0.06 0.03 0.03 0.02 0.10 0.28 0.64 0.61 0.89 0.88 0.45 0.49 0.56 0.44 0.55 0.56 0.66 0.74 0.61 0.28 0.29 0.27 0.34 0.20 0.01 0.01 0.02 0.01 0.01 0.01 0.00 0.00 0.00 0.00 0.00 0.00 0.00 0.00 0.00
0.62 0.38 0.24 0.19 0.21 0.22 0.18 0.15 0.13 0.12 0.08 0.03 0.00 0.01 0.13 0.08 0.04 0.03 0.05 0.15 0.45 0.91 0.79 0.70 0.67 0.62 0.68 0.67 0.65 0.56 0.82 0.72 0.65 0.49 0.19 0.27 0.35 0.32 0.07 0.04 0.05 0.08 0.14 0.16 0.17 0.11 0.05 0.02 0.02 0.02 0.02 0.01 0.01 0.02
0.53 0.32 0.17 0.16 0.17 0.17 0.16 0.12 0.12 0.09 0.03 0.00 0.00 0.02 0.10 0.01 0.00 0.06 0.28 0.67 0.79 0.72 0.50 0.53 0.61 0.67 0.88 0.67 0.56 0.61 0.64 0.50 0.60 0.31 0.22 0.23 0.16 0.07 0.05 0.07 0.08 0.08 0.19 0.26 0.33 0.36 0.30 0.18 0.06 0.04 0.07 0.10 0.09 0.08
0.41 0.27 0.13 0.11 0.14 0.14 0.10 0.09 0.08 0.03 0.01 0.00 0.00 0.01 0.02 0.00 0.15 0.47 0.75 0.74 0.55 0.36 0.30 0.37 0.52 0.47 0.41 0.52 0.48 0.57 0.74 0.40 0.45 0.55 0.30 0.24 0.22 0.15 0.07 0.03 0.02 0.02 0.05 0.09 0.15 0.32 0.38 0.26 0.22 0.12 0.11 0.17 0.24 0.23
0.30 0.25 0.13 0.08 0.10 0.11 0.08 0.06 0.04 0.01 0.01 0.01 0.02 0.01 0.02 0.13 0.38 0.49 0.60 0.46 0.21 0.15 0.21 0.38 0.37 0.35 0.26 0.30 0.38 0.39 0.44 0.35 0.41 0.56 0.40 0.30 0.27 0.12 0.15 0.15 0.09 0.05 0.10 0.06 0.09 0.13 0.14 0.12 0.16 0.18 0.13 0.13 0.15 0.24
0.28 0.23 0.15 0.09 0.11 0.08 0.06 0.03 0.01 0.00 0.01 0.01 0.01 0.01 0.06 0.14 0.27 0.32 0.34 0.27 0.07 0.07 0.10 0.11 0.21 0.21 0.24 0.29 0.20 0.24 0.18 0.09 0.20 0.36 0.43 0.20 0.03 0.03 0.02 0.03 0.10 0.23 0.32 0.24 0.11 0.15 0.16 0.17 0.15 0.12 0.13 0.11 0.08 0.07
0.32 0.24 0.18 0.16 0.13 0.08 0.06 0.03 0.01 0.00 0.01 0.00 0.00 0.00 0.06 0.09 0.14 0.14 0.12 0.11 0.05 0.04 0.03 0.05 0.10 0.14 0.24 0.18 0.19 0.16 0.05 0.07 0.24 0.27 0.17 0.06 0.06 0.03 0.00 0.00 0.00 0.03 0.13 0.29 0.35 0.41 0.39 0.46 0.43 0.44 0.45 0.40 0.31 0.24
0.41 0.25 0.20 0.17 0.14 0.10 0.08 0.04 0.01 0.01 0.00 0.00 0.00 0.00 0.01 0.02 0.02 0.01 0.02 0.04 0.03 0.04 0.05 0.03 0.05 0.05 0.12 0.16 0.12 0.15 0.11 0.30 0.37 0.21 0.14 0.08 0.03 0.01 0.01 0.01 0.00 0.00 0.01 0.01 0.07 0.24 0.32 0.38 0.49 0.44 0.39 0.31 0.23 0.21
0.53 0.40 0.19 0.09 0.09 0.11 0.08 0.02 0.00 0.00 0.00 0.00 0.00 0.00 0.00 0.00 0.00 0.00 0.00 0.01 0.01 0.03 0.06 0.09 0.12 0.11 0.08 0.18 0.15 0.10 0.16 0.35 0.32 0.14 0.06 0.01 0.01 0.04 0.02 0.02 0.01 0.00 0.00 0.00 0.00 0.02 0.06 0.07 0.11 0.12 0.10 0.18 0.23 0.21
0.63 0.28 0.10 0.10 0.11 0.07 0.04 0.01 0.00 0.00 0.00 0.00 0.00 0.00 0.00 0.00 0.00 0.00 0.00 0.00 0.01 0.06 0.20 0.30 0.25 0.10 0.09 0.12 0.05 0.05 0.18 0.16 0.07 0.03 0.02 0.01 0.01 0.05 0.05 0.02 0.02 0.02 0.03 0.04 0.03 0.06 0.10 0.10 0.14 0.19 0.14 0.09 0.10 0.16
0.28 0.08 0.10 0.13 0.07 0.04 0.03 0.00 0.00 0.00 0.00 0.00 0.00 0.00 0.00 0.00 0.00 0.00 0.00 0.00 0.01 0.08 0.26 0.52 0.31 0.18 0.06 0.03 0.02 0.02 0.02 0.03 0.02 0.01 0.00 0.00 0.00 0.02 0.04 0.02 0.01 0.04 0.08 0.21 0.23 0.18 0.15 0.16 0.16 0.14 0.12 0.09 0.07 0.08
0.14 0.15 0.22 0.14 0.11 0.11 0.08 0.04 0.00 0.00 0.00 0.00 0.00 0.00 0.00 0.00 0.01 0.01 0.01 0.00 0.01 0.04 0.14 0.30 0.29 0.09 0.00 0.00 0.01 0.01 0.00 0.00 0.00 0.00 0.01 0.00 0.00 0.02 0.06 0.08 0.08 0.06 0.07 0.13 0.13 0.10 0.08 0.06 0.05 0.07 0.09 0.08 0.06 0.05
0.34 0.47 0.44 0.30 0.15 0.15 0.12 0.04 0.01 0.00 0.00 0.00 0.00 0.00 0.00 0.01 0.01 0.01 0.01 0.01 0.02 0.08 0.12 0.12 0.05 0.02 0.02 0.04 0.06 0.04 0.01 0.01 0.00 0.00 0.01 0.01 0.00 0.00 0.00 0.02 0.05 0.05 0.05 0.05 0.06 0.07 0.07 0.05 0.05 0.06 0.08 0.08 0.07 0.06
0.59 0.73 0.56 0.28 0.20 0.13 0.10 0.01 0.00 0.00 0.00 0.00 0.00 0.00 0.00 0.00 0.00 0.00 0.02 0.03 0.06 0.06 0.04 0.02 0.02 0.02 0.04 0.05 0.06 0.05 0.03 0.02 0.01 0.00 0.00 0.00 0.00 0.00 0.00 0.00 0.01 0.02 0.02 0.02 0.01 0.02 0.04 0.03 0.05 0.07 0.05 0.05 0.08 0.09
0.24 0.33 0.31 0.39 0.27 0.20 0.13 0.02 0.01 0.00 0.01 0.00 0.01 0.01 0.00 0.00 0.00 0.01 0.02 0.04 0.02 0.01 0.01 0.02 0.03 0.05 0.05 0.06 0.07 0.07 0.05 0.02 0.01 0.01 0.00 0.00 0.00 0.00 0.00 0.00 0.01 0.00 0.00 0.00 0.00 0.00 0.01 0.01 0.03 0.03 0.03 0.05 0.08 0.10
0.28 0.36 0.39 0.36 0.33 0.31 0.16 0.04 0.03 0.02 0.01 0.00 0.01 0.00 0.00 0.00 0.01 0.02 0.02 0.00 0.00 0.00 0.00 0.02 0.04 0.07 0.10 0.10 0.14 0.12 0.11 0.08 0.04 0.02 0.01 0.01 0.00 0.00 0.01 0.00 0.00 0.00 0.00 0.00 0.00 0.00 0.00 0.00 0.00 0.00 0.02 0.04 0.06 0.07
0.29 0.43 0.46 0.37 0.23 0.15 0.09 0.05 0.04 0.03 0.02 0.01 0.01 0.00 0.00 0.00 0.03 0.02 0.00 0.00 0.00 0.00 0.00 0.01 0.02 0.03 0.04 0.06 0.09 0.16 0.22 0.21 0.15 0.10 0.06 0.04 0.02 0.01 0.01 0.01 0.00 0.00 0.00 0.00 0.00 0.00 0.00 0.00 0.00 0.00 0.00 0.00 0.01 0.03
0.89 0.80 0.41 0.34 0.17 0.08 0.04 0.04 0.03 0.02 0.01 0.01 0.02 0.00 0.00 0.02 0.01 0.00 0.00 0.00 0.00 0.00 0.00 0.00 0.01 0.03 0.03 0.03 0.05 0.07 0.10 0.18 0.19 0.18 0.18 0.18 0.11 0.08 0.05 0.03 0.02 0.01 0.00 0.00 0.00 0.00 0.00 0.00 0.00 0.00 0.00 0.00 0.00 0.01
0.72 0.31 0.16 0.04 0.05 0.02 0.00 0.01 0.01 0.00 0.00 0.01 0.01 0.00 0.01 0.01 0.00 0.00 0.00 0.00 0.00 0.00 0.00 0.00 0.00 0.01 0.02 0.03 0.04 0.07 0.09 0.13 0.14 0.11 0.10 0.19 0.20 0.19 0.16 0.12 0.08 0.04 0.02 0.03 0.03 0.02 0.01 0.01 0.00 0.00 0.00 0.00 0.01 0.03
0.34 0.18 0.10 0.02 0.01 0.01 0.00 0.00 0.00 0.00 0.00 0.00 0.00 0.01 0.02 0.02 0.00 0.00 0.00 0.00 0.00 0.00 0.00 0.00 0.00 0.00 0.00 0.01 0.03 0.05 0.07 0.11 0.13 0.09 0.10 0.13 0.14 0.14 0.15 0.14 0.12 0.09 0.09 0.11 0.11 0.09 0.05 0.04 0.03 0.03 0.04 0.04 0.04 0.03
0.07 0.00 0.02 0.02 0.01 0.00 0.01 0.01 0.00 0.00 0.00 0.01 0.02 0.02 0.04 0.02 0.00 0.00 0.00 0.00 0.00 0.00 0.00 0.00 0.00 0.00 0.00 0.01 0.02 0.04 0.06 0.09 0.12 0.11 0.12 0.14 0.13 0.13 0.14 0.16 0.22 0.27 0.27 0.20 0.15 0.16 0.16 0.14 0.11 0.10 0.11 0.10 0.08 0.07
0.03 0.00 0.00 0.01 0.01 0.01 0.01 0.01 0.01 0.01 0.00 0.01 0.02 0.01 0.00 0.00 0.00 0.00 0.00 0.00 0.00 0.00 0.00 0.00 0.00 0.00 0.00 0.01 0.03 0.04 0.06 0.09 0.12 0.10 0.08 0.09 0.13 0.16 0.20 0.26 0.35 0.41 0.41 0.36 0.32 0.24 0.23 0.23 0.24 0.24 0.23 0.21 0.18 0.18
0.02 0.00 0.00 0.00 0.00 0.00 0.00 0.00 0.00 0.00 0.00 0.00 0.00 0.00 0.00 0.00 0.00 0.00 0.00 0.00 0.00 0.00 0.00 0.00 0.00 0.01 0.01 0.02 0.04 0.04 0.05 0.06 0.09 0.09 0.09 0.09 0.12 0.17 0.23 0.28 0.36 0.45 0.45 0.41 0.49 0.56 0.52 0.52 0.54 0.52 0.47 0.41 0.35 0.30
0.00 0.00 0.00 0.00 0.00 0.00 0.00 0.00 0.00 0.00 0.00 0.00 0.00 0.00 0.00 0.00 0.00 0.00 0.00 0.00 0.00 0.00 0.00 0.00 0.01 0.01 0.02 0.04 0.06 0.08 0.08 0.09 0.11 0.12 0.14 0.17 0.19 0.21 0.27 0.34 0.37 0.42 0.47 0.47 0.43 0.41 0.39 0.33 0.30 0.28 0.30 0.30 0.27 0.23
0.01 0.01 0.00 0.00 0.00 0.00 0.00 0.00 0.00 0.00 0.00 0.00 0.00 0.00 0.00 0.00 0.00 0.00 0.00 0.00 0.00 0.01 0.01 0.02 0.03 0.04 0.06 0.08 0.11 0.14 0.17 0.17 0.16 0.17 0.19 0.20 0.22 0.25 0.29 0.35 0.42 0.44 0.47 0.47 0.42 0.39 0.35 0.36 0.38 0.37 0.38 0.39 0.36 0.31
0.06 0.04 0.02 0.01 0.00 0.00 0.00 0.00 0.00 0.00 0.00 0.00 0.00 0.00 0.00 0.00 0.00 0.00 0.00 0.00 0.01 0.02 0.03 0.05 0.07 0.10 0.13 0.15 0.18 0.21 0.24 0.28 0.30 0.32 0.36 0.35 0.33 0.35 0.41 0.43 0.43 0.43 0.41 0.42 0.45 0.47 0.47 0.44 0.41 0.39 0.37 0.35 0.35 0.33

GFSWCAN_prec_precacc_057.txt.gz
Total_Precipitation_Accumulation
0.76 0.63 0.55 0.58 0.56 0.45 0.34 0.18 0.10 0.07 0.05 0.07 0.08 0.08 0.12 0.07 0.02 0.03 0.06 0.09 0.22 0.12 0.02 0.00 0.00 0.01 0.01 0.02 0.03 0.01 0.02 0.02 0.06 0.13 0.12 0.07 0.02 0.01 0.00 0.00 0.00 0.02 0.04 0.06 0.07 0.08 0.00 0.00 0.00 0.00 0.00 0.00 0.00 0.00
0.68 0.66 0.53 0.50 0.55 0.52 0.36 0.18 0.09 0.06 0.05 0.07 0.08 0.08 0.19 0.12 0.09 0.07 0.04 0.08 0.15 0.14 0.04 0.00 0.00 0.00 0.00 0.01 0.01 0.00 0.03 0.01 0.04 0.12 0.16 0.10 0.04 0.01 0.00 0.00 0.00 0.00 0.00 0.00 0.00 0.00 0.00 0.00 0.00 0.00 0.00 0.00 0.00 0.01
0.58 0.61 0.60 0.57 0.64 0.52 0.34 0.18 0.11 0.07 0.07 0.07 0.08 0.10 0.15 0.15 0.16 0.23 0.10 0.04 0.10 0.13 0.02 0.00 0.01 0.00 0.00 0.00 0.01 0.01 0.02 0.01 0.04 0.12 0.26 0.11 0.06 0.04 0.02 0.01 0.00 0.00 0.00 0.00 0.00 0.00 0.00 0.00 0.00 0.00 0.00 0.00 0.00 0.02
0.73 0.60 0.61 0.55 0.59 0.44 0.30 0.21 0.12 0.09 0.09 0.10 0.08 0.09 0.11 0.13 0.21 0.17 0.05 0.06 0.12 0.12 0.10 0.02 0.00 0.00 0.00 0.00 0.01 0.02 0.04 0.02 0.08 0.16 0.18 0.14 0.06 0.03 0.02 0.01 0.00 0.01 0.00 0.00 0.00 0.00 0.00 0.00 0.00 0.00 0.00 0.00 0.00 0.00
0.68 0.84 0.73 0.62 0.47 0.35 0.26 0.18 0.12 0.14 0.14 0.10 0.09 0.09 0.13 0.17 0.11 0.06 0.02 0.04 0.08 0.16 0.20 0.05 0.05 0.00 0.00 0.01 0.04 0.04 0.08 0.15 0.15 0.27 0.31 0.16 0.07 0.05 0.01 0.00 0.00 0.00 0.00 0.00 0.00 0.00 0.00 0.00 0.00 0.00 0.00 0.00 0.00 0.00
0.63 0.66 0.97 0.77 0.47 0.33 0.27 0.24 0.20 0.17 0.15 0.15 0.10 0.14 0.15 0.08 0.10 0.07 0.08 0.23 0.16 0.16 0.38 0.18 0.23 0.03 0.03 0.05 0.14 0.15 0.17 0.30 0.40 0.30 0.28 0.28 0.14 0.15 0.12 0.03 0.00 0.00 0.00 0.00 0.00 0.00 0.00 0.00 0.00 0.00 0.00 0.00 0.00 0.00
0.69 0.52 0.55 0.70 0.53 0.44 0.36 0.25 0.19 0.17 0.17 0.12 0.13 0.12 0.04 0.03 0.07 0.04 0.13 0.56 0.28 0.21 0.34 0.41 0.58 0.15 0.13 0.21 0.20 0.41 0.29 0.47 0.50 0.46 0.29 0.21 0.22 0.48 0.31 0.05 0.00 0.00 0.00 0.00 0.00 0.00 0.00 0.00 0.00 0.00 0.00 0.00 0.00 0.00
0.95 0.69 0.54 0.53 0.47 0.38 0.24 0.16 0.15 0.15 0.12 0.10 0.07 0.02 0.01 0.06 0.03 0.03 0.02 0.10 0.28 0.64 0.61 0.89 0.88 0.45 0.49 0.56 0.44 0.55 0.56 0.66 0.74 0.61 0.28 0.29 0.27 0.34 0.20 0.01 0.01 0.02 0.01 0.01 0.01 0.00 0.00 0.00 0.00 0.00 0.00 0.00 0.00 0.00
0.92 0.84 0.50 0.38 0.37 0.29 0.20 0.16 0.14 0.12 0.08 0.03 0.00 0.01 0.13 0.08 0.04 0.03 0.05 0.15 0.45 0.91 0.79 0.70 0.67 0.62 0.68 0.67 0.65 0.56 0.82 0.72 0.65 0.49 0.19 0.27 0.35 0.32 0.07 0.04 0.05 0.08 0.14 0.16 0.17 0.11 0.05 0.02 0.02 0.02 0.02 0.01 0.01 0.02
0.83 0.74 0.44 0.33 0.30 0.22 0.17 0.13 0.12 0.09 0.03 0.00 0.00 0.02 0.10 0.01 0.00 0.06 0.28 0.67 0.79 0.72 0.50 0.53 0.61 0.67 0.88 0.67 0.56 0.61 0.64 0.50 0.60 0.31 0.22 0.23 0.16 0.07 0.05 0.07 0.08 0.08 0.19 0.26 0.33 0.36 0.30 0.18 0.06 0.04 0.07 0.10 0.09 0.08
0.70 0.57 0.35 0.25 0.24 0.17 0.11 0.09 0.09 0.03 0.01 0.00 0.00 0.01 0.02 0.00 0.15 0.47 0.75 0.74 0.55 0.36 0.30 0.37 0.52 0.47 0.41 0.52 0.48 0.57 0.74 0.40 0.45 0.55 0.30 0.24 0.22 0.15 0.07 0.03 0.02 0.02 0.05 0.09 0.15 0.32 0.38 0.26 0.22 0.12 0.11 0.17 0.24 0.23
0.51 0.44 0.29 0.22 0.16 0.13 0.09 0.07 0.04 0.01 0.01 0.01 0.02 0.01 0.02 0.13 0.38 0.49 0.60 0.46 0.21 0.15 0.21 0.38 0.37 0.35 0.26 0.30 0.38 0.39 0.44 0.35 0.41 0.56 0.40 0.30 0.27 0.12 0.15 0.15 0.09 0.05 0.10 0.06 0.09 0.13 0.14 0.12 0.16 0.18 0.13 0.13 0.15 0.24
0.41 0.35 0.27 0.22 0.14 0.09 0.06 0.03 0.01 0.00 0.01 0.01 0.01 0.01 0.06 0.14 0.27 0.32 0.34 0.27 0.07 0.07 0.10 0.11 0.21 0.21 0.24 0.29 0.20 0.24 0.18 0.10 0.21 0.37 0.43 0.20 0.03 0.03 0.02 0.03 0.10 0.23 0.32 0.24 0.11 0.15 0.16 0.17 0.15 0.12 0.13 0.11 0.08 0.07
0.44 0.35 0.31 0.24 0.15 0.09 0.06 0.03 0.01 0.00 0.01 0.00 0.00 0.00 0.06 0.09 0.14 0.14 0.12 0.11 0.05 0.04 0.03 0.05 0.10 0.14 0.24 0.18 0.19 0.16 0.05 0.08 0.25 0.28 0.17 0.06 0.06 0.03 0.00 0.00 0.00 0.03 0.13 0.29 0.35 0.41 0.39 0.46 0.43 0.44 0.45 0.40 0.31 0.24
0.55 0.41 0.33 0.22 0.16 0.11 0.08 0.04 0.01 0.01 0.00 0.00 0.00 0.00 0.01 0.02 0.02 0.01 0.02 0.04 0.03 0.04 0.05 0.03 0.05 0.05 0.12 0.16 0.12 0.15 0.11 0.30 0.37 0.21 0.14 0.08 0.03 0.01 0.01 0.01 0.00 0.00 0.01 0.01 0.07 0.24 0.32 0.38 0.49 0.44 0.39 0.31 0.23 0.21
0.73 0.62 0.30 0.14 0.11 0.11 0.08 0.02 0.00 0.00 0.00 0.00 0.00 0.00 0.00 0.00 0.00 0.00 0.00 0.01 0.01 0.03 0.06 0.09 0.12 0.11 0.08 0.18 0.15 0.10 0.16 0.35 0.32 0.14 0.06 0.01 0.01 0.04 0.02 0.02 0.01 0.00 0.00 0.00 0.00 0.02 0.06 0.07 0.11 0.12 0.10 0.18 0.23 0.21
0.92 0.54 0.18 0.12 0.11 0.07 0.04 0.01 0.00 0.00 0.00 0.00 0.00 0.00 0.00 0.00 0.00 0.00 0.00 0.00 0.01 0.06 0.20 0.30 0.25 0.10 0.09 0.12 0.05 0.05 0.18 0.16 0.07 0.03 0.02 0.01 0.01 0.05 0.05 0.02 0.02 0.02 0.03 0.04 0.03 0.06 0.10 0.10 0.14 0.19 0.14 0.09 0.10 0.16
0.44 0.14 0.12 0.13 0.07 0.04 0.03 0.00 0.00 0.00 0.01 0.00 0.00 0.00 0.00 0.00 0.00 0.00 0.00 0.00 0.01 0.08 0.26 0.52 0.31 0.18 0.06 0.03 0.02 0.02 0.02 0.03 0.02 0.01 0.00 0.00 0.00 0.02 0.04 0.02 0.01 0.04 0.08 0.21 0.23 0.18 0.15 0.16 0.16 0.14 0.12 0.09 0.07 0.08
0.19 0.15 0.22 0.14 0.11 0.11 0.08 0.04 0.00 0.01 0.01 0.00 0.00 0.00 0.00 0.00 0.01 0.01 0.01 0.00 0.01 0.04 0.14 0.30 0.29 0.09 0.00 0.00 0.01 0.01 0.00 0.00 0.00 0.00 0.01 0.00 0.00 0.02 0.06 0.08 0.08 0.06 0.07 0.13 0.13 0.10 0.08 0.06 0.05 0.07 0.09 0.08 0.06 0.05
0.36 0.47 0.44 0.31 0.15 0.15 0.12 0.04 0.01 0.00 0.00 0.00 0.00 0.00 0.00 0.01 0.01 0.01 0.01 0.01 0.02 0.08 0.12 0.12 0.05 0.02 0.02 0.04 0.06 0.04 0.01 0.01 0.00 0.00 0.01 0.01 0.00 0.00 0.00 0.02 0.05 0.05 0.05 0.05 0.06 0.07 0.07 0.05 0.05 0.06 0.08 0.08 0.07 0.06
0.67 0.77 0.57 0.28 0.20 0.13 0.10 0.01 0.01 0.00 0.00 0.00 0.00 0.00 0.00 0.00 0.00 0.00 0.02 0.03 0.06 0.06 0.04 0.02 0.02 0.02 0.04 0.05 0.06 0.05 0.03 0.02 0.01 0.00 0.00 0.00 0.00 0.00 0.00 0.00 0.01 0.02 0.02 0.02 0.01 0.02 0.04 0.03 0.05 0.07 0.05 0.05 0.08 0.09
0.31 0.35 0.31 0.40 0.27 0.20 0.14 0.03 0.01 0.00 0.01 0.00 0.01 0.01 0.00 0.00 0.00 0.01 0.02 0.04 0.02 0.01 0.01 0.02 0.03 0.05 0.05 0.06 0.07 0.07 0.05 0.02 0.01 0.01 0.00 0.00 0.00 0.00 0.00 0.00 0.01 0.00 0.00 0.00 0.00 0.00 0.01 0.01 0.03 0.03 0.03 0.05 0.08 0.10
0.29 0.36 0.40 0.36 0.34 0.32 0.18 0.05 0.03 0.02 0.01 0.00 0.01 0.00 0.00 0.00 0.01 0.02 0.02 0.00 0.00 0.00 0.00 0.02 0.04 0.07 0.10 0.10 0.14 0.12 0.11 0.08 0.04 0.02 0.01 0.01 0.00 0.00 0.01 0.00 0.00 0.00 0.00 0.00 0.00 0.00 0.00 0.00 0.00 0.00 0.02 0.04 0.06 0.07
0.30 0.44 0.48 0.38 0.25 0.16 0.10 0.05 0.04 0.03 0.02 0.01 0.01 0.00 0.00 0.00 0.03 0.02 0.00 0.00 0.00 0.00 0.00 0.01 0.02 0.03 0.04 0.06 0.09 0.16 0.22 0.21 0.15 0.10 0.06 0.04 0.02 0.01 0.01 0.01 0.00 0.00 0.00 0.00 0.00 0.00 0.00 0.00 0.00 0.00 0.00 0.00 0.01 0.03
0.91 0.83 0.42 0.35 0.18 0.08 0.04 0.04 0.03 0.02 0.01 0.01 0.02 0.00 0.00 0.02 0.01 0.00 0.00 0.00 0.00 0.00 0.00 0.00 0.01 0.03 0.03 0.03 0.05 0.07 0.10 0.18 0.19 0.18 0.18 0.18 0.11 0.08 0.05 0.03 0.02 0.01 0.00 0.00 0.00 0.00 0.00 0.00 0.00 0.00 0.00 0.00 0.00 0.01
0.74 0.32 0.17 0.04 0.05 0.02 0.00 0.01 0.01 0.00 0.00 0.01 0.01 0.00 0.01 0.01 0.00 0.00 0.00 0.00 0.00 0.00 0.00 0.00 0.00 0.01 0.02 0.03 0.04 0.07 0.09 0.13 0.14 0.11 0.10 0.19 0.20 0.19 0.16 0.12 0.08 0.04 0.02 0.03 0.03 0.02 0.01 0.01 0.00 0.00 0.00 0.00 0.01 0.03
0.35 0.18 0.10 0.02 0.01 0.01 0.00 0.00 0.00 0.00 0.00 0.00 0.00 0.01 0.02 0.02 0.00 0.00 0.00 0.00 0.00 0.00 0.00 0.00 0.00 0.00 0.00 0.01 0.03 0.05 0.07 0.11 0.13 0.09 0.10 0.13 0.14 0.14 0.15 0.14 0.12 0.09 0.09 0.11 0.11 0.09 0.05 0.04 0.03 0.03 0.04 0.04 0.04 0.03
0.07 0.00 0.02 0.02 0.01 0.00 0.01 0.01 0.00 0.00 0.00 0.01 0.02 0.02 0.04 0.02 0.00 0.00 0.00 0.00 0.00 0.00 0.00 0.00 0.00 0.00 0.00 0.01 0.02 0.04 0.06 0.09 0.12 0.11 0.12 0.14 0.13 0.13 0.14 0.16 0.22 0.27 0.27 0.20 0.15 0.16 0.16 0.14 0.11 0.10 0.12 0.10 0.08 0.07
0.03 0.00 0.00 0.01 0.01 0.01 0.01 0.01 0.01 0.01 0.00 0.01 0.02 0.01 0.00 0.00 0.00 0.00 0.00 0.00 0.00 0.00 0.00 0.00 0.00 0.00 0.00 0.01 0.03 0.04 0.06 0.09 0.12 0.10 0.08 0.09 0.13 0.16 0.20 0.26 0.35 0.41 0.41 0.36 0.32 0.24 0.23 0.23 0.24 0.25 0.24 0.22 0.19 0.18
0.02 0.00 0.00 0.00 0.00 0.00 0.00 0.00 0.00 0.00 0.00 0.00 0.00 0.00 0.00 0.00 0.00 0.00 0.00 0.00 0.00 0.00 0.00 0.00 0.00 0.01 0.01 0.02 0.04 0.04 0.05 0.06 0.09 0.09 0.09 0.09 0.12 0.17 0.23 0.28 0.36 0.45 0.45 0.41 0.49 0.56 0.52 0.52 0.54 0.52 0.47 0.41 0.35 0.31
0.00 0.00 0.00 0.00 0.00 0.00 0.00 0.00 0.00 0.00 0.00 0.00 0.00 0.00 0.00 0.00 0.00 0.00 0.00 0.00 0.00 0.00 0.00 0.00 0.01 0.01 0.02 0.04 0.06 0.08 0.08 0.09 0.11 0.12 0.14 0.17 0.19 0.21 0.27 0.34 0.37 0.43 0.48 0.47 0.43 0.41 0.39 0.33 0.30 0.28 0.30 0.30 0.27 0.23
0.01 0.01 0.00 0.00 0.00 0.00 0.00 0.00 0.00 0.00 0.00 0.00 0.00 0.00 0.00 0.00 0.00 0.00 0.00 0.00 0.00 0.01 0.01 0.02 0.03 0.04 0.06 0.08 0.11 0.14 0.17 0.17 0.16 0.17 0.19 0.20 0.22 0.25 0.29 0.35 0.42 0.45 0.47 0.47 0.42 0.40 0.35 0.36 0.38 0.37 0.38 0.39 0.36 0.31
0.06 0.04 0.02 0.01 0.00 0.00 0.00 0.00 0.00 0.00 0.00 0.00 0.00 0.00 0.00 0.00 0.00 0.00 0.00 0.00 0.01 0.02 0.03 0.05 0.07 0.10 0.13 0.15 0.18 0.21 0.24 0.28 0.30 0.32 0.36 0.35 0.33 0.36 0.41 0.44 0.44 0.43 0.41 0.42 0.45 0.47 0.47 0.44 0.41 0.39 0.37 0.35 0.35 0.33

GFSWCAN_prec_precacc_060.txt.gz
Total_Precipitation_Accumulation
0.77 0.65 0.59 0.66 0.76 0.77 0.67 0.54 0.46 0.35 0.17 0.11 0.09 0.08 0.12 0.07 0.02 0.03 0.06 0.09 0.22 0.12 0.02 0.00 0.00 0.01 0.01 0.02 0.03 0.01 0.02 0.02 0.06 0.14 0.13 0.07 0.03 0.01 0.00 0.00 0.00 0.02 0.04 0.06 0.07 0.08 0.00 0.00 0.00 0.00 0.00 0.00 0.00 0.00
0.69 0.68 0.58 0.58 0.68 0.68 0.66 0.68 0.51 0.32 0.16 0.10 0.08 0.08 0.19 0.12 0.09 0.07 0.04 0.08 0.15 0.14 0.04 0.00 0.00 0.00 0.00 0.01 0.01 0.00 0.03 0.01 0.04 0.12 0.16 0.10 0.04 0.01 0.00 0.00 0.00 0.00 0.00 0.00 0.00 0.00 0.00 0.00 0.00 0.00 0.00 0.00 0.00 0.01
0.59 0.62 0.66 0.69 0.85 0.71 0.62 0.59 0.47 0.29 0.13 0.07 0.08 0.10 0.15 0.15 0.16 0.23 0.10 0.04 0.10 0.13 0.02 0.00 0.01 0.00 0.00 0.00 0.01 0.01 0.02 0.01 0.04 0.12 0.26 0.11 0.06 0.04 0.02 0.01 0.00 0.00 0.00 0.00 0.00 0.00 0.00 0.00 0.00 0.00 0.00 0.00 0.00 0.02
0.74 0.62 0.68 0.69 0.88 0.94 0.65 0.55 0.40 0.25 0.14 0.11 0.08 0.09 0.11 0.13 0.21 0.17 0.05 0.06 0.12 0.12 0.10 0.02 0.00 0.00 0.00 0.00 0.01 0.02 0.04 0.02 0.08 0.16 0.18 0.14 0.06 0.03 0.02 0.01 0.00 0.01 0.00 0.00 0.00 0.00 0.00 0.00 0.00 0.00 0.00 0.00 0.00 0.00
0.68 0.86 0.79 0.72 0.62 0.62 0.72 0.54 0.33 0.22 0.17 0.11 0.09 0.09 0.13 0.17 0.11 0.06 0.02 0.04 0.08 0.16 0.20 0.05 0.05 0.00 0.00 0.01 0.04 0.04 0.08 0.15 0.15 0.27 0.31 0.16 0.07 0.05 0.01 0.00 0.00 0.00 0.00 0.00 0.00 0.00 0.00 0.00 0.00 0.00 0.00 0.00 0.00 0.00
0.64 0.72 1.15 1.05 0.67 0.44 0.46 0.49 0.34 0.19 0.16 0.15 0.10 0.14 0.15 0.08 0.10 0.07 0.08 0.23 0.16 0.16 0.38 0.18 0.23 0.03 0.03 0.05 0.14 0.15 0.17 0.30 0.40 0.30 0.28 0.28 0.14 0.15 0.12 0.03 0.00 0.00 0.00 0.00 0.00 0.00 0.00 0.00 0.00 0.00 0.00 0.00 0.00 0.00
0.71 0.62 0.79 1.35 1.14 0.75 0.54 0.45 0.27 0.19 0.18 0.13 0.13 0.12 0.04 0.03 0.07 0.04 0.13 0.56 0.28 0.21 0.34 0.41 0.58 0.15 0.13 0.21 0.20 0.41 0.29 0.47 0.50 0.46 0.29 0.21 0.22 0.48 0.31 0.05 0.00 0.00 0.00 0.00 0.00 0.00 0.00 0.00 0.00 0.00 0.00 0.00 0.00 0.00
0.97 0.75 0.68 0.91 1.09 0.75 0.51 0.32 0.19 0.15 0.12 0.10 0.07 0.02 0.01 0.06 0.03 0.03 0.02 0.10 0.28 0.64 0.61 0.89 0.88 0.45 0.49 0.56 0.44 0.55 0.56 0.66 0.74 0.61 0.28 0.29 0.27 0.34 0.20 0.01 0.01 0.02 0.01 0.01 0.01 0.00 0.00 0.00 0.00 0.00 0.00 0.00 0.00 0.00
0.94 0.90 0.63 0.54 0.62 0.51 0.43 0.27 0.15 0.12 0.09 0.03 0.00 0.01 0.13 0.08 0.04 0.03 0.05 0.15 0.45 0.91 0.79 0.70 0.67 0.62 0.68 0.67 0.65 0.56 0.82 0.72 0.65 0.49 0.19 0.27 0.35 0.32 0.07 0.04 0.05 0.08 0.14 0.16 0.17 0.11 0.05 0.02 0.02 0.02 0.02 0.01 0.01 0.02
0.88 0.93 0.63 0.52 0.44 0.36 0.30 0.17 0.13 0.09 0.03 0.00 0.00 0.02 0.10 0.01 0.00 0.06 0.28 0.67 0.79 0.72 0.50 0.53 0.61 0.67 0.88 0.67 0.56 0.61 0.64 0.50 0.60 0.31 0.22 0.23 0.16 0.07 0.05 0.07 0.08 0.08 0.19 0.26 0.33 0.36 0.30 0.18 0.06 0.04 0.07 0.10 0.09 0.08
0.81 0.85 0.60 0.46 0.39 0.28 0.17 0.12 0.10 0.03 0.01 0.00 0.00 0.01 0.02 0.00 0.15 0.47 0.75 0.74 0.55 0.36 0.30 0.37 0.52 0.47 0.41 0.52 0.48 0.57 0.74 0.40 0.45 0.55 0.30 0.24 0.22 0.15 0.07 0.03 0.02 0.02 0.05 0.09 0.15 0.32 0.38 0.26 0.22 0.12 0.11 0.17 0.24 0.23
0.69 0.74 0.48 0.37 0.30 0.21 0.11 0.08 0.04 0.01 0.01 0.01 0.02 0.01 0.02 0.13 0.38 0.49 0.60 0.46 0.21 0.15 0.21 0.38 0.37 0.35 0.26 0.30 0.38 0.39 0.44 0.36 0.41 0.56 0.40 0.30 0.27 0.12 0.15 0.15 0.09 0.05 0.10 0.06 0.09 0.13 0.14 0.12 0.16 0.18 0.13 0.13 0.15 0.24
0.64 0.53 0.40 0.34 0.24 0.14 0.08 0.04 0.01 0.00 0.01 0.01 0.01 0.01 0.06 0.15 0.27 0.32 0.34 0.27 0.07 0.07 0.10 0.11 0.21 0.21 0.24 0.29 0.20 0.24 0.18 0.10 0.21 0.37 0.44 0.20 0.03 0.03 0.02 0.03 0.10 0.23 0.32 0.24 0.11 0.15 0.16 0.17 0.15 0.12 0.13 0.11 0.08 0.07
0.65 0.44 0.41 0.37 0.24 0.12 0.07 0.03 0.01 0.00 0.01 0.00 0.00 0.00 0.06 0.09 0.14 0.14 0.12 0.11 0.05 0.04 0.03 0.05 0.10 0.14 0.24 0.18 0.19 0.16 0.05 0.08 0.25 0.28 0.17 0.06 0.06 0.03 0.00 0.00 0.00 0.03 0.13 0.29 0.35 0.41 0.39 0.46 0.43 0.44 0.45 0.40 0.31 0.24
0.68 0.49 0.46 0.34 0.23 0.12 0.09 0.04 0.01 0.01 0.00 0.00 0.00 0.00 0.01 0.02 0.02 0.01 0.02 0.04 0.03 0.04 0.05 0.03 0.05 0.05 0.12 0.16 0.12 0.15 0.11 0.30 0.37 0.21 0.14 0.08 0.03 0.01 0.01 0.01 0.00 0.00 0.01 0.01 0.07 0.24 0.32 0.38 0.49 0.44 0.39 0.31 0.23 0.21
0.88 0.83 0.51 0.26 0.13 0.11 0.08 0.02 0.00 0.00 0.00 0.00 0.00 0.00 0.00 0.00 0.00 0.00 0.00 0.01 0.01 0.03 0.06 0.09 0.12 0.11 0.08 0.18 0.15 0.10 0.16 0.35 0.32 0.14 0.06 0.01 0.01 0.04 0.02 0.02 0.01 0.00 0.00 0.00 0.00 0.02 0.06 0.07 0.11 0.12 0.10 0.18 0.23 0.21
1.17 0.93 0.43 0.17 0.12 0.07 0.04 0.01 0.00 0.00 0.00 0.00 0.00 0.00 0.00 0.00 0.00 0.00 0.00 0.00 0.01 0.06 0.20 0.30 0.25 0.10 0.09 0.12 0.05 0.05 0.18 0.16 0.07 0.03 0.02 0.01 0.01 0.05 0.05 0.02 0.02 0.02 0.03 0.04 0.03 0.06 0.10 0.10 0.14 0.19 0.14 0.09 0.10 0.16
0.60 0.32 0.21 0.14 0.07 0.04 0.03 0.00 0.00 0.00 0.01 0.00 0.01 0.00 0.00 0.00 0.00 0.00 0.00 0.00 0.01 0.08 0.26 0.52 0.31 0.18 0.06 0.03 0.02 0.02 0.02 0.03 0.02 0.01 0.00 0.00 0.00 0.02 0.04 0.02 0.01 0.04 0.08 0.21 0.23 0.18 0.15 0.16 0.16 0.14 0.12 0.09 0.07 0.08
0.27 0.19 0.23 0.14 0.11 0.11 0.08 0.04 0.00 0.01 0.01 0.00 0.00 0.00 0.00 0.00 0.01 0.01 0.01 0.00 0.01 0.04 0.14 0.30 0.29 0.09 0.00 0.00 0.01 0.01 0.00 0.00 0.00 0.00 0.01 0.00 0.00 0.02 0.06 0.08 0.08 0.06 0.07 0.13 0.13 0.10 0.08 0.06 0.05 0.07 0.09 0.08 0.06 0.05
0.40 0.48 0.44 0.31 0.15 0.15 0.12 0.04 0.01 0.00 0.00 0.00 0.00 0.00 0.00 0.01 0.01 0.01 0.01 0.01 0.02 0.08 0.12 0.12 0.05 0.02 0.02 0.04 0.06 0.04 0.01 0.01 0.00 0.00 0.01 0.01 0.00 0.00 0.00 0.02 0.05 0.05 0.05 0.05 0.06 0.07 0.07 0.05 0.05 0.06 0.08 0.08 0.07 0.06
0.78 0.79 0.57 0.28 0.20 0.13 0.10 0.01 0.01 0.00 0.00 0.00 0.00 0.00 0.00 0.00 0.00 0.00 0.02 0.03 0.06 0.06 0.04 0.02 0.02 0.02 0.04 0.05 0.06 0.05 0.03 0.02 0.01 0.00 0.00 0.00 0.00 0.00 0.00 0.00 0.01 0.02 0.02 0.02 0.01 0.02 0.04 0.03 0.05 0.07 0.05 0.05 0.08 0.09
0.41 0.36 0.32 0.40 0.27 0.21 0.14 0.03 0.01 0.01 0.01 0.01 0.01 0.01 0.00 0.00 0.00 0.01 0.02 0.04 0.02 0.01 0.01 0.02 0.03 0.05 0.05 0.06 0.07 0.07 0.05 0.02 0.01 0.01 0.00 0.00 0.00 0.00 0.00 0.00 0.01 0.00 0.00 0.00 0.00 0.00 0.01 0.01 0.03 0.03 0.03 0.05 0.08 0.10
0.29 0.37 0.40 0.37 0.35 0.33 0.19 0.05 0.04 0.03 0.02 0.01 0.01 0.00 0.00 0.00 0.01 0.02 0.02 0.00 0.00 0.00 0.00 0.02 0.04 0.07 0.10 0.10 0.14 0.12 0.11 0.08 0.04 0.02 0.01 0.01 0.00 0.00 0.01 0.00 0.00 0.00 0.00 0.00 0.00 0.00 0.00 0.00 0.00 0.00 0.02 0.04 0.06 0.07
0.30 0.45 0.49 0.40 0.26 0.17 0.10 0.06 0.05 0.03 0.03 0.01 0.01 0.00 0.00 0.00 0.03 0.02 0.00 0.00 0.00 0.00 0.00 0.01 0.02 0.03 0.04 0.06 0.09 0.16 0.22 0.21 0.15 0.10 0.06 0.04 0.02 0.01 0.01 0.01 0.00 0.00 0.00 0.00 0.00 0.00 0.00 0.00 0.00 0.00 0.00 0.00 0.01 0.03
0.94 0.85 0.44 0.36 0.18 0.09 0.05 0.05 0.04 0.03 0.01 0.01 0.02 0.00 0.00 0.02 0.01 0.00 0.00 0.00 0.00 0.00 0.00 0.00 0.01 0.03 0.03 0.03 0.05 0.07 0.10 0.18 0.19 0.18 0.18 0.18 0.11 0.08 0.05 0.03 0.02 0.01 0.00 0.00 0.00 0.00 0.00 0.00 0.00 0.00 0.00 0.00 0.00 0.02
0.76 0.33 0.17 0.04 0.05 0.02 0.00 0.02 0.02 0.01 0.00 0.01 0.01 0.00 0.01 0.01 0.00 0.00 0.00 0.00 0.00 0.00 0.00 0.00 0.00 0.01 0.02 0.03 0.04 0.07 0.09 0.13 0.14 0.11 0.10 0.19 0.20 0.19 0.16 0.12 0.08 0.04 0.02 0.03 0.03 0.02 0.01 0.01 0.00 0.00 0.00 0.00 0.01 0.03
0.37 0.19 0.10 0.02 0.01 0.01 0.01 0.01 0.00 0.00 0.00 0.00 0.00 0.01 0.02 0.02 0.00 0.00 0.00 0.00 0.00 0.00 0.00 0.00 0.00 0.00 0.00 0.01 0.03 0.05 0.07 0.11 0.13 0.09 0.10 0.13 0.14 0.14 0.15 0.14 0.12 0.09 0.09 0.11 0.11 0.09 0.05 0.04 0.03 0.03 0.04 0.04 0.04 0.03
0.08 0.00 0.02 0.03 0.01 0.01 0.02 0.01 0.00 0.00 0.00 0.01 0.02 0.02 0.04 0.02 0.00 0.00 0.00 0.00 0.00 0.00 0.00 0.00 0.00 0.00 0.00 0.01 0.02 0.04 0.06 0.09 0.12 0.11 0.12 0.14 0.13 0.13 0.14 0.16 0.22 0.27 0.27 0.20 0.15 0.16 0.16 0.14 0.11 0.10 0.12 0.11 0.09 0.07
0.03 0.00 0.00 0.02 0.01 0.01 0.01 0.01 0.01 0.01 0.00 0.01 0.02 0.01 0.00 0.00 0.00 0.00 0.00 0.00 0.00 0.00 0.00 0.00 0.00 0.00 0.00 0.01 0.03 0.04 0.06 0.09 0.12 0.10 0.08 0.09 0.13 0.16 0.20 0.26 0.35 0.41 0.41 0.36 0.32 0.24 0.23 0.24 0.25 0.25 0.24 0.22 0.19 0.19
0.02 0.00 0.00 0.00 0.00 0.00 0.00 0.00 0.00 0.00 0.00 0.00 0.00 0.00 0.00 0.00 0.00 0.00 0.00 0.00 0.00 0.00 0.00 0.00 0.00 0.01 0.01 0.02 0.04 0.04 0.05 0.06 0.09 0.09 0.09 0.09 0.12 0.17 0.23 0.28 0.36 0.45 0.45 0.41 0.49 0.56 0.52 0.52 0.54 0.52 0.47 0.41 0.35 0.31
0.00 0.00 0.00 0.00 0.00 0.00 0.00 0.00 0.00 0.00 0.00 0.00 0.00 0.00 0.00 0.00 0.00 0.00 0.00 0.00 0.00 0.00 0.00 0.00 0.01 0.01 0.02 0.04 0.06 0.08 0.08 0.09 0.11 0.12 0.14 0.17 0.19 0.21 0.27 0.34 0.37 0.43 0.48 0.48 0.44 0.42 0.40 0.34 0.30 0.28 0.30 0.30 0.27 0.23
0.01 0.01 0.01 0.00 0.00 0.00 0.00 0.00 0.00 0.00 0.00 0.00 0.00 0.00 0.00 0.00 0.00 0.00 0.00 0.00 0.00 0.01 0.01 0.02 0.03 0.04 0.06 0.08 0.11 0.14 0.17 0.17 0.16 0.17 0.19 0.20 0.22 0.25 0.30 0.36 0.42 0.45 0.48 0.48 0.43 0.40 0.35 0.36 0.38 0.37 0.39 0.39 0.37 0.31
0.06 0.04 0.02 0.01 0.00 0.00 0.00 0.00 0.00 0.00 0.00 0.00 0.00 0.00 0.00 0.00 0.00 0.00 0.00 0.00 0.01 0.02 0.03 0.05 0.07 0.10 0.13 0.15 0.18 0.21 0.24 0.28 0.30 0.32 0.37 0.35 0.33 0.36 0.42 0.44 0.44 0.44 0.42 0.42 0.46 0.48 0.47 0.45 0.42 0.39 0.37 0.36 0.35 0.33

GFSWCAN_prec_precacc_063.txt.gz
Total_Precipitation_Accumulation
0.79 0.67 0.61 0.66 0.77 0.83 0.85 0.91 0.90 0.62 0.40 0.34 0.25 0.12 0.12 0.07 0.02 0.03 0.06 0.09 0.22 0.12 0.02 0.00 0.00 0.01 0.01 0.02 0.03 0.01 0.02 0.02 0.06 0.14 0.13 0.07 0.03 0.01 0.00 0.00 0.00 0.02 0.04 0.06 0.07 0.09 0.01 0.00 0.00 0.00 0.00 0.00 0.00 0.00
0.71 0.70 0.59 0.59 0.69 0.74 0.84 0.91 0.96 0.89 0.50 0.36 0.26 0.11 0.19 0.12 0.09 0.07 0.04 0.08 0.15 0.14 0.04 0.00 0.00 0.00 0.00 0.01 0.01 0.00 0.03 0.01 0.04 0.12 0.16 0.10 0.04 0.01 0.00 0.00 0.00 0.00 0.00 0.00 0.00 0.00 0.00 0.00 0.00 0.00 0.00 0.00 0.00 0.01
0.60 0.63 0.66 0.69 0.86 0.76 0.70 0.67 0.62 0.54 0.41 0.28 0.22 0.12 0.15 0.15 0.16 0.23 0.10 0.04 0.10 0.13 0.02 0.00 0.01 0.00 0.00 0.00 0.01 0.01 0.02 0.01 0.04 0.12 0.26 0.11 0.06 0.04 0.02 0.01 0.00 0.00 0.00 0.00 0.00 0.00 0.00 0.00 0.00 0.00 0.00 0.00 0.00 0.02
0.74 0.62 0.68 0.69 0.90 1.06 0.85 0.70 0.53 0.39 0.32 0.23 0.19 0.12 0.11 0.13 0.21 0.17 0.05 0.06 0.12 0.12 0.10 0.02 0.00 0.00 0.00 0.00 0.01 0.02 0.04 0.02 0.08 0.16 0.18 0.14 0.06 0.03 0.02 0.01 0.00 0.01 0.00 0.00 0.00 0.00 0.00 0.00 0.00 0.00 0.00 0.00 0.00 0.00
0.69 0.86 0.80 0.72 0.66 0.87 1.42 1.12 0.60 0.38 0.29 0.20 0.16 0.11 0.13 0.17 0.11 0.06 0.02 0.04 0.08 0.16 0.20 0.05 0.05 0.00 0.00 0.01 0.04 0.04 0.08 0.15 0.15 0.27 0.31 0.16 0.07 0.05 0.01 0.00 0.00 0.00 0.00 0.00 0.00 0.00 0.00 0.00 0.00 0.00 0.00 0.00 0.00 0.00
0.64 0.72 1.15 1.06 0.70 0.55 0.62 0.92 0.65 0.34 0.25 0.23 0.13 0.15 0.15 0.08 0.10 0.07 0.08 0.23 0.16 0.16 0.38 0.18 0.23 0.03 0.03 0.05 0.14 0.15 0.17 0.30 0.40 0.30 0.28 0.28 0.14 0.15 0.12 0.03 0.00 0.00 0.00 0.00 0.00 0.00 0.00 0.00 0.00 0.00 0.00 0.00 0.00 0.00
0.71 0.62 0.79 1.36 1.14 0.77 0.60 0.54 0.40 0.27 0.24 0.16 0.14 0.12 0.04 0.03 0.07 0.04 0.13 0.56 0.28 0.21 0.34 0.41 0.58 0.15 0.13 0.21 0.20 0.41 0.29 0.47 0.50 0.46 0.29 0.21 0.22 0.48 0.31 0.05 0.00 0.00 0.00 0.00 0.00 0.00 0.00 0.00 0.00 0.00 0.00 0.00 0.00 0.00
0.97 0.75 0.70 0.97 1.24 0.85 0.69 0.46 0.27 0.20 0.14 0.11 0.08 0.02 0.01 0.06 0.03 0.03 0.02 0.10 0.28 0.64 0.61 0.89 0.88 0.45 0.49 0.56 0.44 0.55 0.56 0.66 0.74 0.61 0.28 0.29 0.27 0.34 0.20 0.01 0.01 0.02 0.01 0.01 0.01 0.00 0.00 0.00 0.00 0.00 0.00 0.00 0.00 0.00
0.94 0.91 0.65 0.68 0.96 0.71 0.62 0.42 0.22 0.14 0.09 0.03 0.01 0.01 0.13 0.08 0.04 0.03 0.05 0.15 0.45 0.91 0.79 0.70 0.67 0.62 0.68 0.67 0.65 0.56 0.82 0.72 0.65 0.49 0.19 0.27 0.35 0.32 0.07 0.04 0.05 0.08 0.14 0.16 0.17 0.11 0.05 0.02 0.02 0.02 0.02 0.01 0.01 0.02
0.88 0.93 0.65 0.71 0.75 0.53 0.44 0.28 0.14 0.10 0.03 0.00 0.00 0.02 0.10 0.01 0.00 0.06 0.28 0.67 0.79 0.72 0.50 0.53 0.61 0.67 0.88 0.67 0.56 0.61 0.64 0.50 0.60 0.31 0.22 0.23 0.16 0.07 0.05 0.07 0.08 0.08 0.19 0.26 0.33 0.36 0.30 0.18 0.06 0.04 0.07 0.10 0.09 0.08
0.81 0.85 0.63 0.63 0.62 0.38 0.31 0.16 0.10 0.03 0.01 0.00 0.00 0.01 0.02 0.00 0.15 0.47 0.75 0.74 0.55 0.36 0.30 0.37 0.52 0.47 0.41 0.52 0.48 0.57 0.74 0.40 0.45 0.55 0.30 0.24 0.22 0.15 0.07 0.03 0.02 0.02 0.05 0.09 0.15 0.32 0.38 0.26 0.22 0.12 0.11 0.17 0.24 0.23
0.69 0.77 0.56 0.51 0.46 0.31 0.22 0.09 0.04 0.01 0.01 0.01 0.02 0.01 0.02 0.13 0.38 0.49 0.60 0.46 0.21 0.15 0.21 0.38 0.37 0.35 0.26 0.30 0.38 0.39 0.44 0.36 0.41 0.56 0.40 0.30 0.27 0.12 0.15 0.15 0.09 0.05 0.10 0.06 0.09 0.13 0.14 0.12 0.16 0.18 0.13 0.13 0.15 0.24
0.65 0.64 0.52 0.46 0.38 0.26 0.12 0.04 0.01 0.00 0.01 0.01 0.01 0.01 0.06 0.15 0.27 0.32 0.34 0.27 0.07 0.07 0.10 0.11 0.21 0.21 0.24 0.29 0.20 0.24 0.18 0.10 0.21 0.37 0.44 0.20 0.03 0.03 0.02 0.03 0.10 0.23 0.32 0.24 0.11 0.15 0.16 0.17 0.15 0.12 0.13 0.11 0.08 0.07
0.72 0.58 0.51 0.48 0.36 0.19 0.07 0.03 0.02 0.00 0.01 0.00 0.00 0.00 0.06 0.09 0.14 0.14 0.12 0.11 0.05 0.04 0.03 0.05 0.10 0.14 0.24 0.18 0.19 0.16 0.05 0.08 0.25 0.28 0.17 0.06 0.06 0.03 0.00 0.00 0.00 0.03 0.13 0.29 0.35 0.41 0.39 0.46 0.43 0.44 0.45 0.40 0.31 0.24
0.84 0.59 0.57 0.47 0.33 0.15 0.09 0.04 0.01 0.01 0.00 0.00 0.00 0.00 0.01 0.03 0.02 0.01 0.02 0.04 0.03 0.04 0.05 0.03 0.05 0.05 0.12 0.16 0.12 0.15 0.11 0.30 0.37 0.21 0.14 0.08 0.03 0.01 0.01 0.01 0.00 0.00 0.01 0.01 0.07 0.24 0.32 0.38 0.49 0.44 0.39 0.31 0.23 0.21
1.07 0.95 0.72 0.47 0.22 0.12 0.08 0.02 0.00 0.00 0.00 0.00 0.00 0.00 0.00 0.01 0.00 0.00 0.00 0.01 0.01 0.03 0.06 0.09 0.12 0.11 0.08 0.18 0.15 0.10 0.16 0.35 0.32 0.14 0.06 0.01 0.01 0.04 0.02 0.02 0.01 0.00 0.00 0.00 0.00 0.02 0.06 0.07 0.11 0.12 0.10 0.18 0.23 0.21
1.38 1.25 0.74 0.37 0.15 0.07 0.04 0.01 0.00 0.00 0.00 0.00 0.00 0.00 0.00 0.00 0.00 0.00 0.00 0.00 0.01 0.06 0.20 0.30 0.25 0.10 0.09 0.12 0.05 0.05 0.18 0.16 0.07 0.03 0.02 0.01 0.01 0.05 0.05 0.02 0.02 0.02 0.03 0.04 0.03 0.06 0.10 0.10 0.14 0.19 0.14 0.09 0.10 0.16
0.68 0.46 0.43 0.22 0.07 0.04 0.03 0.00 0.00 0.00 0.01 0.00 0.01 0.00 0.00 0.00 0.00 0.00 0.00 0.00 0.01 0.08 0.26 0.52 0.31 0.18 0.06 0.03 0.02 0.02 0.02 0.03 0.02 0.01 0.00 0.00 0.00 0.02 0.04 0.02 0.01 0.04 0.08 0.21 0.23 0.18 0.15 0.16 0.16 0.14 0.12 0.09 0.07 0.08
0.33 0.29 0.31 0.14 0.11 0.11 0.08 0.04 0.00 0.01 0.01 0.00 0.00 0.00 0.00 0.00 0.01 0.01 0.01 0.00 0.01 0.04 0.14 0.30 0.29 0.09 0.00 0.00 0.01 0.01 0.00 0.00 0.00 0.00 0.01 0.00 0.00 0.02 0.06 0.08 0.08 0.06 0.07 0.13 0.13 0.10 0.08 0.06 0.05 0.07 0.09 0.08 0.06 0.05
0.45 0.54 0.45 0.31 0.15 0.15 0.12 0.04 0.01 0.00 0.00 0.00 0.00 0.00 0.00 0.01 0.01 0.01 0.01 0.01 0.02 0.08 0.12 0.12 0.05 0.02 0.02 0.04 0.06 0.04 0.01 0.01 0.00 0.00 0.01 0.01 0.00 0.00 0.00 0.02 0.05 0.05 0.05 0.05 0.06 0.07 0.07 0.05 0.05 0.06 0.08 0.08 0.07 0.06
0.91 0.80 0.57 0.28 0.20 0.13 0.10 0.01 0.01 0.00 0.00 0.00 0.01 0.00 0.00 0.00 0.00 0.00 0.02 0.03 0.06 0.06 0.04 0.02 0.02 0.02 0.04 0.05 0.06 0.05 0.03 0.02 0.01 0.00 0.00 0.00 0.00 0.00 0.00 0.00 0.01 0.02 0.02 0.02 0.01 0.02 0.04 0.03 0.05 0.07 0.05 0.05 0.08 0.09
0.53 0.36 0.32 0.40 0.27 0.21 0.14 0.03 0.01 0.01 0.01 0.01 0.02 0.01 0.00 0.00 0.00 0.01 0.02 0.04 0.02 0.01 0.01 0.02 0.03 0.05 0.05 0.06 0.07 0.07 0.05 0.02 0.01 0.01 0.00 0.00 0.00 0.00 0.00 0.00 0.01 0.00 0.00 0.00 0.00 0.00 0.01 0.01 0.03 0.03 0.03 0.05 0.08 0.10
0.30 0.37 0.40 0.37 0.35 0.33 0.19 0.05 0.04 0.03 0.02 0.02 0.02 0.00 0.00 0.00 0.01 0.02 0.02 0.00 0.00 0.00 0.00 0.02 0.04 0.07 0.10 0.10 0.14 0.12 0.11 0.08 0.04 0.02 0.01 0.01 0.00 0.00 0.01 0.00 0.00 0.00 0.00 0.00 0.00 0.00 0.00 0.00 0.00 0.00 0.02 0.04 0.06 0.07
0.31 0.46 0.50 0.41 0.26 0.17 0.10 0.06 0.05 0.03 0.04 0.03 0.01 0.00 0.00 0.00 0.03 0.02 0.00 0.00 0.00 0.00 0.00 0.01 0.02 0.03 0.04 0.06 0.09 0.16 0.22 0.21 0.15 0.10 0.06 0.04 0.02 0.01 0.01 0.01 0.00 0.00 0.00 0.00 0.00 0.00 0.00 0.00 0.00 0.00 0.00 0.00 0.01 0.03
0.98 0.88 0.44 0.36 0.18 0.09 0.05 0.05 0.04 0.03 0.03 0.03 0.02 0.00 0.00 0.02 0.01 0.00 0.00 0.00 0.00 0.00 0.00 0.00 0.01 0.03 0.03 0.03 0.05 0.07 0.10 0.18 0.19 0.18 0.18 0.18 0.11 0.08 0.05 0.03 0.02 0.01 0.00 0.00 0.00 0.00 0.00 0.00 0.00 0.00 0.00 0.00 0.00 0.02
0.79 0.36 0.17 0.04 0.05 0.02 0.00 0.02 0.02 0.02 0.02 0.03 0.02 0.00 0.01 0.01 0.00 0.00 0.00 0.00 0.00 0.00 0.00 0.00 0.00 0.01 0.02 0.03 0.04 0.07 0.09 0.13 0.14 0.11 0.10 0.19 0.20 0.19 0.16 0.12 0.08 0.04 0.02 0.03 0.03 0.02 0.01 0.01 0.00 0.00 0.00 0.00 0.01 0.03
0.39 0.19 0.10 0.02 0.01 0.01 0.01 0.01 0.02 0.03 0.02 0.01 0.00 0.01 0.02 0.02 0.00 0.00 0.00 0.00 0.00 0.00 0.00 0.00 0.00 0.00 0.00 0.01 0.03 0.05 0.07 0.11 0.13 0.09 0.10 0.13 0.14 0.14 0.15 0.14 0.12 0.09 0.09 0.11 0.11 0.09 0.05 0.04 0.03 0.03 0.04 0.04 0.04 0.03
0.09 0.00 0.02 0.03 0.01 0.01 0.03 0.04 0.04 0.02 0.01 0.01 0.02 0.02 0.04 0.02 0.00 0.00 0.00 0.00 0.00 0.00 0.00 0.00 0.00 0.00 0.00 0.01 0.02 0.04 0.06 0.09 0.12 0.11 0.12 0.14 0.13 0.13 0.14 0.16 0.22 0.27 0.27 0.20 0.15 0.16 0.17 0.15 0.12 0.11 0.13 0.11 0.09 0.07
0.03 0.01 0.01 0.03 0.03 0.02 0.03 0.03 0.02 0.01 0.00 0.01 0.02 0.01 0.00 0.00 0.00 0.00 0.00 0.00 0.00 0.00 0.00 0.00 0.00 0.00 0.00 0.01 0.03 0.04 0.06 0.09 0.12 0.10 0.08 0.09 0.13 0.16 0.20 0.26 0.35 0.41 0.41 0.36 0.32 0.25 0.24 0.25 0.26 0.26 0.25 0.22 0.19 0.19
0.02 0.01 0.01 0.01 0.01 0.01 0.01 0.01 0.00 0.00 0.00 0.00 0.00 0.00 0.00 0.00 0.00 0.00 0.00 0.00 0.00 0.00 0.00 0.00 0.00 0.01 0.01 0.02 0.04 0.04 0.05 0.06 0.09 0.09 0.09 0.09 0.12 0.17 0.23 0.28 0.36 0.45 0.45 0.41 0.49 0.56 0.52 0.52 0.54 0.52 0.47 0.41 0.35 0.31
0.00 0.00 0.00 0.00 0.00 0.00 0.00 0.00 0.00 0.00 0.00 0.00 0.00 0.00 0.00 0.00 0.00 0.00 0.00 0.00 0.00 0.00 0.00 0.00 0.01 0.01 0.02 0.04 0.06 0.08 0.08 0.09 0.11 0.12 0.14 0.17 0.19 0.21 0.27 0.34 0.37 0.43 0.48 0.48 0.44 0.42 0.40 0.34 0.30 0.28 0.30 0.30 0.27 0.23
0.01 0.01 0.01 0.00 0.00 0.00 0.00 0.00 0.00 0.00 0.00 0.00 0.00 0.00 0.00 0.00 0.00 0.00 0.00 0.00 0.00 0.01 0.01 0.02 0.03 0.04 0.06 0.08 0.11 0.14 0.17 0.17 0.16 0.17 0.19 0.20 0.22 0.25 0.30 0.36 0.43 0.45 0.48 0.48 0.43 0.40 0.36 0.37 0.38 0.37 0.39 0.39 0.37 0.31
0.06 0.04 0.02 0.01 0.00 0.00 0.00 0.00 0.00 0.00 0.00 0.00 0.00 0.00 0.00 0.00 0.00 0.00 0.00 0.00 0.01 0.02 0.03 0.05 0.07 0.10 0.13 0.15 0.18 0.21 0.24 0.28 0.30 0.32 0.37 0.36 0.33 0.36 0.42 0.45 0.44 0.44 0.42 0.42 0.46 0.48 0.48 0.45 0.42 0.39 0.37 0.36 0.35 0.33

GFSWCAN_prec_precacc_066.txt.gz
Total_Precipitation_Accumulation
0.83 0.71 0.65 0.69 0.78 0.84 0.86 0.95 1.02 0.88 0.63 0.44 0.36 0.29 0.21 0.09 0.03 0.03 0.06 0.09 0.22 0.12 0.02 0.00 0.00 0.01 0.01 0.02 0.03 0.01 0.02 0.02 0.06 0.14 0.13 0.07 0.03 0.01 0.00 0.00 0.00 0.02 0.04 0.06 0.07 0.09 0.01 0.00 0.00 0.00 0.00 0.00 0.00 0.00
0.75 0.74 0.62 0.60 0.70 0.75 0.84 0.98 1.14 1.18 1.02 0.68 0.46 0.22 0.21 0.13 0.09 0.07 0.04 0.08 0.15 0.14 0.04 0.00 0.00 0.00 0.00 0.01 0.01 0.00 0.03 0.01 0.04 0.12 0.16 0.10 0.04 0.01 0.00 0.00 0.00 0.00 0.00 0.00 0.00 0.00 0.00 0.00 0.00 0.00 0.00 0.00 0.00 0.01
0.63 0.66 0.67 0.70 0.87 0.76 0.71 0.70 0.69 0.64 0.61 0.50 0.37 0.19 0.16 0.17 0.16 0.23 0.10 0.04 0.10 0.13 0.02 0.00 0.01 0.00 0.00 0.00 0.01 0.01 0.02 0.01 0.04 0.12 0.26 0.11 0.06 0.04 0.02 0.01 0.00 0.00 0.00 0.00 0.00 0.00 0.00 0.00 0.00 0.00 0.00 0.00 0.00 0.02
0.76 0.63 0.69 0.70 0.90 1.06 0.85 0.71 0.59 0.56 0.45 0.33 0.28 0.14 0.13 0.14 0.21 0.17 0.05 0.06 0.12 0.12 0.10 0.02 0.00 0.00 0.00 0.00 0.01 0.02 0.04 0.02 0.08 0.16 0.18 0.14 0.06 0.03 0.02 0.01 0.00 0.01 0.00 0.00 0.00 0.00 0.00 0.00 0.00 0.00 0.00 0.00 0.00 0.00
0.70 0.87 0.80 0.73 0.66 0.88 1.47 1.23 0.70 0.55 0.46 0.34 0.24 0.13 0.14 0.17 0.11 0.06 0.02 0.04 0.08 0.16 0.20 0.05 0.05 0.00 0.00 0.01 0.04 0.04 0.08 0.15 0.15 0.27 0.31 0.16 0.07 0.05 0.01 0.00 0.00 0.00 0.00 0.00 0.00 0.00 0.00 0.00 0.00 0.00 0.00 0.00 0.00 0.00
0.66 0.72 1.16 1.06 0.70 0.57 0.73 1.23 0.88 0.49 0.43 0.41 0.21 0.17 0.16 0.08 0.10 0.07 0.08 0.23 0.16 0.16 0.38 0.18 0.23 0.03 0.03 0.05 0.14 0.15 0.17 0.30 0.40 0.30 0.28 0.28 0.14 0.15 0.12 0.03 0.00 0.00 0.00 0.00 0.00 0.00 0.00 0.00 0.00 0.00 0.00 0.00 0.00 0.00
0.72 0.63 0.79 1.36 1.15 0.78 0.62 0.59 0.63 0.40 0.38 0.31 0.18 0.14 0.05 0.03 0.07 0.04 0.13 0.56 0.28 0.21 0.34 0.41 0.58 0.15 0.13 0.21 0.20 0.41 0.29 0.47 0.50 0.46 0.29 0.21 0.22 0.48 0.31 0.05 0.00 0.00 0.00 0.00 0.00 0.00 0.00 0.00 0.00 0.00 0.00 0.00 0.00 0.00
0.98 0.76 0.70 0.98 1.24 0.86 0.71 0.53 0.35 0.30 0.27 0.17 0.09 0.03 0.04 0.06 0.03 0.03 0.02 0.10 0.28 0.64 0.61 0.89 0.88 0.45 0.49 0.56 0.44 0.55 0.56 0.66 0.74 0.61 0.28 0.29 0.27 0.34 0.20 0.01 0.01 0.02 0.01 0.01 0.01 0.00 0.00 0.00 0.00 0.00 0.00 0.00 0.00 0.00
0.95 0.91 0.65 0.68 0.96 0.71 0.67 0.55 0.33 0.23 0.14 0.04 0.01 0.01 0.13 0.08 0.04 0.03 0.05 0.15 0.45 0.91 0.79 0.70 0.67 0.62 0.68 0.67 0.65 0.56 0.82 0.72 0.65 0.49 0.19 0.27 0.35 0.32 0.07 0.04 0.05 0.08 0.14 0.16 0.17 0.11 0.05 0.02 0.02 0.02 0.02 0.01 0.01 0.02
0.89 0.93 0.66 0.74 0.77 0.56 0.50 0.35 0.21 0.13 0.03 0.00 0.00 0.02 0.10 0.01 0.00 0.06 0.28 0.67 0.79 0.72 0.50 0.53 0.61 0.67 0.88 0.67 0.56 0.61 0.64 0.50 0.60 0.31 0.22 0.23 0.16 0.07 0.05 0.07 0.08 0.08 0.19 0.26 0.33 0.36 0.30 0.18 0.06 0.04 0.07 0.10 0.09 0.08
0.81 0.85 0.66 0.80 0.68 0.47 0.37 0.19 0.11 0.03 0.01 0.00 0.00 0.01 0.02 0.00 0.15 0.47 0.75 0.74 0.55 0.36 0.30 0.37 0.52 0.47 0.41 0.52 0.48 0.57 0.74 0.40 0.45 0.55 0.30 0.24 0.22 0.15 0.07 0.03 0.02 0.02 0.05 0.09 0.15 0.32 0.38 0.26 0.22 0.12 0.11 0.17 0.24 0.23
0.70 0.78 0.61 0.78 0.58 0.43 0.27 0.10 0.04 0.01 0.01 0.01 0.02 0.01 0.02 0.13 0.38 0.49 0.60 0.46 0.21 0.15 0.21 0.38 0.37 0.35 0.26 0.30 0.38 0.39 0.44 0.36 0.41 0.56 0.40 0.30 0.27 0.12 0.15 0.15 0.09 0.05 0.10 0.06 0.09 0.13 0.14 0.12 0.16 0.18 0.13 0.13 0.15 0.24
0.65 0.64 0.58 0.69 0.51 0.38 0.16 0.04 0.01 0.00 0.01 0.01 0.01 0.01 0.06 0.15 0.27 0.32 0.34 0.27 0.07 0.07 0.10 0.11 0.21 0.21 0.24 0.29 0.20 0.24 0.18 0.10 0.21 0.37 0.44 0.20 0.03 0.03 0.02 0.03 0.10 0.23 0.32 0.24 0.11 0.15 0.16 0.17 0.15 0.12 0.13 0.11 0.08 0.07
0.72 0.60 0.61 0.63 0.48 0.28 0.08 0.03 0.02 0.00 0.01 0.00 0.00 0.00 0.06 0.09 0.14 0.14 0.12 0.11 0.05 0.04 0.03 0.05 0.10 0.14 0.24 0.18 0.19 0.16 0.05 0.08 0.25 0.28 0.17 0.06 0.06 0.03 0.00 0.00 0.00 0.03 0.13 0.29 0.35 0.41 0.39 0.46 0.43 0.44 0.45 0.40 0.31 0.24
0.85 0.67 0.69 0.59 0.43 0.21 0.09 0.04 0.01 0.01 0.00 0.00 0.00 0.00 0.01 0.03 0.02 0.01 0.02 0.04 0.03 0.04 0.05 0.03 0.05 0.05 0.12 0.16 0.12 0.15 0.11 0.30 0.37 0.21 0.14 0.08 0.03 0.01 0.01 0.01 0.00 0.00 0.01 0.01 0.07 0.24 0.32 0.38 0.49 0.44 0.39 0.31 0.23 0.21
1.11 1.17 0.93 0.62 0.32 0.14 0.08 0.02 0.00 0.00 0.00 0.00 0.00 0.00 0.00 0.01 0.00 0.00 0.00 0.01 0.01 0.03 0.06 0.09 0.12 0.11 0.08 0.18 0.15 0.10 0.16 0.35 0.32 0.14 0.06 0.01 0.01 0.04 0.02 0.02 0.01 0.00 0.00 0.00 0.00 0.02 0.06 0.07 0.11 0.12 0.10 0.18 0.23 0.21
1.57 1.61 1.02 0.53 0.20 0.08 0.04 0.01 0.00 0.00 0.00 0.00 0.00 0.00 0.00 0.01 0.00 0.00 0.00 0.00 0.01 0.06 0.20 0.30 0.25 0.10 0.09 0.12 0.05 0.05 0.18 0.16 0.07 0.03 0.02 0.01 0.01 0.05 0.05 0.02 0.02 0.02 0.03 0.04 0.03 0.06 0.10 0.10 0.14 0.19 0.14 0.09 0.10 0.16
0.78 0.57 0.62 0.33 0.08 0.04 0.03 0.01 0.00 0.00 0.01 0.00 0.01 0.00 0.00 0.00 0.00 0.00 0.00 0.00 0.01 0.08 0.26 0.52 0.31 0.18 0.06 0.03 0.02 0.02 0.02 0.03 0.02 0.01 0.00 0.00 0.00 0.02 0.04 0.02 0.01 0.04 0.08 0.21 0.23 0.18 0.15 0.16 0.16 0.14 0.12 0.09 0.07 0.08
0.39 0.38 0.41 0.16 0.11 0.11 0.08 0.04 0.00 0.01 0.01 0.00 0.00 0.00 0.00 0.00 0.01 0.01 0.01 0.00 0.01 0.04 0.14 0.30 0.29 0.09 0.00 0.00 0.01 0.01 0.00 0.00 0.00 0.00 0.01 0.00 0.00 0.02 0.06 0.08 0.08 0.06 0.07 0.13 0.13 0.10 0.08 0.06 0.05 0.07 0.09 0.08 0.06 0.05
0.52 0.61 0.47 0.31 0.15 0.15 0.12 0.04 0.01 0.00 0.00 0.00 0.00 0.00 0.01 0.01 0.01 0.01 0.01 0.01 0.02 0.08 0.12 0.12 0.05 0.02 0.02 0.04 0.06 0.04 0.01 0.01 0.00 0.00 0.01 0.01 0.00 0.00 0.00 0.02 0.05 0.05 0.05 0.05 0.06 0.07 0.07 0.05 0.05 0.06 0.08 0.08 0.07 0.06
1.05 0.84 0.57 0.28 0.20 0.13 0.10 0.01 0.01 0.00 0.00 0.00 0.01 0.00 0.00 0.00 0.00 0.00 0.02 0.03 0.06 0.06 0.04 0.02 0.02 0.02 0.04 0.05 0.06 0.05 0.03 0.02 0.01 0.00 0.00 0.00 0.00 0.00 0.00 0.00 0.01 0.02 0.02 0.02 0.01 0.02 0.04 0.03 0.05 0.07 0.05 0.05 0.08 0.09
0.72 0.40 0.32 0.40 0.27 0.21 0.14 0.03 0.01 0.01 0.01 0.01 0.02 0.01 0.00 0.00 0.00 0.01 0.02 0.04 0.02 0.01 0.01 0.02 0.03 0.05 0.05 0.06 0.07 0.07 0.05 0.02 0.01 0.01 0.00 0.00 0.00 0.00 0.00 0.00 0.01 0.00 0.00 0.00 0.00 0.00 0.01 0.01 0.03 0.03 0.03 0.05 0.08 0.10
0.33 0.37 0.40 0.37 0.35 0.33 0.19 0.05 0.04 0.03 0.02 0.02 0.02 0.01 0.00 0.00 0.01 0.02 0.02 0.00 0.00 0.00 0.00 0.02 0.04 0.07 0.10 0.10 0.14 0.12 0.11 0.08 0.04 0.02 0.01 0.01 0.00 0.00 0.01 0.00 0.00 0.00 0.00 0.00 0.00 0.00 0.00 0.00 0.00 0.00 0.02 0.04 0.06 0.07
0.31 0.47 0.51 0.42 0.26 0.17 0.10 0.06 0.05 0.03 0.04 0.03 0.02 0.00 0.00 0.00 0.03 0.02 0.00 0.00 0.00 0.00 0.00 0.01 0.02 0.03 0.04 0.06 0.09 0.16 0.22 0.21 0.15 0.10 0.06 0.04 0.02 0.01 0.01 0.01 0.00 0.00 0.00 0.00 0.00 0.00 0.00 0.00 0.00 0.00 0.00 0.00 0.01 0.03
1.03 0.90 0.45 0.37 0.18 0.09 0.05 0.05 0.04 0.03 0.03 0.03 0.03 0.01 0.00 0.02 0.01 0.00 0.00 0.00 0.00 0.00 0.00 0.00 0.01 0.03 0.03 0.03 0.05 0.07 0.10 0.18 0.19 0.18 0.18 0.18 0.11 0.08 0.05 0.03 0.02 0.01 0.00 0.00 0.00 0.00 0.00 0.00 0.00 0.00 0.00 0.00 0.00 0.02
0.82 0.38 0.17 0.04 0.05 0.02 0.00 0.02 0.02 0.02 0.02 0.04 0.04 0.01 0.01 0.01 0.00 0.00 0.00 0.00 0.00 0.00 0.00 0.00 0.00 0.01 0.02 0.03 0.04 0.07 0.09 0.13 0.14 0.11 0.10 0.19 0.20 0.19 0.16 0.12 0.08 0.04 0.02 0.03 0.03 0.02 0.01 0.01 0.00 0.01 0.01 0.00 0.02 0.03
0.41 0.19 0.10 0.02 0.01 0.01 0.01 0.01 0.02 0.03 0.03 0.02 0.01 0.01 0.02 0.02 0.00 0.00 0.00 0.00 0.00 0.00 0.00 0.00 0.00 0.00 0.00 0.01 0.03 0.05 0.07 0.11 0.13 0.09 0.10 0.13 0.14 0.14 0.15 0.14 0.12 0.09 0.09 0.11 0.11 0.09 0.06 0.04 0.03 0.03 0.05 0.04 0.04 0.04
0.11 0.00 0.02 0.03 0.01 0.01 0.03 0.04 0.04 0.03 0.02 0.01 0.02 0.02 0.04 0.02 0.00 0.00 0.00 0.00 0.00 0.00 0.00 0.00 0.00 0.00 0.00 0.01 0.02 0.04 0.06 0.09 0.12 0.11 0.12 0.14 0.13 0.13 0.14 0.16 0.22 0.27 0.27 0.20 0.15 0.16 0.17 0.15 0.12 0.11 0.14 0.12 0.09 0.07
0.03 0.01 0.01 0.03 0.03 0.02 0.04 0.04 0.03 0.01 0.01 0.01 0.02 0.01 0.00 0.00 0.00 0.00 0.00 0.00 0.00 0.00 0.00 0.00 0.00 0.00 0.00 0.01 0.03 0.04 0.06 0.09 0.12 0.10 0.08 0.09 0.13 0.16 0.20 0.26 0.35 0.41 0.41 0.36 0.32 0.25 0.24 0.25 0.28 0.28 0.25 0.23 0.19 0.19
0.02 0.01 0.01 0.01 0.01 0.02 0.02 0.02 0.02 0.01 0.00 0.00 0.00 0.00 0.00 0.00 0.00 0.00 0.00 0.00 0.00 0.00 0.00 0.00 0.00 0.01 0.01 0.02 0.04 0.04 0.05 0.06 0.09 0.09 0.09 0.09 0.12 0.17 0.23 0.28 0.36 0.45 0.45 0.41 0.49 0.56 0.52 0.52 0.55 0.52 0.47 0.41 0.35 0.31
0.00 0.00 0.01 0.02 0.03 0.03 0.03 0.03 0.01 0.00 0.00 0.00 0.00 0.00 0.00 0.00 0.00 0.00 0.00 0.00 0.00 0.00 0.00 0.00 0.01 0.01 0.02 0.04 0.06 0.08 0.08 0.09 0.11 0.12 0.14 0.17 0.19 0.21 0.27 0.34 0.37 0.43 0.48 0.48 0.44 0.42 0.40 0.34 0.30 0.29 0.30 0.30 0.27 0.24
0.02 0.02 0.03 0.04 0.05 0.05 0.02 0.01 0.00 0.00 0.00 0.00 0.00 0.00 0.00 0.00 0.00 0.00 0.00 0.00 0.00 0.01 0.01 0.02 0.03 0.04 0.06 0.08 0.11 0.14 0.17 0.17 0.16 0.17 0.19 0.20 0.22 0.25 0.30 0.37 0.43 0.46 0.48 0.48 0.44 0.40 0.36 0.37 0.38 0.37 0.39 0.39 0.37 0.31
0.09 0.07 0.06 0.04 0.02 0.01 0.01 0.00 0.00 0.00 0.00 0.00 0.00 0.00 0.00 0.00 0.00 0.00 0.00 0.00 0.01 0.02 0.03 0.05 0.07 0.10 0.13 0.15 0.18 0.21 0.24 0.28 0.30 0.32 0.37 0.36 0.33 0.36 0.42 0.45 0.44 0.44 0.42 0.43 0.46 0.48 0.48 0.45 0.42 0.39 0.37 0.36 0.35 0.33

GFSWCAN_prec_precacc_069.txt.gz
Total_Precipitation_Accumulation
0.85 0.74 0.68 0.71 0.81 0.86 0.87 0.96 1.02 0.92 0.68 0.50 0.44 0.33 0.28 0.17 0.08 0.03 0.06 0.09 0.22 0.12 0.02 0.00 0.00 0.01 0.01 0.02 0.03 0.01 0.02 0.02 0.06 0.14 0.13 0.07 0.03 0.01 0.00 0.00 0.00 0.02 0.04 0.06 0.07 0.09 0.01 0.00 0.00 0.00 0.00 0.00 0.00 0.00
0.76 0.76 0.65 0.62 0.72 0.76 0.85 0.98 1.14 1.20 1.08 0.86 0.59 0.32 0.26 0.17 0.10 0.07 0.04 0.08 0.15 0.14 0.04 0.00 0.00 0.00 0.00 0.01 0.01 0.00 0.03 0.01 0.04 0.12 0.16 0.10 0.04 0.01 0.00 0.00 0.00 0.00 0.00 0.00 0.00 0.00 0.00 0.00 0.00 0.00 0.00 0.00 0.00 0.01
0.64 0.67 0.70 0.71 0.88 0.77 0.71 0.70 0.70 0.65 0.69 0.69 0.54 0.31 0.19 0.18 0.16 0.23 0.10 0.04 0.10 0.13 0.02 0.00 0.01 0.00 0.00 0.00 0.01 0.01 0.02 0.01 0.04 0.12 0.26 0.11 0.06 0.04 0.02 0.01 0.00 0.00 0.00 0.00 0.00 0.00 0.00 0.00 0.00 0.00 0.00 0.00 0.00 0.02
0.77 0.64 0.70 0.71 0.90 1.06 0.85 0.71 0.59 0.56 0.53 0.46 0.38 0.23 0.15 0.16 0.21 0.17 0.05 0.06 0.12 0.12 0.10 0.02 0.00 0.00 0.00 0.00 0.01 0.02 0.04 0.02 0.08 0.16 0.18 0.14 0.06 0.03 0.02 0.01 0.00 0.01 0.00 0.00 0.00 0.00 0.00 0.00 0.00 0.00 0.00 0.00 0.00 0.00
0.71 0.88 0.81 0.73 0.67 0.88 1.47 1.23 0.70 0.55 0.55 0.41 0.28 0.14 0.15 0.17 0.11 0.06 0.02 0.04 0.08 0.16 0.20 0.05 0.05 0.00 0.00 0.01 0.04 0.04 0.08 0.15 0.15 0.27 0.31 0.16 0.07 0.05 0.01 0.00 0.00 0.00 0.00 0.00 0.00 0.00 0.00 0.00 0.00 0.00 0.00 0.00 0.00 0.00
0.67 0.73 1.16 1.07 0.71 0.57 0.77 1.28 0.89 0.53 0.48 0.45 0.23 0.18 0.17 0.08 0.10 0.07 0.08 0.23 0.16 0.16 0.38 0.18 0.23 0.03 0.03 0.05 0.14 0.15 0.17 0.30 0.40 0.30 0.28 0.28 0.14 0.15 0.12 0.03 0.00 0.00 0.00 0.00 0.00 0.00 0.00 0.00 0.00 0.00 0.00 0.00 0.00 0.00
0.73 0.63 0.80 1.37 1.15 0.78 0.68 0.78 0.73 0.47 0.45 0.34 0.19 0.14 0.05 0.03 0.07 0.04 0.13 0.56 0.28 0.21 0.34 0.41 0.58 0.15 0.13 0.21 0.20 0.41 0.29 0.47 0.50 0.46 0.29 0.21 0.22 0.48 0.31 0.05 0.00 0.00 0.00 0.00 0.00 0.00 0.00 0.00 0.00 0.00 0.00 0.00 0.00 0.00
0.98 0.76 0.71 0.98 1.24 0.86 0.75 0.64 0.44 0.35 0.35 0.20 0.09 0.03 0.04 0.06 0.03 0.03 0.02 0.10 0.28 0.64 0.61 0.89 0.88 0.45 0.49 0.56 0.44 0.55 0.56 0.66 0.74 0.61 0.28 0.29 0.27 0.34 0.20 0.01 0.01 0.02 0.01 0.01 0.01 0.00 0.00 0.00 0.00 0.00 0.00 0.00 0.00 0.00
0.95 0.91 0.66 0.69 0.96 0.72 0.70 0.70 0.36 0.25 0.18 0.06 0.01 0.01 0.13 0.08 0.04 0.03 0.05 0.15 0.45 0.91 0.79 0.70 0.67 0.62 0.68 0.67 0.65 0.56 0.82 0.72 0.65 0.49 0.19 0.27 0.35 0.32 0.07 0.04 0.05 0.08 0.14 0.16 0.17 0.11 0.05 0.02 0.02 0.02 0.02 0.01 0.01 0.02
0.89 0.93 0.66 0.74 0.77 0.56 0.57 0.48 0.25 0.15 0.06 0.00 0.00 0.02 0.10 0.01 0.00 0.06 0.28 0.67 0.79 0.72 0.50 0.53 0.61 0.67 0.88 0.67 0.56 0.61 0.64 0.50 0.60 0.31 0.22 0.23 0.16 0.07 0.05 0.07 0.08 0.08 0.19 0.26 0.33 0.36 0.30 0.18 0.06 0.04 0.07 0.10 0.09 0.08
0.81 0.85 0.66 0.80 0.68 0.47 0.45 0.28 0.13 0.04 0.01 0.00 0.00 0.01 0.02 0.00 0.15 0.47 0.75 0.74 0.55 0.36 0.30 0.37 0.52 0.47 0.41 0.52 0.48 0.57 0.74 0.40 0.45 0.55 0.30 0.24 0.22 0.15 0.07 0.03 0.02 0.02 0.05 0.09 0.15 0.32 0.38 0.26 0.22 0.12 0.11 0.17 0.24 0.23
0.70 0.78 0.61 0.78 0.58 0.44 0.35 0.15 0.05 0.01 0.01 0.01 0.02 0.01 0.02 0.13 0.38 0.49 0.60 0.46 0.21 0.15 0.21 0.38 0.37 0.35 0.26 0.30 0.38 0.39 0.44 0.36 0.41 0.56 0.40 0.30 0.27 0.12 0.15 0.15 0.09 0.05 0.10 0.06 0.09 0.13 0.14 0.12 0.16 0.18 0.13 0.13 0.15 0.24
0.66 0.64 0.60 0.78 0.55 0.42 0.22 0.06 0.01 0.00 0.01 0.01 0.01 0.01 0.06 0.15 0.27 0.32 0.34 0.27 0.07 0.07 0.10 0.11 0.21 0.21 0.24 0.29 0.20 0.24 0.18 0.10 0.21 0.37 0.44 0.20 0.03 0.03 0.02 0.03 0.10 0.23 0.32 0.24 0.11 0.15 0.16 0.17 0.15 0.12 0.13 0.11 0.08 0.07
0.72 0.60 0.67 0.84 0.54 0.31 0.10 0.03 0.02 0.00 0.01 0.00 0.00 0.00 0.06 0.09 0.14 0.14 0.12 0.11 0.05 0.04 0.03 0.05 0.10 0.14 0.24 0.18 0.19 0.16 0.05 0.08 0.25 0.28 0.17 0.06 0.06 0.03 0.00 0.00 0.00 0.03 0.13 0.29 0.35 0.41 0.39 0.46 0.43 0.44 0.45 0.40 0.31 0.24
0.85 0.68 0.76 0.84 0.48 0.25 0.10 0.04 0.01 0.01 0.00 0.00 0.00 0.00 0.01 0.03 0.02 0.01 0.02 0.05 0.03 0.04 0.05 0.03 0.05 0.05 0.12 0.16 0.12 0.15 0.11 0.30 0.37 0.21 0.14 0.08 0.03 0.01 0.01 0.01 0.00 0.00 0.01 0.01 0.07 0.24 0.32 0.38 0.49 0.44 0.39 0.31 0.23 0.21
1.11 1.19 1.02 0.86 0.41 0.21 0.09 0.02 0.00 0.00 0.00 0.00 0.00 0.00 0.00 0.01 0.00 0.00 0.00 0.01 0.01 0.03 0.06 0.09 0.12 0.11 0.08 0.18 0.15 0.10 0.16 0.35 0.32 0.14 0.06 0.01 0.01 0.04 0.02 0.02 0.01 0.00 0.00 0.00 0.00 0.02 0.06 0.07 0.11 0.12 0.10 0.18 0.23 0.21
1.58 1.67 1.15 0.70 0.33 0.11 0.04 0.01 0.00 0.00 0.00 0.00 0.00 0.00 0.00 0.01 0.00 0.00 0.00 0.00 0.01 0.06 0.20 0.30 0.25 0.10 0.09 0.12 0.05 0.05 0.18 0.16 0.07 0.03 0.02 0.01 0.01 0.05 0.05 0.02 0.02 0.02 0.03 0.04 0.03 0.06 0.10 0.10 0.14 0.19 0.14 0.09 0.10 0.16
0.79 0.60 0.75 0.48 0.16 0.05 0.03 0.01 0.00 0.00 0.01 0.00 0.01 0.00 0.00 0.00 0.00 0.00 0.00 0.00 0.01 0.08 0.26 0.52 0.31 0.18 0.06 0.03 0.02 0.02 0.02 0.03 0.02 0.01 0.00 0.00 0.00 0.02 0.04 0.02 0.01 0.04 0.08 0.21 0.23 0.18 0.15 0.16 0.16 0.14 0.12 0.09 0.07 0.08
0.42 0.43 0.53 0.23 0.13 0.11 0.10 0.05 0.00 0.01 0.01 0.01 0.00 0.00 0.00 0.00 0.01 0.01 0.01 0.00 0.01 0.04 0.14 0.30 0.29 0.09 0.00 0.00 0.01 0.01 0.00 0.00 0.00 0.00 0.01 0.00 0.00 0.02 0.06 0.08 0.08 0.06 0.07 0.13 0.13 0.10 0.08 0.06 0.05 0.07 0.09 0.08 0.06 0.05
0.59 0.71 0.55 0.33 0.16 0.15 0.13 0.04 0.01 0.01 0.00 0.00 0.00 0.00 0.01 0.01 0.01 0.01 0.01 0.01 0.02 0.08 0.12 0.12 0.05 0.02 0.02 0.04 0.06 0.04 0.01 0.01 0.00 0.00 0.01 0.01 0.00 0.00 0.00 0.02 0.05 0.05 0.05 0.05 0.06 0.07 0.07 0.05 0.05 0.06 0.08 0.08 0.07 0.06
1.23 0.98 0.64 0.31 0.21 0.14 0.10 0.01 0.01 0.00 0.00 0.00 0.01 0.00 0.00 0.00 0.00 0.00 0.02 0.03 0.06 0.06 0.04 0.02 0.02 0.02 0.04 0.05 0.06 0.05 0.03 0.02 0.01 0.00 0.00 0.00 0.00 0.00 0.00 0.00 0.01 0.02 0.02 0.02 0.01 0.02 0.04 0.03 0.05 0.07 0.05 0.05 0.08 0.09
1.09 0.59 0.41 0.41 0.28 0.21 0.14 0.03 0.01 0.01 0.01 0.01 0.02 0.01 0.00 0.00 0.00 0.01 0.02 0.04 0.02 0.01 0.01 0.02 0.03 0.05 0.05 0.06 0.07 0.07 0.05 0.02 0.01 0.01 0.00 0.00 0.00 0.00 0.00 0.00 0.01 0.00 0.00 0.00 0.00 0.00 0.01 0.01 0.03 0.03 0.03 0.05 0.08 0.10
0.54 0.43 0.41 0.37 0.35 0.33 0.19 0.05 0.04 0.03 0.02 0.02 0.02 0.01 0.00 0.00 0.01 0.02 0.02 0.00 0.00 0.00 0.00 0.02 0.04 0.07 0.10 0.10 0.14 0.12 0.11 0.08 0.04 0.02 0.01 0.01 0.00 0.00 0.01 0.00 0.00 0.00 0.00 0.00 0.00 0.00 0.00 0.00 0.00 0.00 0.02 0.04 0.06 0.07
0.37 0.52 0.54 0.43 0.26 0.17 0.10 0.06 0.05 0.03 0.04 0.03 0.02 0.00 0.00 0.00 0.03 0.02 0.00 0.00 0.00 0.00 0.00 0.01 0.02 0.03 0.04 0.06 0.09 0.16 0.22 0.21 0.15 0.10 0.06 0.04 0.02 0.01 0.01 0.01 0.00 0.00 0.00 0.00 0.00 0.00 0.00 0.00 0.00 0.00 0.00 0.00 0.01 0.03
1.08 0.94 0.46 0.37 0.18 0.09 0.05 0.05 0.04 0.03 0.03 0.03 0.04 0.01 0.00 0.02 0.01 0.00 0.00 0.00 0.00 0.00 0.00 0.00 0.01 0.03 0.03 0.03 0.05 0.07 0.10 0.18 0.19 0.18 0.18 0.18 0.11 0.08 0.05 0.03 0.02 0.01 0.00 0.00 0.00 0.00 0.00 0.00 0.00 0.00 0.00 0.00 0.01 0.02
0.88 0.42 0.17 0.04 0.05 0.02 0.00 0.02 0.02 0.02 0.02 0.04 0.05 0.02 0.01 0.01 0.00 0.00 0.00 0.00 0.00 0.00 0.00 0.00 0.00 0.01 0.02 0.03 0.04 0.07 0.09 0.13 0.14 0.11 0.10 0.19 0.20 0.19 0.16 0.12 0.08 0.04 0.02 0.03 0.03 0.02 0.01 0.01 0.01 0.01 0.01 0.00 0.02 0.03
0.44 0.20 0.10 0.02 0.01 0.01 0.01 0.01 0.02 0.03 0.03 0.02 0.02 0.02 0.02 0.02 0.00 0.00 0.00 0.00 0.00 0.00 0.00 0.00 0.00 0.00 0.00 0.01 0.03 0.05 0.07 0.11 0.13 0.09 0.10 0.13 0.14 0.14 0.15 0.14 0.12 0.09 0.09 0.11 0.11 0.10 0.06 0.04 0.04 0.03 0.05 0.04 0.04 0.04
0.14 0.00 0.02 0.03 0.01 0.01 0.03 0.04 0.04 0.03 0.03 0.01 0.02 0.03 0.04 0.02 0.00 0.00 0.00 0.00 0.00 0.00 0.00 0.00 0.00 0.00 0.00 0.01 0.02 0.04 0.06 0.09 0.12 0.11 0.12 0.14 0.13 0.13 0.14 0.16 0.22 0.27 0.27 0.20 0.16 0.17 0.18 0.15 0.13 0.12 0.14 0.12 0.09 0.07
0.03 0.01 0.01 0.03 0.03 0.02 0.04 0.04 0.03 0.02 0.02 0.02 0.02 0.01 0.00 0.00 0.00 0.00 0.00 0.00 0.00 0.00 0.00 0.00 0.00 0.00 0.00 0.01 0.03 0.04 0.06 0.09 0.12 0.10 0.08 0.09 0.13 0.16 0.20 0.26 0.35 0.41 0.41 0.36 0.32 0.25 0.25 0.26 0.29 0.28 0.26 0.23 0.19 0.19
0.02 0.01 0.01 0.01 0.01 0.02 0.02 0.02 0.02 0.02 0.02 0.00 0.00 0.00 0.00 0.00 0.00 0.00 0.00 0.00 0.00 0.00 0.00 0.00 0.00 0.01 0.01 0.02 0.04 0.04 0.05 0.06 0.09 0.09 0.09 0.09 0.12 0.17 0.23 0.28 0.36 0.45 0.45 0.41 0.49 0.56 0.52 0.52 0.55 0.52 0.47 0.41 0.35 0.31
0.00 0.00 0.01 0.02 0.03 0.04 0.04 0.04 0.03 0.01 0.01 0.00 0.00 0.00 0.00 0.00 0.00 0.00 0.00 0.00 0.00 0.00 0.00 0.00 0.01 0.01 0.02 0.04 0.06 0.08 0.08 0.09 0.11 0.12 0.14 0.17 0.19 0.21 0.27 0.34 0.37 0.43 0.48 0.48 0.44 0.42 0.40 0.34 0.30 0.29 0.30 0.30 0.27 0.24
0.02 0.02 0.03 0.04 0.08 0.09 0.08 0.05 0.02 0.01 0.00 0.00 0.00 0.00 0.00 0.00 0.00 0.00 0.00 0.00 0.00 0.01 0.01 0.02 0.03 0.04 0.06 0.08 0.11 0.14 0.17 0.17 0.16 0.17 0.19 0.20 0.22 0.25 0.30 0.37 0.43 0.46 0.49 0.48 0.44 0.40 0.36 0.37 0.38 0.37 0.39 0.39 0.37 0.31
0.09 0.08 0.08 0.09 0.09 0.10 0.08 0.04 0.01 0.00 0.00 0.00 0.00 0.00 0.00 0.00 0.00 0.00 0.00 0.00 0.01 0.02 0.03 0.05 0.07 0.10 0.13 0.15 0.18 0.21 0.24 0.28 0.30 0.32 0.37 0.36 0.33 0.36 0.43 0.45 0.44 0.44 0.42 0.43 0.46 0.48 0.48 0.45 0.42 0.39 0.37 0.36 0.35 0.33

GFSWCAN_prec_precacc_072.txt.gz
Total_Precipitation_Accumulation
0.86 0.75 0.69 0.73 0.82 0.87 0.90 0.96 1.02 0.92 0.68 0.51 0.50 0.38 0.33 0.26 0.12 0.04 0.06 0.09 0.22 0.12 0.02 0.00 0.00 0.01 0.01 0.02 0.03 0.01 0.02 0.02 0.06 0.14 0.13 0.07 0.03 0.01 0.00 0.00 0.00 0.02 0.04 0.06 0.07 0.09 0.01 0.00 0.00 0.00 0.00 0.00 0.00 0.00
0.77 0.78 0.67 0.64 0.73 0.77 0.86 0.98 1.15 1.20 1.09 0.87 0.64 0.36 0.28 0.20 0.13 0.07 0.04 0.08 0.15 0.14 0.04 0.00 0.00 0.00 0.00 0.01 0.01 0.00 0.03 0.01 0.04 0.12 0.16 0.10 0.04 0.01 0.00 0.00 0.00 0.00 0.00 0.00 0.00 0.00 0.00 0.00 0.00 0.00 0.00 0.00 0.00 0.01
0.65 0.69 0.72 0.73 0.89 0.78 0.72 0.71 0.70 0.65 0.72 0.74 0.58 0.37 0.22 0.20 0.17 0.23 0.10 0.04 0.10 0.13 0.02 0.00 0.01 0.00 0.00 0.00 0.01 0.01 0.02 0.01 0.04 0.12 0.26 0.11 0.06 0.04 0.02 0.01 0.00 0.00 0.00 0.00 0.00 0.00 0.00 0.00 0.00 0.00 0.00 0.00 0.00 0.02
0.78 0.66 0.72 0.72 0.92 1.07 0.86 0.71 0.59 0.56 0.55 0.53 0.40 0.24 0.17 0.16 0.21 0.17 0.05 0.06 0.12 0.12 0.10 0.02 0.00 0.00 0.00 0.00 0.01 0.02 0.04 0.02 0.08 0.16 0.18 0.14 0.06 0.03 0.02 0.01 0.00 0.01 0.00 0.00 0.00 0.00 0.00 0.00 0.00 0.00 0.00 0.00 0.00 0.00
0.72 0.89 0.83 0.75 0.67 0.89 1.47 1.23 0.70 0.55 0.59 0.50 0.28 0.15 0.17 0.18 0.11 0.06 0.02 0.04 0.08 0.16 0.20 0.05 0.05 0.00 0.00 0.01 0.04 0.04 0.08 0.15 0.15 0.27 0.31 0.16 0.07 0.05 0.01 0.00 0.00 0.00 0.00 0.00 0.00 0.00 0.00 0.00 0.00 0.00 0.00 0.00 0.00 0.00
0.67 0.75 1.18 1.07 0.71 0.58 0.77 1.29 0.89 0.53 0.50 0.51 0.24 0.18 0.17 0.08 0.10 0.07 0.08 0.23 0.16 0.16 0.38 0.18 0.23 0.03 0.03 0.05 0.14 0.15 0.17 0.30 0.40 0.30 0.28 0.28 0.14 0.15 0.12 0.03 0.00 0.00 0.00 0.00 0.00 0.00 0.00 0.00 0.00 0.00 0.00 0.00 0.00 0.00
0.74 0.64 0.80 1.37 1.16 0.79 0.69 0.83 0.73 0.47 0.47 0.37 0.19 0.14 0.05 0.03 0.07 0.04 0.13 0.56 0.28 0.21 0.34 0.41 0.58 0.15 0.13 0.21 0.20 0.41 0.29 0.47 0.50 0.46 0.29 0.21 0.22 0.48 0.31 0.05 0.00 0.00 0.00 0.00 0.00 0.00 0.00 0.00 0.00 0.00 0.00 0.00 0.00 0.00
0.99 0.77 0.71 0.98 1.25 0.87 0.76 0.79 0.45 0.36 0.37 0.22 0.10 0.03 0.04 0.06 0.03 0.03 0.02 0.10 0.28 0.64 0.61 0.89 0.88 0.45 0.49 0.56 0.44 0.55 0.56 0.66 0.74 0.61 0.28 0.29 0.27 0.34 0.20 0.01 0.01 0.02 0.01 0.01 0.01 0.00 0.00 0.00 0.00 0.00 0.00 0.00 0.00 0.00
0.96 0.92 0.66 0.69 0.97 0.72 0.72 0.77 0.39 0.27 0.19 0.06 0.01 0.01 0.13 0.08 0.04 0.03 0.05 0.15 0.45 0.91 0.79 0.70 0.67 0.62 0.68 0.67 0.65 0.56 0.82 0.72 0.65 0.49 0.19 0.27 0.35 0.32 0.07 0.04 0.05 0.08 0.14 0.16 0.17 0.11 0.05 0.02 0.02 0.02 0.02 0.01 0.01 0.02
0.90 0.94 0.66 0.75 0.78 0.57 0.63 0.56 0.26 0.15 0.06 0.00 0.00 0.02 0.10 0.01 0.00 0.06 0.28 0.67 0.79 0.72 0.50 0.53 0.61 0.67 0.88 0.67 0.56 0.61 0.64 0.50 0.60 0.31 0.22 0.23 0.16 0.07 0.05 0.07 0.08 0.08 0.19 0.26 0.33 0.36 0.30 0.18 0.06 0.04 0.07 0.10 0.09 0.08
0.82 0.85 0.66 0.81 0.69 0.47 0.54 0.35 0.14 0.04 0.01 0.00 0.00 0.01 0.02 0.00 0.15 0.47 0.75 0.74 0.55 0.36 0.30 0.37 0.52 0.47 0.41 0.52 0.48 0.57 0.74 0.40 0.45 0.55 0.30 0.24 0.22 0.15 0.07 0.03 0.02 0.02 0.05 0.09 0.15 0.32 0.38 0.26 0.22 0.12 0.11 0.17 0.24 0.23
0.70 0.78 0.61 0.79 0.59 0.45 0.42 0.23 0.06 0.01 0.01 0.01 0.02 0.01 0.02 0.13 0.38 0.49 0.60 0.46 0.21 0.15 0.21 0.38 0.37 0.35 0.26 0.30 0.38 0.39 0.44 0.36 0.41 0.56 0.40 0.30 0.27 0.12 0.15 0.15 0.09 0.05 0.10 0.06 0.09 0.13 0.14 0.12 0.16 0.18 0.13 0.13 0.15 0.24
0.66 0.65 0.60 0.78 0.55 0.42 0.27 0.11 0.02 0.00 0.01 0.01 0.01 0.01 0.06 0.15 0.27 0.32 0.34 0.27 0.07 0.07 0.10 0.11 0.21 0.21 0.24 0.29 0.20 0.24 0.18 0.10 0.21 0.37 0.44 0.20 0.03 0.03 0.02 0.03 0.10 0.23 0.32 0.24 0.11 0.15 0.16 0.17 0.15 0.12 0.13 0.11 0.08 0.07
0.73 0.61 0.67 0.85 0.54 0.31 0.12 0.05 0.02 0.00 0.01 0.00 0.00 0.00 0.06 0.09 0.14 0.14 0.12 0.12 0.05 0.04 0.03 0.05 0.10 0.14 0.24 0.18 0.19 0.16 0.05 0.08 0.25 0.28 0.17 0.06 0.06 0.03 0.00 0.00 0.00 0.03 0.13 0.29 0.35 0.41 0.39 0.46 0.43 0.44 0.45 0.40 0.31 0.24
0.86 0.68 0.76 0.85 0.48 0.25 0.12 0.08 0.02 0.01 0.00 0.00 0.00 0.00 0.01 0.03 0.02 0.01 0.02 0.05 0.03 0.04 0.05 0.03 0.05 0.05 0.12 0.16 0.12 0.15 0.11 0.30 0.37 0.21 0.14 0.08 0.03 0.01 0.01 0.01 0.00 0.00 0.01 0.01 0.07 0.24 0.32 0.38 0.49 0.44 0.39 0.31 0.23 0.21
1.12 1.19 1.03 0.91 0.45 0.24 0.13 0.07 0.01 0.00 0.00 0.00 0.00 0.00 0.00 0.01 0.00 0.00 0.00 0.01 0.01 0.03 0.06 0.09 0.12 0.11 0.08 0.18 0.15 0.10 0.16 0.35 0.32 0.14 0.06 0.01 0.01 0.04 0.02 0.02 0.01 0.00 0.00 0.00 0.00 0.02 0.06 0.07 0.11 0.12 0.10 0.18 0.23 0.21
1.59 1.67 1.17 0.81 0.44 0.18 0.08 0.04 0.01 0.00 0.00 0.00 0.00 0.00 0.00 0.01 0.00 0.00 0.00 0.00 0.01 0.06 0.20 0.30 0.25 0.10 0.09 0.12 0.05 0.05 0.18 0.16 0.07 0.03 0.02 0.01 0.01 0.05 0.05 0.02 0.02 0.02 0.03 0.04 0.03 0.06 0.10 0.10 0.14 0.19 0.14 0.09 0.10 0.16
0.80 0.60 0.80 0.66 0.33 0.11 0.08 0.04 0.01 0.00 0.01 0.00 0.01 0.00 0.00 0.00 0.00 0.00 0.00 0.00 0.01 0.08 0.26 0.52 0.31 0.18 0.06 0.03 0.02 0.02 0.02 0.03 0.02 0.01 0.00 0.00 0.00 0.02 0.04 0.02 0.01 0.04 0.08 0.21 0.23 0.18 0.15 0.16 0.16 0.14 0.12 0.09 0.07 0.08
0.42 0.45 0.64 0.31 0.22 0.18 0.16 0.08 0.00 0.01 0.01 0.01 0.01 0.00 0.00 0.00 0.01 0.01 0.01 0.00 0.01 0.04 0.14 0.30 0.29 0.09 0.00 0.00 0.01 0.01 0.00 0.00 0.00 0.00 0.01 0.00 0.00 0.02 0.06 0.08 0.08 0.06 0.07 0.13 0.13 0.10 0.08 0.06 0.05 0.07 0.09 0.08 0.06 0.05
0.63 0.76 0.62 0.37 0.17 0.16 0.14 0.06 0.01 0.01 0.00 0.00 0.00 0.00 0.01 0.01 0.01 0.01 0.01 0.01 0.02 0.08 0.12 0.12 0.05 0.02 0.02 0.04 0.06 0.04 0.01 0.01 0.00 0.00 0.01 0.01 0.00 0.00 0.00 0.02 0.05 0.05 0.05 0.05 0.06 0.07 0.07 0.05 0.05 0.06 0.08 0.08 0.07 0.06
1.32 1.09 0.73 0.39 0.27 0.17 0.13 0.02 0.01 0.00 0.00 0.00 0.01 0.00 0.00 0.00 0.00 0.00 0.02 0.03 0.06 0.06 0.04 0.02 0.02 0.02 0.04 0.05 0.06 0.05 0.03 0.02 0.01 0.00 0.00 0.00 0.00 0.00 0.00 0.00 0.01 0.02 0.02 0.02 0.01 0.02 0.04 0.03 0.05 0.07 0.05 0.05 0.08 0.09
1.35 0.91 0.76 0.60 0.33 0.23 0.15 0.03 0.01 0.01 0.01 0.01 0.02 0.01 0.00 0.00 0.00 0.01 0.02 0.04 0.02 0.01 0.01 0.02 0.03 0.05 0.05 0.06 0.07 0.07 0.05 0.02 0.01 0.01 0.00 0.00 0.00 0.00 0.00 0.00 0.01 0.00 0.00 0.00 0.00 0.00 0.01 0.01 0.03 0.03 0.03 0.05 0.08 0.10
0.85 0.75 0.68 0.51 0.40 0.34 0.20 0.05 0.04 0.03 0.02 0.03 0.02 0.01 0.00 0.00 0.01 0.02 0.02 0.00 0.00 0.00 0.00 0.02 0.04 0.07 0.10 0.10 0.14 0.12 0.11 0.08 0.04 0.02 0.01 0.01 0.00 0.00 0.01 0.00 0.00 0.00 0.00 0.00 0.00 0.00 0.00 0.00 0.00 0.00 0.02 0.04 0.06 0.07
0.54 0.79 0.74 0.51 0.28 0.18 0.10 0.06 0.05 0.03 0.04 0.03 0.02 0.00 0.00 0.00 0.03 0.02 0.00 0.00 0.00 0.00 0.00 0.01 0.02 0.03 0.04 0.06 0.09 0.16 0.22 0.21 0.15 0.10 0.06 0.04 0.02 0.01 0.01 0.01 0.00 0.00 0.00 0.00 0.00 0.00 0.00 0.00 0.00 0.00 0.00 0.00 0.01 0.03
1.30 1.17 0.59 0.45 0.20 0.09 0.05 0.05 0.04 0.03 0.03 0.03 0.04 0.01 0.00 0.02 0.01 0.00 0.00 0.00 0.00 0.00 0.00 0.00 0.01 0.03 0.03 0.03 0.05 0.07 0.10 0.18 0.19 0.18 0.18 0.18 0.11 0.08 0.05 0.03 0.02 0.01 0.00 0.00 0.00 0.00 0.00 0.00 0.00 0.00 0.00 0.00 0.01 0.03
1.07 0.59 0.26 0.06 0.06 0.02 0.00 0.02 0.02 0.02 0.02 0.04 0.05 0.02 0.01 0.01 0.00 0.00 0.00 0.00 0.00 0.00 0.00 0.00 0.00 0.01 0.02 0.03 0.04 0.07 0.09 0.13 0.14 0.11 0.10 0.19 0.20 0.19 0.16 0.12 0.08 0.04 0.02 0.04 0.03 0.03 0.02 0.01 0.01 0.01 0.01 0.01 0.02 0.03
0.53 0.23 0.10 0.02 0.01 0.01 0.01 0.01 0.02 0.03 0.04 0.02 0.02 0.02 0.02 0.02 0.00 0.00 0.00 0.00 0.00 0.00 0.00 0.00 0.00 0.00 0.00 0.01 0.03 0.05 0.07 0.11 0.13 0.09 0.10 0.13 0.14 0.14 0.15 0.14 0.12 0.09 0.10 0.11 0.11 0.10 0.07 0.05 0.04 0.04 0.05 0.05 0.04 0.04
0.17 0.00 0.02 0.03 0.01 0.01 0.03 0.04 0.04 0.04 0.03 0.01 0.02 0.03 0.04 0.02 0.00 0.00 0.00 0.00 0.00 0.00 0.00 0.00 0.00 0.00 0.00 0.01 0.02 0.04 0.06 0.09 0.12 0.11 0.12 0.14 0.13 0.13 0.14 0.16 0.22 0.27 0.28 0.21 0.16 0.17 0.18 0.16 0.13 0.13 0.14 0.12 0.09 0.07
0.03 0.01 0.01 0.03 0.03 0.03 0.04 0.04 0.03 0.02 0.02 0.02 0.03 0.02 0.01 0.00 0.00 0.00 0.00 0.00 0.00 0.00 0.00 0.00 0.00 0.00 0.00 0.01 0.03 0.04 0.06 0.09 0.12 0.10 0.08 0.09 0.13 0.16 0.20 0.26 0.35 0.41 0.41 0.37 0.32 0.25 0.25 0.26 0.29 0.28 0.26 0.23 0.19 0.19
0.02 0.01 0.01 0.02 0.03 0.02 0.02 0.02 0.02 0.02 0.03 0.01 0.01 0.01 0.01 0.00 0.00 0.00 0.00 0.00 0.00 0.00 0.00 0.00 0.00 0.01 0.01 0.02 0.04 0.04 0.05 0.06 0.09 0.09 0.09 0.09 0.12 0.17 0.23 0.28 0.36 0.45 0.45 0.42 0.49 0.56 0.52 0.52 0.55 0.52 0.47 0.41 0.35 0.31
0.00 0.00 0.01 0.02 0.04 0.04 0.04 0.04 0.03 0.02 0.02 0.01 0.01 0.00 0.00 0.00 0.00 0.00 0.00 0.00 0.00 0.00 0.00 0.00 0.01 0.01 0.02 0.04 0.06 0.08 0.08 0.09 0.11 0.12 0.14 0.17 0.19 0.21 0.27 0.34 0.38 0.43 0.49 0.49 0.44 0.43 0.40 0.34 0.30 0.29 0.30 0.30 0.27 0.24
0.02 0.02 0.03 0.05 0.08 0.10 0.09 0.06 0.03 0.02 0.02 0.01 0.00 0.00 0.00 0.00 0.00 0.00 0.00 0.00 0.00 0.01 0.01 0.02 0.03 0.04 0.06 0.08 0.11 0.14 0.17 0.17 0.16 0.17 0.19 0.20 0.22 0.25 0.30 0.37 0.43 0.46 0.49 0.48 0.44 0.40 0.36 0.37 0.38 0.37 0.39 0.39 0.37 0.31
0.09 0.08 0.09 0.10 0.12 0.13 0.11 0.07 0.04 0.03 0.02 0.00 0.00 0.00 0.00 0.00 0.00 0.00 0.00 0.00 0.01 0.02 0.03 0.05 0.07 0.10 0.13 0.15 0.18 0.21 0.24 0.28 0.30 0.32 0.37 0.36 0.34 0.37 0.43 0.45 0.44 0.44 0.43 0.43 0.46 0.48 0.48 0.45 0.42 0.40 0.38 0.36 0.35 0.33

GFSWCAN_prec_precacc_075.txt.gz
Total_Precipitation_Accumulation
0.86 0.75 0.70 0.76 0.86 0.89 0.91 0.97 1.03 0.92 0.68 0.52 0.56 0.41 0.35 0.28 0.12 0.04 0.06 0.09 0.22 0.12 0.02 0.00 0.00 0.01 0.01 0.02 0.03 0.01 0.02 0.02 0.06 0.14 0.13 0.07 0.03 0.01 0.00 0.00 0.00 0.02 0.04 0.06 0.07 0.09 0.01 0.00 0.00 0.00 0.00 0.00 0.00 0.00
0.77 0.78 0.68 0.66 0.76 0.77 0.87 0.99 1.15 1.20 1.09 0.89 0.69 0.38 0.28 0.20 0.13 0.07 0.04 0.08 0.15 0.14 0.04 0.00 0.00 0.00 0.00 0.01 0.01 0.00 0.03 0.01 0.04 0.12 0.16 0.10 0.04 0.01 0.00 0.00 0.00 0.00 0.00 0.00 0.00 0.00 0.00 0.00 0.00 0.00 0.00 0.00 0.00 0.01
0.65 0.70 0.73 0.74 0.91 0.79 0.72 0.71 0.70 0.65 0.72 0.77 0.64 0.41 0.23 0.20 0.17 0.23 0.10 0.04 0.10 0.13 0.02 0.00 0.01 0.00 0.00 0.00 0.01 0.01 0.02 0.01 0.04 0.12 0.26 0.11 0.06 0.04 0.02 0.01 0.00 0.00 0.00 0.00 0.00 0.00 0.00 0.00 0.00 0.00 0.00 0.00 0.00 0.02
0.78 0.66 0.73 0.74 0.93 1.08 0.86 0.71 0.59 0.56 0.55 0.57 0.44 0.26 0.18 0.16 0.21 0.17 0.05 0.06 0.12 0.12 0.10 0.02 0.00 0.00 0.00 0.00 0.01 0.02 0.04 0.02 0.08 0.16 0.18 0.14 0.06 0.03 0.02 0.01 0.00 0.01 0.00 0.00 0.00 0.00 0.00 0.00 0.00 0.00 0.00 0.00 0.00 0.00
0.72 0.90 0.84 0.77 0.68 0.89 1.48 1.23 0.70 0.55 0.60 0.59 0.29 0.15 0.17 0.18 0.11 0.06 0.02 0.04 0.08 0.16 0.20 0.05 0.05 0.00 0.00 0.01 0.04 0.04 0.08 0.15 0.15 0.27 0.31 0.16 0.07 0.05 0.01 0.00 0.00 0.00 0.00 0.00 0.00 0.00 0.00 0.00 0.00 0.00 0.00 0.00 0.00 0.00
0.68 0.75 1.19 1.07 0.71 0.58 0.77 1.29 0.89 0.53 0.51 0.60 0.25 0.20 0.17 0.08 0.10 0.07 0.08 0.23 0.16 0.16 0.38 0.18 0.23 0.03 0.03 0.05 0.14 0.15 0.17 0.30 0.40 0.30 0.28 0.28 0.14 0.15 0.12 0.03 0.00 0.00 0.00 0.00 0.00 0.00 0.00 0.00 0.00 0.00 0.00 0.00 0.00 0.00
0.74 0.64 0.81 1.37 1.16 0.79 0.69 0.83 0.73 0.47 0.47 0.39 0.21 0.15 0.05 0.03 0.07 0.04 0.13 0.56 0.28 0.21 0.34 0.41 0.58 0.15 0.13 0.21 0.20 0.41 0.29 0.47 0.50 0.46 0.29 0.21 0.22 0.48 0.31 0.05 0.00 0.00 0.00 0.00 0.00 0.00 0.00 0.00 0.00 0.00 0.00 0.00 0.00 0.00
0.99 0.77 0.71 0.98 1.25 0.88 0.76 0.81 0.45 0.36 0.37 0.23 0.10 0.03 0.04 0.06 0.03 0.03 0.02 0.10 0.28 0.64 0.61 0.89 0.88 0.45 0.49 0.56 0.44 0.55 0.56 0.66 0.74 0.61 0.28 0.29 0.27 0.34 0.20 0.01 0.01 0.02 0.01 0.01 0.01 0.00 0.00 0.00 0.00 0.00 0.00 0.00 0.00 0.00
0.96 0.92 0.66 0.69 0.97 0.72 0.73 0.79 0.40 0.28 0.19 0.06 0.01 0.01 0.13 0.08 0.04 0.03 0.05 0.15 0.45 0.91 0.79 0.70 0.67 0.62 0.68 0.67 0.65 0.56 0.82 0.72 0.65 0.49 0.19 0.27 0.35 0.32 0.07 0.04 0.05 0.08 0.14 0.16 0.17 0.11 0.05 0.02 0.02 0.02 0.02 0.01 0.01 0.02
0.90 0.94 0.66 0.75 0.78 0.57 0.65 0.59 0.28 0.16 0.06 0.00 0.00 0.02 0.10 0.01 0.00 0.06 0.28 0.67 0.79 0.72 0.50 0.53 0.61 0.67 0.88 0.67 0.56 0.61 0.64 0.50 0.60 0.31 0.22 0.23 0.16 0.07 0.05 0.07 0.08 0.08 0.19 0.26 0.33 0.36 0.30 0.18 0.06 0.04 0.07 0.10 0.09 0.08
0.82 0.85 0.66 0.81 0.69 0.47 0.57 0.37 0.16 0.05 0.01 0.00 0.00 0.01 0.02 0.00 0.15 0.47 0.75 0.74 0.55 0.36 0.30 0.37 0.52 0.47 0.41 0.52 0.48 0.57 0.74 0.40 0.45 0.55 0.30 0.24 0.22 0.15 0.07 0.03 0.02 0.02 0.05 0.09 0.15 0.32 0.38 0.26 0.22 0.12 0.11 0.17 0.24 0.23
0.70 0.78 0.61 0.79 0.59 0.46 0.45 0.25 0.07 0.01 0.01 0.01 0.02 0.01 0.02 0.13 0.38 0.49 0.60 0.46 0.21 0.15 0.21 0.38 0.37 0.35 0.26 0.30 0.38 0.39 0.44 0.36 0.41 0.56 0.40 0.30 0.27 0.12 0.15 0.15 0.09 0.05 0.10 0.06 0.09 0.13 0.14 0.12 0.16 0.18 0.13 0.13 0.15 0.24
0.66 0.65 0.60 0.79 0.56 0.43 0.29 0.11 0.03 0.00 0.01 0.01 0.01 0.01 0.06 0.15 0.27 0.32 0.34 0.27 0.07 0.07 0.10 0.11 0.21 0.21 0.24 0.29 0.20 0.24 0.18 0.10 0.21 0.37 0.44 0.20 0.03 0.03 0.02 0.03 0.10 0.23 0.32 0.24 0.11 0.15 0.16 0.17 0.15 0.12 0.13 0.11 0.08 0.07
0.73 0.61 0.67 0.85 0.54 0.31 0.13 0.07 0.04 0.01 0.01 0.00 0.00 0.00 0.06 0.09 0.14 0.14 0.12 0.12 0.05 0.04 0.03 0.05 0.10 0.14 0.24 0.18 0.19 0.16 0.05 0.08 0.25 0.28 0.17 0.06 0.06 0.03 0.00 0.00 0.00 0.03 0.13 0.29 0.35 0.41 0.39 0.46 0.43 0.44 0.45 0.40 0.31 0.24
0.86 0.69 0.77 0.85 0.49 0.25 0.13 0.11 0.04 0.01 0.00 0.00 0.00 0.00 0.01 0.03 0.02 0.01 0.02 0.05 0.03 0.04 0.05 0.03 0.05 0.05 0.12 0.16 0.12 0.15 0.11 0.30 0.37 0.21 0.14 0.08 0.03 0.01 0.01 0.01 0.00 0.00 0.01 0.01 0.07 0.24 0.32 0.38 0.49 0.44 0.39 0.31 0.23 0.21
1.13 1.22 1.05 0.91 0.45 0.24 0.16 0.16 0.07 0.02 0.00 0.00 0.00 0.00 0.00 0.01 0.00 0.00 0.00 0.01 0.01 0.03 0.06 0.09 0.12 0.11 0.08 0.18 0.15 0.10 0.16 0.35 0.32 0.14 0.06 0.01 0.01 0.04 0.02 0.02 0.01 0.00 0.00 0.00 0.00 0.02 0.06 0.07 0.11 0.12 0.10 0.18 0.23 0.21
1.61 1.68 1.17 0.81 0.45 0.19 0.11 0.17 0.15 0.07 0.01 0.01 0.00 0.00 0.00 0.01 0.00 0.00 0.00 0.00 0.01 0.06 0.20 0.30 0.25 0.10 0.09 0.12 0.05 0.05 0.18 0.16 0.07 0.03 0.02 0.01 0.01 0.05 0.05 0.02 0.02 0.02 0.03 0.04 0.03 0.06 0.10 0.10 0.14 0.19 0.14 0.09 0.10 0.16
0.81 0.61 0.80 0.66 0.35 0.14 0.13 0.15 0.15 0.05 0.03 0.01 0.01 0.00 0.00 0.00 0.00 0.00 0.00 0.00 0.01 0.08 0.26 0.52 0.31 0.18 0.06 0.03 0.02 0.02 0.02 0.03 0.02 0.01 0.00 0.00 0.00 0.02 0.04 0.02 0.01 0.04 0.08 0.21 0.23 0.18 0.15 0.16 0.16 0.14 0.12 0.09 0.07 0.08
0.45 0.45 0.65 0.33 0.27 0.24 0.26 0.19 0.12 0.05 0.01 0.01 0.01 0.00 0.00 0.00 0.01 0.01 0.01 0.00 0.01 0.04 0.14 0.30 0.29 0.09 0.00 0.00 0.01 0.01 0.00 0.00 0.00 0.00 0.01 0.00 0.00 0.02 0.06 0.08 0.08 0.06 0.07 0.13 0.13 0.10 0.08 0.06 0.05 0.07 0.09 0.08 0.06 0.05
0.68 0.78 0.65 0.39 0.20 0.20 0.18 0.13 0.04 0.01 0.00 0.00 0.00 0.00 0.01 0.01 0.01 0.01 0.01 0.01 0.02 0.08 0.12 0.12 0.05 0.02 0.02 0.04 0.06 0.04 0.01 0.01 0.00 0.00 0.01 0.01 0.00 0.00 0.00 0.02 0.05 0.05 0.05 0.05 0.06 0.07 0.07 0.05 0.05 0.06 0.08 0.08 0.07 0.06
1.42 1.15 0.79 0.48 0.42 0.32 0.18 0.04 0.01 0.00 0.00 0.00 0.01 0.00 0.00 0.00 0.00 0.00 0.02 0.03 0.06 0.06 0.04 0.02 0.02 0.02 0.04 0.05 0.06 0.05 0.03 0.02 0.01 0.00 0.00 0.00 0.00 0.00 0.00 0.00 0.01 0.02 0.02 0.02 0.01 0.02 0.04 0.03 0.05 0.07 0.05 0.05 0.08 0.09
1.59 1.05 1.02 0.91 0.57 0.42 0.22 0.04 0.01 0.01 0.01 0.01 0.02 0.01 0.00 0.00 0.00 0.01 0.02 0.04 0.02 0.01 0.01 0.02 0.03 0.05 0.05 0.06 0.07 0.07 0.05 0.02 0.01 0.01 0.00 0.00 0.00 0.00 0.00 0.00 0.01 0.00 0.00 0.00 0.00 0.00 0.01 0.01 0.03 0.03 0.03 0.05 0.08 0.10
1.06 0.88 0.87 0.83 0.70 0.52 0.29 0.06 0.04 0.03 0.02 0.03 0.02 0.01 0.00 0.00 0.01 0.02 0.02 0.00 0.00 0.00 0.00 0.02 0.04 0.07 0.10 0.10 0.14 0.12 0.11 0.08 0.04 0.02 0.01 0.01 0.00 0.00 0.01 0.00 0.00 0.00 0.00 0.00 0.00 0.00 0.00 0.00 0.00 0.00 0.02 0.04 0.06 0.07
0.62 0.93 0.98 0.79 0.45 0.27 0.17 0.09 0.05 0.03 0.04 0.03 0.02 0.01 0.00 0.00 0.03 0.02 0.00 0.00 0.00 0.00 0.00 0.01 0.02 0.03 0.04 0.06 0.09 0.16 0.22 0.21 0.15 0.10 0.06 0.04 0.02 0.01 0.01 0.01 0.00 0.00 0.00 0.00 0.00 0.00 0.00 0.00 0.00 0.00 0.00 0.00 0.01 0.03
1.45 1.39 0.79 0.67 0.34 0.13 0.07 0.06 0.04 0.04 0.03 0.04 0.04 0.01 0.00 0.02 0.01 0.00 0.00 0.00 0.00 0.00 0.00 0.00 0.01 0.03 0.03 0.03 0.05 0.07 0.10 0.18 0.19 0.18 0.18 0.18 0.11 0.08 0.05 0.03 0.02 0.01 0.00 0.00 0.00 0.00 0.00 0.00 0.00 0.00 0.00 0.00 0.01 0.03
1.25 0.80 0.44 0.17 0.10 0.02 0.00 0.02 0.02 0.02 0.02 0.04 0.05 0.02 0.02 0.01 0.00 0.00 0.00 0.00 0.00 0.00 0.00 0.00 0.00 0.01 0.02 0.03 0.04 0.07 0.09 0.13 0.14 0.11 0.10 0.19 0.20 0.19 0.16 0.12 0.08 0.04 0.02 0.04 0.04 0.03 0.02 0.01 0.01 0.01 0.01 0.01 0.02 0.03
0.67 0.36 0.15 0.04 0.01 0.01 0.01 0.01 0.02 0.03 0.04 0.03 0.03 0.03 0.03 0.02 0.00 0.00 0.00 0.00 0.00 0.00 0.00 0.00 0.00 0.00 0.00 0.01 0.03 0.05 0.07 0.11 0.13 0.09 0.10 0.13 0.14 0.14 0.15 0.14 0.12 0.09 0.10 0.11 0.11 0.10 0.07 0.05 0.04 0.04 0.05 0.05 0.04 0.04
0.25 0.02 0.02 0.03 0.01 0.01 0.03 0.04 0.05 0.05 0.04 0.02 0.03 0.04 0.06 0.03 0.00 0.00 0.00 0.00 0.00 0.00 0.00 0.00 0.00 0.00 0.00 0.01 0.02 0.04 0.06 0.09 0.12 0.11 0.12 0.14 0.13 0.13 0.14 0.16 0.22 0.27 0.28 0.21 0.16 0.17 0.18 0.16 0.14 0.13 0.14 0.12 0.09 0.07
0.04 0.01 0.01 0.03 0.03 0.03 0.04 0.04 0.03 0.02 0.02 0.02 0.03 0.02 0.02 0.00 0.00 0.00 0.00 0.00 0.00 0.00 0.00 0.00 0.00 0.00 0.00 0.01 0.03 0.04 0.06 0.09 0.12 0.10 0.08 0.09 0.13 0.16 0.20 0.26 0.35 0.41 0.41 0.37 0.32 0.25 0.25 0.26 0.29 0.28 0.26 0.23 0.19 0.19
0.02 0.01 0.01 0.02 0.03 0.02 0.02 0.02 0.02 0.02 0.03 0.02 0.02 0.03 0.02 0.02 0.01 0.00 0.00 0.00 0.00 0.00 0.00 0.00 0.00 0.01 0.01 0.02 0.04 0.04 0.05 0.06 0.09 0.09 0.09 0.09 0.12 0.17 0.23 0.28 0.36 0.45 0.45 0.42 0.49 0.56 0.52 0.52 0.55 0.52 0.47 0.41 0.35 0.31
0.00 0.00 0.01 0.02 0.04 0.04 0.05 0.05 0.03 0.02 0.03 0.02 0.02 0.02 0.02 0.02 0.01 0.00 0.00 0.00 0.00 0.00 0.00 0.00 0.01 0.01 0.02 0.04 0.06 0.08 0.08 0.09 0.11 0.12 0.14 0.17 0.19 0.21 0.27 0.34 0.38 0.43 0.49 0.49 0.44 0.43 0.40 0.34 0.30 0.29 0.30 0.30 0.27 0.24
0.02 0.02 0.03 0.05 0.09 0.11 0.10 0.07 0.03 0.02 0.02 0.01 0.01 0.01 0.01 0.00 0.00 0.00 0.00 0.00 0.00 0.01 0.01 0.02 0.03 0.04 0.06 0.08 0.11 0.14 0.17 0.17 0.16 0.17 0.19 0.20 0.22 0.25 0.30 0.37 0.43 0.46 0.49 0.48 0.44 0.40 0.36 0.37 0.38 0.37 0.39 0.39 0.37 0.31
0.09 0.08 0.09 0.10 0.14 0.17 0.15 0.09 0.07 0.05 0.05 0.03 0.01 0.01 0.00 0.00 0.00 0.00 0.00 0.00 0.01 0.02 0.03 0.05 0.07 0.10 0.13 0.15 0.18 0.21 0.24 0.28 0.30 0.32 0.37 0.36 0.34 0.37 0.43 0.45 0.44 0.45 0.43 0.43 0.46 0.48 0.48 0.45 0.42 0.40 0.38 0.36 0.35 0.33

GFSWCAN_prec_precacc_078.txt.gz
Total_Precipitation_Accumulation
0.86 0.75 0.70 0.76 0.87 0.90 0.91 0.98 1.03 0.92 0.68 0.53 0.59 0.41 0.35 0.28 0.12 0.04 0.06 0.09 0.22 0.12 0.02 0.00 0.00 0.01 0.01 0.02 0.03 0.01 0.02 0.02 0.06 0.14 0.13 0.07 0.03 0.01 0.00 0.00 0.00 0.02 0.04 0.06 0.07 0.09 0.01 0.00 0.00 0.00 0.00 0.00 0.00 0.00
0.77 0.78 0.68 0.66 0.76 0.78 0.87 0.99 1.15 1.20 1.09 0.90 0.73 0.39 0.28 0.20 0.13 0.07 0.04 0.08 0.15 0.14 0.04 0.00 0.00 0.00 0.00 0.01 0.01 0.00 0.03 0.01 0.04 0.12 0.16 0.10 0.04 0.01 0.00 0.00 0.00 0.00 0.00 0.00 0.00 0.00 0.00 0.00 0.00 0.00 0.00 0.00 0.00 0.01
0.65 0.70 0.73 0.74 0.91 0.79 0.73 0.71 0.70 0.65 0.72 0.78 0.67 0.42 0.24 0.20 0.17 0.23 0.10 0.04 0.10 0.13 0.02 0.00 0.01 0.00 0.00 0.00 0.01 0.01 0.02 0.01 0.04 0.12 0.26 0.11 0.06 0.04 0.02 0.01 0.00 0.00 0.00 0.00 0.00 0.00 0.00 0.00 0.00 0.00 0.00 0.00 0.00 0.02
0.78 0.66 0.73 0.74 0.94 1.08 0.86 0.71 0.59 0.56 0.55 0.57 0.47 0.29 0.19 0.16 0.21 0.17 0.05 0.06 0.12 0.12 0.10 0.02 0.00 0.00 0.00 0.00 0.01 0.02 0.04 0.02 0.08 0.16 0.18 0.14 0.06 0.03 0.02 0.01 0.00 0.01 0.00 0.00 0.00 0.00 0.00 0.00 0.00 0.00 0.00 0.00 0.00 0.00
0.72 0.90 0.84 0.77 0.68 0.89 1.48 1.23 0.70 0.55 0.60 0.60 0.30 0.16 0.17 0.18 0.11 0.06 0.02 0.04 0.08 0.16 0.20 0.05 0.05 0.00 0.00 0.01 0.04 0.04 0.08 0.15 0.15 0.27 0.31 0.16 0.07 0.05 0.01 0.00 0.00 0.00 0.00 0.00 0.00 0.00 0.00 0.00 0.00 0.00 0.00 0.00 0.00 0.00
0.68 0.75 1.19 1.07 0.72 0.58 0.77 1.29 0.89 0.53 0.51 0.61 0.26 0.20 0.17 0.08 0.10 0.07 0.08 0.23 0.16 0.16 0.38 0.18 0.23 0.03 0.03 0.05 0.14 0.15 0.17 0.30 0.40 0.30 0.28 0.28 0.14 0.15 0.12 0.03 0.00 0.00 0.00 0.00 0.00 0.00 0.00 0.00 0.00 0.00 0.00 0.00 0.00 0.00
0.74 0.64 0.81 1.37 1.16 0.79 0.69 0.83 0.73 0.47 0.47 0.39 0.21 0.15 0.05 0.03 0.07 0.04 0.13 0.56 0.28 0.21 0.34 0.41 0.58 0.15 0.13 0.21 0.20 0.41 0.29 0.47 0.50 0.46 0.29 0.21 0.22 0.48 0.31 0.05 0.00 0.00 0.00 0.00 0.00 0.00 0.00 0.00 0.00 0.00 0.00 0.00 0.00 0.00
0.99 0.77 0.71 0.98 1.25 0.88 0.76 0.81 0.45 0.36 0.37 0.23 0.10 0.03 0.04 0.06 0.03 0.03 0.02 0.10 0.28 0.64 0.61 0.89 0.88 0.45 0.49 0.56 0.44 0.55 0.56 0.66 0.74 0.61 0.28 0.29 0.27 0.34 0.20 0.01 0.01 0.02 0.01 0.01 0.01 0.00 0.00 0.00 0.00 0.00 0.00 0.00 0.00 0.00
0.96 0.92 0.66 0.69 0.97 0.73 0.74 0.80 0.40 0.28 0.19 0.06 0.01 0.01 0.13 0.08 0.04 0.03 0.05 0.15 0.45 0.91 0.79 0.70 0.67 0.62 0.68 0.67 0.65 0.56 0.82 0.72 0.65 0.49 0.19 0.27 0.35 0.32 0.07 0.04 0.05 0.08 0.14 0.16 0.17 0.11 0.05 0.02 0.02 0.02 0.02 0.01 0.01 0.02
0.90 0.94 0.66 0.75 0.78 0.57 0.68 0.61 0.28 0.16 0.06 0.00 0.00 0.02 0.10 0.01 0.00 0.06 0.28 0.67 0.79 0.72 0.50 0.53 0.61 0.67 0.88 0.67 0.56 0.61 0.64 0.50 0.60 0.31 0.22 0.23 0.16 0.07 0.05 0.07 0.08 0.08 0.19 0.26 0.33 0.36 0.30 0.18 0.06 0.04 0.07 0.10 0.09 0.08
0.82 0.85 0.66 0.81 0.69 0.47 0.59 0.39 0.16 0.05 0.01 0.00 0.00 0.01 0.02 0.00 0.15 0.47 0.75 0.74 0.55 0.36 0.30 0.37 0.52 0.47 0.41 0.52 0.48 0.57 0.74 0.40 0.45 0.55 0.30 0.24 0.22 0.15 0.07 0.03 0.02 0.02 0.05 0.09 0.15 0.32 0.38 0.26 0.22 0.12 0.11 0.17 0.24 0.23
0.70 0.78 0.62 0.79 0.59 0.46 0.47 0.25 0.07 0.01 0.01 0.01 0.02 0.01 0.02 0.13 0.38 0.49 0.60 0.46 0.21 0.15 0.21 0.38 0.37 0.35 0.26 0.30 0.38 0.39 0.44 0.36 0.41 0.56 0.40 0.30 0.27 0.12 0.15 0.15 0.09 0.05 0.10 0.06 0.09 0.13 0.14 0.12 0.16 0.18 0.13 0.13 0.15 0.24
0.66 0.65 0.60 0.79 0.56 0.43 0.30 0.12 0.03 0.00 0.01 0.01 0.01 0.01 0.06 0.15 0.27 0.32 0.34 0.27 0.07 0.07 0.10 0.11 0.21 0.21 0.24 0.29 0.20 0.24 0.18 0.10 0.21 0.37 0.44 0.20 0.03 0.03 0.02 0.03 0.10 0.23 0.32 0.24 0.11 0.15 0.16 0.17 0.15 0.12 0.13 0.11 0.08 0.07
0.73 0.61 0.67 0.85 0.54 0.32 0.15 0.07 0.04 0.01 0.01 0.00 0.00 0.00 0.06 0.09 0.14 0.14 0.12 0.12 0.05 0.04 0.03 0.05 0.10 0.14 0.24 0.18 0.19 0.16 0.05 0.08 0.25 0.28 0.17 0.06 0.06 0.03 0.00 0.00 0.00 0.03 0.13 0.29 0.35 0.41 0.39 0.46 0.43 0.44 0.45 0.40 0.31 0.24
0.86 0.69 0.77 0.85 0.49 0.25 0.15 0.13 0.05 0.01 0.00 0.00 0.00 0.00 0.01 0.03 0.02 0.01 0.02 0.05 0.03 0.04 0.05 0.03 0.05 0.05 0.12 0.16 0.12 0.15 0.11 0.30 0.37 0.21 0.14 0.08 0.03 0.01 0.01 0.01 0.00 0.00 0.01 0.01 0.07 0.24 0.32 0.38 0.49 0.44 0.39 0.31 0.23 0.21
1.13 1.22 1.05 0.91 0.45 0.25 0.19 0.19 0.12 0.05 0.01 0.00 0.00 0.00 0.00 0.01 0.00 0.00 0.00 0.01 0.01 0.03 0.06 0.09 0.12 0.11 0.08 0.18 0.15 0.10 0.16 0.35 0.32 0.14 0.06 0.01 0.01 0.04 0.02 0.02 0.01 0.00 0.00 0.00 0.00 0.02 0.06 0.07 0.11 0.12 0.10 0.18 0.23 0.21
1.61 1.69 1.17 0.82 0.45 0.21 0.13 0.20 0.25 0.18 0.05 0.02 0.00 0.00 0.00 0.01 0.00 0.00 0.00 0.00 0.01 0.06 0.20 0.30 0.25 0.10 0.09 0.12 0.05 0.05 0.18 0.16 0.07 0.03 0.02 0.01 0.01 0.05 0.05 0.02 0.02 0.02 0.03 0.04 0.03 0.06 0.10 0.10 0.14 0.19 0.14 0.09 0.10 0.16
0.82 0.61 0.80 0.66 0.36 0.16 0.13 0.18 0.23 0.17 0.09 0.01 0.01 0.00 0.00 0.00 0.00 0.00 0.00 0.00 0.01 0.08 0.26 0.52 0.31 0.18 0.06 0.03 0.02 0.02 0.02 0.03 0.02 0.01 0.00 0.00 0.00 0.02 0.04 0.02 0.01 0.04 0.08 0.21 0.23 0.18 0.15 0.16 0.16 0.14 0.12 0.09 0.07 0.08
0.45 0.46 0.65 0.34 0.28 0.25 0.26 0.20 0.17 0.14 0.02 0.01 0.01 0.00 0.00 0.00 0.01 0.01 0.01 0.00 0.01 0.04 0.14 0.30 0.29 0.09 0.00 0.00 0.01 0.01 0.00 0.00 0.00 0.00 0.01 0.00 0.00 0.02 0.06 0.08 0.08 0.06 0.07 0.13 0.13 0.10 0.08 0.06 0.05 0.07 0.09 0.08 0.06 0.05
0.68 0.79 0.68 0.41 0.20 0.20 0.19 0.15 0.06 0.02 0.01 0.00 0.00 0.00 0.01 0.01 0.01 0.01 0.01 0.01 0.02 0.08 0.12 0.12 0.05 0.02 0.02 0.04 0.06 0.04 0.01 0.01 0.00 0.00 0.01 0.01 0.00 0.00 0.00 0.02 0.05 0.05 0.05 0.05 0.06 0.07 0.07 0.05 0.05 0.06 0.08 0.08 0.07 0.06
1.44 1.18 0.86 0.53 0.50 0.37 0.22 0.05 0.02 0.00 0.00 0.00 0.01 0.00 0.00 0.00 0.00 0.00 0.02 0.03 0.06 0.06 0.04 0.02 0.02 0.02 0.04 0.05 0.06 0.05 0.03 0.02 0.01 0.00 0.00 0.00 0.00 0.00 0.00 0.00 0.01 0.02 0.02 0.02 0.01 0.02 0.04 0.03 0.05 0.07 0.05 0.05 0.08 0.09
1.64 1.14 1.25 1.20 0.76 0.56 0.31 0.09 0.01 0.01 0.01 0.01 0.02 0.01 0.00 0.00 0.00 0.01 0.02 0.04 0.02 0.01 0.01 0.02 0.03 0.05 0.05 0.06 0.07 0.07 0.05 0.02 0.01 0.01 0.00 0.00 0.00 0.00 0.00 0.00 0.01 0.00 0.00 0.00 0.00 0.00 0.01 0.01 0.03 0.03 0.03 0.05 0.08 0.10
1.18 1.02 1.07 1.07 0.90 0.68 0.41 0.10 0.05 0.04 0.02 0.03 0.02 0.01 0.00 0.00 0.01 0.03 0.02 0.00 0.00 0.00 0.00 0.02 0.04 0.07 0.10 0.10 0.14 0.12 0.11 0.08 0.04 0.02 0.01 0.01 0.00 0.00 0.01 0.00 0.00 0.00 0.00 0.00 0.00 0.00 0.00 0.00 0.00 0.00 0.02 0.04 0.06 0.07
0.82 1.11 1.20 1.04 0.63 0.44 0.30 0.21 0.10 0.05 0.04 0.04 0.02 0.02 0.00 0.00 0.03 0.03 0.01 0.00 0.00 0.00 0.00 0.01 0.02 0.03 0.04 0.06 0.09 0.16 0.22 0.21 0.15 0.10 0.06 0.04 0.02 0.01 0.01 0.01 0.00 0.00 0.00 0.00 0.00 0.00 0.00 0.00 0.00 0.00 0.00 0.00 0.01 0.03
1.63 1.59 0.95 0.83 0.51 0.24 0.16 0.14 0.09 0.06 0.04 0.04 0.04 0.02 0.01 0.03 0.02 0.02 0.01 0.00 0.00 0.00 0.00 0.00 0.01 0.03 0.03 0.03 0.05 0.07 0.10 0.18 0.19 0.18 0.18 0.18 0.11 0.08 0.05 0.03 0.02 0.01 0.00 0.00 0.00 0.00 0.00 0.00 0.00 0.00 0.00 0.00 0.01 0.03
1.41 0.97 0.56 0.28 0.19 0.08 0.04 0.04 0.04 0.02 0.02 0.04 0.05 0.02 0.02 0.03 0.02 0.01 0.00 0.00 0.00 0.00 0.00 0.00 0.00 0.01 0.02 0.03 0.04 0.07 0.09 0.13 0.14 0.11 0.10 0.19 0.20 0.19 0.16 0.12 0.08 0.04 0.02 0.04 0.04 0.03 0.02 0.01 0.01 0.01 0.01 0.01 0.02 0.04
0.81 0.51 0.24 0.07 0.03 0.03 0.02 0.01 0.02 0.03 0.04 0.04 0.03 0.03 0.04 0.05 0.02 0.00 0.00 0.00 0.00 0.00 0.00 0.00 0.00 0.00 0.00 0.01 0.03 0.05 0.07 0.11 0.13 0.09 0.10 0.13 0.14 0.14 0.15 0.14 0.12 0.09 0.10 0.11 0.11 0.10 0.07 0.05 0.04 0.04 0.05 0.05 0.04 0.04
0.36 0.06 0.03 0.03 0.01 0.01 0.03 0.04 0.05 0.05 0.04 0.02 0.03 0.05 0.08 0.05 0.01 0.00 0.00 0.00 0.00 0.00 0.00 0.00 0.00 0.00 0.00 0.01 0.02 0.04 0.06 0.09 0.12 0.11 0.12 0.14 0.13 0.13 0.14 0.16 0.22 0.27 0.28 0.21 0.16 0.17 0.18 0.16 0.14 0.13 0.15 0.12 0.09 0.07
0.06 0.01 0.01 0.03 0.03 0.03 0.04 0.04 0.03 0.02 0.02 0.02 0.03 0.03 0.02 0.00 0.00 0.00 0.00 0.00 0.00 0.00 0.00 0.00 0.00 0.00 0.00 0.01 0.03 0.04 0.06 0.09 0.12 0.10 0.08 0.09 0.13 0.16 0.20 0.26 0.35 0.41 0.41 0.37 0.32 0.25 0.25 0.27 0.29 0.28 0.26 0.23 0.19 0.19
0.02 0.01 0.01 0.02 0.03 0.02 0.02 0.02 0.02 0.02 0.03 0.02 0.02 0.03 0.03 0.02 0.01 0.01 0.01 0.01 0.00 0.00 0.00 0.00 0.00 0.01 0.01 0.02 0.04 0.04 0.05 0.06 0.09 0.09 0.09 0.09 0.12 0.17 0.23 0.28 0.36 0.46 0.45 0.42 0.49 0.56 0.52 0.52 0.55 0.52 0.47 0.41 0.35 0.31
0.00 0.00 0.01 0.02 0.04 0.04 0.05 0.05 0.03 0.02 0.03 0.02 0.02 0.03 0.03 0.03 0.02 0.01 0.01 0.00 0.00 0.00 0.00 0.00 0.01 0.01 0.02 0.04 0.06 0.08 0.08 0.09 0.11 0.12 0.14 0.17 0.19 0.21 0.27 0.34 0.38 0.44 0.49 0.49 0.44 0.43 0.40 0.34 0.30 0.29 0.30 0.30 0.27 0.24
0.02 0.02 0.03 0.05 0.09 0.11 0.10 0.07 0.03 0.02 0.02 0.02 0.01 0.01 0.01 0.01 0.01 0.00 0.00 0.00 0.00 0.01 0.01 0.02 0.03 0.04 0.06 0.08 0.11 0.14 0.17 0.17 0.16 0.17 0.19 0.20 0.22 0.25 0.30 0.37 0.44 0.46 0.49 0.49 0.44 0.40 0.36 0.37 0.38 0.37 0.39 0.39 0.37 0.31
0.09 0.08 0.09 0.10 0.14 0.17 0.15 0.09 0.07 0.05 0.05 0.03 0.02 0.01 0.01 0.01 0.01 0.00 0.00 0.00 0.01 0.02 0.03 0.05 0.07 0.10 0.13 0.15 0.18 0.21 0.24 0.28 0.30 0.32 0.37 0.36 0.34 0.37 0.43 0.45 0.44 0.45 0.43 0.43 0.46 0.48 0.48 0.45 0.42 0.40 0.38 0.36 0.35 0.33

GFSWCAN_prec_precacc_084.txt.gz
Total_Precipitation_Accumulation
0.86 0.75 0.70 0.76 0.87 0.90 0.92 0.98 1.03 0.92 0.68 0.53 0.59 0.41 0.35 0.28 0.12 0.04 0.06 0.09 0.22 0.12 0.02 0.00 0.00 0.01 0.01 0.02 0.03 0.01 0.02 0.02 0.06 0.14 0.13 0.07 0.03 0.01 0.00 0.00 0.00 0.02 0.04 0.06 0.07 0.09 0.01 0.00 0.00 0.00 0.00 0.00 0.00 0.00
0.77 0.78 0.68 0.66 0.76 0.78 0.87 0.99 1.15 1.20 1.09 0.91 0.73 0.39 0.28 0.20 0.13 0.07 0.04 0.08 0.15 0.14 0.04 0.00 0.00 0.00 0.00 0.01 0.01 0.00 0.03 0.01 0.04 0.12 0.16 0.10 0.04 0.01 0.00 0.00 0.00 0.00 0.00 0.00 0.00 0.00 0.00 0.00 0.00 0.00 0.00 0.00 0.00 0.01
0.65 0.70 0.73 0.74 0.92 0.80 0.73 0.71 0.70 0.65 0.72 0.78 0.67 0.42 0.24 0.20 0.17 0.23 0.10 0.04 0.10 0.13 0.02 0.00 0.01 0.00 0.00 0.00 0.01 0.01 0.02 0.01 0.04 0.12 0.26 0.11 0.06 0.04 0.02 0.01 0.00 0.00 0.00 0.00 0.00 0.00 0.00 0.00 0.00 0.00 0.00 0.00 0.00 0.02
0.78 0.66 0.73 0.74 0.94 1.08 0.86 0.71 0.59 0.56 0.55 0.58 0.47 0.29 0.19 0.16 0.21 0.17 0.05 0.06 0.12 0.12 0.10 0.02 0.00 0.00 0.00 0.00 0.01 0.02 0.04 0.02 0.08 0.16 0.18 0.14 0.06 0.03 0.02 0.01 0.00 0.01 0.00 0.00 0.00 0.00 0.00 0.00 0.00 0.00 0.00 0.00 0.00 0.00
0.72 0.90 0.84 0.77 0.68 0.89 1.48 1.23 0.70 0.55 0.60 0.60 0.30 0.16 0.17 0.18 0.11 0.06 0.02 0.04 0.08 0.16 0.20 0.05 0.05 0.00 0.00 0.01 0.04 0.04 0.08 0.15 0.15 0.27 0.31 0.16 0.07 0.05 0.01 0.00 0.00 0.00 0.00 0.00 0.00 0.00 0.00 0.00 0.00 0.00 0.00 0.00 0.00 0.00
0.68 0.75 1.19 1.07 0.72 0.58 0.77 1.29 0.89 0.53 0.51 0.61 0.26 0.20 0.17 0.08 0.10 0.07 0.08 0.23 0.16 0.16 0.38 0.18 0.23 0.03 0.03 0.05 0.14 0.15 0.17 0.30 0.40 0.30 0.28 0.28 0.14 0.15 0.12 0.03 0.00 0.00 0.00 0.00 0.00 0.00 0.00 0.00 0.00 0.00 0.00 0.00 0.00 0.00
0.75 0.64 0.81 1.37 1.16 0.79 0.69 0.83 0.73 0.47 0.47 0.39 0.21 0.15 0.05 0.03 0.07 0.04 0.13 0.56 0.28 0.21 0.34 0.41 0.58 0.15 0.13 0.21 0.20 0.41 0.29 0.47 0.50 0.46 0.29 0.21 0.22 0.48 0.31 0.05 0.00 0.00 0.00 0.00 0.00 0.00 0.00 0.00 0.00 0.00 0.00 0.00 0.00 0.00
1.00 0.77 0.71 0.98 1.25 0.88 0.76 0.81 0.45 0.36 0.37 0.23 0.10 0.03 0.04 0.06 0.03 0.03 0.02 0.10 0.28 0.64 0.61 0.89 0.88 0.45 0.49 0.56 0.44 0.55 0.56 0.66 0.74 0.61 0.28 0.29 0.27 0.34 0.20 0.01 0.01 0.02 0.01 0.01 0.01 0.00 0.00 0.00 0.00 0.00 0.00 0.00 0.00 0.00
0.96 0.92 0.66 0.69 0.97 0.73 0.75 0.80 0.40 0.28 0.19 0.06 0.01 0.01 0.13 0.08 0.04 0.03 0.05 0.15 0.45 0.91 0.79 0.70 0.67 0.62 0.68 0.67 0.65 0.56 0.82 0.72 0.65 0.49 0.19 0.27 0.35 0.32 0.07 0.04 0.05 0.08 0.14 0.16 0.17 0.11 0.05 0.02 0.02 0.02 0.02 0.01 0.01 0.02
0.90 0.94 0.66 0.75 0.78 0.57 0.68 0.62 0.28 0.16 0.06 0.00 0.00 0.02 0.10 0.01 0.00 0.06 0.28 0.67 0.79 0.72 0.50 0.53 0.61 0.67 0.88 0.67 0.56 0.61 0.64 0.50 0.60 0.31 0.22 0.23 0.16 0.07 0.05 0.07 0.08 0.08 0.19 0.26 0.33 0.36 0.30 0.18 0.06 0.04 0.07 0.10 0.09 0.08
0.82 0.85 0.66 0.81 0.69 0.47 0.60 0.40 0.16 0.05 0.01 0.00 0.00 0.01 0.02 0.00 0.15 0.47 0.75 0.74 0.55 0.36 0.30 0.37 0.52 0.47 0.41 0.52 0.48 0.57 0.74 0.40 0.45 0.55 0.30 0.24 0.22 0.15 0.07 0.03 0.02 0.02 0.05 0.09 0.15 0.32 0.38 0.26 0.22 0.12 0.11 0.17 0.24 0.23
0.70 0.78 0.62 0.79 0.59 0.46 0.47 0.26 0.07 0.01 0.01 0.01 0.02 0.01 0.02 0.13 0.38 0.49 0.60 0.46 0.21 0.15 0.21 0.38 0.37 0.35 0.26 0.30 0.38 0.39 0.44 0.36 0.41 0.56 0.40 0.30 0.27 0.12 0.15 0.15 0.09 0.05 0.10 0.06 0.09 0.13 0.14 0.12 0.16 0.18 0.13 0.13 0.15 0.24
0.66 0.65 0.60 0.79 0.56 0.43 0.31 0.12 0.03 0.00 0.01 0.01 0.01 0.01 0.06 0.15 0.27 0.32 0.34 0.27 0.07 0.07 0.10 0.11 0.21 0.21 0.24 0.29 0.20 0.24 0.18 0.10 0.21 0.37 0.44 0.20 0.03 0.03 0.02 0.03 0.10 0.23 0.32 0.24 0.11 0.15 0.16 0.17 0.15 0.12 0.13 0.11 0.08 0.07
0.73 0.61 0.67 0.85 0.54 0.32 0.16 0.09 0.04 0.01 0.01 0.00 0.00 0.00 0.06 0.09 0.14 0.14 0.12 0.12 0.05 0.04 0.03 0.05 0.10 0.14 0.24 0.18 0.19 0.16 0.05 0.08 0.25 0.28 0.17 0.06 0.06 0.03 0.00 0.00 0.00 0.03 0.13 0.29 0.35 0.41 0.39 0.46 0.43 0.44 0.45 0.40 0.31 0.24
0.91 0.70 0.77 0.85 0.49 0.25 0.18 0.16 0.05 0.01 0.00 0.00 0.00 0.00 0.01 0.03 0.02 0.01 0.02 0.05 0.03 0.04 0.05 0.03 0.05 0.05 0.12 0.16 0.12 0.15 0.11 0.30 0.37 0.21 0.14 0.08 0.03 0.01 0.01 0.01 0.00 0.00 0.01 0.01 0.07 0.24 0.32 0.38 0.49 0.44 0.39 0.31 0.23 0.21
1.26 1.31 1.08 0.91 0.45 0.26 0.24 0.23 0.14 0.05 0.01 0.00 0.00 0.00 0.00 0.01 0.00 0.00 0.00 0.01 0.01 0.03 0.06 0.09 0.12 0.11 0.08 0.18 0.15 0.10 0.16 0.35 0.32 0.14 0.06 0.01 0.01 0.04 0.02 0.02 0.01 0.00 0.00 0.00 0.00 0.02 0.06 0.07 0.11 0.12 0.10 0.18 0.23 0.21
1.88 1.79 1.17 0.83 0.47 0.25 0.17 0.26 0.31 0.22 0.06 0.02 0.00 0.00 0.00 0.01 0.00 0.00 0.00 0.00 0.01 0.06 0.20 0.30 0.25 0.10 0.09 0.12 0.05 0.05 0.18 0.16 0.07 0.03 0.02 0.01 0.01 0.05 0.05 0.02 0.02 0.02 0.03 0.04 0.03 0.06 0.10 0.10 0.14 0.19 0.14 0.09 0.10 0.16
1.04 0.64 0.83 0.72 0.42 0.18 0.16 0.24 0.31 0.27 0.16 0.02 0.01 0.00 0.00 0.00 0.00 0.00 0.00 0.00 0.01 0.08 0.26 0.52 0.31 0.18 0.06 0.03 0.02 0.02 0.02 0.03 0.02 0.01 0.00 0.00 0.00 0.02 0.04 0.02 0.01 0.04 0.08 0.21 0.23 0.18 0.15 0.16 0.16 0.14 0.12 0.09 0.07 0.08
0.56 0.49 0.79 0.47 0.31 0.25 0.28 0.23 0.27 0.25 0.04 0.01 0.01 0.00 0.00 0.00 0.01 0.01 0.01 0.00 0.01 0.04 0.14 0.30 0.29 0.09 0.00 0.00 0.01 0.01 0.00 0.00 0.00 0.00 0.01 0.00 0.00 0.02 0.06 0.08 0.08 0.06 0.07 0.13 0.13 0.10 0.08 0.06 0.05 0.07 0.09 0.08 0.06 0.05
0.91 1.04 0.95 0.60 0.25 0.25 0.23 0.20 0.11 0.05 0.03 0.00 0.00 0.00 0.01 0.01 0.01 0.01 0.01 0.01 0.02 0.08 0.12 0.12 0.05 0.02 0.02 0.04 0.06 0.04 0.01 0.01 0.00 0.00 0.01 0.01 0.00 0.00 0.00 0.02 0.05 0.05 0.05 0.05 0.06 0.07 0.07 0.05 0.05 0.06 0.08 0.08 0.07 0.06
1.88 1.53 1.25 0.81 0.68 0.45 0.24 0.08 0.02 0.00 0.00 0.00 0.01 0.00 0.00 0.00 0.00 0.00 0.02 0.03 0.06 0.06 0.04 0.02 0.02 0.02 0.04 0.05 0.06 0.05 0.03 0.02 0.01 0.00 0.00 0.00 0.00 0.00 0.00 0.00 0.01 0.02 0.02 0.02 0.01 0.02 0.04 0.03 0.05 0.07 0.05 0.05 0.08 0.09
1.95 1.49 1.78 1.70 1.12 0.85 0.42 0.12 0.02 0.01 0.01 0.01 0.02 0.01 0.00 0.00 0.00 0.01 0.02 0.04 0.02 0.01 0.01 0.02 0.03 0.05 0.05 0.06 0.07 0.07 0.05 0.02 0.01 0.01 0.00 0.00 0.00 0.00 0.00 0.00 0.01 0.00 0.00 0.00 0.00 0.00 0.01 0.01 0.03 0.03 0.03 0.05 0.08 0.10
1.57 1.55 1.63 1.59 1.25 0.96 0.58 0.16 0.06 0.04 0.02 0.03 0.02 0.01 0.00 0.00 0.01 0.03 0.02 0.01 0.00 0.00 0.00 0.02 0.04 0.07 0.10 0.10 0.14 0.12 0.11 0.08 0.04 0.02 0.01 0.01 0.00 0.00 0.01 0.00 0.00 0.00 0.00 0.00 0.00 0.00 0.00 0.00 0.00 0.00 0.02 0.04 0.06 0.07
1.39 1.61 1.68 1.49 0.94 0.60 0.40 0.30 0.18 0.07 0.09 0.05 0.02 0.02 0.00 0.00 0.03 0.03 0.01 0.00 0.00 0.00 0.00 0.01 0.03 0.03 0.04 0.06 0.09 0.16 0.22 0.21 0.15 0.10 0.06 0.04 0.02 0.01 0.01 0.01 0.00 0.00 0.00 0.00 0.00 0.00 0.00 0.00 0.00 0.00 0.00 0.00 0.01 0.03
2.19 2.16 1.44 1.21 0.74 0.32 0.20 0.17 0.12 0.08 0.07 0.05 0.04 0.02 0.01 0.03 0.02 0.02 0.01 0.00 0.00 0.00 0.00 0.00 0.02 0.03 0.03 0.03 0.05 0.07 0.10 0.18 0.19 0.18 0.18 0.18 0.11 0.08 0.05 0.03 0.02 0.01 0.00 0.00 0.00 0.00 0.00 0.00 0.00 0.00 0.00 0.00 0.01 0.03
1.91 1.31 0.74 0.36 0.24 0.10 0.05 0.05 0.05 0.03 0.02 0.04 0.05 0.02 0.02 0.03 0.02 0.01 0.00 0.00 0.00 0.00 0.00 0.00 0.00 0.01 0.02 0.03 0.04 0.07 0.09 0.13 0.14 0.11 0.10 0.19 0.20 0.19 0.16 0.12 0.08 0.04 0.02 0.04 0.04 0.03 0.02 0.01 0.01 0.01 0.01 0.01 0.02 0.04
1.18 0.75 0.37 0.09 0.03 0.04 0.02 0.01 0.02 0.03 0.04 0.04 0.03 0.03 0.04 0.05 0.02 0.00 0.00 0.00 0.00 0.00 0.00 0.00 0.00 0.01 0.01 0.02 0.03 0.05 0.07 0.12 0.13 0.09 0.10 0.13 0.14 0.14 0.15 0.14 0.12 0.09 0.10 0.11 0.11 0.10 0.07 0.05 0.04 0.04 0.05 0.05 0.04 0.04
0.51 0.10 0.05 0.05 0.02 0.01 0.03 0.04 0.05 0.05 0.04 0.02 0.03 0.05 0.08 0.05 0.01 0.00 0.00 0.00 0.00 0.00 0.00 0.00 0.00 0.00 0.00 0.01 0.02 0.04 0.06 0.09 0.12 0.11 0.12 0.14 0.13 0.13 0.14 0.16 0.22 0.27 0.28 0.21 0.16 0.17 0.18 0.16 0.14 0.13 0.15 0.12 0.09 0.07
0.10 0.02 0.01 0.04 0.03 0.03 0.04 0.04 0.03 0.02 0.02 0.02 0.03 0.03 0.02 0.00 0.00 0.00 0.00 0.00 0.00 0.00 0.00 0.00 0.00 0.00 0.01 0.02 0.03 0.04 0.06 0.09 0.12 0.10 0.08 0.09 0.13 0.16 0.20 0.26 0.35 0.41 0.41 0.37 0.32 0.25 0.25 0.27 0.29 0.28 0.26 0.23 0.19 0.19
0.03 0.01 0.01 0.02 0.03 0.02 0.02 0.02 0.02 0.02 0.03 0.02 0.02 0.03 0.03 0.02 0.01 0.01 0.01 0.01 0.01 0.00 0.00 0.00 0.01 0.02 0.02 0.03 0.05 0.06 0.05 0.06 0.10 0.10 0.10 0.09 0.12 0.17 0.23 0.28 0.36 0.46 0.45 0.42 0.49 0.56 0.53 0.53 0.55 0.52 0.47 0.41 0.35 0.31
0.00 0.00 0.01 0.02 0.04 0.04 0.05 0.05 0.03 0.02 0.03 0.02 0.02 0.03 0.03 0.03 0.02 0.01 0.01 0.00 0.01 0.00 0.01 0.01 0.01 0.02 0.03 0.04 0.06 0.08 0.08 0.09 0.12 0.13 0.15 0.17 0.19 0.22 0.27 0.34 0.38 0.44 0.49 0.49 0.44 0.43 0.40 0.34 0.30 0.29 0.30 0.30 0.27 0.24
0.02 0.02 0.03 0.05 0.09 0.11 0.10 0.07 0.03 0.02 0.02 0.02 0.01 0.01 0.01 0.01 0.01 0.00 0.00 0.00 0.01 0.01 0.01 0.02 0.03 0.05 0.06 0.08 0.11 0.14 0.17 0.18 0.17 0.18 0.19 0.21 0.23 0.25 0.30 0.37 0.44 0.46 0.49 0.49 0.44 0.40 0.36 0.37 0.38 0.37 0.39 0.39 0.37 0.31
0.10 0.08 0.09 0.10 0.15 0.18 0.15 0.09 0.07 0.05 0.05 0.03 0.02 0.01 0.01 0.01 0.01 0.00 0.00 0.00 0.01 0.02 0.03 0.06 0.09 0.12 0.15 0.16 0.18 0.22 0.25 0.29 0.31 0.33 0.37 0.36 0.34 0.37 0.43 0.45 0.44 0.45 0.43 0.43 0.46 0.48 0.48 0.45 0.42 0.40 0.38 0.36 0.35 0.33

GFSWCAN_prec_precacc_087.txt.gz
Total_Precipitation_Accumulation
0.86 0.76 0.71 0.76 0.87 0.90 0.92 0.98 1.03 0.92 0.68 0.53 0.59 0.41 0.35 0.28 0.12 0.04 0.06 0.09 0.22 0.12 0.02 0.00 0.00 0.01 0.01 0.02 0.03 0.01 0.02 0.02 0.06 0.14 0.13 0.07 0.03 0.01 0.00 0.00 0.00 0.02 0.04 0.06 0.07 0.09 0.01 0.00 0.00 0.00 0.00 0.00 0.00 0.00
0.77 0.78 0.68 0.66 0.76 0.78 0.87 0.99 1.15 1.20 1.09 0.91 0.73 0.39 0.28 0.20 0.13 0.07 0.04 0.08 0.15 0.14 0.04 0.00 0.00 0.00 0.00 0.01 0.01 0.00 0.03 0.01 0.04 0.12 0.16 0.10 0.04 0.01 0.00 0.00 0.00 0.00 0.00 0.00 0.00 0.00 0.00 0.00 0.00 0.00 0.00 0.00 0.00 0.01
0.65 0.70 0.73 0.74 0.92 0.80 0.73 0.71 0.70 0.65 0.72 0.78 0.67 0.42 0.24 0.20 0.17 0.23 0.10 0.04 0.10 0.13 0.02 0.00 0.01 0.00 0.00 0.00 0.01 0.01 0.02 0.01 0.04 0.12 0.26 0.11 0.06 0.04 0.02 0.01 0.00 0.00 0.00 0.00 0.00 0.00 0.00 0.00 0.00 0.00 0.00 0.00 0.00 0.02
0.78 0.66 0.73 0.74 0.94 1.08 0.86 0.71 0.59 0.56 0.55 0.58 0.47 0.29 0.19 0.16 0.21 0.17 0.05 0.06 0.12 0.12 0.10 0.02 0.00 0.00 0.00 0.00 0.01 0.02 0.04 0.02 0.08 0.16 0.18 0.14 0.06 0.03 0.02 0.01 0.00 0.01 0.00 0.00 0.00 0.00 0.00 0.00 0.00 0.00 0.00 0.00 0.00 0.00
0.72 0.90 0.84 0.77 0.68 0.89 1.48 1.23 0.70 0.55 0.60 0.61 0.31 0.16 0.17 0.18 0.11 0.06 0.02 0.04 0.08 0.16 0.20 0.05 0.05 0.00 0.00 0.01 0.04 0.04 0.08 0.15 0.15 0.27 0.31 0.16 0.07 0.05 0.01 0.00 0.00 0.00 0.00 0.00 0.00 0.00 0.00 0.00 0.00 0.00 0.00 0.00 0.00 0.00
0.68 0.75 1.19 1.07 0.72 0.58 0.77 1.29 0.89 0.53 0.51 0.61 0.26 0.20 0.17 0.08 0.10 0.07 0.08 0.23 0.16 0.16 0.38 0.18 0.23 0.03 0.03 0.05 0.14 0.15 0.17 0.30 0.40 0.30 0.28 0.28 0.14 0.15 0.12 0.03 0.00 0.00 0.00 0.00 0.00 0.00 0.00 0.00 0.00 0.00 0.00 0.00 0.00 0.00
0.75 0.64 0.81 1.37 1.16 0.79 0.69 0.83 0.73 0.47 0.47 0.39 0.21 0.15 0.05 0.03 0.07 0.04 0.13 0.56 0.28 0.21 0.34 0.41 0.58 0.15 0.13 0.21 0.20 0.41 0.29 0.47 0.50 0.46 0.29 0.21 0.22 0.48 0.31 0.05 0.00 0.00 0.00 0.00 0.00 0.00 0.00 0.00 0.00 0.00 0.00 0.00 0.00 0.00
1.00 0.77 0.71 0.98 1.25 0.88 0.76 0.81 0.45 0.36 0.37 0.23 0.10 0.03 0.04 0.06 0.03 0.03 0.02 0.10 0.28 0.64 0.61 0.89 0.88 0.45 0.49 0.56 0.44 0.55 0.56 0.66 0.74 0.61 0.28 0.29 0.27 0.34 0.20 0.01 0.01 0.02 0.01 0.01 0.01 0.00 0.00 0.00 0.00 0.00 0.00 0.00 0.00 0.00
0.96 0.92 0.66 0.69 0.97 0.73 0.75 0.80 0.40 0.28 0.19 0.06 0.01 0.01 0.13 0.08 0.04 0.03 0.05 0.15 0.45 0.91 0.79 0.70 0.67 0.62 0.68 0.67 0.65 0.56 0.82 0.72 0.65 0.49 0.19 0.27 0.35 0.32 0.07 0.04 0.05 0.08 0.14 0.16 0.17 0.11 0.05 0.02 0.02 0.02 0.02 0.01 0.01 0.02
0.90 0.94 0.67 0.75 0.78 0.57 0.68 0.62 0.29 0.16 0.06 0.00 0.00 0.02 0.10 0.01 0.00 0.06 0.28 0.67 0.79 0.72 0.50 0.53 0.61 0.67 0.88 0.67 0.56 0.61 0.64 0.50 0.60 0.31 0.22 0.23 0.16 0.07 0.05 0.07 0.08 0.08 0.19 0.26 0.33 0.36 0.30 0.18 0.06 0.04 0.07 0.10 0.09 0.08
0.82 0.85 0.66 0.81 0.69 0.47 0.60 0.41 0.16 0.05 0.01 0.00 0.00 0.01 0.02 0.00 0.15 0.47 0.75 0.74 0.55 0.36 0.30 0.37 0.52 0.47 0.41 0.52 0.48 0.57 0.74 0.40 0.45 0.55 0.30 0.24 0.22 0.15 0.07 0.03 0.02 0.02 0.05 0.09 0.15 0.32 0.38 0.26 0.22 0.12 0.11 0.17 0.24 0.23
0.70 0.78 0.62 0.79 0.59 0.46 0.48 0.26 0.07 0.01 0.01 0.01 0.02 0.01 0.02 0.13 0.38 0.49 0.60 0.46 0.21 0.15 0.21 0.38 0.37 0.35 0.26 0.30 0.38 0.39 0.44 0.36 0.41 0.56 0.40 0.30 0.27 0.12 0.15 0.15 0.09 0.05 0.10 0.06 0.09 0.13 0.14 0.12 0.16 0.18 0.13 0.13 0.15 0.24
0.66 0.65 0.60 0.79 0.56 0.43 0.31 0.12 0.03 0.00 0.01 0.01 0.01 0.01 0.06 0.15 0.27 0.32 0.34 0.27 0.07 0.07 0.10 0.11 0.21 0.21 0.24 0.29 0.20 0.24 0.18 0.10 0.21 0.37 0.44 0.20 0.03 0.03 0.02 0.03 0.10 0.23 0.32 0.24 0.11 0.15 0.16 0.17 0.15 0.12 0.13 0.11 0.08 0.07
0.75 0.63 0.69 0.85 0.54 0.32 0.16 0.09 0.04 0.01 0.01 0.00 0.00 0.00 0.06 0.09 0.14 0.14 0.12 0.12 0.05 0.04 0.03 0.05 0.10 0.14 0.24 0.18 0.19 0.16 0.05 0.08 0.25 0.28 0.17 0.06 0.06 0.03 0.00 0.00 0.00 0.03 0.13 0.29 0.35 0.41 0.39 0.46 0.43 0.44 0.45 0.40 0.31 0.24
0.96 0.78 0.85 0.90 0.49 0.25 0.18 0.16 0.05 0.01 0.00 0.00 0.00 0.00 0.01 0.03 0.02 0.01 0.02 0.05 0.03 0.04 0.05 0.03 0.05 0.05 0.12 0.16 0.12 0.15 0.11 0.30 0.37 0.21 0.14 0.08 0.03 0.01 0.01 0.01 0.00 0.00 0.01 0.01 0.07 0.24 0.32 0.38 0.49 0.44 0.39 0.31 0.23 0.21
1.44 1.60 1.35 1.00 0.47 0.26 0.25 0.24 0.14 0.05 0.01 0.00 0.00 0.00 0.00 0.01 0.00 0.00 0.00 0.01 0.01 0.03 0.06 0.09 0.12 0.11 0.08 0.18 0.15 0.10 0.16 0.35 0.32 0.14 0.06 0.01 0.01 0.04 0.02 0.02 0.01 0.00 0.00 0.00 0.00 0.02 0.06 0.07 0.11 0.12 0.10 0.18 0.23 0.21
2.35 2.17 1.31 0.87 0.51 0.28 0.18 0.27 0.31 0.23 0.06 0.03 0.00 0.00 0.00 0.01 0.00 0.00 0.00 0.00 0.01 0.06 0.20 0.30 0.25 0.10 0.09 0.12 0.05 0.05 0.18 0.16 0.07 0.03 0.02 0.01 0.01 0.05 0.05 0.02 0.02 0.02 0.03 0.04 0.03 0.06 0.10 0.10 0.14 0.19 0.14 0.09 0.10 0.16
1.56 0.86 0.87 0.81 0.55 0.30 0.23 0.30 0.34 0.32 0.21 0.03 0.01 0.00 0.00 0.00 0.00 0.00 0.00 0.00 0.01 0.08 0.26 0.52 0.31 0.18 0.06 0.03 0.02 0.02 0.02 0.03 0.02 0.01 0.00 0.00 0.00 0.02 0.04 0.02 0.01 0.04 0.08 0.21 0.23 0.18 0.15 0.16 0.16 0.14 0.12 0.09 0.07 0.08
0.89 0.60 0.89 0.68 0.55 0.43 0.43 0.33 0.34 0.32 0.06 0.01 0.01 0.00 0.00 0.00 0.01 0.01 0.01 0.00 0.01 0.04 0.14 0.30 0.29 0.09 0.00 0.00 0.01 0.01 0.00 0.00 0.00 0.00 0.01 0.00 0.00 0.02 0.06 0.08 0.08 0.06 0.07 0.13 0.13 0.10 0.08 0.06 0.05 0.07 0.09 0.08 0.06 0.05
1.23 1.26 1.19 0.95 0.61 0.60 0.47 0.33 0.17 0.08 0.06 0.00 0.00 0.00 0.01 0.01 0.01 0.01 0.01 0.01 0.02 0.08 0.12 0.12 0.05 0.02 0.02 0.04 0.06 0.04 0.01 0.01 0.00 0.00 0.01 0.01 0.00 0.00 0.00 0.02 0.05 0.05 0.05 0.05 0.06 0.07 0.07 0.05 0.05 0.06 0.08 0.08 0.07 0.06
2.45 1.94 1.65 1.45 1.31 0.84 0.39 0.14 0.04 0.01 0.01 0.00 0.01 0.00 0.00 0.00 0.00 0.00 0.02 0.03 0.06 0.06 0.04 0.02 0.02 0.02 0.04 0.05 0.06 0.05 0.03 0.02 0.01 0.00 0.00 0.00 0.00 0.00 0.00 0.00 0.01 0.02 0.02 0.02 0.01 0.02 0.04 0.03 0.05 0.07 0.05 0.05 0.08 0.09
2.36 1.88 2.48 2.45 1.63 1.13 0.53 0.15 0.02 0.01 0.01 0.02 0.02 0.01 0.00 0.00 0.00 0.01 0.02 0.05 0.03 0.01 0.01 0.02 0.03 0.05 0.05 0.06 0.07 0.07 0.05 0.02 0.01 0.01 0.00 0.00 0.00 0.00 0.00 0.00 0.01 0.00 0.00 0.00 0.00 0.00 0.01 0.01 0.03 0.03 0.03 0.05 0.08 0.10
2.00 2.04 2.15 2.00 1.55 1.13 0.65 0.17 0.06 0.04 0.02 0.03 0.02 0.01 0.00 0.00 0.01 0.03 0.02 0.01 0.00 0.00 0.00 0.02 0.04 0.07 0.10 0.10 0.14 0.12 0.11 0.08 0.04 0.02 0.01 0.01 0.00 0.00 0.01 0.00 0.00 0.00 0.00 0.00 0.00 0.00 0.00 0.00 0.00 0.00 0.02 0.04 0.06 0.07
1.96 2.14 2.16 1.83 1.11 0.69 0.46 0.35 0.23 0.10 0.11 0.05 0.02 0.02 0.00 0.00 0.03 0.03 0.01 0.00 0.00 0.00 0.00 0.01 0.03 0.03 0.04 0.06 0.09 0.16 0.22 0.21 0.15 0.10 0.06 0.04 0.02 0.01 0.01 0.01 0.00 0.00 0.00 0.00 0.00 0.00 0.00 0.00 0.00 0.00 0.00 0.00 0.01 0.03
2.74 2.71 1.86 1.46 0.83 0.35 0.21 0.19 0.14 0.10 0.09 0.06 0.04 0.02 0.01 0.03 0.02 0.02 0.01 0.00 0.00 0.00 0.00 0.00 0.02 0.03 0.03 0.03 0.05 0.07 0.10 0.18 0.19 0.18 0.18 0.18 0.11 0.08 0.05 0.03 0.02 0.01 0.00 0.00 0.00 0.00 0.00 0.00 0.00 0.00 0.00 0.00 0.01 0.03
2.31 1.61 0.91 0.42 0.26 0.10 0.05 0.05 0.05 0.03 0.03 0.04 0.05 0.02 0.02 0.03 0.02 0.01 0.00 0.00 0.00 0.00 0.00 0.00 0.00 0.01 0.02 0.03 0.04 0.07 0.09 0.13 0.14 0.11 0.10 0.19 0.20 0.19 0.16 0.12 0.08 0.04 0.02 0.04 0.04 0.03 0.02 0.01 0.01 0.01 0.01 0.01 0.02 0.04
1.49 0.93 0.43 0.10 0.03 0.04 0.02 0.01 0.02 0.03 0.04 0.04 0.03 0.03 0.04 0.05 0.02 0.00 0.00 0.00 0.00 0.00 0.00 0.00 0.00 0.01 0.01 0.02 0.03 0.05 0.07 0.12 0.13 0.09 0.10 0.13 0.14 0.14 0.15 0.14 0.12 0.09 0.10 0.11 0.11 0.10 0.07 0.05 0.04 0.04 0.05 0.05 0.04 0.04
0.67 0.15 0.06 0.06 0.02 0.01 0.03 0.04 0.05 0.05 0.04 0.02 0.03 0.05 0.08 0.05 0.01 0.00 0.00 0.00 0.00 0.00 0.00 0.00 0.00 0.00 0.00 0.01 0.02 0.04 0.06 0.09 0.12 0.11 0.12 0.14 0.13 0.13 0.14 0.16 0.22 0.27 0.28 0.21 0.16 0.17 0.18 0.16 0.14 0.13 0.15 0.12 0.09 0.07
0.13 0.02 0.01 0.04 0.03 0.03 0.04 0.04 0.03 0.02 0.02 0.02 0.03 0.03 0.02 0.00 0.00 0.00 0.00 0.00 0.00 0.00 0.00 0.00 0.00 0.00 0.01 0.02 0.03 0.04 0.06 0.09 0.12 0.10 0.08 0.09 0.13 0.16 0.20 0.27 0.35 0.42 0.41 0.37 0.32 0.25 0.25 0.27 0.29 0.28 0.26 0.23 0.19 0.19
0.04 0.01 0.01 0.02 0.03 0.02 0.02 0.02 0.02 0.02 0.03 0.02 0.02 0.03 0.03 0.02 0.01 0.01 0.01 0.01 0.01 0.00 0.00 0.00 0.01 0.02 0.02 0.03 0.05 0.06 0.06 0.07 0.10 0.10 0.10 0.10 0.12 0.18 0.24 0.29 0.37 0.46 0.46 0.42 0.49 0.56 0.53 0.53 0.55 0.52 0.47 0.41 0.35 0.31
0.00 0.00 0.01 0.02 0.04 0.04 0.05 0.05 0.03 0.02 0.03 0.02 0.02 0.03 0.03 0.03 0.02 0.01 0.01 0.00 0.01 0.00 0.01 0.01 0.01 0.02 0.03 0.04 0.06 0.09 0.09 0.11 0.14 0.14 0.15 0.18 0.20 0.22 0.28 0.34 0.38 0.44 0.49 0.49 0.44 0.43 0.40 0.34 0.30 0.29 0.30 0.30 0.27 0.24
0.02 0.02 0.03 0.05 0.09 0.11 0.10 0.07 0.03 0.02 0.02 0.02 0.01 0.01 0.01 0.01 0.01 0.00 0.00 0.00 0.01 0.01 0.01 0.02 0.03 0.05 0.06 0.08 0.11 0.14 0.18 0.18 0.18 0.19 0.21 0.22 0.23 0.25 0.30 0.37 0.44 0.47 0.49 0.49 0.44 0.40 0.36 0.37 0.38 0.37 0.39 0.39 0.37 0.31
0.10 0.08 0.09 0.10 0.15 0.18 0.15 0.10 0.08 0.06 0.06 0.03 0.02 0.01 0.01 0.01 0.01 0.00 0.00 0.00 0.01 0.02 0.03 0.06 0.09 0.12 0.15 0.16 0.19 0.23 0.26 0.29 0.31 0.34 0.38 0.36 0.34 0.37 0.43 0.45 0.45 0.45 0.43 0.43 0.46 0.48 0.48 0.45 0.42 0.40 0.38 0.36 0.35 0.33

GFSWCAN_prec_precacc_090.txt.gz
Total_Precipitation_Accumulation
0.86 0.76 0.71 0.76 0.87 0.90 0.92 0.98 1.03 0.92 0.68 0.53 0.59 0.41 0.35 0.28 0.12 0.04 0.06 0.09 0.22 0.12 0.02 0.00 0.00 0.01 0.01 0.02 0.03 0.01 0.02 0.02 0.06 0.14 0.13 0.07 0.03 0.01 0.00 0.00 0.00 0.02 0.04 0.06 0.07 0.09 0.01 0.00 0.00 0.00 0.00 0.00 0.00 0.00
0.77 0.78 0.68 0.66 0.76 0.78 0.87 0.99 1.15 1.20 1.09 0.91 0.73 0.39 0.28 0.20 0.13 0.07 0.04 0.08 0.15 0.14 0.04 0.00 0.00 0.00 0.00 0.01 0.01 0.00 0.03 0.01 0.04 0.12 0.16 0.10 0.04 0.01 0.00 0.00 0.00 0.00 0.00 0.00 0.00 0.00 0.00 0.00 0.00 0.00 0.00 0.00 0.00 0.01
0.65 0.70 0.73 0.74 0.92 0.80 0.73 0.71 0.70 0.65 0.72 0.78 0.67 0.42 0.24 0.20 0.17 0.23 0.10 0.04 0.10 0.13 0.02 0.00 0.01 0.00 0.00 0.00 0.01 0.01 0.02 0.01 0.04 0.12 0.26 0.11 0.06 0.04 0.02 0.01 0.00 0.00 0.00 0.00 0.00 0.00 0.00 0.00 0.00 0.00 0.00 0.00 0.00 0.02
0.78 0.67 0.73 0.74 0.94 1.08 0.86 0.71 0.59 0.56 0.55 0.58 0.47 0.29 0.19 0.16 0.21 0.17 0.05 0.06 0.12 0.12 0.10 0.02 0.00 0.00 0.00 0.00 0.01 0.02 0.04 0.02 0.08 0.16 0.18 0.14 0.06 0.03 0.02 0.01 0.00 0.01 0.00 0.00 0.00 0.00 0.00 0.00 0.00 0.00 0.00 0.00 0.00 0.00
0.72 0.90 0.85 0.77 0.68 0.89 1.48 1.23 0.70 0.55 0.60 0.61 0.31 0.16 0.17 0.18 0.11 0.06 0.02 0.04 0.08 0.16 0.20 0.05 0.05 0.00 0.00 0.01 0.04 0.04 0.08 0.15 0.15 0.27 0.31 0.16 0.07 0.05 0.01 0.00 0.00 0.00 0.00 0.00 0.00 0.00 0.00 0.00 0.00 0.00 0.00 0.00 0.00 0.00
0.68 0.75 1.19 1.07 0.72 0.58 0.77 1.29 0.89 0.53 0.51 0.61 0.26 0.20 0.17 0.08 0.10 0.07 0.08 0.23 0.16 0.16 0.38 0.18 0.23 0.03 0.03 0.05 0.14 0.15 0.17 0.30 0.40 0.30 0.28 0.28 0.14 0.15 0.12 0.03 0.00 0.00 0.00 0.00 0.00 0.00 0.00 0.00 0.00 0.00 0.00 0.00 0.00 0.00
0.75 0.64 0.81 1.37 1.16 0.79 0.69 0.83 0.73 0.47 0.47 0.39 0.21 0.15 0.05 0.03 0.07 0.04 0.13 0.56 0.28 0.21 0.34 0.41 0.58 0.15 0.13 0.21 0.20 0.41 0.29 0.47 0.50 0.46 0.29 0.21 0.22 0.48 0.31 0.05 0.00 0.00 0.00 0.00 0.00 0.00 0.00 0.00 0.00 0.00 0.00 0.00 0.00 0.00
1.00 0.77 0.71 0.98 1.25 0.88 0.76 0.81 0.45 0.36 0.37 0.23 0.10 0.03 0.04 0.06 0.03 0.03 0.02 0.10 0.28 0.64 0.61 0.89 0.88 0.45 0.49 0.56 0.44 0.55 0.56 0.66 0.74 0.61 0.28 0.29 0.27 0.34 0.20 0.01 0.01 0.02 0.01 0.01 0.01 0.00 0.00 0.00 0.00 0.00 0.00 0.00 0.00 0.00
0.96 0.92 0.66 0.69 0.97 0.73 0.75 0.80 0.40 0.28 0.19 0.06 0.01 0.01 0.13 0.08 0.04 0.03 0.05 0.15 0.45 0.91 0.79 0.70 0.67 0.62 0.68 0.67 0.65 0.56 0.82 0.72 0.65 0.49 0.19 0.27 0.35 0.32 0.07 0.04 0.05 0.08 0.14 0.16 0.17 0.11 0.05 0.02 0.02 0.02 0.02 0.01 0.01 0.02
0.90 0.94 0.67 0.75 0.78 0.57 0.68 0.62 0.29 0.17 0.06 0.00 0.00 0.02 0.10 0.01 0.00 0.06 0.28 0.67 0.79 0.72 0.50 0.53 0.61 0.67 0.88 0.67 0.56 0.61 0.64 0.50 0.60 0.31 0.22 0.23 0.16 0.07 0.05 0.07 0.08 0.08 0.19 0.26 0.33 0.36 0.30 0.18 0.06 0.04 0.07 0.10 0.09 0.08
0.83 0.86 0.67 0.81 0.69 0.48 0.60 0.41 0.17 0.06 0.01 0.00 0.00 0.01 0.02 0.00 0.15 0.47 0.75 0.74 0.55 0.36 0.30 0.37 0.52 0.47 0.41 0.52 0.48 0.57 0.74 0.40 0.45 0.55 0.30 0.24 0.22 0.15 0.07 0.03 0.02 0.02 0.05 0.09 0.15 0.32 0.38 0.26 0.22 0.12 0.11 0.17 0.24 0.23
0.72 0.78 0.62 0.79 0.60 0.46 0.48 0.27 0.07 0.01 0.01 0.01 0.02 0.01 0.02 0.13 0.38 0.49 0.60 0.46 0.21 0.15 0.21 0.38 0.37 0.35 0.26 0.30 0.38 0.39 0.44 0.36 0.41 0.56 0.40 0.30 0.27 0.12 0.15 0.15 0.09 0.05 0.10 0.06 0.09 0.13 0.14 0.12 0.16 0.18 0.13 0.13 0.15 0.24
0.70 0.66 0.61 0.79 0.56 0.43 0.32 0.13 0.03 0.00 0.01 0.01 0.01 0.01 0.06 0.15 0.27 0.32 0.34 0.27 0.07 0.07 0.10 0.11 0.21 0.21 0.24 0.29 0.20 0.24 0.18 0.10 0.21 0.37 0.44 0.20 0.03 0.03 0.02 0.03 0.10 0.23 0.32 0.24 0.11 0.15 0.16 0.17 0.15 0.12 0.13 0.11 0.08 0.07
0.83 0.67 0.71 0.90 0.58 0.33 0.16 0.09 0.04 0.01 0.01 0.00 0.00 0.00 0.06 0.09 0.14 0.14 0.12 0.12 0.05 0.04 0.03 0.05 0.10 0.14 0.24 0.18 0.19 0.16 0.05 0.08 0.25 0.28 0.17 0.06 0.06 0.03 0.00 0.00 0.00 0.03 0.13 0.29 0.35 0.41 0.39 0.46 0.43 0.44 0.45 0.40 0.31 0.24
1.11 0.87 0.92 1.01 0.59 0.30 0.20 0.17 0.05 0.01 0.00 0.00 0.00 0.00 0.01 0.03 0.02 0.01 0.02 0.05 0.03 0.04 0.05 0.03 0.05 0.05 0.12 0.16 0.12 0.15 0.11 0.30 0.37 0.21 0.14 0.08 0.03 0.01 0.01 0.01 0.00 0.00 0.01 0.01 0.07 0.24 0.32 0.38 0.49 0.44 0.39 0.31 0.23 0.21
1.66 1.88 1.65 1.20 0.65 0.34 0.30 0.30 0.16 0.05 0.01 0.00 0.00 0.00 0.00 0.01 0.00 0.00 0.00 0.01 0.01 0.03 0.06 0.09 0.12 0.11 0.08 0.18 0.15 0.10 0.16 0.35 0.32 0.14 0.06 0.01 0.01 0.04 0.02 0.02 0.01 0.00 0.00 0.00 0.00 0.02 0.06 0.07 0.11 0.12 0.10 0.18 0.23 0.21
2.78 2.70 1.55 0.97 0.67 0.39 0.34 0.44 0.41 0.29 0.08 0.04 0.00 0.00 0.00 0.01 0.00 0.00 0.00 0.00 0.01 0.06 0.20 0.30 0.25 0.10 0.09 0.12 0.05 0.05 0.18 0.16 0.07 0.03 0.02 0.01 0.01 0.05 0.05 0.02 0.02 0.02 0.03 0.04 0.03 0.06 0.10 0.10 0.14 0.19 0.14 0.09 0.10 0.16
2.19 1.26 0.98 0.94 0.85 0.62 0.62 0.61 0.53 0.46 0.29 0.05 0.01 0.00 0.00 0.00 0.00 0.00 0.00 0.00 0.01 0.08 0.26 0.52 0.31 0.18 0.06 0.03 0.02 0.02 0.02 0.03 0.02 0.01 0.00 0.00 0.00 0.02 0.04 0.02 0.01 0.04 0.08 0.21 0.23 0.18 0.15 0.16 0.16 0.14 0.12 0.09 0.07 0.08
1.37 0.85 1.02 0.96 1.00 0.86 0.83 0.65 0.57 0.40 0.07 0.01 0.01 0.00 0.00 0.00 0.01 0.01 0.01 0.00 0.01 0.04 0.14 0.30 0.29 0.09 0.00 0.00 0.01 0.01 0.00 0.00 0.00 0.00 0.01 0.00 0.00 0.02 0.06 0.08 0.08 0.06 0.07 0.13 0.13 0.10 0.08 0.06 0.05 0.07 0.09 0.08 0.06 0.05
1.64 1.56 1.49 1.33 1.05 1.05 0.87 0.62 0.33 0.16 0.09 0.01 0.00 0.00 0.01 0.01 0.01 0.01 0.01 0.01 0.02 0.08 0.12 0.12 0.05 0.02 0.02 0.04 0.06 0.04 0.01 0.01 0.00 0.00 0.01 0.01 0.00 0.00 0.00 0.02 0.05 0.05 0.05 0.05 0.06 0.07 0.07 0.05 0.05 0.06 0.08 0.08 0.07 0.06
3.07 2.47 2.14 2.04 1.99 1.41 0.74 0.30 0.10 0.03 0.03 0.02 0.01 0.00 0.00 0.00 0.00 0.00 0.02 0.03 0.06 0.06 0.04 0.02 0.02 0.02 0.04 0.05 0.06 0.05 0.03 0.02 0.01 0.00 0.00 0.00 0.00 0.00 0.00 0.00 0.01 0.02 0.02 0.02 0.01 0.02 0.04 0.03 0.05 0.07 0.05 0.05 0.08 0.09
2.81 2.32 3.22 3.18 2.21 1.62 0.82 0.28 0.04 0.02 0.02 0.03 0.02 0.01 0.00 0.00 0.00 0.01 0.02 0.05 0.03 0.01 0.01 0.02 0.04 0.05 0.05 0.06 0.07 0.07 0.05 0.02 0.01 0.01 0.00 0.00 0.00 0.00 0.00 0.00 0.01 0.00 0.00 0.00 0.00 0.00 0.01 0.01 0.03 0.03 0.03 0.05 0.08 0.10
2.46 2.57 2.68 2.45 1.95 1.42 0.81 0.25 0.08 0.05 0.03 0.04 0.04 0.02 0.00 0.00 0.01 0.03 0.02 0.01 0.00 0.00 0.00 0.02 0.04 0.07 0.10 0.10 0.14 0.12 0.11 0.08 0.04 0.02 0.01 0.01 0.00 0.00 0.01 0.00 0.00 0.00 0.00 0.00 0.00 0.00 0.00 0.00 0.00 0.00 0.02 0.04 0.06 0.07
2.40 2.63 2.65 2.25 1.40 0.87 0.58 0.42 0.27 0.13 0.13 0.07 0.05 0.03 0.01 0.00 0.04 0.03 0.01 0.00 0.00 0.00 0.00 0.01 0.03 0.03 0.04 0.06 0.09 0.16 0.22 0.21 0.15 0.10 0.06 0.04 0.02 0.01 0.01 0.01 0.00 0.00 0.00 0.00 0.00 0.00 0.00 0.00 0.00 0.00 0.00 0.00 0.01 0.03
3.18 3.22 2.29 1.82 1.04 0.41 0.23 0.21 0.16 0.11 0.10 0.07 0.05 0.02 0.01 0.03 0.02 0.02 0.01 0.00 0.00 0.00 0.00 0.00 0.02 0.03 0.03 0.03 0.05 0.07 0.10 0.18 0.19 0.18 0.18 0.18 0.11 0.08 0.05 0.03 0.02 0.01 0.00 0.00 0.00 0.00 0.00 0.00 0.00 0.00 0.00 0.00 0.01 0.03
2.71 1.92 1.11 0.53 0.31 0.11 0.05 0.05 0.05 0.04 0.03 0.05 0.05 0.02 0.02 0.03 0.02 0.01 0.00 0.00 0.00 0.00 0.00 0.00 0.00 0.01 0.02 0.03 0.04 0.07 0.09 0.13 0.14 0.11 0.10 0.19 0.20 0.19 0.16 0.12 0.08 0.04 0.02 0.04 0.04 0.03 0.02 0.01 0.01 0.01 0.01 0.01 0.02 0.04
1.83 1.17 0.50 0.12 0.03 0.04 0.02 0.01 0.02 0.03 0.04 0.04 0.04 0.04 0.04 0.05 0.02 0.00 0.00 0.00 0.00 0.00 0.00 0.00 0.00 0.01 0.01 0.02 0.03 0.05 0.07 0.12 0.13 0.09 0.10 0.13 0.14 0.14 0.15 0.14 0.12 0.09 0.10 0.11 0.11 0.10 0.07 0.05 0.04 0.04 0.05 0.05 0.04 0.04
0.85 0.20 0.06 0.07 0.02 0.01 0.03 0.04 0.05 0.05 0.04 0.02 0.03 0.05 0.08 0.05 0.01 0.00 0.00 0.00 0.00 0.00 0.00 0.00 0.00 0.00 0.00 0.01 0.02 0.04 0.06 0.09 0.12 0.11 0.12 0.14 0.13 0.13 0.14 0.16 0.22 0.27 0.28 0.21 0.16 0.17 0.18 0.17 0.14 0.13 0.15 0.12 0.09 0.07
0.16 0.03 0.01 0.04 0.03 0.03 0.04 0.04 0.03 0.02 0.02 0.02 0.03 0.03 0.02 0.00 0.00 0.00 0.00 0.00 0.00 0.00 0.00 0.00 0.00 0.00 0.01 0.02 0.03 0.04 0.06 0.09 0.12 0.10 0.08 0.09 0.13 0.16 0.20 0.27 0.35 0.42 0.41 0.37 0.32 0.25 0.25 0.27 0.29 0.28 0.26 0.23 0.19 0.19
0.04 0.01 0.01 0.02 0.03 0.02 0.02 0.02 0.02 0.02 0.03 0.02 0.02 0.03 0.03 0.02 0.01 0.01 0.01 0.01 0.01 0.00 0.00 0.00 0.01 0.02 0.02 0.03 0.05 0.06 0.06 0.07 0.10 0.10 0.10 0.10 0.12 0.18 0.24 0.29 0.37 0.46 0.46 0.42 0.50 0.57 0.53 0.53 0.55 0.52 0.47 0.41 0.35 0.31
0.00 0.00 0.01 0.02 0.04 0.04 0.05 0.05 0.03 0.02 0.03 0.02 0.02 0.03 0.03 0.03 0.02 0.01 0.01 0.00 0.01 0.00 0.01 0.01 0.01 0.02 0.03 0.04 0.06 0.09 0.09 0.11 0.14 0.14 0.15 0.18 0.20 0.23 0.28 0.34 0.38 0.44 0.49 0.49 0.45 0.43 0.40 0.34 0.30 0.29 0.30 0.30 0.27 0.24
0.02 0.02 0.03 0.05 0.09 0.11 0.10 0.07 0.03 0.02 0.02 0.02 0.01 0.01 0.01 0.01 0.01 0.00 0.00 0.00 0.01 0.01 0.01 0.02 0.03 0.05 0.06 0.08 0.11 0.14 0.18 0.18 0.18 0.19 0.21 0.22 0.23 0.25 0.30 0.37 0.44 0.47 0.49 0.49 0.44 0.40 0.36 0.37 0.38 0.37 0.39 0.39 0.37 0.31
0.12 0.09 0.09 0.11 0.15 0.18 0.15 0.10 0.08 0.07 0.06 0.04 0.02 0.01 0.01 0.01 0.01 0.00 0.00 0.00 0.01 0.02 0.03 0.06 0.09 0.12 0.15 0.16 0.19 0.23 0.26 0.29 0.31 0.34 0.38 0.36 0.34 0.37 0.43 0.45 0.45 0.45 0.43 0.43 0.46 0.48 0.48 0.45 0.42 0.40 0.38 0.36 0.35 0.33

GFSWCAN_prec_precacc_093.txt.gz
Total_Precipitation_Accumulation
0.87 0.76 0.72 0.76 0.87 0.90 0.92 0.98 1.03 0.92 0.68 0.53 0.59 0.41 0.35 0.28 0.12 0.04 0.06 0.09 0.22 0.12 0.02 0.00 0.00 0.01 0.01 0.02 0.03 0.01 0.02 0.02 0.06 0.14 0.13 0.07 0.03 0.01 0.00 0.00 0.00 0.02 0.04 0.06 0.07 0.09 0.01 0.00 0.00 0.00 0.00 0.00 0.00 0.00
0.77 0.79 0.69 0.66 0.76 0.78 0.87 0.99 1.15 1.20 1.09 0.91 0.73 0.39 0.28 0.20 0.13 0.07 0.04 0.08 0.15 0.14 0.04 0.00 0.00 0.00 0.00 0.01 0.01 0.00 0.03 0.01 0.04 0.12 0.16 0.10 0.04 0.01 0.00 0.00 0.00 0.00 0.00 0.00 0.00 0.00 0.00 0.00 0.00 0.00 0.00 0.00 0.00 0.01
0.65 0.70 0.73 0.74 0.92 0.80 0.73 0.71 0.70 0.65 0.72 0.78 0.67 0.42 0.24 0.20 0.17 0.23 0.10 0.04 0.10 0.13 0.02 0.00 0.01 0.00 0.00 0.00 0.01 0.01 0.02 0.01 0.04 0.12 0.26 0.11 0.06 0.04 0.02 0.01 0.00 0.00 0.00 0.00 0.00 0.00 0.00 0.00 0.00 0.00 0.00 0.00 0.00 0.02
0.78 0.67 0.73 0.74 0.94 1.08 0.86 0.71 0.59 0.56 0.55 0.58 0.47 0.29 0.19 0.16 0.21 0.17 0.05 0.06 0.12 0.12 0.10 0.02 0.00 0.00 0.00 0.00 0.01 0.02 0.04 0.02 0.08 0.16 0.18 0.14 0.06 0.03 0.02 0.01 0.00 0.01 0.00 0.00 0.00 0.00 0.00 0.00 0.00 0.00 0.00 0.00 0.00 0.00
0.72 0.90 0.85 0.77 0.69 0.89 1.48 1.23 0.70 0.55 0.60 0.61 0.31 0.16 0.17 0.18 0.11 0.06 0.02 0.04 0.08 0.16 0.20 0.05 0.05 0.00 0.00 0.01 0.04 0.04 0.08 0.15 0.15 0.27 0.31 0.16 0.07 0.05 0.01 0.00 0.00 0.00 0.00 0.00 0.00 0.00 0.00 0.00 0.00 0.00 0.00 0.00 0.00 0.00
0.68 0.75 1.19 1.07 0.72 0.58 0.77 1.29 0.89 0.53 0.51 0.61 0.26 0.20 0.17 0.08 0.10 0.07 0.08 0.23 0.16 0.16 0.38 0.18 0.23 0.03 0.03 0.05 0.14 0.15 0.17 0.30 0.40 0.30 0.28 0.28 0.14 0.15 0.12 0.03 0.00 0.00 0.00 0.00 0.00 0.00 0.00 0.00 0.00 0.00 0.00 0.00 0.00 0.00
0.75 0.64 0.81 1.37 1.16 0.79 0.69 0.83 0.73 0.47 0.47 0.39 0.21 0.15 0.05 0.03 0.07 0.04 0.13 0.56 0.28 0.21 0.34 0.41 0.58 0.15 0.13 0.21 0.20 0.41 0.29 0.47 0.50 0.46 0.29 0.21 0.22 0.48 0.31 0.05 0.00 0.00 0.00 0.00 0.00 0.00 0.00 0.00 0.00 0.00 0.00 0.00 0.00 0.00
1.00 0.77 0.71 0.98 1.25 0.88 0.76 0.81 0.45 0.36 0.37 0.23 0.10 0.03 0.04 0.06 0.03 0.03 0.02 0.10 0.28 0.64 0.61 0.89 0.88 0.45 0.49 0.56 0.44 0.55 0.56 0.66 0.74 0.61 0.28 0.29 0.27 0.34 0.20 0.01 0.01 0.02 0.01 0.01 0.01 0.00 0.00 0.00 0.00 0.00 0.00 0.00 0.00 0.00
0.97 0.93 0.66 0.69 0.97 0.73 0.75 0.80 0.40 0.28 0.19 0.06 0.01 0.01 0.13 0.08 0.04 0.03 0.05 0.15 0.45 0.91 0.79 0.70 0.67 0.62 0.68 0.67 0.65 0.56 0.82 0.72 0.65 0.49 0.19 0.27 0.35 0.32 0.07 0.04 0.05 0.08 0.14 0.16 0.17 0.11 0.05 0.02 0.02 0.02 0.02 0.01 0.01 0.02
0.91 0.95 0.67 0.75 0.78 0.57 0.68 0.62 0.29 0.17 0.06 0.01 0.00 0.02 0.10 0.01 0.00 0.06 0.28 0.67 0.79 0.72 0.50 0.53 0.61 0.67 0.88 0.67 0.56 0.61 0.64 0.50 0.60 0.31 0.22 0.23 0.16 0.07 0.05 0.07 0.08 0.08 0.19 0.26 0.33 0.36 0.30 0.18 0.06 0.04 0.07 0.10 0.09 0.08
0.87 0.89 0.70 0.82 0.70 0.48 0.60 0.41 0.17 0.06 0.02 0.00 0.00 0.01 0.02 0.00 0.15 0.47 0.75 0.74 0.55 0.36 0.30 0.37 0.52 0.47 0.41 0.52 0.48 0.57 0.74 0.40 0.45 0.55 0.30 0.24 0.22 0.15 0.07 0.03 0.02 0.02 0.05 0.09 0.15 0.32 0.38 0.26 0.22 0.12 0.11 0.17 0.24 0.23
0.79 0.85 0.67 0.83 0.62 0.46 0.48 0.27 0.08 0.02 0.01 0.01 0.02 0.01 0.02 0.13 0.38 0.49 0.60 0.46 0.21 0.15 0.21 0.38 0.37 0.35 0.26 0.30 0.38 0.39 0.44 0.36 0.41 0.56 0.40 0.30 0.27 0.12 0.15 0.15 0.09 0.05 0.10 0.06 0.09 0.13 0.14 0.12 0.16 0.18 0.13 0.13 0.15 0.24
0.81 0.77 0.71 0.86 0.60 0.45 0.32 0.13 0.03 0.00 0.01 0.01 0.01 0.01 0.06 0.15 0.27 0.32 0.34 0.27 0.07 0.07 0.10 0.11 0.21 0.21 0.24 0.29 0.20 0.24 0.18 0.10 0.21 0.37 0.44 0.20 0.03 0.03 0.02 0.03 0.10 0.23 0.32 0.24 0.11 0.15 0.16 0.17 0.15 0.12 0.13 0.11 0.08 0.07
0.96 0.83 0.89 1.02 0.66 0.37 0.18 0.11 0.05 0.01 0.01 0.00 0.00 0.00 0.06 0.09 0.14 0.14 0.12 0.12 0.05 0.04 0.03 0.05 0.10 0.14 0.24 0.18 0.19 0.16 0.05 0.08 0.25 0.28 0.17 0.06 0.06 0.03 0.00 0.00 0.00 0.03 0.13 0.29 0.35 0.41 0.39 0.46 0.43 0.44 0.45 0.40 0.31 0.24
1.23 1.04 1.15 1.24 0.75 0.42 0.30 0.24 0.09 0.02 0.00 0.00 0.00 0.00 0.01 0.03 0.02 0.01 0.02 0.05 0.03 0.04 0.05 0.03 0.05 0.05 0.12 0.16 0.12 0.15 0.11 0.30 0.37 0.21 0.14 0.08 0.03 0.01 0.01 0.01 0.00 0.00 0.01 0.01 0.07 0.24 0.32 0.38 0.49 0.44 0.39 0.31 0.23 0.21
1.78 2.18 2.04 1.52 0.89 0.57 0.52 0.51 0.35 0.12 0.05 0.00 0.00 0.00 0.00 0.01 0.00 0.00 0.00 0.01 0.01 0.03 0.06 0.09 0.12 0.11 0.08 0.18 0.15 0.10 0.16 0.35 0.32 0.14 0.06 0.01 0.01 0.04 0.02 0.02 0.01 0.00 0.00 0.00 0.00 0.02 0.06 0.07 0.11 0.12 0.10 0.18 0.23 0.21
2.95 3.04 1.82 1.17 0.94 0.72 0.73 0.84 0.75 0.49 0.19 0.07 0.00 0.00 0.00 0.01 0.00 0.00 0.00 0.00 0.01 0.06 0.20 0.30 0.25 0.10 0.09 0.12 0.05 0.05 0.18 0.16 0.07 0.03 0.02 0.01 0.01 0.05 0.05 0.02 0.02 0.02 0.03 0.04 0.03 0.06 0.10 0.10 0.14 0.19 0.14 0.09 0.10 0.16
2.46 1.47 1.14 1.09 1.19 1.23 1.36 1.15 0.91 0.75 0.42 0.08 0.01 0.00 0.00 0.00 0.01 0.01 0.00 0.00 0.01 0.08 0.26 0.52 0.31 0.18 0.06 0.03 0.02 0.02 0.02 0.03 0.02 0.01 0.00 0.00 0.00 0.02 0.04 0.02 0.01 0.04 0.08 0.21 0.23 0.18 0.15 0.16 0.16 0.14 0.12 0.09 0.07 0.08
1.52 1.02 1.21 1.26 1.48 1.59 1.43 1.06 0.87 0.58 0.10 0.01 0.01 0.00 0.00 0.00 0.01 0.02 0.01 0.00 0.01 0.04 0.14 0.30 0.29 0.09 0.00 0.00 0.01 0.01 0.00 0.00 0.00 0.00 0.01 0.00 0.00 0.02 0.06 0.08 0.08 0.06 0.07 0.13 0.13 0.10 0.08 0.06 0.05 0.07 0.09 0.08 0.06 0.05
1.77 1.74 1.76 1.80 1.49 1.67 1.42 0.96 0.51 0.24 0.10 0.01 0.00 0.00 0.01 0.01 0.01 0.02 0.02 0.01 0.02 0.08 0.12 0.12 0.05 0.02 0.02 0.04 0.06 0.04 0.01 0.01 0.00 0.00 0.01 0.01 0.00 0.00 0.00 0.02 0.05 0.05 0.05 0.05 0.06 0.07 0.07 0.05 0.05 0.06 0.08 0.08 0.07 0.06
3.22 2.69 2.50 2.57 2.53 2.11 1.36 0.63 0.22 0.07 0.04 0.02 0.01 0.00 0.00 0.00 0.00 0.00 0.02 0.03 0.07 0.06 0.04 0.02 0.02 0.02 0.04 0.05 0.06 0.05 0.03 0.02 0.01 0.00 0.00 0.00 0.00 0.00 0.00 0.00 0.01 0.02 0.02 0.02 0.01 0.02 0.04 0.03 0.05 0.07 0.05 0.05 0.08 0.09
2.94 2.56 3.85 3.85 2.75 2.15 1.30 0.56 0.11 0.03 0.02 0.04 0.03 0.01 0.00 0.00 0.00 0.01 0.03 0.09 0.06 0.01 0.01 0.02 0.04 0.05 0.05 0.06 0.07 0.07 0.05 0.02 0.01 0.01 0.00 0.00 0.00 0.00 0.00 0.00 0.01 0.00 0.00 0.00 0.00 0.00 0.01 0.01 0.03 0.03 0.03 0.05 0.08 0.10
2.77 2.95 3.12 2.85 2.31 1.77 1.10 0.42 0.13 0.06 0.03 0.05 0.06 0.04 0.01 0.00 0.01 0.03 0.03 0.02 0.01 0.00 0.00 0.02 0.04 0.07 0.10 0.10 0.14 0.12 0.11 0.08 0.04 0.02 0.01 0.01 0.00 0.00 0.01 0.00 0.00 0.00 0.00 0.00 0.00 0.00 0.00 0.00 0.00 0.00 0.02 0.04 0.06 0.07
2.64 2.95 3.01 2.60 1.69 1.15 0.78 0.55 0.34 0.16 0.15 0.08 0.07 0.06 0.03 0.01 0.04 0.03 0.01 0.00 0.00 0.00 0.00 0.01 0.03 0.03 0.04 0.06 0.09 0.16 0.22 0.21 0.15 0.10 0.06 0.04 0.02 0.01 0.01 0.01 0.00 0.00 0.00 0.00 0.00 0.00 0.00 0.00 0.00 0.00 0.00 0.00 0.01 0.03
3.42 3.57 2.67 2.15 1.26 0.52 0.28 0.24 0.17 0.12 0.11 0.08 0.05 0.02 0.01 0.04 0.02 0.02 0.01 0.00 0.00 0.00 0.00 0.01 0.02 0.03 0.03 0.03 0.05 0.07 0.10 0.18 0.19 0.18 0.18 0.18 0.11 0.08 0.05 0.03 0.02 0.01 0.00 0.00 0.00 0.00 0.00 0.00 0.00 0.00 0.00 0.00 0.01 0.03
3.04 2.17 1.27 0.63 0.35 0.12 0.06 0.05 0.05 0.04 0.03 0.05 0.06 0.03 0.02 0.03 0.03 0.01 0.00 0.00 0.00 0.00 0.00 0.00 0.00 0.01 0.02 0.03 0.04 0.07 0.09 0.13 0.14 0.11 0.10 0.19 0.20 0.19 0.16 0.12 0.08 0.04 0.02 0.04 0.04 0.03 0.02 0.01 0.01 0.01 0.01 0.01 0.02 0.04
2.07 1.39 0.63 0.15 0.03 0.04 0.02 0.01 0.02 0.03 0.04 0.04 0.04 0.04 0.04 0.06 0.02 0.00 0.00 0.00 0.00 0.00 0.00 0.00 0.00 0.01 0.01 0.02 0.03 0.05 0.07 0.12 0.13 0.09 0.10 0.13 0.14 0.14 0.15 0.14 0.12 0.09 0.10 0.11 0.11 0.10 0.07 0.05 0.04 0.04 0.05 0.05 0.04 0.04
0.95 0.25 0.07 0.07 0.02 0.01 0.03 0.04 0.05 0.05 0.04 0.02 0.03 0.05 0.08 0.05 0.01 0.00 0.00 0.00 0.00 0.00 0.00 0.00 0.00 0.00 0.00 0.01 0.02 0.04 0.06 0.09 0.12 0.11 0.12 0.14 0.13 0.13 0.14 0.16 0.22 0.27 0.28 0.21 0.16 0.17 0.18 0.17 0.14 0.13 0.15 0.12 0.09 0.07
0.17 0.03 0.01 0.04 0.03 0.03 0.04 0.04 0.03 0.02 0.02 0.02 0.03 0.03 0.02 0.00 0.00 0.00 0.00 0.00 0.00 0.00 0.00 0.00 0.00 0.00 0.01 0.02 0.03 0.04 0.06 0.09 0.12 0.10 0.08 0.09 0.13 0.16 0.20 0.27 0.35 0.42 0.41 0.37 0.32 0.25 0.25 0.27 0.29 0.28 0.26 0.23 0.19 0.19
0.04 0.01 0.01 0.02 0.03 0.02 0.02 0.02 0.02 0.02 0.03 0.02 0.02 0.03 0.03 0.02 0.01 0.01 0.01 0.01 0.01 0.00 0.00 0.00 0.01 0.02 0.02 0.03 0.05 0.06 0.06 0.07 0.10 0.10 0.10 0.10 0.12 0.18 0.24 0.29 0.37 0.46 0.46 0.42 0.50 0.57 0.53 0.53 0.55 0.52 0.47 0.41 0.35 0.31
0.00 0.01 0.01 0.02 0.04 0.04 0.05 0.05 0.03 0.02 0.03 0.02 0.02 0.03 0.03 0.03 0.02 0.01 0.01 0.00 0.01 0.00 0.01 0.01 0.01 0.02 0.03 0.04 0.06 0.09 0.09 0.11 0.14 0.14 0.15 0.18 0.20 0.23 0.28 0.34 0.38 0.44 0.49 0.49 0.45 0.43 0.40 0.34 0.30 0.29 0.30 0.30 0.27 0.24
0.03 0.02 0.03 0.05 0.09 0.11 0.10 0.07 0.03 0.02 0.02 0.02 0.01 0.01 0.01 0.01 0.01 0.00 0.00 0.00 0.01 0.01 0.01 0.02 0.03 0.05 0.06 0.08 0.11 0.14 0.18 0.18 0.18 0.19 0.21 0.22 0.23 0.25 0.30 0.37 0.44 0.47 0.49 0.49 0.44 0.40 0.36 0.37 0.38 0.37 0.39 0.39 0.37 0.31
0.13 0.10 0.09 0.11 0.16 0.18 0.15 0.10 0.09 0.08 0.07 0.04 0.02 0.01 0.01 0.01 0.01 0.00 0.00 0.00 0.01 0.02 0.03 0.06 0.09 0.12 0.15 0.16 0.19 0.23 0.26 0.29 0.31 0.34 0.38 0.36 0.34 0.37 0.43 0.45 0.45 0.45 0.43 0.43 0.46 0.48 0.48 0.45 0.42 0.40 0.38 0.36 0.35 0.33

GFSWCAN_prec_precacc_096.txt.gz
Total_Precipitation_Accumulation
0.87 0.76 0.72 0.77 0.87 0.90 0.92 0.98 1.03 0.92 0.68 0.53 0.59 0.41 0.35 0.28 0.12 0.04 0.06 0.09 0.22 0.12 0.02 0.00 0.00 0.01 0.01 0.02 0.03 0.01 0.02 0.02 0.06 0.14 0.13 0.07 0.03 0.01 0.00 0.00 0.00 0.02 0.04 0.06 0.07 0.09 0.01 0.00 0.00 0.00 0.00 0.00 0.00 0.00
0.78 0.79 0.69 0.66 0.76 0.78 0.87 0.99 1.15 1.20 1.09 0.91 0.73 0.39 0.28 0.20 0.13 0.07 0.04 0.08 0.15 0.14 0.04 0.00 0.00 0.00 0.00 0.01 0.01 0.00 0.03 0.01 0.04 0.12 0.16 0.10 0.04 0.01 0.00 0.00 0.00 0.00 0.00 0.00 0.00 0.00 0.00 0.00 0.00 0.00 0.00 0.00 0.00 0.01
0.65 0.71 0.73 0.74 0.92 0.80 0.73 0.71 0.70 0.65 0.72 0.78 0.67 0.42 0.24 0.20 0.17 0.23 0.10 0.04 0.10 0.13 0.02 0.00 0.01 0.00 0.00 0.00 0.01 0.01 0.02 0.01 0.04 0.12 0.26 0.11 0.06 0.04 0.02 0.01 0.00 0.00 0.00 0.00 0.00 0.00 0.00 0.00 0.00 0.00 0.00 0.00 0.00 0.02
0.78 0.67 0.73 0.74 0.94 1.08 0.86 0.71 0.59 0.56 0.55 0.58 0.47 0.29 0.19 0.16 0.21 0.17 0.05 0.06 0.12 0.12 0.10 0.02 0.00 0.00 0.00 0.00 0.01 0.02 0.04 0.02 0.08 0.16 0.18 0.14 0.06 0.03 0.02 0.01 0.00 0.01 0.00 0.00 0.00 0.00 0.00 0.00 0.00 0.00 0.00 0.00 0.00 0.00
0.72 0.90 0.85 0.77 0.69 0.89 1.48 1.23 0.70 0.55 0.60 0.61 0.31 0.16 0.17 0.18 0.11 0.06 0.02 0.04 0.08 0.16 0.20 0.05 0.05 0.00 0.00 0.01 0.04 0.04 0.08 0.15 0.15 0.27 0.31 0.16 0.07 0.05 0.01 0.00 0.00 0.00 0.00 0.00 0.00 0.00 0.00 0.00 0.00 0.00 0.00 0.00 0.00 0.00
0.68 0.75 1.20 1.07 0.72 0.58 0.77 1.29 0.89 0.53 0.51 0.61 0.26 0.20 0.17 0.08 0.10 0.07 0.08 0.23 0.16 0.16 0.38 0.18 0.23 0.03 0.03 0.05 0.14 0.15 0.17 0.30 0.40 0.30 0.28 0.28 0.14 0.15 0.12 0.03 0.00 0.00 0.00 0.00 0.00 0.00 0.00 0.00 0.00 0.00 0.00 0.00 0.00 0.00
0.75 0.65 0.81 1.37 1.16 0.79 0.69 0.83 0.73 0.47 0.47 0.39 0.21 0.15 0.05 0.03 0.07 0.04 0.13 0.56 0.28 0.21 0.34 0.41 0.58 0.15 0.13 0.21 0.20 0.41 0.29 0.47 0.50 0.46 0.29 0.21 0.22 0.48 0.31 0.05 0.00 0.00 0.00 0.00 0.00 0.00 0.00 0.00 0.00 0.00 0.00 0.00 0.00 0.00
1.03 0.80 0.73 0.99 1.26 0.88 0.76 0.81 0.45 0.36 0.37 0.23 0.10 0.03 0.04 0.06 0.03 0.03 0.02 0.10 0.28 0.64 0.61 0.89 0.88 0.45 0.49 0.56 0.44 0.55 0.56 0.66 0.74 0.61 0.28 0.29 0.27 0.34 0.20 0.01 0.01 0.02 0.01 0.01 0.01 0.00 0.00 0.00 0.00 0.00 0.00 0.00 0.00 0.00
1.00 0.97 0.71 0.73 0.99 0.73 0.75 0.80 0.40 0.28 0.19 0.06 0.02 0.01 0.13 0.08 0.04 0.03 0.05 0.15 0.45 0.91 0.79 0.70 0.67 0.62 0.68 0.67 0.65 0.56 0.82 0.72 0.65 0.49 0.19 0.27 0.35 0.32 0.07 0.04 0.05 0.08 0.14 0.16 0.17 0.11 0.05 0.02 0.02 0.02 0.02 0.01 0.01 0.02
0.94 0.99 0.72 0.80 0.84 0.60 0.69 0.62 0.29 0.17 0.06 0.01 0.00 0.02 0.10 0.01 0.00 0.06 0.28 0.67 0.79 0.72 0.50 0.53 0.61 0.67 0.88 0.67 0.56 0.61 0.64 0.50 0.60 0.31 0.22 0.23 0.16 0.07 0.05 0.07 0.08 0.08 0.19 0.26 0.33 0.36 0.30 0.18 0.06 0.04 0.07 0.10 0.09 0.08
0.89 0.94 0.76 0.90 0.78 0.55 0.64 0.42 0.18 0.06 0.03 0.00 0.00 0.01 0.02 0.00 0.15 0.47 0.75 0.74 0.55 0.36 0.30 0.37 0.52 0.47 0.41 0.52 0.48 0.57 0.74 0.40 0.45 0.55 0.30 0.24 0.22 0.15 0.07 0.03 0.02 0.02 0.05 0.09 0.15 0.32 0.38 0.26 0.22 0.12 0.11 0.17 0.24 0.23
0.81 0.89 0.74 0.92 0.73 0.59 0.57 0.31 0.09 0.02 0.01 0.01 0.02 0.01 0.02 0.13 0.38 0.49 0.60 0.46 0.21 0.15 0.21 0.38 0.37 0.35 0.26 0.30 0.38 0.39 0.44 0.36 0.41 0.56 0.40 0.30 0.27 0.12 0.15 0.15 0.09 0.05 0.10 0.06 0.09 0.13 0.14 0.12 0.16 0.18 0.13 0.13 0.15 0.24
0.82 0.78 0.75 0.96 0.75 0.61 0.45 0.21 0.09 0.02 0.01 0.01 0.01 0.01 0.06 0.15 0.27 0.32 0.34 0.27 0.07 0.07 0.10 0.11 0.21 0.21 0.24 0.29 0.20 0.24 0.18 0.10 0.21 0.37 0.44 0.20 0.03 0.03 0.02 0.03 0.10 0.23 0.32 0.24 0.11 0.15 0.16 0.17 0.15 0.12 0.13 0.11 0.08 0.07
0.98 0.85 0.92 1.11 0.82 0.56 0.35 0.26 0.20 0.08 0.08 0.04 0.00 0.00 0.06 0.09 0.14 0.14 0.12 0.12 0.05 0.04 0.03 0.05 0.10 0.14 0.24 0.18 0.19 0.16 0.05 0.08 0.25 0.28 0.17 0.06 0.06 0.03 0.00 0.00 0.00 0.03 0.13 0.29 0.35 0.41 0.39 0.46 0.43 0.44 0.45 0.40 0.31 0.24
1.25 1.08 1.21 1.34 0.90 0.61 0.52 0.49 0.32 0.21 0.17 0.05 0.00 0.00 0.01 0.03 0.02 0.01 0.02 0.05 0.03 0.04 0.05 0.03 0.05 0.05 0.12 0.16 0.12 0.15 0.11 0.30 0.37 0.21 0.14 0.08 0.03 0.01 0.01 0.01 0.00 0.00 0.01 0.01 0.07 0.24 0.32 0.38 0.49 0.44 0.39 0.31 0.23 0.21
1.79 2.23 2.11 1.61 1.05 0.80 0.81 0.94 0.85 0.53 0.33 0.09 0.01 0.00 0.00 0.01 0.00 0.00 0.00 0.01 0.01 0.03 0.06 0.09 0.12 0.11 0.08 0.18 0.15 0.10 0.16 0.35 0.32 0.14 0.06 0.01 0.01 0.04 0.02 0.02 0.01 0.00 0.00 0.00 0.00 0.02 0.06 0.07 0.11 0.12 0.10 0.18 0.23 0.21
2.97 3.08 1.85 1.21 1.07 1.00 1.21 1.51 1.28 0.93 0.47 0.21 0.01 0.00 0.00 0.01 0.00 0.00 0.00 0.00 0.01 0.06 0.20 0.30 0.25 0.10 0.09 0.12 0.05 0.05 0.18 0.16 0.07 0.03 0.02 0.01 0.01 0.05 0.05 0.02 0.02 0.02 0.03 0.04 0.03 0.06 0.10 0.10 0.14 0.19 0.14 0.09 0.10 0.16
2.48 1.48 1.16 1.12 1.35 1.70 2.23 1.93 1.43 1.22 0.71 0.14 0.01 0.00 0.00 0.00 0.01 0.01 0.00 0.00 0.01 0.08 0.26 0.52 0.31 0.18 0.06 0.03 0.02 0.02 0.02 0.03 0.02 0.01 0.00 0.00 0.00 0.02 0.04 0.02 0.01 0.04 0.08 0.21 0.23 0.18 0.15 0.16 0.16 0.14 0.12 0.09 0.07 0.08
1.53 1.04 1.24 1.35 1.75 2.12 2.08 1.57 1.27 0.87 0.18 0.02 0.01 0.00 0.00 0.00 0.01 0.02 0.02 0.00 0.01 0.04 0.14 0.30 0.29 0.09 0.00 0.00 0.01 0.01 0.00 0.00 0.00 0.00 0.01 0.00 0.00 0.02 0.06 0.08 0.08 0.06 0.07 0.13 0.13 0.10 0.08 0.06 0.05 0.07 0.09 0.08 0.06 0.05
1.79 1.76 1.78 1.95 1.81 2.07 1.97 1.44 0.80 0.39 0.15 0.01 0.00 0.00 0.01 0.01 0.01 0.02 0.02 0.01 0.02 0.08 0.13 0.13 0.05 0.02 0.03 0.04 0.06 0.04 0.01 0.01 0.00 0.00 0.01 0.01 0.00 0.00 0.00 0.02 0.05 0.05 0.05 0.05 0.06 0.07 0.07 0.05 0.05 0.06 0.08 0.08 0.07 0.06
3.25 2.70 2.55 2.77 2.87 2.52 1.76 0.97 0.38 0.14 0.06 0.03 0.01 0.00 0.00 0.00 0.00 0.00 0.02 0.04 0.11 0.09 0.04 0.02 0.02 0.02 0.04 0.05 0.06 0.05 0.03 0.02 0.01 0.00 0.00 0.00 0.00 0.00 0.00 0.00 0.01 0.02 0.02 0.02 0.01 0.02 0.04 0.03 0.05 0.07 0.05 0.05 0.08 0.09
2.97 2.62 3.96 4.07 3.04 2.50 1.65 0.86 0.23 0.06 0.02 0.04 0.03 0.03 0.02 0.01 0.00 0.01 0.04 0.15 0.13 0.02 0.01 0.02 0.04 0.05 0.05 0.06 0.07 0.07 0.05 0.02 0.01 0.01 0.00 0.00 0.00 0.00 0.00 0.00 0.01 0.00 0.00 0.00 0.00 0.00 0.01 0.01 0.03 0.03 0.03 0.05 0.08 0.10
2.82 2.99 3.21 3.03 2.58 2.06 1.31 0.57 0.21 0.09 0.03 0.05 0.07 0.07 0.04 0.01 0.01 0.03 0.03 0.04 0.01 0.00 0.00 0.02 0.04 0.07 0.10 0.10 0.14 0.12 0.11 0.08 0.04 0.02 0.01 0.01 0.00 0.00 0.01 0.00 0.00 0.00 0.00 0.00 0.00 0.00 0.00 0.00 0.00 0.00 0.02 0.04 0.06 0.07
2.75 3.10 3.18 2.79 1.88 1.36 0.94 0.67 0.42 0.20 0.19 0.11 0.10 0.09 0.03 0.01 0.04 0.04 0.01 0.00 0.00 0.00 0.00 0.01 0.03 0.03 0.04 0.06 0.09 0.16 0.22 0.21 0.15 0.10 0.06 0.04 0.02 0.01 0.01 0.01 0.00 0.00 0.00 0.00 0.00 0.00 0.00 0.00 0.00 0.00 0.00 0.00 0.01 0.03
3.62 3.82 2.91 2.37 1.46 0.61 0.32 0.26 0.18 0.13 0.12 0.09 0.06 0.02 0.02 0.06 0.05 0.04 0.01 0.00 0.00 0.00 0.00 0.01 0.02 0.03 0.03 0.03 0.05 0.07 0.10 0.18 0.19 0.18 0.18 0.18 0.11 0.08 0.05 0.03 0.02 0.01 0.00 0.00 0.00 0.00 0.00 0.00 0.00 0.00 0.00 0.00 0.01 0.03
3.24 2.27 1.33 0.65 0.37 0.13 0.06 0.06 0.06 0.04 0.03 0.06 0.06 0.03 0.03 0.07 0.07 0.02 0.00 0.00 0.00 0.00 0.00 0.00 0.00 0.01 0.02 0.03 0.04 0.07 0.09 0.13 0.14 0.11 0.10 0.19 0.20 0.19 0.16 0.12 0.08 0.04 0.02 0.04 0.04 0.03 0.02 0.01 0.01 0.01 0.01 0.01 0.02 0.04
2.22 1.48 0.66 0.16 0.04 0.04 0.02 0.01 0.02 0.03 0.04 0.04 0.04 0.04 0.05 0.08 0.03 0.00 0.00 0.00 0.00 0.00 0.00 0.00 0.00 0.01 0.01 0.02 0.03 0.05 0.07 0.12 0.13 0.09 0.10 0.13 0.14 0.14 0.15 0.14 0.12 0.09 0.10 0.11 0.11 0.10 0.07 0.05 0.04 0.04 0.05 0.05 0.04 0.04
0.98 0.26 0.08 0.08 0.02 0.01 0.03 0.04 0.05 0.05 0.04 0.02 0.03 0.05 0.08 0.05 0.01 0.00 0.00 0.00 0.00 0.00 0.00 0.00 0.00 0.00 0.00 0.01 0.02 0.04 0.06 0.09 0.12 0.11 0.12 0.14 0.13 0.13 0.14 0.16 0.22 0.27 0.28 0.21 0.16 0.17 0.18 0.17 0.14 0.13 0.15 0.12 0.09 0.07
0.18 0.03 0.01 0.04 0.03 0.03 0.04 0.04 0.03 0.02 0.02 0.02 0.03 0.03 0.02 0.00 0.00 0.00 0.00 0.00 0.00 0.00 0.00 0.00 0.00 0.00 0.01 0.02 0.03 0.04 0.06 0.09 0.12 0.10 0.08 0.09 0.13 0.16 0.20 0.27 0.35 0.42 0.41 0.37 0.32 0.25 0.25 0.27 0.29 0.28 0.26 0.23 0.19 0.19
0.04 0.01 0.01 0.02 0.03 0.02 0.02 0.02 0.02 0.02 0.03 0.02 0.02 0.03 0.03 0.02 0.01 0.01 0.01 0.01 0.01 0.00 0.00 0.00 0.01 0.02 0.02 0.03 0.05 0.06 0.06 0.07 0.10 0.10 0.10 0.10 0.12 0.18 0.24 0.29 0.37 0.46 0.46 0.42 0.50 0.57 0.53 0.53 0.55 0.52 0.47 0.41 0.35 0.31
0.00 0.01 0.01 0.02 0.04 0.04 0.05 0.05 0.03 0.02 0.03 0.02 0.02 0.03 0.03 0.03 0.02 0.01 0.01 0.00 0.01 0.00 0.01 0.01 0.01 0.02 0.03 0.04 0.06 0.09 0.09 0.11 0.14 0.14 0.15 0.18 0.20 0.23 0.28 0.34 0.38 0.44 0.49 0.49 0.45 0.43 0.40 0.34 0.30 0.29 0.30 0.30 0.27 0.24
0.03 0.02 0.03 0.05 0.09 0.11 0.10 0.07 0.03 0.02 0.02 0.02 0.01 0.01 0.01 0.01 0.01 0.00 0.00 0.00 0.01 0.01 0.01 0.02 0.03 0.05 0.06 0.08 0.11 0.14 0.18 0.18 0.18 0.19 0.21 0.22 0.23 0.25 0.30 0.37 0.44 0.47 0.49 0.49 0.44 0.40 0.36 0.37 0.38 0.37 0.39 0.39 0.37 0.31
0.14 0.11 0.10 0.11 0.16 0.19 0.15 0.10 0.09 0.08 0.08 0.04 0.02 0.01 0.01 0.01 0.01 0.00 0.00 0.00 0.01 0.02 0.03 0.06 0.09 0.12 0.15 0.16 0.19 0.23 0.26 0.29 0.31 0.34 0.38 0.36 0.34 0.37 0.43 0.45 0.45 0.45 0.43 0.43 0.46 0.48 0.48 0.45 0.42 0.40 0.38 0.36 0.35 0.33

GFSWCAN_prec_precacc_099.txt.gz
Total_Precipitation_Accumulation
0.87 0.77 0.72 0.77 0.87 0.90 0.92 0.98 1.03 0.92 0.68 0.53 0.59 0.41 0.35 0.28 0.12 0.04 0.06 0.09 0.22 0.12 0.02 0.00 0.00 0.01 0.01 0.02 0.03 0.01 0.02 0.02 0.06 0.14 0.13 0.07 0.03 0.01 0.00 0.00 0.00 0.02 0.04 0.06 0.07 0.09 0.01 0.00 0.00 0.00 0.00 0.00 0.00 0.00
0.78 0.79 0.69 0.66 0.76 0.78 0.87 0.99 1.15 1.20 1.09 0.91 0.73 0.39 0.28 0.20 0.13 0.07 0.04 0.08 0.15 0.14 0.04 0.00 0.00 0.00 0.00 0.01 0.01 0.00 0.03 0.01 0.04 0.12 0.16 0.10 0.04 0.01 0.00 0.00 0.00 0.00 0.00 0.00 0.00 0.00 0.00 0.00 0.00 0.00 0.00 0.00 0.00 0.01
0.65 0.71 0.73 0.74 0.92 0.80 0.73 0.71 0.70 0.65 0.72 0.78 0.67 0.43 0.24 0.20 0.17 0.23 0.10 0.04 0.10 0.13 0.02 0.00 0.01 0.00 0.00 0.00 0.01 0.01 0.02 0.01 0.04 0.12 0.26 0.11 0.06 0.04 0.02 0.01 0.00 0.00 0.00 0.00 0.00 0.00 0.00 0.00 0.00 0.00 0.00 0.00 0.00 0.02
0.78 0.67 0.73 0.74 0.94 1.08 0.86 0.71 0.59 0.56 0.55 0.58 0.47 0.29 0.19 0.16 0.21 0.17 0.05 0.06 0.12 0.12 0.10 0.02 0.00 0.00 0.00 0.00 0.01 0.02 0.04 0.02 0.08 0.16 0.18 0.14 0.06 0.03 0.02 0.01 0.00 0.01 0.00 0.00 0.00 0.00 0.00 0.00 0.00 0.00 0.00 0.00 0.00 0.00
0.72 0.91 0.85 0.78 0.69 0.89 1.48 1.23 0.70 0.55 0.60 0.61 0.31 0.16 0.17 0.18 0.11 0.06 0.02 0.04 0.08 0.16 0.20 0.05 0.05 0.00 0.00 0.01 0.04 0.04 0.08 0.15 0.15 0.27 0.31 0.16 0.07 0.05 0.01 0.00 0.00 0.00 0.00 0.00 0.00 0.00 0.00 0.00 0.00 0.00 0.00 0.00 0.00 0.00
0.68 0.76 1.21 1.09 0.73 0.59 0.77 1.29 0.89 0.53 0.51 0.61 0.26 0.20 0.17 0.08 0.10 0.07 0.08 0.23 0.16 0.16 0.38 0.18 0.23 0.03 0.03 0.05 0.14 0.15 0.17 0.30 0.40 0.30 0.28 0.28 0.14 0.15 0.12 0.03 0.00 0.00 0.00 0.00 0.00 0.00 0.00 0.00 0.00 0.00 0.00 0.00 0.00 0.00
0.76 0.65 0.82 1.39 1.18 0.80 0.70 0.83 0.73 0.47 0.47 0.39 0.21 0.15 0.05 0.03 0.07 0.04 0.13 0.56 0.28 0.21 0.34 0.41 0.58 0.15 0.13 0.21 0.20 0.41 0.29 0.47 0.50 0.46 0.29 0.21 0.22 0.48 0.31 0.05 0.00 0.00 0.00 0.00 0.00 0.00 0.00 0.00 0.00 0.00 0.00 0.00 0.00 0.00
1.03 0.80 0.74 1.02 1.28 0.90 0.77 0.81 0.45 0.36 0.37 0.23 0.10 0.03 0.04 0.06 0.03 0.03 0.02 0.10 0.28 0.64 0.61 0.89 0.88 0.45 0.49 0.56 0.44 0.55 0.56 0.66 0.74 0.61 0.28 0.29 0.27 0.34 0.20 0.01 0.01 0.02 0.01 0.01 0.01 0.00 0.00 0.00 0.00 0.00 0.00 0.00 0.00 0.00
1.01 0.97 0.71 0.74 1.04 0.79 0.79 0.82 0.41 0.28 0.19 0.06 0.02 0.01 0.13 0.08 0.04 0.03 0.05 0.15 0.45 0.91 0.79 0.70 0.67 0.62 0.68 0.67 0.65 0.56 0.82 0.72 0.65 0.49 0.19 0.27 0.35 0.32 0.07 0.04 0.05 0.08 0.14 0.16 0.17 0.11 0.05 0.02 0.02 0.02 0.02 0.01 0.01 0.02
0.94 1.00 0.73 0.81 0.87 0.70 0.81 0.70 0.32 0.18 0.07 0.02 0.00 0.02 0.10 0.01 0.00 0.06 0.28 0.67 0.79 0.72 0.50 0.53 0.61 0.67 0.88 0.67 0.56 0.61 0.64 0.50 0.60 0.31 0.22 0.23 0.16 0.07 0.05 0.07 0.08 0.08 0.19 0.26 0.33 0.36 0.30 0.18 0.06 0.04 0.07 0.10 0.09 0.08
0.89 0.94 0.77 0.91 0.79 0.61 0.78 0.58 0.27 0.13 0.06 0.01 0.00 0.01 0.02 0.00 0.15 0.47 0.75 0.74 0.55 0.36 0.30 0.37 0.52 0.47 0.41 0.52 0.48 0.57 0.74 0.40 0.45 0.55 0.30 0.24 0.22 0.15 0.07 0.03 0.02 0.02 0.05 0.09 0.15 0.32 0.38 0.26 0.22 0.12 0.11 0.17 0.24 0.23
0.81 0.89 0.74 0.93 0.74 0.62 0.67 0.49 0.25 0.12 0.03 0.02 0.02 0.01 0.02 0.13 0.38 0.49 0.60 0.46 0.21 0.15 0.21 0.38 0.37 0.35 0.26 0.30 0.38 0.39 0.44 0.36 0.41 0.56 0.40 0.30 0.27 0.12 0.15 0.15 0.09 0.05 0.10 0.06 0.09 0.13 0.14 0.12 0.16 0.18 0.13 0.13 0.15 0.24
0.82 0.78 0.75 0.96 0.76 0.65 0.54 0.40 0.28 0.14 0.10 0.10 0.06 0.02 0.06 0.15 0.27 0.32 0.34 0.27 0.07 0.07 0.10 0.11 0.21 0.21 0.24 0.29 0.20 0.24 0.18 0.10 0.21 0.37 0.44 0.20 0.03 0.03 0.02 0.03 0.10 0.23 0.32 0.24 0.11 0.15 0.16 0.17 0.15 0.12 0.13 0.11 0.08 0.07
0.98 0.85 0.92 1.11 0.83 0.60 0.46 0.48 0.49 0.32 0.31 0.24 0.10 0.05 0.07 0.09 0.14 0.14 0.12 0.12 0.05 0.04 0.03 0.05 0.10 0.14 0.24 0.18 0.19 0.16 0.05 0.08 0.25 0.28 0.17 0.06 0.06 0.03 0.00 0.00 0.00 0.03 0.13 0.29 0.35 0.41 0.39 0.46 0.43 0.44 0.45 0.40 0.31 0.24
1.25 1.08 1.22 1.35 0.91 0.63 0.60 0.74 0.68 0.57 0.52 0.28 0.10 0.02 0.01 0.03 0.02 0.01 0.02 0.05 0.03 0.04 0.05 0.03 0.05 0.05 0.12 0.16 0.12 0.15 0.11 0.30 0.37 0.21 0.14 0.08 0.03 0.01 0.01 0.01 0.00 0.00 0.01 0.01 0.07 0.24 0.32 0.38 0.49 0.44 0.39 0.31 0.23 0.21
1.79 2.24 2.12 1.61 1.05 0.81 0.88 1.23 1.37 1.08 0.75 0.38 0.13 0.01 0.00 0.01 0.00 0.00 0.00 0.01 0.01 0.03 0.06 0.09 0.12 0.11 0.08 0.18 0.15 0.10 0.16 0.35 0.32 0.14 0.06 0.01 0.01 0.04 0.02 0.02 0.01 0.00 0.00 0.00 0.00 0.02 0.06 0.07 0.11 0.12 0.10 0.18 0.23 0.21
2.98 3.10 1.85 1.22 1.09 1.08 1.40 1.88 1.74 1.38 0.85 0.49 0.07 0.00 0.00 0.01 0.00 0.00 0.00 0.00 0.02 0.06 0.20 0.30 0.25 0.10 0.09 0.12 0.05 0.05 0.18 0.16 0.07 0.03 0.02 0.01 0.01 0.05 0.05 0.02 0.02 0.02 0.03 0.04 0.03 0.06 0.10 0.10 0.14 0.19 0.14 0.09 0.10 0.16
2.49 1.48 1.16 1.14 1.42 1.85 2.63 2.34 1.79 1.62 1.04 0.26 0.02 0.00 0.00 0.00 0.01 0.01 0.00 0.00 0.01 0.08 0.26 0.53 0.31 0.18 0.06 0.03 0.02 0.02 0.02 0.03 0.02 0.01 0.00 0.00 0.00 0.02 0.04 0.02 0.01 0.04 0.08 0.21 0.23 0.18 0.15 0.16 0.16 0.14 0.12 0.09 0.07 0.08
1.53 1.04 1.24 1.40 1.86 2.23 2.28 1.93 1.61 1.21 0.30 0.03 0.01 0.00 0.00 0.00 0.01 0.02 0.03 0.02 0.02 0.04 0.16 0.31 0.29 0.10 0.00 0.00 0.01 0.01 0.00 0.00 0.00 0.00 0.01 0.00 0.00 0.02 0.06 0.08 0.08 0.06 0.07 0.13 0.13 0.10 0.08 0.06 0.05 0.07 0.09 0.08 0.06 0.05
1.82 1.77 1.79 2.01 1.86 2.18 2.21 1.75 1.07 0.56 0.21 0.02 0.00 0.00 0.01 0.01 0.01 0.02 0.03 0.03 0.05 0.13 0.21 0.17 0.05 0.02 0.03 0.04 0.06 0.04 0.01 0.01 0.00 0.00 0.01 0.01 0.00 0.00 0.00 0.02 0.05 0.05 0.05 0.05 0.06 0.07 0.07 0.05 0.05 0.06 0.08 0.08 0.07 0.06
3.28 2.71 2.59 2.88 2.97 2.62 1.93 1.22 0.57 0.21 0.08 0.03 0.01 0.00 0.01 0.00 0.00 0.00 0.02 0.05 0.19 0.23 0.10 0.02 0.02 0.02 0.04 0.05 0.06 0.05 0.03 0.02 0.01 0.00 0.00 0.00 0.00 0.00 0.00 0.00 0.01 0.02 0.02 0.02 0.01 0.02 0.04 0.03 0.05 0.07 0.05 0.05 0.08 0.09
2.99 2.68 4.02 4.12 3.11 2.55 1.72 0.95 0.34 0.11 0.04 0.05 0.04 0.03 0.03 0.01 0.00 0.01 0.04 0.22 0.24 0.05 0.01 0.02 0.04 0.05 0.05 0.06 0.07 0.07 0.05 0.02 0.01 0.01 0.00 0.00 0.00 0.00 0.00 0.00 0.01 0.00 0.00 0.00 0.00 0.00 0.01 0.01 0.03 0.03 0.03 0.05 0.08 0.10
2.88 3.06 3.30 3.12 2.67 2.17 1.36 0.60 0.25 0.13 0.05 0.05 0.08 0.10 0.06 0.01 0.01 0.03 0.05 0.06 0.03 0.00 0.00 0.02 0.04 0.07 0.10 0.10 0.14 0.12 0.11 0.08 0.04 0.02 0.01 0.01 0.00 0.00 0.01 0.00 0.00 0.00 0.00 0.00 0.00 0.00 0.00 0.00 0.00 0.00 0.02 0.04 0.06 0.07
2.84 3.23 3.33 3.00 2.03 1.44 0.99 0.71 0.45 0.23 0.22 0.12 0.11 0.11 0.04 0.01 0.05 0.08 0.04 0.00 0.00 0.00 0.00 0.01 0.03 0.03 0.04 0.06 0.09 0.16 0.22 0.21 0.15 0.10 0.06 0.04 0.02 0.01 0.01 0.01 0.00 0.00 0.00 0.00 0.00 0.00 0.00 0.00 0.00 0.00 0.00 0.00 0.01 0.03
3.83 4.06 3.08 2.55 1.53 0.63 0.34 0.28 0.18 0.14 0.13 0.09 0.06 0.03 0.02 0.07 0.09 0.08 0.02 0.00 0.00 0.00 0.00 0.01 0.02 0.03 0.03 0.03 0.05 0.07 0.10 0.18 0.19 0.18 0.18 0.18 0.11 0.08 0.05 0.03 0.02 0.01 0.00 0.00 0.00 0.00 0.00 0.00 0.00 0.00 0.00 0.00 0.01 0.03
3.44 2.36 1.47 0.70 0.40 0.14 0.07 0.06 0.06 0.04 0.03 0.06 0.06 0.03 0.03 0.09 0.13 0.06 0.00 0.00 0.00 0.00 0.00 0.00 0.00 0.01 0.02 0.03 0.04 0.07 0.09 0.13 0.14 0.11 0.10 0.19 0.20 0.19 0.16 0.12 0.08 0.04 0.02 0.04 0.04 0.03 0.02 0.01 0.01 0.01 0.01 0.01 0.02 0.04
2.37 1.53 0.68 0.18 0.07 0.06 0.03 0.01 0.02 0.03 0.04 0.04 0.04 0.04 0.06 0.12 0.05 0.00 0.00 0.00 0.00 0.00 0.00 0.00 0.00 0.01 0.01 0.02 0.03 0.05 0.07 0.12 0.13 0.09 0.10 0.13 0.14 0.14 0.15 0.14 0.12 0.09 0.10 0.11 0.11 0.10 0.07 0.05 0.04 0.04 0.05 0.05 0.04 0.04
1.04 0.27 0.09 0.09 0.02 0.02 0.04 0.04 0.05 0.05 0.04 0.02 0.03 0.05 0.09 0.05 0.01 0.00 0.00 0.00 0.00 0.00 0.00 0.00 0.00 0.00 0.00 0.01 0.02 0.04 0.06 0.09 0.12 0.11 0.12 0.14 0.13 0.13 0.14 0.16 0.22 0.27 0.28 0.21 0.16 0.17 0.18 0.17 0.14 0.13 0.15 0.12 0.09 0.07
0.21 0.04 0.01 0.05 0.04 0.04 0.04 0.04 0.03 0.02 0.02 0.02 0.03 0.03 0.02 0.00 0.00 0.00 0.00 0.00 0.00 0.00 0.00 0.00 0.00 0.00 0.01 0.02 0.03 0.04 0.06 0.09 0.12 0.10 0.08 0.09 0.13 0.16 0.20 0.27 0.35 0.42 0.41 0.37 0.32 0.25 0.25 0.27 0.29 0.28 0.26 0.23 0.19 0.19
0.04 0.01 0.01 0.02 0.03 0.03 0.02 0.02 0.02 0.02 0.03 0.02 0.02 0.03 0.03 0.02 0.01 0.01 0.01 0.01 0.01 0.00 0.00 0.00 0.01 0.02 0.02 0.03 0.05 0.06 0.06 0.07 0.10 0.10 0.10 0.10 0.12 0.18 0.24 0.29 0.37 0.46 0.46 0.42 0.50 0.57 0.53 0.53 0.55 0.52 0.47 0.41 0.35 0.31
0.00 0.01 0.01 0.02 0.04 0.04 0.05 0.05 0.03 0.02 0.03 0.02 0.02 0.03 0.03 0.03 0.02 0.01 0.01 0.00 0.01 0.00 0.01 0.01 0.01 0.02 0.03 0.04 0.06 0.09 0.09 0.11 0.14 0.14 0.15 0.18 0.20 0.23 0.28 0.34 0.38 0.44 0.49 0.49 0.45 0.43 0.40 0.34 0.30 0.29 0.30 0.30 0.27 0.24
0.03 0.02 0.03 0.05 0.09 0.11 0.10 0.07 0.03 0.02 0.02 0.02 0.01 0.01 0.01 0.01 0.01 0.00 0.00 0.00 0.01 0.01 0.01 0.02 0.03 0.05 0.06 0.08 0.11 0.14 0.18 0.18 0.18 0.19 0.21 0.22 0.23 0.25 0.30 0.37 0.44 0.47 0.49 0.49 0.44 0.40 0.36 0.37 0.38 0.37 0.39 0.39 0.37 0.31
0.14 0.11 0.10 0.11 0.16 0.19 0.15 0.10 0.09 0.08 0.08 0.04 0.02 0.01 0.01 0.01 0.01 0.00 0.00 0.00 0.01 0.02 0.03 0.06 0.09 0.12 0.15 0.16 0.19 0.23 0.26 0.29 0.31 0.34 0.38 0.36 0.34 0.37 0.43 0.45 0.45 0.45 0.43 0.43 0.46 0.48 0.48 0.45 0.42 0.40 0.38 0.36 0.35 0.33

GFSWCAN_prec_precacc_102.txt.gz
Total_Precipitation_Accumulation
0.87 0.77 0.72 0.77 0.87 0.90 0.92 0.98 1.03 0.92 0.68 0.53 0.59 0.41 0.35 0.28 0.12 0.04 0.06 0.09 0.22 0.12 0.02 0.00 0.00 0.01 0.01 0.02 0.03 0.01 0.02 0.02 0.06 0.14 0.13 0.07 0.03 0.01 0.00 0.00 0.00 0.02 0.04 0.06 0.07 0.09 0.01 0.00 0.00 0.00 0.00 0.00 0.00 0.00
0.78 0.79 0.69 0.66 0.76 0.78 0.87 0.99 1.15 1.20 1.09 0.91 0.73 0.39 0.28 0.20 0.13 0.07 0.04 0.08 0.15 0.14 0.04 0.00 0.00 0.00 0.00 0.01 0.01 0.00 0.03 0.01 0.04 0.12 0.16 0.10 0.04 0.01 0.00 0.00 0.00 0.00 0.00 0.00 0.00 0.00 0.00 0.00 0.00 0.00 0.00 0.00 0.00 0.01
0.66 0.71 0.73 0.75 0.92 0.80 0.73 0.71 0.70 0.65 0.72 0.78 0.67 0.43 0.24 0.20 0.17 0.23 0.10 0.04 0.10 0.13 0.02 0.00 0.01 0.00 0.00 0.00 0.01 0.01 0.02 0.01 0.04 0.12 0.26 0.11 0.06 0.04 0.02 0.01 0.00 0.00 0.00 0.00 0.00 0.00 0.00 0.00 0.00 0.00 0.00 0.00 0.00 0.02
0.78 0.67 0.73 0.74 0.94 1.09 0.86 0.71 0.59 0.56 0.55 0.58 0.47 0.29 0.19 0.16 0.21 0.17 0.05 0.06 0.12 0.12 0.10 0.02 0.00 0.00 0.00 0.00 0.01 0.02 0.04 0.02 0.08 0.16 0.18 0.14 0.06 0.03 0.02 0.01 0.00 0.01 0.00 0.00 0.00 0.00 0.00 0.00 0.00 0.00 0.00 0.00 0.00 0.00
0.73 0.91 0.86 0.78 0.69 0.90 1.48 1.23 0.70 0.55 0.60 0.61 0.31 0.16 0.17 0.18 0.11 0.06 0.02 0.04 0.08 0.16 0.20 0.05 0.05 0.00 0.00 0.01 0.04 0.04 0.08 0.15 0.15 0.27 0.31 0.16 0.07 0.05 0.01 0.00 0.00 0.00 0.00 0.00 0.00 0.00 0.00 0.00 0.00 0.00 0.00 0.00 0.00 0.00
0.68 0.76 1.21 1.09 0.74 0.60 0.78 1.30 0.89 0.53 0.51 0.61 0.26 0.20 0.17 0.08 0.10 0.07 0.08 0.23 0.16 0.16 0.38 0.18 0.23 0.03 0.03 0.05 0.14 0.15 0.17 0.30 0.40 0.30 0.28 0.28 0.14 0.15 0.12 0.03 0.00 0.00 0.00 0.00 0.00 0.00 0.00 0.00 0.00 0.00 0.00 0.00 0.00 0.00
0.76 0.66 0.83 1.40 1.19 0.82 0.72 0.86 0.75 0.47 0.47 0.39 0.21 0.15 0.05 0.03 0.07 0.04 0.13 0.56 0.28 0.21 0.34 0.41 0.58 0.15 0.13 0.21 0.20 0.41 0.29 0.47 0.50 0.46 0.29 0.21 0.22 0.48 0.31 0.05 0.00 0.00 0.00 0.00 0.00 0.00 0.00 0.00 0.00 0.00 0.00 0.00 0.00 0.00
1.03 0.80 0.75 1.02 1.29 0.92 0.80 0.85 0.47 0.37 0.38 0.23 0.10 0.03 0.04 0.06 0.03 0.03 0.02 0.10 0.28 0.64 0.61 0.89 0.88 0.45 0.49 0.56 0.44 0.55 0.56 0.66 0.74 0.61 0.28 0.29 0.27 0.34 0.20 0.01 0.01 0.02 0.01 0.01 0.01 0.00 0.00 0.00 0.00 0.00 0.00 0.00 0.00 0.00
1.01 0.98 0.72 0.75 1.04 0.80 0.82 0.88 0.45 0.31 0.21 0.07 0.02 0.01 0.13 0.08 0.04 0.03 0.05 0.15 0.45 0.91 0.79 0.70 0.67 0.62 0.68 0.67 0.65 0.56 0.82 0.72 0.65 0.49 0.19 0.27 0.35 0.32 0.07 0.04 0.05 0.08 0.14 0.16 0.17 0.11 0.05 0.02 0.02 0.02 0.02 0.01 0.01 0.02
0.94 1.00 0.73 0.81 0.87 0.70 0.83 0.76 0.43 0.29 0.16 0.05 0.00 0.02 0.10 0.01 0.00 0.06 0.28 0.67 0.79 0.72 0.50 0.53 0.61 0.67 0.88 0.67 0.56 0.61 0.64 0.50 0.60 0.31 0.22 0.23 0.16 0.07 0.05 0.07 0.08 0.08 0.19 0.26 0.33 0.36 0.30 0.18 0.06 0.04 0.07 0.10 0.09 0.08
0.89 0.94 0.77 0.91 0.80 0.62 0.78 0.60 0.39 0.34 0.21 0.04 0.02 0.01 0.02 0.00 0.15 0.47 0.75 0.74 0.55 0.36 0.30 0.37 0.52 0.47 0.41 0.52 0.48 0.57 0.74 0.40 0.45 0.55 0.30 0.24 0.22 0.15 0.07 0.03 0.02 0.02 0.05 0.09 0.15 0.32 0.38 0.26 0.22 0.12 0.11 0.17 0.24 0.23
0.81 0.89 0.74 0.93 0.74 0.63 0.68 0.51 0.39 0.25 0.11 0.08 0.06 0.02 0.02 0.13 0.38 0.49 0.60 0.46 0.21 0.15 0.21 0.38 0.37 0.35 0.26 0.30 0.38 0.39 0.44 0.36 0.41 0.56 0.40 0.30 0.27 0.12 0.15 0.15 0.09 0.05 0.10 0.06 0.09 0.13 0.14 0.12 0.16 0.18 0.13 0.13 0.15 0.24
0.82 0.78 0.75 0.96 0.76 0.66 0.55 0.43 0.38 0.23 0.24 0.26 0.19 0.11 0.09 0.15 0.27 0.32 0.34 0.27 0.07 0.07 0.10 0.11 0.21 0.21 0.24 0.29 0.20 0.24 0.18 0.10 0.21 0.37 0.44 0.20 0.03 0.03 0.02 0.03 0.10 0.23 0.32 0.24 0.11 0.15 0.16 0.17 0.15 0.12 0.13 0.11 0.08 0.07
0.98 0.85 0.92 1.11 0.83 0.60 0.47 0.53 0.65 0.47 0.49 0.45 0.28 0.16 0.09 0.09 0.14 0.14 0.12 0.12 0.05 0.04 0.03 0.05 0.10 0.14 0.24 0.18 0.19 0.16 0.05 0.08 0.25 0.28 0.17 0.06 0.06 0.03 0.00 0.00 0.00 0.03 0.13 0.29 0.35 0.41 0.39 0.46 0.43 0.44 0.45 0.40 0.31 0.24
1.25 1.08 1.22 1.35 0.91 0.63 0.61 0.81 0.82 0.68 0.70 0.48 0.28 0.08 0.02 0.03 0.02 0.01 0.02 0.05 0.03 0.04 0.05 0.03 0.05 0.05 0.12 0.16 0.12 0.15 0.11 0.30 0.37 0.21 0.14 0.08 0.03 0.01 0.01 0.01 0.00 0.00 0.01 0.01 0.07 0.24 0.32 0.38 0.49 0.44 0.39 0.31 0.23 0.21
1.79 2.24 2.12 1.61 1.05 0.81 0.89 1.33 1.60 1.28 0.94 0.60 0.37 0.06 0.00 0.01 0.00 0.00 0.00 0.01 0.01 0.03 0.06 0.09 0.12 0.11 0.08 0.18 0.15 0.10 0.16 0.35 0.32 0.14 0.06 0.01 0.01 0.04 0.02 0.02 0.01 0.00 0.00 0.00 0.00 0.02 0.06 0.07 0.11 0.12 0.10 0.18 0.23 0.21
2.99 3.11 1.85 1.22 1.10 1.12 1.49 2.03 2.05 1.67 1.09 0.77 0.18 0.01 0.00 0.01 0.00 0.00 0.00 0.00 0.02 0.06 0.20 0.31 0.26 0.10 0.09 0.12 0.05 0.05 0.18 0.16 0.07 0.03 0.02 0.01 0.01 0.05 0.05 0.02 0.02 0.02 0.03 0.04 0.03 0.06 0.10 0.10 0.14 0.19 0.14 0.09 0.10 0.16
2.50 1.48 1.16 1.14 1.44 1.88 2.66 2.39 1.97 1.92 1.30 0.35 0.03 0.00 0.00 0.00 0.01 0.01 0.00 0.01 0.02 0.08 0.26 0.54 0.32 0.19 0.06 0.03 0.02 0.02 0.02 0.03 0.02 0.01 0.00 0.00 0.00 0.02 0.04 0.02 0.01 0.04 0.08 0.21 0.23 0.18 0.15 0.16 0.16 0.14 0.12 0.09 0.07 0.08
1.53 1.04 1.24 1.41 1.92 2.30 2.34 1.99 1.76 1.42 0.44 0.07 0.01 0.00 0.00 0.00 0.01 0.02 0.03 0.02 0.02 0.05 0.17 0.35 0.34 0.11 0.00 0.00 0.01 0.01 0.00 0.00 0.00 0.00 0.01 0.00 0.00 0.02 0.06 0.08 0.08 0.06 0.07 0.13 0.13 0.10 0.08 0.06 0.05 0.07 0.09 0.08 0.06 0.05
1.83 1.79 1.81 2.06 1.96 2.29 2.39 1.92 1.14 0.62 0.28 0.06 0.01 0.00 0.01 0.01 0.01 0.02 0.03 0.04 0.05 0.20 0.38 0.29 0.08 0.02 0.03 0.04 0.06 0.04 0.01 0.01 0.00 0.00 0.01 0.01 0.00 0.00 0.00 0.02 0.05 0.05 0.05 0.05 0.06 0.07 0.07 0.05 0.05 0.06 0.08 0.08 0.07 0.06
3.29 2.71 2.61 2.94 3.03 2.73 2.11 1.32 0.61 0.22 0.09 0.04 0.01 0.01 0.02 0.01 0.01 0.01 0.02 0.06 0.27 0.38 0.17 0.03 0.02 0.02 0.04 0.05 0.06 0.05 0.03 0.02 0.01 0.00 0.00 0.00 0.00 0.00 0.00 0.00 0.01 0.02 0.02 0.02 0.01 0.02 0.04 0.03 0.05 0.07 0.05 0.05 0.08 0.09
2.99 2.70 4.06 4.15 3.19 2.66 1.84 1.06 0.43 0.17 0.07 0.06 0.04 0.04 0.05 0.02 0.01 0.02 0.05 0.29 0.36 0.09 0.02 0.02 0.04 0.05 0.05 0.06 0.07 0.07 0.05 0.02 0.01 0.01 0.00 0.00 0.00 0.00 0.00 0.00 0.01 0.00 0.00 0.00 0.00 0.00 0.01 0.01 0.03 0.03 0.03 0.05 0.08 0.10
2.93 3.10 3.37 3.21 2.78 2.28 1.41 0.60 0.25 0.14 0.06 0.06 0.08 0.10 0.06 0.01 0.01 0.03 0.07 0.08 0.04 0.00 0.00 0.02 0.04 0.07 0.10 0.10 0.14 0.12 0.11 0.08 0.04 0.02 0.01 0.01 0.00 0.00 0.01 0.00 0.00 0.00 0.00 0.00 0.00 0.00 0.00 0.00 0.00 0.00 0.02 0.04 0.06 0.07
2.92 3.33 3.45 3.14 2.19 1.53 1.01 0.71 0.46 0.23 0.23 0.13 0.12 0.11 0.04 0.01 0.06 0.10 0.06 0.01 0.00 0.00 0.00 0.01 0.03 0.03 0.04 0.06 0.09 0.16 0.22 0.21 0.15 0.10 0.06 0.04 0.02 0.01 0.01 0.01 0.00 0.00 0.00 0.00 0.00 0.00 0.00 0.00 0.00 0.00 0.00 0.00 0.01 0.03
3.94 4.21 3.23 2.66 1.62 0.74 0.41 0.31 0.20 0.15 0.13 0.09 0.07 0.03 0.02 0.07 0.11 0.12 0.03 0.00 0.00 0.00 0.00 0.01 0.02 0.03 0.03 0.03 0.05 0.07 0.10 0.18 0.19 0.18 0.18 0.18 0.11 0.08 0.05 0.03 0.02 0.01 0.00 0.00 0.00 0.00 0.00 0.00 0.00 0.00 0.00 0.00 0.01 0.03
3.62 2.42 1.58 0.76 0.43 0.16 0.11 0.11 0.08 0.04 0.03 0.06 0.07 0.03 0.04 0.11 0.16 0.07 0.00 0.00 0.00 0.00 0.00 0.00 0.00 0.01 0.02 0.03 0.04 0.07 0.09 0.13 0.14 0.11 0.10 0.19 0.20 0.19 0.16 0.12 0.08 0.04 0.02 0.04 0.04 0.03 0.02 0.01 0.01 0.01 0.01 0.01 0.02 0.04
2.53 1.63 0.71 0.19 0.08 0.07 0.04 0.02 0.02 0.03 0.04 0.04 0.04 0.04 0.09 0.16 0.06 0.01 0.00 0.00 0.00 0.00 0.00 0.00 0.00 0.01 0.01 0.02 0.03 0.05 0.07 0.12 0.13 0.09 0.10 0.13 0.14 0.14 0.15 0.14 0.12 0.09 0.10 0.11 0.11 0.10 0.07 0.05 0.04 0.04 0.05 0.05 0.04 0.04
1.10 0.31 0.15 0.11 0.02 0.02 0.05 0.06 0.06 0.05 0.04 0.02 0.03 0.05 0.10 0.06 0.01 0.00 0.00 0.00 0.00 0.00 0.00 0.00 0.00 0.00 0.00 0.01 0.02 0.04 0.06 0.09 0.12 0.11 0.12 0.14 0.13 0.13 0.14 0.16 0.22 0.27 0.28 0.21 0.16 0.17 0.18 0.17 0.14 0.13 0.15 0.12 0.09 0.07
0.25 0.07 0.03 0.07 0.05 0.05 0.05 0.04 0.03 0.02 0.02 0.02 0.03 0.03 0.02 0.00 0.00 0.00 0.00 0.00 0.00 0.00 0.00 0.00 0.00 0.00 0.01 0.02 0.03 0.04 0.06 0.09 0.12 0.10 0.08 0.09 0.13 0.16 0.20 0.27 0.35 0.42 0.41 0.37 0.32 0.25 0.25 0.27 0.29 0.28 0.26 0.23 0.19 0.19
0.07 0.01 0.02 0.04 0.06 0.05 0.02 0.02 0.02 0.02 0.04 0.02 0.02 0.03 0.03 0.02 0.01 0.01 0.01 0.01 0.01 0.00 0.00 0.00 0.01 0.02 0.02 0.03 0.05 0.06 0.06 0.07 0.10 0.10 0.10 0.10 0.12 0.18 0.24 0.29 0.37 0.46 0.46 0.42 0.50 0.57 0.53 0.53 0.55 0.52 0.47 0.41 0.35 0.31
0.00 0.01 0.01 0.03 0.04 0.04 0.05 0.05 0.03 0.02 0.03 0.02 0.02 0.03 0.03 0.03 0.02 0.01 0.01 0.00 0.01 0.00 0.01 0.01 0.01 0.02 0.03 0.04 0.06 0.09 0.09 0.11 0.14 0.14 0.15 0.18 0.20 0.23 0.28 0.34 0.38 0.44 0.49 0.49 0.45 0.43 0.40 0.34 0.30 0.29 0.30 0.30 0.27 0.24
0.03 0.02 0.03 0.05 0.09 0.11 0.10 0.07 0.03 0.02 0.02 0.02 0.01 0.01 0.01 0.01 0.01 0.00 0.00 0.00 0.01 0.01 0.01 0.02 0.03 0.05 0.06 0.08 0.11 0.14 0.18 0.18 0.18 0.19 0.21 0.22 0.23 0.25 0.30 0.37 0.44 0.47 0.49 0.49 0.44 0.40 0.36 0.37 0.38 0.37 0.39 0.39 0.37 0.31
0.15 0.11 0.10 0.12 0.16 0.19 0.15 0.10 0.09 0.08 0.08 0.04 0.02 0.01 0.01 0.01 0.01 0.00 0.00 0.00 0.01 0.02 0.03 0.06 0.09 0.12 0.15 0.16 0.19 0.23 0.26 0.29 0.31 0.34 0.38 0.36 0.34 0.37 0.43 0.45 0.45 0.45 0.43 0.43 0.46 0.48 0.48 0.45 0.42 0.40 0.38 0.36 0.35 0.33

GFSWCAN_prec_precacc_105.txt.gz
Total_Precipitation_Accumulation
0.87 0.77 0.72 0.77 0.87 0.90 0.92 0.98 1.03 0.92 0.68 0.53 0.59 0.41 0.35 0.28 0.12 0.04 0.06 0.09 0.22 0.12 0.02 0.00 0.00 0.01 0.01 0.02 0.03 0.01 0.02 0.02 0.06 0.14 0.13 0.07 0.03 0.01 0.00 0.00 0.00 0.02 0.04 0.06 0.07 0.09 0.01 0.00 0.00 0.00 0.00 0.00 0.00 0.00
0.78 0.79 0.69 0.66 0.76 0.78 0.87 0.99 1.15 1.20 1.09 0.91 0.73 0.39 0.28 0.20 0.13 0.07 0.04 0.08 0.15 0.14 0.04 0.00 0.00 0.00 0.00 0.01 0.01 0.00 0.03 0.01 0.04 0.12 0.16 0.10 0.04 0.01 0.00 0.00 0.00 0.00 0.00 0.00 0.00 0.00 0.00 0.00 0.00 0.00 0.00 0.00 0.00 0.01
0.66 0.71 0.73 0.75 0.92 0.80 0.73 0.71 0.70 0.65 0.72 0.78 0.67 0.43 0.24 0.20 0.17 0.23 0.10 0.04 0.10 0.13 0.02 0.00 0.01 0.00 0.00 0.00 0.01 0.01 0.02 0.01 0.04 0.12 0.26 0.11 0.06 0.04 0.02 0.01 0.00 0.00 0.00 0.00 0.00 0.00 0.00 0.00 0.00 0.00 0.00 0.00 0.00 0.02
0.78 0.67 0.73 0.74 0.95 1.09 0.87 0.72 0.59 0.56 0.55 0.58 0.47 0.29 0.19 0.17 0.21 0.17 0.05 0.06 0.12 0.12 0.10 0.02 0.00 0.00 0.00 0.00 0.01 0.02 0.04 0.02 0.08 0.16 0.18 0.14 0.06 0.03 0.02 0.01 0.00 0.01 0.00 0.00 0.00 0.00 0.00 0.00 0.00 0.00 0.00 0.00 0.00 0.00
0.73 0.91 0.86 0.78 0.70 0.91 1.49 1.24 0.71 0.55 0.60 0.61 0.31 0.16 0.17 0.18 0.11 0.06 0.02 0.04 0.08 0.16 0.20 0.05 0.05 0.00 0.00 0.01 0.04 0.04 0.08 0.15 0.15 0.27 0.31 0.16 0.07 0.05 0.01 0.00 0.00 0.00 0.00 0.00 0.00 0.00 0.00 0.00 0.00 0.00 0.00 0.00 0.00 0.00
0.68 0.76 1.21 1.09 0.74 0.60 0.79 1.31 0.90 0.53 0.51 0.61 0.26 0.20 0.17 0.08 0.10 0.07 0.08 0.23 0.16 0.16 0.38 0.18 0.23 0.03 0.03 0.05 0.14 0.15 0.17 0.30 0.40 0.30 0.28 0.28 0.14 0.15 0.12 0.03 0.00 0.00 0.00 0.00 0.00 0.00 0.00 0.00 0.00 0.00 0.00 0.00 0.00 0.00
0.76 0.66 0.83 1.40 1.19 0.82 0.72 0.86 0.75 0.48 0.47 0.39 0.21 0.15 0.05 0.03 0.07 0.04 0.13 0.56 0.28 0.21 0.34 0.41 0.58 0.15 0.13 0.21 0.20 0.41 0.29 0.47 0.50 0.46 0.29 0.21 0.22 0.48 0.31 0.05 0.00 0.00 0.00 0.00 0.00 0.00 0.00 0.00 0.00 0.00 0.00 0.00 0.00 0.00
1.03 0.80 0.75 1.02 1.29 0.92 0.80 0.85 0.48 0.38 0.39 0.24 0.10 0.03 0.04 0.06 0.03 0.03 0.02 0.10 0.28 0.64 0.61 0.89 0.88 0.45 0.49 0.56 0.44 0.55 0.56 0.66 0.74 0.61 0.28 0.29 0.27 0.34 0.20 0.01 0.01 0.02 0.01 0.01 0.01 0.00 0.00 0.00 0.00 0.00 0.00 0.00 0.00 0.00
1.01 0.98 0.72 0.75 1.04 0.80 0.82 0.88 0.45 0.32 0.26 0.10 0.02 0.01 0.13 0.08 0.04 0.03 0.05 0.15 0.45 0.91 0.79 0.70 0.67 0.62 0.68 0.67 0.65 0.56 0.82 0.72 0.65 0.49 0.19 0.27 0.35 0.32 0.07 0.04 0.05 0.08 0.14 0.16 0.17 0.11 0.05 0.02 0.02 0.02 0.02 0.01 0.01 0.02
0.94 1.00 0.73 0.81 0.87 0.70 0.83 0.76 0.43 0.32 0.26 0.11 0.02 0.02 0.10 0.01 0.00 0.06 0.28 0.67 0.79 0.72 0.50 0.53 0.61 0.67 0.88 0.67 0.56 0.61 0.64 0.50 0.60 0.31 0.22 0.23 0.16 0.07 0.05 0.07 0.08 0.08 0.19 0.26 0.33 0.36 0.30 0.18 0.06 0.04 0.07 0.10 0.09 0.08
0.89 0.94 0.77 0.91 0.80 0.62 0.78 0.61 0.40 0.39 0.30 0.07 0.04 0.01 0.02 0.00 0.15 0.47 0.75 0.74 0.55 0.36 0.30 0.37 0.52 0.47 0.41 0.52 0.48 0.57 0.74 0.40 0.45 0.55 0.30 0.24 0.22 0.15 0.07 0.03 0.02 0.02 0.05 0.09 0.15 0.32 0.38 0.26 0.22 0.12 0.11 0.17 0.24 0.23
0.81 0.89 0.74 0.93 0.74 0.63 0.68 0.51 0.43 0.26 0.12 0.11 0.09 0.04 0.02 0.13 0.38 0.49 0.60 0.46 0.21 0.15 0.21 0.38 0.37 0.35 0.26 0.30 0.38 0.39 0.44 0.36 0.41 0.56 0.40 0.30 0.27 0.12 0.15 0.15 0.09 0.05 0.10 0.06 0.09 0.13 0.14 0.12 0.16 0.18 0.13 0.13 0.15 0.24
0.82 0.78 0.75 0.96 0.76 0.66 0.55 0.44 0.43 0.27 0.27 0.30 0.23 0.18 0.12 0.16 0.27 0.33 0.34 0.27 0.07 0.07 0.10 0.11 0.21 0.21 0.24 0.29 0.20 0.24 0.18 0.10 0.21 0.37 0.44 0.20 0.03 0.03 0.02 0.03 0.10 0.23 0.32 0.24 0.11 0.15 0.16 0.17 0.15 0.12 0.13 0.11 0.08 0.07
0.98 0.85 0.92 1.11 0.83 0.60 0.47 0.53 0.71 0.51 0.54 0.52 0.37 0.23 0.10 0.10 0.14 0.14 0.12 0.12 0.05 0.04 0.03 0.05 0.10 0.14 0.24 0.18 0.19 0.16 0.05 0.08 0.25 0.28 0.17 0.06 0.06 0.03 0.00 0.00 0.00 0.03 0.13 0.29 0.35 0.41 0.39 0.46 0.43 0.44 0.45 0.40 0.31 0.24
1.25 1.08 1.22 1.35 0.91 0.63 0.61 0.81 0.86 0.71 0.74 0.61 0.42 0.13 0.03 0.03 0.02 0.01 0.02 0.05 0.03 0.04 0.05 0.03 0.05 0.05 0.12 0.16 0.12 0.15 0.11 0.30 0.37 0.21 0.14 0.08 0.03 0.01 0.01 0.01 0.00 0.00 0.01 0.01 0.07 0.24 0.32 0.38 0.49 0.44 0.39 0.31 0.23 0.21
1.79 2.25 2.12 1.61 1.05 0.81 0.90 1.33 1.66 1.35 1.04 0.71 0.48 0.08 0.00 0.01 0.00 0.00 0.00 0.01 0.01 0.04 0.06 0.09 0.13 0.11 0.08 0.18 0.15 0.10 0.16 0.35 0.32 0.14 0.06 0.01 0.01 0.04 0.02 0.02 0.01 0.00 0.00 0.00 0.00 0.02 0.06 0.07 0.11 0.12 0.10 0.18 0.23 0.21
3.01 3.12 1.85 1.22 1.10 1.13 1.51 2.08 2.12 1.76 1.24 0.95 0.24 0.01 0.00 0.01 0.00 0.00 0.00 0.00 0.02 0.06 0.20 0.34 0.30 0.11 0.09 0.13 0.05 0.05 0.18 0.16 0.07 0.03 0.02 0.01 0.01 0.05 0.05 0.02 0.02 0.02 0.03 0.04 0.03 0.06 0.10 0.10 0.14 0.19 0.14 0.09 0.10 0.16
2.52 1.49 1.16 1.14 1.46 1.90 2.66 2.42 2.02 2.04 1.44 0.41 0.04 0.00 0.00 0.00 0.01 0.01 0.00 0.01 0.02 0.08 0.27 0.57 0.36 0.24 0.07 0.03 0.02 0.02 0.02 0.03 0.02 0.01 0.00 0.00 0.00 0.02 0.04 0.02 0.01 0.04 0.08 0.21 0.23 0.18 0.15 0.16 0.16 0.14 0.12 0.09 0.07 0.08
1.54 1.04 1.25 1.42 1.95 2.35 2.36 2.00 1.78 1.44 0.44 0.07 0.02 0.00 0.00 0.00 0.01 0.02 0.03 0.02 0.02 0.05 0.18 0.41 0.41 0.16 0.01 0.00 0.01 0.01 0.00 0.00 0.00 0.00 0.01 0.00 0.00 0.02 0.06 0.08 0.08 0.06 0.07 0.13 0.13 0.10 0.08 0.06 0.05 0.07 0.09 0.08 0.06 0.05
1.85 1.80 1.82 2.10 2.05 2.35 2.43 1.96 1.17 0.64 0.28 0.06 0.01 0.00 0.01 0.01 0.01 0.02 0.03 0.04 0.06 0.25 0.50 0.40 0.10 0.02 0.03 0.04 0.06 0.04 0.01 0.01 0.00 0.00 0.01 0.01 0.00 0.00 0.00 0.02 0.05 0.05 0.05 0.05 0.06 0.07 0.07 0.05 0.05 0.06 0.08 0.08 0.07 0.06
3.34 2.73 2.64 2.99 3.08 2.79 2.23 1.37 0.65 0.26 0.11 0.06 0.01 0.01 0.02 0.01 0.01 0.01 0.04 0.09 0.41 0.59 0.27 0.05 0.02 0.02 0.04 0.05 0.06 0.05 0.03 0.02 0.01 0.00 0.00 0.00 0.00 0.00 0.00 0.00 0.01 0.02 0.02 0.02 0.01 0.02 0.04 0.03 0.05 0.07 0.05 0.05 0.08 0.09
3.01 2.71 4.08 4.18 3.22 2.71 1.90 1.09 0.47 0.19 0.11 0.09 0.05 0.05 0.06 0.02 0.01 0.02 0.05 0.32 0.43 0.12 0.02 0.02 0.04 0.05 0.05 0.06 0.07 0.07 0.05 0.02 0.01 0.01 0.00 0.00 0.00 0.00 0.00 0.00 0.01 0.00 0.00 0.00 0.00 0.00 0.01 0.01 0.03 0.03 0.03 0.05 0.08 0.10
2.97 3.14 3.42 3.24 2.83 2.34 1.43 0.60 0.26 0.15 0.08 0.09 0.12 0.14 0.08 0.02 0.01 0.03 0.08 0.08 0.04 0.00 0.00 0.02 0.04 0.07 0.10 0.10 0.14 0.12 0.11 0.08 0.04 0.02 0.01 0.01 0.00 0.00 0.01 0.00 0.00 0.00 0.00 0.00 0.00 0.00 0.00 0.00 0.00 0.00 0.02 0.04 0.06 0.07
2.99 3.48 3.56 3.20 2.23 1.58 1.05 0.73 0.47 0.25 0.24 0.14 0.13 0.11 0.04 0.01 0.06 0.11 0.06 0.01 0.00 0.00 0.00 0.01 0.03 0.03 0.04 0.06 0.09 0.16 0.22 0.21 0.15 0.10 0.06 0.04 0.02 0.01 0.01 0.01 0.00 0.00 0.00 0.00 0.00 0.00 0.00 0.00 0.00 0.00 0.00 0.00 0.01 0.03
4.12 4.42 3.33 2.72 1.64 0.78 0.45 0.34 0.24 0.17 0.14 0.09 0.07 0.03 0.02 0.07 0.12 0.13 0.03 0.00 0.00 0.00 0.00 0.01 0.02 0.03 0.03 0.03 0.05 0.07 0.10 0.18 0.19 0.18 0.18 0.18 0.11 0.08 0.05 0.03 0.02 0.01 0.00 0.00 0.00 0.00 0.00 0.00 0.00 0.00 0.00 0.00 0.01 0.03
3.77 2.46 1.61 0.77 0.44 0.17 0.12 0.12 0.09 0.04 0.04 0.06 0.07 0.03 0.04 0.13 0.20 0.08 0.00 0.00 0.00 0.00 0.00 0.00 0.00 0.01 0.02 0.03 0.04 0.07 0.09 0.13 0.14 0.11 0.10 0.19 0.20 0.19 0.16 0.12 0.08 0.04 0.02 0.04 0.04 0.03 0.02 0.01 0.01 0.01 0.01 0.01 0.02 0.04
2.65 1.68 0.73 0.19 0.08 0.08 0.06 0.04 0.03 0.04 0.06 0.05 0.05 0.05 0.11 0.21 0.08 0.01 0.00 0.00 0.00 0.00 0.00 0.00 0.00 0.01 0.01 0.02 0.03 0.05 0.07 0.12 0.13 0.09 0.10 0.13 0.14 0.14 0.15 0.14 0.12 0.09 0.10 0.11 0.11 0.10 0.07 0.05 0.04 0.04 0.05 0.05 0.04 0.04
1.14 0.32 0.16 0.13 0.05 0.04 0.07 0.08 0.08 0.08 0.07 0.03 0.04 0.07 0.15 0.09 0.01 0.00 0.00 0.00 0.00 0.01 0.00 0.00 0.00 0.00 0.00 0.01 0.02 0.04 0.06 0.09 0.12 0.12 0.13 0.14 0.13 0.13 0.14 0.16 0.22 0.27 0.28 0.21 0.16 0.17 0.18 0.17 0.14 0.13 0.15 0.12 0.09 0.07
0.25 0.07 0.03 0.07 0.06 0.06 0.08 0.08 0.05 0.02 0.02 0.03 0.05 0.04 0.04 0.01 0.00 0.00 0.00 0.00 0.00 0.00 0.00 0.00 0.00 0.00 0.01 0.02 0.03 0.04 0.06 0.09 0.12 0.11 0.08 0.09 0.13 0.16 0.20 0.27 0.35 0.42 0.41 0.37 0.32 0.25 0.25 0.27 0.29 0.28 0.26 0.23 0.19 0.19
0.07 0.01 0.02 0.04 0.07 0.06 0.03 0.03 0.03 0.03 0.05 0.03 0.03 0.03 0.03 0.02 0.01 0.01 0.01 0.01 0.01 0.00 0.00 0.00 0.01 0.02 0.02 0.03 0.05 0.06 0.06 0.07 0.10 0.10 0.10 0.10 0.12 0.18 0.24 0.29 0.37 0.46 0.46 0.42 0.50 0.57 0.53 0.53 0.55 0.52 0.47 0.41 0.35 0.31
0.00 0.01 0.01 0.03 0.04 0.04 0.05 0.05 0.03 0.03 0.03 0.02 0.02 0.03 0.03 0.03 0.02 0.01 0.01 0.00 0.01 0.00 0.01 0.01 0.01 0.02 0.03 0.04 0.06 0.09 0.09 0.11 0.14 0.14 0.15 0.18 0.20 0.23 0.28 0.34 0.38 0.44 0.49 0.49 0.45 0.43 0.40 0.34 0.30 0.29 0.30 0.30 0.27 0.24
0.03 0.02 0.03 0.05 0.09 0.11 0.10 0.07 0.03 0.02 0.02 0.02 0.01 0.01 0.01 0.01 0.01 0.00 0.00 0.00 0.01 0.01 0.01 0.02 0.03 0.05 0.06 0.08 0.11 0.14 0.18 0.18 0.18 0.19 0.21 0.22 0.23 0.25 0.30 0.37 0.44 0.47 0.49 0.49 0.44 0.40 0.36 0.37 0.38 0.37 0.39 0.39 0.37 0.31
0.15 0.11 0.11 0.12 0.16 0.19 0.15 0.10 0.09 0.08 0.08 0.04 0.02 0.01 0.01 0.01 0.01 0.00 0.00 0.00 0.01 0.02 0.03 0.06 0.09 0.12 0.15 0.16 0.19 0.23 0.26 0.29 0.31 0.34 0.38 0.36 0.34 0.37 0.43 0.45 0.45 0.45 0.43 0.43 0.46 0.48 0.48 0.45 0.42 0.40 0.38 0.36 0.35 0.33

GFSWCAN_prec_precacc_108.txt.gz
Total_Precipitation_Accumulation
0.87 0.77 0.72 0.77 0.87 0.90 0.92 0.98 1.03 0.92 0.68 0.53 0.59 0.41 0.35 0.28 0.12 0.04 0.06 0.09 0.22 0.12 0.02 0.00 0.00 0.01 0.01 0.02 0.03 0.01 0.02 0.02 0.06 0.14 0.13 0.07 0.03 0.01 0.00 0.00 0.00 0.02 0.04 0.06 0.07 0.09 0.01 0.00 0.00 0.00 0.00 0.00 0.00 0.00
0.78 0.79 0.69 0.66 0.76 0.79 0.88 0.99 1.15 1.20 1.09 0.91 0.73 0.39 0.28 0.20 0.13 0.07 0.04 0.08 0.15 0.14 0.04 0.00 0.00 0.00 0.00 0.01 0.01 0.00 0.03 0.01 0.04 0.12 0.16 0.10 0.04 0.01 0.00 0.00 0.00 0.00 0.00 0.00 0.00 0.00 0.00 0.00 0.00 0.00 0.00 0.00 0.00 0.01
0.66 0.71 0.73 0.75 0.92 0.80 0.73 0.71 0.70 0.65 0.72 0.78 0.67 0.43 0.24 0.20 0.17 0.23 0.10 0.04 0.10 0.13 0.02 0.00 0.01 0.00 0.00 0.00 0.01 0.01 0.02 0.01 0.04 0.12 0.26 0.11 0.06 0.04 0.02 0.01 0.00 0.00 0.00 0.00 0.00 0.00 0.00 0.00 0.00 0.00 0.00 0.00 0.00 0.02
0.78 0.67 0.73 0.74 0.95 1.09 0.87 0.72 0.59 0.56 0.55 0.58 0.47 0.29 0.19 0.17 0.21 0.17 0.05 0.06 0.12 0.12 0.10 0.02 0.00 0.00 0.00 0.00 0.01 0.02 0.04 0.02 0.08 0.16 0.18 0.14 0.06 0.03 0.02 0.01 0.00 0.01 0.00 0.00 0.00 0.00 0.00 0.00 0.00 0.00 0.00 0.00 0.00 0.00
0.73 0.91 0.86 0.78 0.70 0.91 1.49 1.24 0.71 0.55 0.60 0.61 0.31 0.16 0.17 0.18 0.11 0.06 0.02 0.04 0.08 0.16 0.20 0.05 0.05 0.00 0.00 0.01 0.04 0.04 0.08 0.15 0.15 0.27 0.31 0.16 0.07 0.05 0.01 0.00 0.00 0.00 0.00 0.00 0.00 0.00 0.00 0.00 0.00 0.00 0.00 0.00 0.00 0.00
0.68 0.76 1.21 1.09 0.74 0.60 0.79 1.31 0.90 0.53 0.51 0.61 0.26 0.20 0.17 0.08 0.10 0.07 0.08 0.23 0.16 0.16 0.38 0.18 0.23 0.03 0.03 0.05 0.14 0.15 0.17 0.30 0.40 0.30 0.28 0.28 0.14 0.15 0.12 0.03 0.00 0.00 0.00 0.00 0.00 0.00 0.00 0.00 0.00 0.00 0.00 0.00 0.00 0.00
0.76 0.66 0.83 1.40 1.19 0.82 0.72 0.86 0.75 0.48 0.47 0.40 0.21 0.15 0.05 0.03 0.07 0.04 0.13 0.56 0.28 0.21 0.34 0.41 0.58 0.15 0.13 0.21 0.20 0.41 0.29 0.47 0.50 0.46 0.29 0.21 0.22 0.48 0.31 0.05 0.00 0.00 0.00 0.00 0.00 0.00 0.00 0.00 0.00 0.00 0.00 0.00 0.00 0.00
1.03 0.80 0.75 1.02 1.29 0.92 0.80 0.85 0.48 0.38 0.40 0.27 0.11 0.03 0.04 0.06 0.03 0.03 0.02 0.10 0.28 0.64 0.61 0.89 0.88 0.45 0.49 0.56 0.44 0.55 0.56 0.66 0.74 0.61 0.28 0.29 0.27 0.34 0.20 0.01 0.01 0.02 0.01 0.01 0.01 0.00 0.00 0.00 0.00 0.00 0.00 0.00 0.00 0.00
1.01 0.98 0.72 0.75 1.04 0.80 0.82 0.88 0.45 0.32 0.26 0.15 0.03 0.01 0.13 0.08 0.04 0.03 0.05 0.15 0.45 0.91 0.79 0.70 0.67 0.62 0.68 0.67 0.65 0.56 0.82 0.72 0.65 0.49 0.19 0.27 0.35 0.32 0.07 0.04 0.05 0.08 0.14 0.16 0.17 0.11 0.05 0.02 0.02 0.02 0.02 0.01 0.01 0.02
0.94 1.00 0.73 0.81 0.87 0.70 0.83 0.77 0.43 0.32 0.28 0.14 0.03 0.02 0.10 0.01 0.00 0.06 0.28 0.67 0.79 0.72 0.50 0.53 0.61 0.67 0.88 0.67 0.56 0.61 0.64 0.50 0.60 0.31 0.22 0.23 0.16 0.07 0.05 0.07 0.08 0.08 0.19 0.26 0.33 0.36 0.30 0.18 0.06 0.04 0.07 0.10 0.09 0.08
0.89 0.94 0.77 0.91 0.80 0.62 0.78 0.61 0.40 0.39 0.30 0.08 0.04 0.01 0.02 0.00 0.15 0.47 0.75 0.74 0.55 0.36 0.30 0.37 0.52 0.47 0.41 0.52 0.48 0.57 0.74 0.40 0.45 0.55 0.30 0.24 0.22 0.15 0.07 0.03 0.02 0.02 0.05 0.09 0.15 0.32 0.38 0.26 0.22 0.12 0.11 0.17 0.24 0.23
0.81 0.89 0.74 0.93 0.74 0.63 0.68 0.52 0.45 0.26 0.12 0.12 0.09 0.04 0.02 0.13 0.38 0.50 0.61 0.46 0.21 0.15 0.21 0.38 0.37 0.35 0.26 0.30 0.38 0.39 0.44 0.36 0.41 0.56 0.40 0.30 0.27 0.12 0.15 0.15 0.09 0.05 0.10 0.06 0.09 0.13 0.14 0.12 0.16 0.18 0.13 0.13 0.15 0.24
0.82 0.78 0.75 0.96 0.76 0.66 0.55 0.44 0.45 0.29 0.28 0.31 0.24 0.20 0.13 0.16 0.28 0.35 0.34 0.27 0.07 0.07 0.10 0.11 0.21 0.21 0.24 0.29 0.20 0.24 0.18 0.10 0.21 0.37 0.44 0.20 0.03 0.03 0.02 0.03 0.10 0.23 0.32 0.24 0.11 0.15 0.16 0.17 0.15 0.12 0.13 0.11 0.08 0.07
0.98 0.85 0.92 1.11 0.83 0.60 0.47 0.53 0.71 0.53 0.55 0.54 0.39 0.25 0.10 0.10 0.14 0.14 0.12 0.12 0.05 0.04 0.03 0.05 0.10 0.14 0.24 0.18 0.19 0.16 0.05 0.08 0.25 0.28 0.17 0.06 0.06 0.03 0.00 0.00 0.00 0.03 0.13 0.29 0.35 0.41 0.39 0.46 0.43 0.44 0.45 0.40 0.31 0.24
1.25 1.08 1.22 1.35 0.91 0.63 0.61 0.81 0.88 0.72 0.76 0.67 0.47 0.13 0.03 0.03 0.02 0.01 0.02 0.05 0.03 0.04 0.05 0.03 0.05 0.05 0.12 0.16 0.12 0.15 0.11 0.30 0.37 0.21 0.14 0.08 0.03 0.01 0.01 0.01 0.00 0.00 0.01 0.01 0.07 0.24 0.32 0.38 0.49 0.44 0.39 0.31 0.23 0.21
1.79 2.25 2.12 1.61 1.05 0.81 0.90 1.34 1.69 1.38 1.09 0.78 0.53 0.08 0.00 0.01 0.00 0.00 0.00 0.01 0.01 0.04 0.06 0.09 0.13 0.12 0.09 0.18 0.16 0.10 0.16 0.35 0.32 0.14 0.06 0.01 0.01 0.04 0.02 0.02 0.01 0.00 0.00 0.00 0.00 0.02 0.06 0.07 0.11 0.12 0.10 0.18 0.23 0.21
3.02 3.12 1.85 1.22 1.10 1.13 1.52 2.11 2.16 1.79 1.27 0.99 0.26 0.01 0.00 0.01 0.00 0.00 0.00 0.00 0.02 0.06 0.20 0.35 0.34 0.13 0.12 0.16 0.05 0.05 0.18 0.16 0.07 0.03 0.02 0.01 0.01 0.05 0.05 0.02 0.02 0.02 0.03 0.04 0.03 0.06 0.10 0.10 0.14 0.19 0.14 0.09 0.10 0.16
2.53 1.49 1.16 1.14 1.47 1.91 2.68 2.44 2.05 2.08 1.48 0.41 0.04 0.00 0.00 0.00 0.01 0.01 0.00 0.01 0.02 0.08 0.27 0.60 0.39 0.31 0.12 0.05 0.02 0.02 0.02 0.03 0.02 0.01 0.00 0.00 0.00 0.02 0.04 0.02 0.01 0.04 0.08 0.21 0.23 0.18 0.15 0.16 0.16 0.14 0.12 0.09 0.07 0.08
1.54 1.05 1.26 1.44 1.99 2.38 2.37 2.00 1.79 1.45 0.44 0.07 0.02 0.00 0.00 0.00 0.01 0.02 0.03 0.02 0.02 0.05 0.22 0.53 0.50 0.21 0.01 0.00 0.01 0.01 0.00 0.00 0.00 0.00 0.01 0.00 0.00 0.02 0.06 0.08 0.08 0.06 0.07 0.13 0.13 0.10 0.08 0.06 0.05 0.07 0.09 0.09 0.06 0.05
1.88 1.83 1.85 2.16 2.12 2.39 2.45 1.97 1.19 0.65 0.28 0.06 0.01 0.00 0.01 0.01 0.01 0.02 0.03 0.04 0.06 0.26 0.56 0.50 0.15 0.03 0.03 0.04 0.06 0.04 0.01 0.01 0.00 0.00 0.01 0.01 0.00 0.00 0.00 0.02 0.05 0.05 0.05 0.05 0.06 0.07 0.07 0.05 0.05 0.06 0.08 0.09 0.07 0.07
3.38 2.76 2.69 3.09 3.16 2.83 2.26 1.39 0.68 0.27 0.11 0.06 0.02 0.01 0.02 0.01 0.01 0.01 0.04 0.09 0.42 0.62 0.30 0.05 0.02 0.02 0.04 0.05 0.06 0.05 0.03 0.02 0.01 0.00 0.00 0.00 0.00 0.00 0.00 0.00 0.01 0.02 0.02 0.02 0.01 0.02 0.04 0.03 0.05 0.07 0.05 0.05 0.09 0.10
3.04 2.73 4.12 4.22 3.35 2.84 1.97 1.09 0.48 0.22 0.13 0.10 0.06 0.07 0.08 0.04 0.01 0.02 0.06 0.33 0.45 0.12 0.02 0.02 0.04 0.05 0.05 0.06 0.07 0.07 0.05 0.02 0.01 0.01 0.00 0.00 0.00 0.00 0.00 0.00 0.01 0.00 0.00 0.00 0.00 0.00 0.01 0.01 0.03 0.03 0.03 0.05 0.09 0.10
3.05 3.20 3.52 3.34 2.95 2.47 1.47 0.61 0.26 0.16 0.09 0.10 0.13 0.17 0.11 0.04 0.02 0.04 0.12 0.10 0.04 0.00 0.00 0.02 0.04 0.07 0.10 0.10 0.14 0.12 0.11 0.08 0.04 0.02 0.01 0.01 0.00 0.00 0.01 0.00 0.00 0.00 0.00 0.00 0.00 0.00 0.00 0.00 0.00 0.00 0.02 0.04 0.06 0.08
3.08 3.62 3.76 3.39 2.34 1.63 1.07 0.74 0.47 0.25 0.25 0.15 0.14 0.12 0.04 0.01 0.06 0.12 0.09 0.01 0.00 0.00 0.00 0.01 0.03 0.03 0.04 0.06 0.09 0.16 0.22 0.21 0.15 0.10 0.06 0.04 0.02 0.01 0.01 0.01 0.00 0.00 0.00 0.00 0.00 0.00 0.00 0.00 0.00 0.00 0.00 0.00 0.01 0.04
4.22 4.54 3.46 2.87 1.73 0.83 0.48 0.35 0.24 0.19 0.16 0.10 0.07 0.04 0.03 0.08 0.13 0.16 0.04 0.00 0.00 0.00 0.00 0.01 0.02 0.03 0.03 0.03 0.05 0.07 0.10 0.18 0.20 0.18 0.18 0.18 0.11 0.08 0.05 0.03 0.02 0.01 0.00 0.00 0.00 0.00 0.00 0.00 0.00 0.00 0.00 0.00 0.01 0.03
3.84 2.48 1.67 0.83 0.49 0.20 0.12 0.12 0.09 0.05 0.04 0.07 0.08 0.04 0.05 0.16 0.26 0.13 0.00 0.00 0.00 0.00 0.00 0.00 0.00 0.01 0.02 0.03 0.04 0.07 0.09 0.13 0.14 0.11 0.10 0.19 0.21 0.20 0.16 0.12 0.08 0.04 0.02 0.04 0.04 0.03 0.02 0.01 0.01 0.01 0.01 0.01 0.02 0.04
2.72 1.69 0.74 0.19 0.08 0.09 0.06 0.04 0.03 0.05 0.07 0.06 0.05 0.05 0.14 0.27 0.12 0.01 0.00 0.00 0.00 0.00 0.00 0.00 0.01 0.01 0.01 0.02 0.03 0.05 0.07 0.12 0.13 0.09 0.10 0.13 0.14 0.14 0.15 0.14 0.12 0.09 0.10 0.11 0.11 0.10 0.07 0.05 0.04 0.04 0.05 0.05 0.04 0.04
1.16 0.32 0.16 0.13 0.05 0.04 0.07 0.08 0.09 0.09 0.08 0.06 0.09 0.15 0.26 0.19 0.05 0.00 0.00 0.00 0.01 0.01 0.01 0.00 0.00 0.00 0.00 0.01 0.02 0.04 0.06 0.09 0.12 0.12 0.13 0.14 0.13 0.13 0.14 0.16 0.22 0.27 0.28 0.21 0.16 0.17 0.18 0.17 0.14 0.13 0.15 0.12 0.09 0.07
0.25 0.07 0.03 0.07 0.06 0.06 0.08 0.08 0.05 0.02 0.02 0.03 0.05 0.05 0.05 0.01 0.00 0.00 0.00 0.00 0.00 0.00 0.00 0.00 0.00 0.00 0.01 0.02 0.03 0.04 0.06 0.09 0.12 0.11 0.08 0.09 0.13 0.16 0.20 0.27 0.35 0.42 0.41 0.37 0.32 0.25 0.25 0.27 0.29 0.28 0.26 0.23 0.19 0.19
0.07 0.01 0.02 0.04 0.07 0.06 0.03 0.03 0.03 0.03 0.05 0.03 0.03 0.03 0.03 0.02 0.01 0.01 0.01 0.01 0.01 0.00 0.00 0.00 0.01 0.02 0.02 0.03 0.05 0.06 0.06 0.07 0.10 0.10 0.10 0.10 0.12 0.18 0.24 0.29 0.37 0.46 0.46 0.42 0.50 0.57 0.53 0.53 0.55 0.52 0.47 0.41 0.35 0.31
0.00 0.01 0.01 0.03 0.04 0.04 0.05 0.05 0.03 0.03 0.03 0.02 0.02 0.03 0.03 0.03 0.02 0.01 0.01 0.00 0.01 0.00 0.01 0.01 0.01 0.02 0.03 0.04 0.06 0.09 0.09 0.11 0.14 0.14 0.15 0.18 0.20 0.23 0.28 0.34 0.38 0.44 0.49 0.49 0.45 0.43 0.40 0.34 0.30 0.29 0.30 0.30 0.27 0.24
0.03 0.02 0.03 0.05 0.09 0.11 0.10 0.07 0.03 0.02 0.02 0.02 0.01 0.01 0.01 0.01 0.01 0.00 0.00 0.00 0.01 0.01 0.01 0.02 0.03 0.05 0.06 0.08 0.11 0.14 0.18 0.18 0.18 0.19 0.21 0.22 0.23 0.25 0.30 0.37 0.44 0.47 0.49 0.49 0.44 0.40 0.36 0.37 0.39 0.37 0.39 0.39 0.37 0.31
0.15 0.11 0.11 0.12 0.16 0.19 0.15 0.10 0.09 0.08 0.08 0.04 0.02 0.01 0.01 0.01 0.01 0.00 0.00 0.00 0.01 0.02 0.03 0.06 0.09 0.12 0.15 0.16 0.19 0.23 0.26 0.29 0.31 0.34 0.38 0.36 0.34 0.37 0.43 0.45 0.45 0.45 0.43 0.43 0.46 0.49 0.48 0.46 0.43 0.40 0.38 0.36 0.35 0.33

GFSWCAN_prec_precacc_111.txt.gz
Total_Precipitation_Accumulation
0.87 0.77 0.72 0.77 0.87 0.91 0.92 0.98 1.03 0.92 0.68 0.53 0.59 0.41 0.35 0.28 0.12 0.04 0.06 0.09 0.22 0.12 0.02 0.00 0.00 0.01 0.01 0.02 0.03 0.01 0.02 0.02 0.06 0.14 0.13 0.07 0.03 0.01 0.00 0.00 0.00 0.02 0.04 0.06 0.07 0.09 0.01 0.00 0.00 0.00 0.00 0.00 0.00 0.00
0.78 0.79 0.69 0.66 0.76 0.79 0.88 1.00 1.15 1.20 1.09 0.91 0.73 0.39 0.28 0.20 0.13 0.07 0.04 0.08 0.15 0.14 0.04 0.00 0.00 0.00 0.00 0.01 0.01 0.00 0.03 0.01 0.04 0.12 0.16 0.10 0.04 0.01 0.00 0.00 0.00 0.00 0.00 0.00 0.00 0.00 0.00 0.00 0.00 0.00 0.00 0.00 0.00 0.01
0.66 0.71 0.73 0.75 0.92 0.80 0.73 0.72 0.71 0.65 0.72 0.78 0.67 0.43 0.24 0.20 0.17 0.23 0.10 0.04 0.10 0.13 0.02 0.00 0.01 0.00 0.00 0.00 0.01 0.01 0.02 0.01 0.04 0.12 0.26 0.11 0.06 0.04 0.02 0.01 0.00 0.00 0.00 0.00 0.00 0.00 0.00 0.00 0.00 0.00 0.00 0.00 0.00 0.02
0.79 0.67 0.73 0.74 0.95 1.09 0.87 0.72 0.59 0.56 0.56 0.58 0.47 0.29 0.19 0.17 0.21 0.17 0.05 0.06 0.12 0.12 0.10 0.02 0.00 0.00 0.00 0.00 0.01 0.02 0.04 0.02 0.08 0.16 0.18 0.14 0.06 0.03 0.02 0.01 0.00 0.01 0.00 0.00 0.00 0.00 0.00 0.00 0.00 0.00 0.00 0.00 0.00 0.00
0.73 0.91 0.86 0.78 0.70 0.91 1.49 1.24 0.71 0.55 0.60 0.61 0.31 0.16 0.17 0.18 0.11 0.06 0.02 0.04 0.08 0.16 0.20 0.05 0.05 0.00 0.00 0.01 0.04 0.04 0.08 0.15 0.15 0.27 0.31 0.16 0.07 0.05 0.01 0.00 0.00 0.00 0.00 0.00 0.00 0.00 0.00 0.00 0.00 0.00 0.00 0.00 0.00 0.00
0.68 0.76 1.21 1.09 0.74 0.60 0.79 1.31 0.90 0.53 0.51 0.61 0.26 0.20 0.17 0.08 0.10 0.07 0.08 0.23 0.16 0.16 0.38 0.18 0.23 0.03 0.03 0.05 0.14 0.15 0.17 0.30 0.40 0.30 0.28 0.28 0.14 0.15 0.12 0.03 0.00 0.00 0.00 0.00 0.00 0.00 0.00 0.00 0.00 0.00 0.00 0.00 0.00 0.00
0.76 0.66 0.83 1.40 1.19 0.82 0.72 0.86 0.75 0.48 0.47 0.40 0.21 0.15 0.05 0.03 0.07 0.04 0.13 0.56 0.28 0.21 0.34 0.41 0.58 0.15 0.13 0.21 0.20 0.41 0.29 0.47 0.50 0.46 0.29 0.21 0.22 0.48 0.31 0.05 0.00 0.00 0.00 0.00 0.00 0.00 0.00 0.00 0.00 0.00 0.00 0.00 0.00 0.00
1.03 0.80 0.75 1.02 1.29 0.92 0.80 0.85 0.48 0.38 0.40 0.27 0.12 0.04 0.04 0.06 0.03 0.03 0.02 0.10 0.28 0.64 0.61 0.89 0.88 0.45 0.49 0.56 0.44 0.55 0.56 0.66 0.74 0.61 0.28 0.29 0.27 0.34 0.20 0.01 0.01 0.02 0.01 0.01 0.01 0.00 0.00 0.00 0.00 0.00 0.00 0.00 0.00 0.00
1.01 0.98 0.72 0.75 1.04 0.80 0.82 0.88 0.45 0.32 0.26 0.15 0.04 0.02 0.13 0.08 0.04 0.03 0.05 0.15 0.45 0.91 0.79 0.70 0.67 0.62 0.68 0.67 0.65 0.56 0.82 0.72 0.65 0.49 0.19 0.27 0.35 0.32 0.07 0.04 0.05 0.08 0.14 0.16 0.17 0.11 0.05 0.02 0.02 0.02 0.02 0.01 0.01 0.02
0.94 1.00 0.73 0.81 0.87 0.70 0.83 0.77 0.43 0.32 0.28 0.14 0.04 0.03 0.10 0.01 0.00 0.06 0.28 0.67 0.79 0.72 0.50 0.53 0.61 0.67 0.88 0.67 0.56 0.61 0.64 0.50 0.60 0.31 0.22 0.23 0.16 0.07 0.05 0.07 0.08 0.08 0.19 0.26 0.33 0.36 0.30 0.18 0.06 0.04 0.07 0.10 0.09 0.08
0.89 0.94 0.77 0.91 0.80 0.62 0.78 0.61 0.41 0.39 0.31 0.08 0.04 0.01 0.02 0.00 0.15 0.47 0.75 0.74 0.55 0.36 0.30 0.37 0.52 0.47 0.41 0.52 0.48 0.57 0.74 0.40 0.45 0.55 0.30 0.24 0.22 0.15 0.07 0.03 0.02 0.02 0.05 0.09 0.15 0.32 0.38 0.26 0.22 0.12 0.11 0.17 0.24 0.23
0.81 0.89 0.74 0.93 0.74 0.63 0.68 0.52 0.46 0.26 0.12 0.12 0.09 0.04 0.02 0.13 0.38 0.50 0.62 0.46 0.21 0.15 0.21 0.38 0.37 0.35 0.26 0.30 0.38 0.39 0.44 0.36 0.41 0.56 0.40 0.30 0.27 0.12 0.15 0.15 0.09 0.05 0.10 0.06 0.09 0.13 0.14 0.12 0.16 0.18 0.13 0.13 0.15 0.24
0.82 0.78 0.75 0.96 0.76 0.66 0.55 0.44 0.45 0.30 0.28 0.32 0.24 0.20 0.13 0.16 0.28 0.36 0.35 0.27 0.07 0.07 0.10 0.11 0.21 0.21 0.24 0.29 0.20 0.24 0.18 0.10 0.21 0.37 0.44 0.20 0.03 0.03 0.02 0.03 0.10 0.23 0.32 0.24 0.11 0.15 0.16 0.17 0.15 0.12 0.13 0.11 0.08 0.07
0.98 0.85 0.92 1.11 0.83 0.60 0.47 0.53 0.71 0.53 0.55 0.55 0.40 0.25 0.10 0.10 0.14 0.14 0.12 0.12 0.05 0.04 0.03 0.05 0.10 0.14 0.24 0.18 0.19 0.16 0.05 0.08 0.25 0.28 0.17 0.06 0.06 0.03 0.00 0.00 0.00 0.03 0.13 0.29 0.35 0.41 0.39 0.46 0.43 0.44 0.45 0.40 0.31 0.24
1.25 1.08 1.22 1.35 0.91 0.63 0.61 0.81 0.90 0.73 0.76 0.67 0.48 0.14 0.03 0.03 0.02 0.01 0.02 0.05 0.03 0.04 0.05 0.03 0.05 0.05 0.12 0.16 0.13 0.15 0.11 0.30 0.37 0.21 0.14 0.08 0.03 0.01 0.01 0.01 0.00 0.00 0.01 0.01 0.07 0.24 0.32 0.38 0.49 0.44 0.39 0.31 0.23 0.21
1.79 2.25 2.12 1.61 1.05 0.81 0.90 1.34 1.70 1.39 1.10 0.79 0.54 0.08 0.00 0.01 0.00 0.00 0.00 0.01 0.01 0.04 0.06 0.09 0.14 0.13 0.09 0.19 0.17 0.10 0.16 0.35 0.32 0.14 0.06 0.01 0.01 0.04 0.02 0.02 0.01 0.00 0.00 0.00 0.00 0.02 0.06 0.07 0.11 0.12 0.10 0.18 0.23 0.21
3.02 3.12 1.85 1.22 1.10 1.13 1.53 2.12 2.17 1.80 1.27 1.00 0.26 0.01 0.00 0.01 0.00 0.00 0.00 0.00 0.02 0.06 0.20 0.35 0.35 0.13 0.13 0.17 0.06 0.05 0.18 0.16 0.07 0.03 0.02 0.01 0.01 0.05 0.05 0.02 0.02 0.02 0.03 0.04 0.03 0.06 0.10 0.10 0.14 0.19 0.14 0.09 0.10 0.16
2.53 1.49 1.16 1.14 1.48 1.92 2.68 2.45 2.06 2.08 1.48 0.41 0.04 0.00 0.00 0.00 0.01 0.01 0.00 0.01 0.02 0.08 0.27 0.60 0.41 0.35 0.14 0.05 0.02 0.02 0.02 0.03 0.02 0.01 0.00 0.00 0.00 0.02 0.04 0.02 0.01 0.04 0.08 0.21 0.23 0.18 0.15 0.16 0.16 0.14 0.12 0.09 0.07 0.08
1.54 1.05 1.26 1.46 2.02 2.38 2.37 2.01 1.79 1.45 0.44 0.07 0.02 0.00 0.00 0.00 0.01 0.02 0.03 0.02 0.02 0.06 0.25 0.59 0.57 0.23 0.01 0.00 0.01 0.01 0.00 0.00 0.00 0.00 0.01 0.00 0.00 0.02 0.06 0.08 0.08 0.06 0.07 0.13 0.13 0.10 0.08 0.06 0.05 0.07 0.09 0.09 0.06 0.05
1.88 1.84 1.86 2.19 2.20 2.43 2.48 1.97 1.20 0.65 0.28 0.06 0.01 0.00 0.01 0.01 0.01 0.02 0.03 0.04 0.06 0.27 0.60 0.54 0.16 0.03 0.03 0.04 0.06 0.04 0.01 0.01 0.00 0.00 0.01 0.01 0.00 0.00 0.00 0.02 0.05 0.05 0.05 0.05 0.06 0.07 0.07 0.05 0.05 0.06 0.08 0.09 0.07 0.07
3.39 2.76 2.70 3.14 3.24 2.96 2.34 1.39 0.69 0.27 0.11 0.06 0.02 0.01 0.02 0.01 0.01 0.01 0.04 0.09 0.42 0.62 0.30 0.05 0.02 0.02 0.04 0.05 0.06 0.05 0.03 0.02 0.01 0.00 0.00 0.00 0.00 0.00 0.00 0.00 0.01 0.02 0.02 0.02 0.01 0.02 0.04 0.03 0.05 0.07 0.05 0.05 0.09 0.10
3.04 2.74 4.13 4.27 3.42 3.01 2.17 1.13 0.48 0.22 0.14 0.10 0.06 0.07 0.09 0.04 0.01 0.02 0.06 0.34 0.47 0.13 0.02 0.02 0.04 0.05 0.05 0.06 0.07 0.07 0.05 0.02 0.01 0.01 0.00 0.00 0.00 0.00 0.00 0.00 0.01 0.00 0.00 0.00 0.00 0.00 0.01 0.01 0.03 0.03 0.03 0.05 0.09 0.10
3.09 3.25 3.58 3.39 3.04 2.62 1.57 0.62 0.27 0.16 0.10 0.10 0.13 0.17 0.11 0.04 0.02 0.04 0.14 0.11 0.04 0.00 0.00 0.02 0.04 0.07 0.10 0.10 0.14 0.12 0.11 0.08 0.04 0.02 0.01 0.01 0.00 0.00 0.01 0.00 0.00 0.00 0.00 0.00 0.00 0.00 0.00 0.00 0.00 0.00 0.02 0.04 0.06 0.08
3.13 3.68 3.84 3.53 2.46 1.72 1.11 0.78 0.48 0.25 0.25 0.15 0.14 0.12 0.04 0.01 0.06 0.12 0.09 0.01 0.00 0.00 0.00 0.01 0.03 0.03 0.04 0.06 0.09 0.16 0.22 0.21 0.15 0.10 0.06 0.04 0.02 0.01 0.01 0.01 0.00 0.00 0.00 0.00 0.00 0.00 0.00 0.00 0.00 0.00 0.00 0.00 0.01 0.04
4.34 4.65 3.54 2.95 1.81 0.92 0.55 0.38 0.25 0.19 0.16 0.10 0.07 0.04 0.03 0.08 0.13 0.17 0.04 0.00 0.00 0.00 0.00 0.01 0.02 0.03 0.03 0.03 0.05 0.07 0.10 0.18 0.20 0.18 0.18 0.18 0.11 0.08 0.05 0.03 0.02 0.01 0.00 0.00 0.00 0.00 0.00 0.00 0.00 0.00 0.00 0.00 0.02 0.04
3.95 2.49 1.70 0.84 0.50 0.21 0.14 0.13 0.09 0.05 0.04 0.07 0.08 0.04 0.05 0.17 0.28 0.15 0.01 0.00 0.00 0.00 0.00 0.00 0.00 0.01 0.02 0.03 0.04 0.07 0.09 0.13 0.16 0.13 0.10 0.19 0.21 0.20 0.16 0.12 0.08 0.04 0.02 0.04 0.04 0.03 0.02 0.01 0.01 0.01 0.01 0.01 0.04 0.08
2.81 1.70 0.74 0.19 0.08 0.09 0.06 0.04 0.03 0.05 0.08 0.07 0.05 0.06 0.15 0.30 0.12 0.01 0.00 0.00 0.00 0.00 0.00 0.00 0.01 0.01 0.01 0.02 0.03 0.05 0.08 0.12 0.14 0.09 0.10 0.13 0.14 0.14 0.15 0.14 0.12 0.09 0.10 0.11 0.11 0.10 0.07 0.05 0.04 0.04 0.05 0.05 0.04 0.04
1.18 0.32 0.16 0.13 0.05 0.04 0.07 0.08 0.09 0.10 0.08 0.06 0.10 0.16 0.27 0.19 0.05 0.00 0.00 0.00 0.01 0.02 0.02 0.01 0.00 0.00 0.00 0.01 0.02 0.04 0.06 0.09 0.12 0.12 0.13 0.14 0.13 0.13 0.14 0.16 0.22 0.27 0.28 0.21 0.16 0.17 0.18 0.17 0.14 0.13 0.15 0.12 0.09 0.07
0.25 0.07 0.03 0.07 0.06 0.06 0.08 0.08 0.05 0.02 0.02 0.03 0.05 0.05 0.05 0.01 0.00 0.00 0.00 0.00 0.00 0.00 0.00 0.00 0.00 0.00 0.01 0.02 0.03 0.04 0.06 0.09 0.12 0.11 0.08 0.09 0.13 0.16 0.20 0.27 0.35 0.42 0.41 0.37 0.32 0.25 0.25 0.27 0.29 0.28 0.26 0.23 0.19 0.19
0.07 0.01 0.02 0.04 0.07 0.06 0.03 0.03 0.03 0.03 0.05 0.03 0.03 0.03 0.03 0.02 0.01 0.01 0.01 0.01 0.01 0.00 0.00 0.00 0.01 0.02 0.02 0.03 0.05 0.06 0.06 0.07 0.10 0.10 0.10 0.10 0.12 0.18 0.24 0.29 0.37 0.46 0.46 0.42 0.50 0.57 0.53 0.53 0.55 0.52 0.47 0.41 0.35 0.31
0.00 0.01 0.01 0.03 0.04 0.04 0.05 0.05 0.03 0.03 0.03 0.02 0.02 0.03 0.03 0.03 0.02 0.01 0.01 0.00 0.01 0.00 0.01 0.01 0.01 0.02 0.03 0.04 0.06 0.09 0.09 0.11 0.14 0.14 0.15 0.18 0.20 0.23 0.28 0.34 0.38 0.44 0.49 0.49 0.45 0.43 0.40 0.34 0.30 0.29 0.30 0.30 0.27 0.24
0.03 0.02 0.03 0.05 0.09 0.11 0.10 0.07 0.03 0.02 0.02 0.02 0.01 0.01 0.01 0.01 0.01 0.00 0.00 0.00 0.01 0.01 0.01 0.02 0.03 0.05 0.06 0.08 0.11 0.14 0.18 0.18 0.18 0.19 0.21 0.22 0.23 0.25 0.30 0.37 0.44 0.47 0.49 0.49 0.44 0.40 0.36 0.37 0.39 0.38 0.39 0.39 0.37 0.31
0.15 0.11 0.11 0.12 0.16 0.19 0.15 0.10 0.09 0.08 0.08 0.04 0.02 0.01 0.01 0.01 0.01 0.00 0.00 0.00 0.01 0.02 0.03 0.06 0.09 0.12 0.15 0.16 0.19 0.23 0.26 0.29 0.31 0.34 0.38 0.36 0.34 0.37 0.43 0.45 0.45 0.45 0.43 0.43 0.46 0.49 0.48 0.47 0.45 0.41 0.38 0.36 0.35 0.33

GFSWCAN_prec_precacc_114.txt.gz
Total_Precipitation_Accumulation
0.88 0.77 0.72 0.77 0.87 0.91 0.92 0.98 1.03 0.92 0.68 0.53 0.59 0.41 0.35 0.28 0.12 0.04 0.06 0.09 0.22 0.12 0.02 0.00 0.00 0.01 0.01 0.02 0.03 0.01 0.02 0.02 0.06 0.14 0.13 0.07 0.03 0.01 0.00 0.00 0.00 0.02 0.04 0.06 0.07 0.09 0.01 0.00 0.00 0.00 0.00 0.00 0.00 0.00
0.79 0.80 0.69 0.66 0.76 0.79 0.88 1.00 1.15 1.20 1.09 0.91 0.73 0.39 0.28 0.20 0.13 0.07 0.04 0.08 0.15 0.14 0.04 0.00 0.00 0.00 0.00 0.01 0.01 0.00 0.03 0.01 0.04 0.12 0.16 0.10 0.04 0.01 0.00 0.00 0.00 0.00 0.00 0.00 0.00 0.00 0.00 0.00 0.00 0.00 0.00 0.00 0.00 0.01
0.67 0.72 0.73 0.75 0.92 0.80 0.73 0.72 0.71 0.66 0.73 0.78 0.67 0.43 0.24 0.20 0.17 0.23 0.10 0.04 0.10 0.13 0.02 0.00 0.01 0.00 0.00 0.00 0.01 0.01 0.02 0.01 0.04 0.12 0.26 0.11 0.06 0.04 0.02 0.01 0.00 0.00 0.00 0.00 0.00 0.00 0.00 0.00 0.00 0.00 0.00 0.00 0.00 0.02
0.79 0.67 0.73 0.74 0.95 1.09 0.87 0.72 0.59 0.57 0.56 0.58 0.47 0.29 0.19 0.17 0.21 0.17 0.05 0.06 0.12 0.12 0.10 0.02 0.00 0.00 0.00 0.00 0.01 0.02 0.04 0.02 0.08 0.16 0.18 0.14 0.06 0.03 0.02 0.01 0.00 0.01 0.00 0.00 0.00 0.00 0.00 0.00 0.00 0.00 0.00 0.00 0.00 0.00
0.73 0.92 0.86 0.78 0.70 0.91 1.49 1.24 0.71 0.55 0.60 0.61 0.31 0.16 0.17 0.18 0.11 0.06 0.02 0.04 0.08 0.16 0.20 0.05 0.05 0.00 0.00 0.01 0.04 0.04 0.08 0.15 0.15 0.27 0.31 0.16 0.07 0.05 0.01 0.00 0.00 0.00 0.00 0.00 0.00 0.00 0.00 0.00 0.00 0.00 0.00 0.00 0.00 0.00
0.69 0.77 1.21 1.09 0.74 0.60 0.79 1.31 0.90 0.53 0.51 0.61 0.27 0.21 0.17 0.08 0.10 0.07 0.08 0.23 0.16 0.16 0.38 0.18 0.23 0.03 0.03 0.05 0.14 0.15 0.17 0.30 0.40 0.30 0.28 0.28 0.14 0.15 0.12 0.03 0.00 0.00 0.00 0.00 0.00 0.00 0.00 0.00 0.00 0.00 0.00 0.00 0.00 0.00
0.77 0.66 0.83 1.40 1.19 0.82 0.72 0.86 0.75 0.48 0.47 0.40 0.21 0.16 0.05 0.03 0.07 0.04 0.13 0.56 0.28 0.21 0.34 0.41 0.58 0.15 0.13 0.21 0.20 0.41 0.29 0.47 0.50 0.46 0.29 0.21 0.22 0.48 0.31 0.05 0.00 0.00 0.00 0.00 0.00 0.00 0.00 0.00 0.00 0.00 0.00 0.00 0.00 0.00
1.04 0.81 0.75 1.02 1.29 0.92 0.80 0.85 0.48 0.38 0.40 0.27 0.12 0.04 0.04 0.06 0.03 0.03 0.02 0.10 0.28 0.64 0.61 0.89 0.88 0.45 0.49 0.56 0.44 0.55 0.56 0.66 0.74 0.61 0.28 0.29 0.27 0.34 0.20 0.01 0.01 0.02 0.01 0.01 0.01 0.00 0.00 0.00 0.00 0.00 0.00 0.00 0.00 0.00
1.02 0.98 0.72 0.75 1.04 0.80 0.82 0.88 0.45 0.32 0.26 0.15 0.05 0.02 0.14 0.08 0.04 0.03 0.05 0.15 0.45 0.91 0.79 0.70 0.67 0.62 0.68 0.67 0.65 0.56 0.82 0.72 0.65 0.49 0.19 0.27 0.35 0.32 0.07 0.04 0.05 0.08 0.14 0.16 0.17 0.11 0.05 0.02 0.02 0.02 0.02 0.01 0.01 0.02
0.96 1.01 0.73 0.81 0.87 0.70 0.83 0.77 0.43 0.32 0.28 0.14 0.04 0.03 0.10 0.01 0.00 0.06 0.28 0.67 0.79 0.72 0.50 0.53 0.61 0.67 0.88 0.67 0.56 0.61 0.64 0.50 0.60 0.31 0.22 0.23 0.16 0.07 0.05 0.07 0.08 0.08 0.19 0.26 0.33 0.36 0.30 0.18 0.06 0.04 0.07 0.10 0.09 0.08
0.90 0.95 0.78 0.91 0.80 0.62 0.78 0.61 0.41 0.39 0.31 0.08 0.04 0.01 0.02 0.00 0.15 0.47 0.75 0.74 0.55 0.36 0.30 0.37 0.52 0.47 0.41 0.52 0.48 0.57 0.74 0.40 0.45 0.55 0.30 0.24 0.22 0.15 0.07 0.03 0.02 0.02 0.05 0.09 0.15 0.32 0.38 0.26 0.22 0.12 0.11 0.17 0.24 0.23
0.81 0.89 0.74 0.93 0.74 0.63 0.68 0.52 0.46 0.26 0.12 0.12 0.09 0.04 0.02 0.13 0.38 0.50 0.62 0.46 0.21 0.15 0.21 0.38 0.37 0.35 0.26 0.30 0.38 0.39 0.44 0.36 0.41 0.56 0.40 0.30 0.27 0.12 0.15 0.15 0.09 0.05 0.10 0.06 0.09 0.13 0.14 0.12 0.16 0.18 0.13 0.13 0.15 0.24
0.82 0.78 0.75 0.96 0.76 0.66 0.55 0.44 0.45 0.30 0.28 0.32 0.24 0.20 0.13 0.16 0.28 0.36 0.35 0.27 0.07 0.07 0.10 0.11 0.21 0.21 0.24 0.29 0.20 0.24 0.18 0.10 0.21 0.37 0.44 0.20 0.03 0.03 0.02 0.03 0.10 0.23 0.32 0.24 0.11 0.15 0.16 0.17 0.15 0.12 0.13 0.11 0.08 0.07
0.98 0.85 0.92 1.11 0.83 0.60 0.47 0.53 0.71 0.53 0.55 0.55 0.40 0.25 0.11 0.10 0.14 0.14 0.12 0.12 0.05 0.04 0.03 0.05 0.10 0.14 0.24 0.18 0.19 0.16 0.05 0.08 0.25 0.28 0.17 0.06 0.06 0.03 0.00 0.00 0.00 0.03 0.13 0.29 0.35 0.41 0.39 0.46 0.43 0.44 0.45 0.40 0.31 0.24
1.25 1.08 1.22 1.35 0.91 0.63 0.61 0.81 0.90 0.73 0.76 0.67 0.48 0.14 0.03 0.03 0.02 0.01 0.02 0.05 0.03 0.04 0.05 0.03 0.05 0.05 0.12 0.16 0.13 0.16 0.12 0.30 0.37 0.21 0.14 0.08 0.03 0.01 0.01 0.01 0.00 0.00 0.01 0.01 0.07 0.24 0.32 0.38 0.49 0.44 0.39 0.31 0.23 0.21
1.79 2.25 2.12 1.61 1.05 0.81 0.90 1.34 1.71 1.39 1.10 0.79 0.54 0.08 0.00 0.01 0.00 0.00 0.00 0.01 0.01 0.04 0.06 0.09 0.14 0.13 0.09 0.19 0.17 0.11 0.17 0.35 0.32 0.14 0.06 0.01 0.01 0.04 0.02 0.02 0.01 0.00 0.00 0.00 0.00 0.02 0.06 0.07 0.11 0.12 0.10 0.18 0.23 0.21
3.03 3.12 1.85 1.22 1.10 1.13 1.54 2.12 2.17 1.80 1.27 1.00 0.26 0.01 0.00 0.01 0.00 0.00 0.00 0.00 0.02 0.06 0.20 0.35 0.35 0.14 0.13 0.18 0.06 0.05 0.18 0.16 0.07 0.03 0.02 0.01 0.01 0.05 0.05 0.02 0.02 0.02 0.03 0.04 0.03 0.06 0.10 0.10 0.14 0.19 0.14 0.09 0.10 0.16
2.54 1.49 1.16 1.14 1.48 1.92 2.70 2.46 2.06 2.09 1.49 0.41 0.04 0.00 0.00 0.00 0.01 0.01 0.00 0.01 0.02 0.08 0.27 0.60 0.41 0.36 0.14 0.06 0.02 0.02 0.02 0.03 0.02 0.01 0.00 0.00 0.00 0.02 0.04 0.02 0.01 0.04 0.08 0.21 0.23 0.18 0.15 0.16 0.16 0.14 0.12 0.09 0.07 0.08
1.54 1.05 1.26 1.46 2.03 2.38 2.37 2.01 1.79 1.46 0.44 0.07 0.02 0.00 0.00 0.00 0.01 0.02 0.03 0.02 0.02 0.06 0.25 0.60 0.60 0.24 0.01 0.00 0.01 0.01 0.00 0.00 0.00 0.00 0.01 0.00 0.00 0.02 0.06 0.08 0.08 0.06 0.07 0.13 0.13 0.10 0.08 0.06 0.05 0.07 0.09 0.09 0.06 0.05
1.90 1.85 1.86 2.21 2.22 2.44 2.50 1.98 1.20 0.65 0.28 0.06 0.01 0.00 0.01 0.01 0.01 0.02 0.03 0.04 0.06 0.28 0.62 0.55 0.16 0.03 0.03 0.04 0.06 0.04 0.01 0.01 0.00 0.00 0.01 0.01 0.00 0.00 0.00 0.02 0.05 0.05 0.05 0.05 0.06 0.07 0.07 0.05 0.05 0.06 0.08 0.09 0.07 0.07
3.40 2.77 2.73 3.18 3.27 2.99 2.42 1.44 0.70 0.28 0.11 0.06 0.02 0.01 0.02 0.01 0.01 0.01 0.04 0.09 0.43 0.63 0.31 0.05 0.02 0.02 0.04 0.05 0.06 0.05 0.03 0.02 0.01 0.00 0.00 0.00 0.00 0.00 0.00 0.00 0.01 0.02 0.02 0.02 0.01 0.02 0.04 0.03 0.05 0.07 0.05 0.05 0.09 0.10
3.05 2.75 4.14 4.29 3.44 3.03 2.20 1.16 0.50 0.23 0.14 0.11 0.06 0.07 0.09 0.04 0.01 0.02 0.06 0.34 0.47 0.13 0.02 0.02 0.04 0.05 0.05 0.06 0.07 0.07 0.05 0.02 0.01 0.01 0.00 0.00 0.00 0.00 0.00 0.00 0.01 0.00 0.00 0.00 0.00 0.00 0.01 0.01 0.03 0.03 0.03 0.05 0.09 0.10
3.10 3.26 3.59 3.40 3.07 2.67 1.59 0.62 0.29 0.18 0.11 0.11 0.13 0.17 0.11 0.04 0.02 0.04 0.14 0.11 0.04 0.00 0.00 0.02 0.04 0.07 0.10 0.10 0.14 0.12 0.11 0.08 0.04 0.02 0.01 0.01 0.00 0.00 0.01 0.00 0.00 0.00 0.00 0.00 0.00 0.00 0.00 0.00 0.00 0.00 0.02 0.04 0.06 0.08
3.16 3.73 3.90 3.59 2.51 1.76 1.12 0.79 0.50 0.26 0.26 0.16 0.14 0.12 0.04 0.01 0.06 0.12 0.09 0.01 0.00 0.00 0.00 0.01 0.03 0.03 0.04 0.06 0.09 0.16 0.22 0.21 0.15 0.10 0.06 0.04 0.02 0.01 0.01 0.01 0.00 0.00 0.00 0.00 0.00 0.00 0.00 0.00 0.00 0.00 0.00 0.00 0.01 0.04
4.52 4.85 3.62 3.01 1.82 0.92 0.57 0.40 0.26 0.20 0.16 0.10 0.07 0.04 0.03 0.08 0.13 0.17 0.04 0.00 0.00 0.00 0.00 0.01 0.02 0.03 0.03 0.03 0.05 0.07 0.10 0.18 0.20 0.19 0.18 0.18 0.12 0.08 0.05 0.03 0.02 0.01 0.00 0.00 0.00 0.00 0.00 0.00 0.00 0.00 0.00 0.00 0.02 0.04
4.10 2.55 1.75 0.85 0.50 0.21 0.14 0.13 0.10 0.05 0.04 0.08 0.08 0.04 0.05 0.17 0.29 0.15 0.01 0.00 0.00 0.00 0.00 0.00 0.00 0.01 0.02 0.03 0.04 0.07 0.09 0.13 0.17 0.15 0.11 0.19 0.21 0.20 0.16 0.12 0.08 0.04 0.02 0.04 0.04 0.03 0.02 0.01 0.01 0.01 0.01 0.01 0.04 0.10
2.91 1.73 0.74 0.19 0.08 0.09 0.06 0.04 0.03 0.06 0.08 0.07 0.05 0.06 0.15 0.30 0.13 0.01 0.00 0.00 0.00 0.00 0.00 0.00 0.01 0.01 0.01 0.02 0.03 0.05 0.08 0.12 0.14 0.10 0.10 0.13 0.14 0.14 0.15 0.14 0.12 0.09 0.10 0.11 0.11 0.10 0.07 0.05 0.04 0.04 0.05 0.05 0.04 0.04
1.20 0.32 0.16 0.13 0.05 0.04 0.07 0.08 0.09 0.10 0.08 0.06 0.10 0.16 0.27 0.19 0.05 0.00 0.00 0.00 0.01 0.02 0.02 0.01 0.00 0.00 0.00 0.01 0.02 0.04 0.06 0.09 0.12 0.12 0.13 0.14 0.13 0.13 0.14 0.16 0.22 0.27 0.28 0.21 0.16 0.17 0.18 0.17 0.14 0.13 0.15 0.12 0.09 0.07
0.25 0.07 0.03 0.07 0.06 0.06 0.08 0.08 0.05 0.02 0.02 0.03 0.05 0.05 0.05 0.01 0.00 0.00 0.00 0.00 0.00 0.00 0.00 0.00 0.00 0.00 0.01 0.02 0.03 0.04 0.06 0.09 0.12 0.11 0.08 0.09 0.13 0.16 0.20 0.27 0.35 0.42 0.41 0.37 0.32 0.25 0.25 0.27 0.29 0.28 0.26 0.23 0.19 0.19
0.07 0.01 0.02 0.04 0.07 0.06 0.03 0.03 0.03 0.03 0.05 0.03 0.03 0.03 0.03 0.02 0.01 0.01 0.01 0.01 0.01 0.00 0.00 0.00 0.01 0.02 0.02 0.03 0.05 0.06 0.06 0.07 0.10 0.10 0.10 0.10 0.12 0.18 0.24 0.29 0.37 0.46 0.46 0.42 0.50 0.57 0.53 0.53 0.55 0.52 0.47 0.41 0.35 0.31
0.00 0.01 0.01 0.03 0.04 0.04 0.05 0.05 0.03 0.03 0.03 0.02 0.02 0.03 0.03 0.03 0.02 0.01 0.01 0.00 0.01 0.00 0.01 0.01 0.01 0.02 0.03 0.04 0.06 0.09 0.09 0.11 0.14 0.14 0.15 0.18 0.20 0.23 0.28 0.34 0.38 0.44 0.49 0.49 0.45 0.43 0.40 0.34 0.30 0.29 0.30 0.30 0.27 0.25
0.03 0.02 0.03 0.05 0.09 0.11 0.10 0.07 0.03 0.02 0.02 0.02 0.01 0.01 0.01 0.01 0.01 0.00 0.00 0.00 0.01 0.01 0.01 0.02 0.03 0.05 0.06 0.08 0.11 0.14 0.18 0.18 0.18 0.19 0.21 0.22 0.23 0.25 0.30 0.37 0.44 0.47 0.49 0.49 0.44 0.40 0.36 0.37 0.39 0.38 0.40 0.41 0.39 0.33
0.15 0.11 0.11 0.12 0.16 0.19 0.15 0.10 0.09 0.08 0.08 0.04 0.02 0.01 0.01 0.01 0.01 0.00 0.00 0.00 0.01 0.02 0.04 0.06 0.09 0.12 0.15 0.16 0.19 0.23 0.26 0.29 0.31 0.34 0.38 0.36 0.34 0.37 0.43 0.45 0.45 0.45 0.43 0.43 0.46 0.49 0.48 0.47 0.45 0.41 0.39 0.38 0.37 0.35

GFSWCAN_prec_precacc_117.txt.gz
Total_Precipitation_Accumulation
0.89 0.78 0.73 0.77 0.87 0.91 0.92 0.98 1.03 0.92 0.68 0.53 0.59 0.41 0.35 0.28 0.12 0.04 0.06 0.09 0.22 0.12 0.02 0.00 0.00 0.01 0.01 0.02 0.03 0.01 0.02 0.02 0.06 0.14 0.13 0.07 0.03 0.01 0.00 0.00 0.00 0.02 0.04 0.06 0.07 0.09 0.01 0.00 0.00 0.00 0.00 0.00 0.00 0.00
0.80 0.80 0.70 0.67 0.76 0.79 0.88 1.00 1.15 1.20 1.09 0.91 0.73 0.39 0.28 0.20 0.13 0.07 0.04 0.08 0.15 0.14 0.04 0.00 0.00 0.00 0.00 0.01 0.01 0.00 0.03 0.01 0.04 0.12 0.16 0.10 0.04 0.01 0.00 0.00 0.00 0.00 0.00 0.00 0.00 0.00 0.00 0.00 0.00 0.00 0.00 0.00 0.00 0.01
0.68 0.72 0.74 0.75 0.92 0.80 0.73 0.72 0.71 0.66 0.73 0.78 0.67 0.43 0.24 0.20 0.17 0.23 0.10 0.04 0.10 0.13 0.02 0.00 0.01 0.00 0.00 0.00 0.01 0.01 0.02 0.01 0.04 0.12 0.26 0.11 0.06 0.04 0.02 0.01 0.00 0.00 0.00 0.00 0.00 0.00 0.00 0.00 0.00 0.00 0.00 0.00 0.00 0.02
0.81 0.68 0.74 0.74 0.95 1.09 0.87 0.72 0.59 0.57 0.56 0.58 0.47 0.29 0.19 0.17 0.21 0.17 0.05 0.06 0.12 0.12 0.10 0.02 0.00 0.00 0.00 0.00 0.01 0.02 0.04 0.02 0.08 0.16 0.18 0.14 0.06 0.03 0.02 0.01 0.00 0.01 0.00 0.00 0.00 0.00 0.00 0.00 0.00 0.00 0.00 0.00 0.00 0.00
0.75 0.93 0.87 0.78 0.70 0.91 1.49 1.24 0.71 0.55 0.60 0.61 0.31 0.17 0.17 0.18 0.11 0.06 0.02 0.04 0.08 0.16 0.20 0.05 0.05 0.00 0.00 0.01 0.04 0.04 0.08 0.15 0.15 0.27 0.31 0.16 0.07 0.05 0.01 0.00 0.00 0.00 0.00 0.00 0.00 0.00 0.00 0.00 0.00 0.00 0.00 0.00 0.00 0.00
0.70 0.78 1.21 1.09 0.74 0.60 0.79 1.31 0.90 0.53 0.51 0.61 0.27 0.21 0.17 0.08 0.10 0.07 0.08 0.23 0.16 0.16 0.38 0.18 0.23 0.03 0.03 0.05 0.14 0.15 0.17 0.30 0.40 0.30 0.28 0.28 0.14 0.15 0.12 0.03 0.00 0.00 0.00 0.00 0.00 0.00 0.00 0.00 0.00 0.00 0.00 0.00 0.00 0.00
0.79 0.68 0.84 1.40 1.19 0.82 0.72 0.86 0.75 0.48 0.47 0.40 0.22 0.16 0.06 0.04 0.07 0.04 0.13 0.56 0.28 0.21 0.34 0.41 0.58 0.15 0.13 0.21 0.20 0.41 0.29 0.47 0.50 0.46 0.29 0.21 0.22 0.48 0.31 0.05 0.00 0.00 0.00 0.00 0.00 0.00 0.00 0.00 0.00 0.00 0.00 0.00 0.00 0.00
1.06 0.83 0.76 1.02 1.29 0.92 0.80 0.85 0.48 0.38 0.40 0.27 0.12 0.05 0.05 0.06 0.03 0.03 0.02 0.10 0.28 0.64 0.61 0.89 0.88 0.45 0.49 0.56 0.44 0.55 0.56 0.66 0.74 0.61 0.28 0.29 0.27 0.34 0.20 0.01 0.01 0.02 0.01 0.01 0.01 0.00 0.00 0.00 0.00 0.00 0.00 0.00 0.00 0.00
1.04 0.99 0.72 0.75 1.04 0.80 0.82 0.88 0.45 0.32 0.26 0.15 0.05 0.03 0.14 0.08 0.04 0.03 0.05 0.15 0.45 0.91 0.79 0.70 0.67 0.62 0.68 0.67 0.65 0.56 0.82 0.72 0.65 0.49 0.19 0.27 0.35 0.32 0.07 0.04 0.05 0.08 0.14 0.16 0.17 0.11 0.05 0.02 0.02 0.02 0.02 0.01 0.01 0.02
0.98 1.02 0.73 0.81 0.87 0.70 0.83 0.77 0.43 0.32 0.28 0.15 0.04 0.03 0.10 0.01 0.00 0.06 0.28 0.67 0.79 0.72 0.50 0.53 0.61 0.67 0.88 0.67 0.56 0.61 0.64 0.50 0.60 0.31 0.22 0.23 0.16 0.07 0.05 0.07 0.08 0.08 0.19 0.26 0.33 0.36 0.30 0.18 0.06 0.04 0.07 0.10 0.09 0.08
0.93 0.97 0.80 0.92 0.81 0.62 0.78 0.61 0.41 0.39 0.31 0.08 0.04 0.01 0.02 0.00 0.15 0.47 0.75 0.74 0.55 0.36 0.30 0.37 0.52 0.47 0.41 0.52 0.48 0.57 0.74 0.40 0.45 0.55 0.30 0.24 0.22 0.15 0.07 0.03 0.02 0.02 0.05 0.09 0.15 0.32 0.38 0.26 0.22 0.12 0.11 0.17 0.24 0.23
0.83 0.90 0.75 0.93 0.75 0.63 0.68 0.53 0.46 0.26 0.12 0.12 0.09 0.04 0.02 0.13 0.38 0.50 0.62 0.46 0.21 0.15 0.21 0.38 0.37 0.35 0.26 0.30 0.38 0.39 0.44 0.36 0.41 0.56 0.41 0.30 0.27 0.12 0.15 0.15 0.09 0.05 0.10 0.06 0.09 0.13 0.14 0.12 0.16 0.18 0.13 0.13 0.15 0.24
0.83 0.79 0.76 0.96 0.76 0.66 0.55 0.44 0.45 0.30 0.28 0.32 0.24 0.20 0.13 0.16 0.28 0.36 0.35 0.27 0.07 0.07 0.10 0.11 0.21 0.21 0.24 0.29 0.20 0.24 0.18 0.10 0.21 0.37 0.44 0.20 0.03 0.03 0.02 0.03 0.10 0.23 0.32 0.24 0.11 0.15 0.16 0.17 0.15 0.12 0.13 0.11 0.08 0.07
0.98 0.85 0.92 1.11 0.83 0.60 0.47 0.53 0.71 0.53 0.55 0.55 0.40 0.25 0.11 0.10 0.14 0.14 0.12 0.12 0.05 0.04 0.03 0.05 0.10 0.14 0.24 0.18 0.19 0.16 0.05 0.08 0.25 0.28 0.17 0.06 0.06 0.03 0.00 0.00 0.00 0.03 0.13 0.29 0.35 0.41 0.39 0.46 0.43 0.44 0.45 0.40 0.31 0.24
1.25 1.08 1.22 1.35 0.91 0.63 0.61 0.81 0.90 0.73 0.76 0.67 0.48 0.14 0.03 0.03 0.02 0.01 0.02 0.05 0.03 0.04 0.05 0.03 0.05 0.05 0.12 0.16 0.13 0.16 0.12 0.31 0.37 0.21 0.14 0.08 0.03 0.01 0.01 0.01 0.00 0.00 0.01 0.01 0.07 0.24 0.32 0.38 0.49 0.44 0.39 0.31 0.23 0.21
1.79 2.25 2.12 1.61 1.05 0.81 0.90 1.34 1.71 1.39 1.10 0.79 0.54 0.08 0.00 0.01 0.00 0.00 0.00 0.01 0.01 0.04 0.06 0.09 0.14 0.13 0.09 0.19 0.17 0.11 0.17 0.35 0.32 0.14 0.06 0.01 0.01 0.04 0.02 0.02 0.01 0.00 0.00 0.00 0.00 0.02 0.06 0.07 0.11 0.12 0.10 0.18 0.23 0.21
3.03 3.12 1.85 1.22 1.10 1.14 1.54 2.12 2.17 1.80 1.27 1.00 0.26 0.01 0.00 0.01 0.00 0.00 0.00 0.00 0.02 0.06 0.20 0.35 0.35 0.14 0.13 0.18 0.07 0.05 0.18 0.16 0.07 0.03 0.02 0.01 0.01 0.05 0.05 0.02 0.02 0.02 0.03 0.04 0.03 0.06 0.10 0.10 0.14 0.19 0.14 0.09 0.10 0.16
2.54 1.49 1.16 1.15 1.48 1.92 2.70 2.46 2.06 2.09 1.49 0.41 0.04 0.00 0.00 0.00 0.01 0.01 0.00 0.01 0.02 0.08 0.27 0.60 0.41 0.36 0.14 0.06 0.02 0.02 0.02 0.03 0.02 0.01 0.00 0.00 0.00 0.02 0.04 0.02 0.01 0.04 0.08 0.21 0.23 0.18 0.15 0.16 0.16 0.14 0.12 0.09 0.07 0.08
1.54 1.05 1.26 1.46 2.03 2.38 2.37 2.01 1.79 1.46 0.44 0.07 0.02 0.00 0.00 0.00 0.01 0.02 0.03 0.02 0.02 0.06 0.25 0.61 0.61 0.24 0.01 0.00 0.01 0.01 0.00 0.00 0.00 0.00 0.01 0.00 0.00 0.02 0.06 0.08 0.08 0.06 0.07 0.13 0.13 0.10 0.08 0.06 0.05 0.07 0.09 0.09 0.06 0.05
1.90 1.85 1.86 2.21 2.22 2.44 2.50 1.98 1.20 0.65 0.28 0.06 0.01 0.00 0.01 0.01 0.01 0.02 0.03 0.04 0.06 0.28 0.63 0.57 0.17 0.03 0.03 0.04 0.06 0.04 0.01 0.01 0.00 0.00 0.01 0.01 0.00 0.00 0.00 0.02 0.05 0.05 0.05 0.05 0.06 0.07 0.07 0.05 0.05 0.06 0.08 0.09 0.07 0.07
3.41 2.77 2.75 3.19 3.27 2.99 2.42 1.44 0.70 0.28 0.11 0.06 0.02 0.01 0.02 0.01 0.01 0.01 0.04 0.09 0.43 0.63 0.31 0.05 0.02 0.02 0.04 0.05 0.06 0.05 0.03 0.02 0.01 0.00 0.00 0.00 0.00 0.00 0.00 0.00 0.01 0.02 0.02 0.02 0.01 0.02 0.04 0.03 0.05 0.07 0.05 0.05 0.09 0.10
3.05 2.75 4.14 4.30 3.45 3.05 2.21 1.16 0.51 0.23 0.15 0.11 0.06 0.07 0.09 0.04 0.01 0.02 0.06 0.34 0.47 0.13 0.02 0.02 0.04 0.05 0.05 0.06 0.07 0.07 0.05 0.02 0.01 0.01 0.00 0.00 0.00 0.00 0.00 0.00 0.01 0.00 0.00 0.00 0.00 0.00 0.01 0.01 0.03 0.03 0.03 0.05 0.09 0.10
3.10 3.26 3.59 3.41 3.09 2.70 1.60 0.62 0.29 0.18 0.11 0.11 0.13 0.17 0.11 0.04 0.02 0.04 0.14 0.11 0.04 0.00 0.00 0.02 0.04 0.07 0.10 0.10 0.14 0.12 0.11 0.08 0.04 0.02 0.01 0.01 0.00 0.00 0.01 0.00 0.00 0.00 0.00 0.00 0.00 0.00 0.00 0.00 0.00 0.00 0.02 0.04 0.06 0.08
3.19 3.75 3.94 3.64 2.53 1.77 1.13 0.80 0.51 0.26 0.26 0.16 0.14 0.12 0.04 0.01 0.06 0.12 0.09 0.01 0.00 0.00 0.00 0.01 0.03 0.03 0.04 0.06 0.09 0.16 0.22 0.21 0.15 0.10 0.06 0.04 0.02 0.01 0.02 0.01 0.00 0.00 0.00 0.00 0.00 0.00 0.00 0.00 0.00 0.00 0.00 0.00 0.01 0.04
4.67 5.05 3.71 3.09 1.85 0.93 0.57 0.40 0.27 0.20 0.16 0.10 0.07 0.04 0.03 0.08 0.13 0.17 0.04 0.00 0.00 0.00 0.00 0.01 0.02 0.03 0.03 0.03 0.05 0.07 0.10 0.18 0.20 0.19 0.18 0.18 0.12 0.10 0.06 0.03 0.02 0.01 0.00 0.00 0.00 0.00 0.00 0.00 0.00 0.00 0.00 0.00 0.02 0.04
4.28 2.64 1.82 0.86 0.50 0.21 0.14 0.13 0.10 0.05 0.04 0.08 0.08 0.04 0.05 0.17 0.29 0.16 0.01 0.00 0.00 0.00 0.00 0.00 0.00 0.01 0.02 0.03 0.04 0.07 0.09 0.13 0.17 0.15 0.11 0.19 0.21 0.21 0.16 0.12 0.08 0.04 0.02 0.04 0.04 0.03 0.02 0.01 0.01 0.01 0.01 0.01 0.04 0.10
3.02 1.78 0.76 0.19 0.08 0.09 0.06 0.04 0.03 0.06 0.08 0.07 0.05 0.06 0.15 0.31 0.13 0.01 0.00 0.00 0.00 0.00 0.00 0.00 0.01 0.01 0.01 0.02 0.03 0.05 0.08 0.12 0.14 0.10 0.10 0.13 0.14 0.14 0.15 0.14 0.12 0.09 0.10 0.11 0.11 0.10 0.07 0.05 0.04 0.04 0.05 0.05 0.04 0.04
1.23 0.32 0.16 0.13 0.05 0.04 0.07 0.08 0.09 0.10 0.08 0.06 0.10 0.16 0.27 0.19 0.05 0.00 0.00 0.00 0.01 0.02 0.02 0.01 0.00 0.00 0.00 0.01 0.02 0.04 0.06 0.09 0.12 0.12 0.13 0.14 0.13 0.13 0.14 0.16 0.22 0.27 0.28 0.21 0.16 0.17 0.18 0.17 0.14 0.13 0.15 0.12 0.09 0.07
0.25 0.07 0.03 0.07 0.06 0.06 0.08 0.08 0.05 0.02 0.02 0.03 0.05 0.05 0.05 0.01 0.00 0.00 0.00 0.00 0.00 0.00 0.00 0.00 0.00 0.00 0.01 0.02 0.03 0.04 0.06 0.09 0.12 0.11 0.08 0.09 0.13 0.16 0.20 0.27 0.35 0.42 0.41 0.37 0.32 0.25 0.25 0.27 0.29 0.28 0.26 0.23 0.19 0.19
0.07 0.01 0.02 0.04 0.07 0.06 0.03 0.03 0.03 0.03 0.05 0.03 0.03 0.03 0.03 0.02 0.01 0.01 0.01 0.01 0.01 0.00 0.00 0.00 0.01 0.02 0.02 0.03 0.05 0.06 0.06 0.07 0.10 0.10 0.10 0.10 0.12 0.18 0.24 0.29 0.37 0.46 0.46 0.42 0.50 0.57 0.53 0.53 0.55 0.52 0.47 0.41 0.35 0.31
0.00 0.01 0.01 0.03 0.04 0.04 0.05 0.05 0.03 0.03 0.03 0.02 0.02 0.03 0.03 0.03 0.02 0.01 0.01 0.00 0.01 0.00 0.01 0.01 0.01 0.02 0.03 0.04 0.06 0.09 0.09 0.11 0.14 0.14 0.15 0.18 0.20 0.23 0.28 0.34 0.38 0.44 0.49 0.49 0.45 0.43 0.40 0.34 0.30 0.29 0.30 0.30 0.27 0.25
0.03 0.02 0.03 0.05 0.09 0.11 0.10 0.07 0.03 0.02 0.02 0.02 0.01 0.01 0.01 0.01 0.01 0.00 0.00 0.00 0.01 0.01 0.01 0.02 0.03 0.05 0.06 0.08 0.11 0.14 0.18 0.18 0.18 0.19 0.21 0.22 0.23 0.25 0.30 0.37 0.44 0.47 0.49 0.49 0.44 0.40 0.36 0.37 0.39 0.38 0.40 0.41 0.39 0.33
0.15 0.11 0.11 0.12 0.16 0.19 0.15 0.10 0.09 0.08 0.08 0.04 0.02 0.01 0.01 0.01 0.01 0.00 0.00 0.00 0.01 0.03 0.04 0.06 0.09 0.12 0.15 0.16 0.19 0.23 0.26 0.29 0.31 0.34 0.38 0.36 0.34 0.37 0.43 0.45 0.45 0.45 0.43 0.43 0.46 0.49 0.48 0.47 0.45 0.41 0.39 0.38 0.37 0.35

GFSWCAN_prec_precacc_120.txt.gz
Total_Precipitation_Accumulation
0.90 0.79 0.73 0.77 0.87 0.91 0.92 0.98 1.03 0.92 0.68 0.53 0.59 0.41 0.35 0.28 0.12 0.04 0.06 0.09 0.22 0.12 0.02 0.00 0.00 0.01 0.01 0.02 0.03 0.01 0.02 0.02 0.06 0.14 0.13 0.07 0.03 0.01 0.00 0.00 0.00 0.02 0.04 0.06 0.07 0.09 0.01 0.00 0.00 0.00 0.00 0.00 0.00 0.00
0.81 0.81 0.70 0.67 0.76 0.79 0.88 1.00 1.15 1.20 1.09 0.91 0.73 0.39 0.28 0.20 0.13 0.07 0.04 0.08 0.15 0.14 0.04 0.00 0.00 0.00 0.00 0.01 0.01 0.00 0.03 0.01 0.04 0.12 0.16 0.10 0.04 0.01 0.00 0.00 0.00 0.00 0.00 0.00 0.00 0.00 0.00 0.00 0.00 0.00 0.00 0.00 0.00 0.01
0.69 0.74 0.74 0.75 0.92 0.80 0.73 0.72 0.71 0.66 0.73 0.78 0.67 0.43 0.24 0.20 0.17 0.23 0.10 0.04 0.10 0.13 0.02 0.00 0.01 0.00 0.00 0.00 0.01 0.01 0.02 0.01 0.04 0.12 0.26 0.11 0.06 0.04 0.02 0.01 0.00 0.00 0.00 0.00 0.00 0.00 0.00 0.00 0.00 0.00 0.00 0.00 0.00 0.02
0.82 0.69 0.75 0.75 0.95 1.09 0.87 0.72 0.59 0.57 0.56 0.58 0.48 0.29 0.19 0.17 0.21 0.17 0.05 0.06 0.12 0.12 0.10 0.02 0.00 0.00 0.00 0.00 0.01 0.02 0.04 0.02 0.08 0.16 0.18 0.14 0.06 0.03 0.02 0.01 0.00 0.01 0.00 0.00 0.00 0.00 0.00 0.00 0.00 0.00 0.00 0.00 0.00 0.00
0.76 0.94 0.88 0.79 0.70 0.91 1.49 1.24 0.71 0.55 0.60 0.61 0.31 0.17 0.17 0.18 0.11 0.06 0.02 0.04 0.08 0.16 0.20 0.05 0.05 0.00 0.00 0.01 0.04 0.04 0.08 0.15 0.15 0.27 0.31 0.16 0.07 0.05 0.01 0.00 0.00 0.00 0.00 0.00 0.00 0.00 0.00 0.00 0.00 0.00 0.00 0.00 0.00 0.00
0.72 0.79 1.23 1.11 0.74 0.60 0.79 1.31 0.90 0.53 0.51 0.61 0.28 0.22 0.18 0.08 0.10 0.07 0.08 0.23 0.16 0.16 0.38 0.18 0.23 0.03 0.03 0.05 0.14 0.15 0.17 0.30 0.40 0.30 0.28 0.28 0.14 0.15 0.12 0.03 0.00 0.00 0.00 0.00 0.00 0.00 0.00 0.00 0.00 0.00 0.00 0.00 0.00 0.00
0.80 0.70 0.86 1.41 1.19 0.82 0.72 0.86 0.75 0.48 0.47 0.40 0.22 0.17 0.06 0.04 0.07 0.04 0.13 0.56 0.28 0.21 0.34 0.41 0.58 0.15 0.13 0.21 0.20 0.41 0.29 0.47 0.50 0.46 0.29 0.21 0.22 0.48 0.31 0.05 0.00 0.00 0.00 0.00 0.00 0.00 0.00 0.00 0.00 0.00 0.00 0.00 0.00 0.00
1.08 0.85 0.78 1.04 1.29 0.92 0.80 0.85 0.48 0.38 0.40 0.27 0.12 0.06 0.06 0.06 0.03 0.03 0.02 0.10 0.28 0.64 0.61 0.89 0.88 0.45 0.49 0.56 0.44 0.55 0.56 0.66 0.74 0.61 0.28 0.29 0.27 0.34 0.20 0.01 0.01 0.02 0.01 0.01 0.01 0.00 0.00 0.00 0.00 0.00 0.00 0.00 0.00 0.00
1.08 1.02 0.74 0.76 1.05 0.81 0.82 0.88 0.45 0.32 0.26 0.15 0.05 0.03 0.14 0.08 0.04 0.03 0.05 0.15 0.45 0.91 0.79 0.70 0.67 0.62 0.68 0.67 0.65 0.56 0.82 0.72 0.65 0.49 0.19 0.27 0.35 0.32 0.07 0.04 0.05 0.08 0.14 0.16 0.17 0.11 0.05 0.02 0.02 0.02 0.02 0.01 0.01 0.02
1.06 1.07 0.76 0.84 0.89 0.71 0.83 0.77 0.43 0.32 0.28 0.15 0.04 0.03 0.10 0.01 0.00 0.06 0.28 0.67 0.79 0.72 0.50 0.53 0.61 0.67 0.88 0.67 0.56 0.61 0.64 0.50 0.60 0.31 0.22 0.23 0.16 0.07 0.05 0.07 0.08 0.08 0.19 0.26 0.33 0.36 0.30 0.18 0.06 0.04 0.07 0.10 0.09 0.08
0.99 1.03 0.84 0.94 0.82 0.63 0.78 0.61 0.41 0.39 0.31 0.08 0.04 0.01 0.02 0.00 0.15 0.47 0.75 0.74 0.55 0.36 0.30 0.37 0.52 0.47 0.41 0.52 0.48 0.57 0.74 0.40 0.45 0.55 0.30 0.24 0.22 0.15 0.07 0.03 0.02 0.02 0.05 0.09 0.15 0.32 0.38 0.26 0.22 0.12 0.11 0.17 0.24 0.23
0.93 0.96 0.79 0.96 0.76 0.64 0.69 0.53 0.46 0.26 0.12 0.12 0.09 0.04 0.02 0.13 0.38 0.50 0.62 0.46 0.21 0.15 0.21 0.38 0.37 0.35 0.26 0.30 0.38 0.39 0.44 0.36 0.41 0.56 0.41 0.30 0.27 0.12 0.15 0.15 0.09 0.05 0.10 0.06 0.09 0.13 0.14 0.12 0.16 0.18 0.13 0.13 0.15 0.24
0.96 0.90 0.83 1.02 0.79 0.67 0.56 0.47 0.46 0.30 0.28 0.32 0.24 0.20 0.13 0.16 0.29 0.36 0.35 0.28 0.07 0.07 0.10 0.11 0.21 0.21 0.24 0.29 0.20 0.24 0.18 0.10 0.21 0.37 0.44 0.20 0.03 0.03 0.02 0.03 0.10 0.23 0.32 0.24 0.11 0.15 0.16 0.17 0.15 0.12 0.13 0.11 0.08 0.07
1.08 0.93 0.97 1.15 0.86 0.62 0.50 0.57 0.73 0.53 0.55 0.55 0.40 0.25 0.11 0.10 0.14 0.14 0.12 0.12 0.05 0.04 0.03 0.05 0.10 0.14 0.24 0.18 0.19 0.16 0.05 0.08 0.25 0.28 0.17 0.06 0.06 0.03 0.00 0.00 0.00 0.03 0.13 0.29 0.35 0.41 0.39 0.46 0.43 0.44 0.45 0.40 0.31 0.24
1.30 1.11 1.25 1.37 0.92 0.63 0.62 0.84 0.92 0.73 0.76 0.67 0.48 0.14 0.03 0.03 0.02 0.01 0.02 0.05 0.03 0.04 0.05 0.03 0.05 0.05 0.12 0.16 0.13 0.16 0.12 0.31 0.38 0.21 0.14 0.08 0.03 0.01 0.01 0.01 0.00 0.00 0.01 0.01 0.07 0.24 0.32 0.38 0.49 0.44 0.39 0.31 0.23 0.21
1.81 2.27 2.13 1.62 1.05 0.82 0.90 1.35 1.71 1.39 1.10 0.79 0.54 0.08 0.00 0.01 0.00 0.00 0.00 0.01 0.01 0.04 0.06 0.09 0.14 0.13 0.09 0.19 0.18 0.11 0.17 0.35 0.32 0.14 0.06 0.01 0.01 0.04 0.02 0.02 0.01 0.00 0.00 0.00 0.00 0.02 0.06 0.07 0.11 0.12 0.10 0.18 0.23 0.21
3.03 3.12 1.86 1.22 1.10 1.14 1.54 2.12 2.17 1.80 1.27 1.00 0.26 0.01 0.00 0.01 0.00 0.00 0.00 0.00 0.02 0.06 0.21 0.35 0.35 0.14 0.13 0.18 0.07 0.05 0.18 0.16 0.07 0.03 0.02 0.01 0.01 0.05 0.05 0.02 0.02 0.02 0.03 0.04 0.03 0.06 0.10 0.10 0.14 0.19 0.14 0.09 0.10 0.16
2.54 1.49 1.17 1.15 1.48 1.92 2.70 2.46 2.06 2.09 1.49 0.41 0.04 0.00 0.00 0.00 0.01 0.01 0.00 0.01 0.02 0.08 0.27 0.60 0.41 0.36 0.14 0.06 0.02 0.02 0.02 0.03 0.02 0.01 0.00 0.00 0.00 0.02 0.04 0.02 0.01 0.04 0.08 0.21 0.23 0.18 0.15 0.16 0.16 0.14 0.12 0.09 0.07 0.08
1.54 1.05 1.27 1.47 2.03 2.38 2.37 2.01 1.79 1.46 0.44 0.07 0.02 0.00 0.00 0.00 0.01 0.02 0.03 0.02 0.02 0.06 0.25 0.61 0.61 0.24 0.01 0.00 0.01 0.01 0.00 0.00 0.00 0.00 0.01 0.00 0.00 0.02 0.06 0.08 0.08 0.06 0.07 0.13 0.13 0.10 0.08 0.06 0.05 0.07 0.09 0.09 0.06 0.05
1.90 1.86 1.88 2.21 2.22 2.44 2.50 1.98 1.20 0.65 0.28 0.06 0.01 0.00 0.01 0.01 0.01 0.02 0.03 0.04 0.06 0.28 0.63 0.57 0.17 0.03 0.03 0.04 0.06 0.04 0.01 0.01 0.00 0.00 0.01 0.01 0.00 0.00 0.00 0.02 0.05 0.05 0.05 0.05 0.06 0.07 0.07 0.05 0.05 0.06 0.08 0.09 0.07 0.07
3.42 2.78 2.76 3.19 3.27 2.99 2.42 1.44 0.70 0.28 0.11 0.06 0.02 0.01 0.02 0.01 0.01 0.01 0.04 0.09 0.43 0.64 0.31 0.05 0.02 0.02 0.04 0.05 0.06 0.05 0.03 0.02 0.01 0.00 0.00 0.00 0.00 0.00 0.00 0.00 0.01 0.02 0.02 0.02 0.01 0.02 0.04 0.03 0.05 0.07 0.05 0.05 0.09 0.10
3.05 2.75 4.14 4.30 3.45 3.05 2.21 1.16 0.51 0.23 0.15 0.11 0.06 0.07 0.09 0.04 0.01 0.02 0.06 0.34 0.47 0.13 0.02 0.02 0.04 0.05 0.05 0.06 0.07 0.07 0.05 0.02 0.01 0.01 0.00 0.00 0.00 0.00 0.00 0.00 0.01 0.00 0.00 0.00 0.00 0.00 0.01 0.01 0.03 0.03 0.03 0.05 0.09 0.10
3.10 3.26 3.60 3.42 3.09 2.70 1.60 0.62 0.29 0.18 0.11 0.11 0.13 0.17 0.11 0.04 0.02 0.04 0.14 0.11 0.04 0.00 0.00 0.02 0.04 0.07 0.10 0.10 0.14 0.12 0.11 0.08 0.04 0.02 0.01 0.01 0.00 0.00 0.01 0.00 0.00 0.00 0.00 0.00 0.00 0.00 0.00 0.00 0.00 0.00 0.02 0.04 0.06 0.08
3.20 3.78 3.98 3.67 2.54 1.77 1.13 0.80 0.51 0.27 0.26 0.16 0.14 0.12 0.04 0.01 0.06 0.12 0.09 0.01 0.00 0.00 0.00 0.01 0.03 0.03 0.04 0.06 0.09 0.16 0.22 0.21 0.15 0.10 0.06 0.04 0.02 0.01 0.02 0.01 0.00 0.00 0.00 0.00 0.00 0.00 0.00 0.00 0.00 0.00 0.00 0.00 0.01 0.04
4.82 5.24 3.83 3.20 1.87 0.93 0.58 0.41 0.27 0.21 0.16 0.10 0.08 0.04 0.03 0.08 0.13 0.17 0.04 0.00 0.00 0.00 0.00 0.01 0.02 0.03 0.03 0.03 0.05 0.07 0.10 0.18 0.20 0.19 0.18 0.18 0.12 0.10 0.06 0.03 0.02 0.01 0.00 0.00 0.00 0.00 0.00 0.00 0.00 0.00 0.00 0.00 0.02 0.04
4.48 2.80 1.88 0.88 0.50 0.21 0.14 0.14 0.10 0.05 0.04 0.08 0.08 0.04 0.05 0.17 0.29 0.16 0.01 0.00 0.00 0.00 0.00 0.00 0.00 0.01 0.02 0.03 0.04 0.07 0.09 0.13 0.17 0.15 0.11 0.19 0.21 0.21 0.16 0.12 0.08 0.04 0.02 0.04 0.04 0.03 0.02 0.01 0.01 0.01 0.01 0.01 0.04 0.10
3.25 1.94 0.84 0.19 0.08 0.09 0.06 0.04 0.03 0.06 0.08 0.07 0.05 0.06 0.15 0.31 0.13 0.01 0.00 0.00 0.00 0.00 0.00 0.00 0.01 0.01 0.01 0.02 0.03 0.05 0.08 0.12 0.14 0.10 0.10 0.13 0.14 0.14 0.15 0.14 0.12 0.09 0.10 0.11 0.11 0.10 0.07 0.05 0.04 0.04 0.05 0.05 0.04 0.04
1.32 0.35 0.17 0.13 0.05 0.04 0.07 0.08 0.09 0.10 0.08 0.06 0.10 0.16 0.27 0.19 0.05 0.00 0.00 0.00 0.01 0.02 0.02 0.01 0.00 0.00 0.00 0.01 0.02 0.04 0.06 0.09 0.12 0.12 0.13 0.14 0.13 0.13 0.14 0.16 0.22 0.27 0.28 0.21 0.16 0.17 0.18 0.17 0.14 0.13 0.15 0.12 0.09 0.07
0.27 0.07 0.03 0.07 0.06 0.07 0.08 0.08 0.05 0.02 0.02 0.03 0.05 0.05 0.05 0.01 0.00 0.00 0.00 0.00 0.00 0.00 0.00 0.00 0.00 0.00 0.01 0.02 0.03 0.04 0.06 0.09 0.12 0.11 0.08 0.09 0.13 0.16 0.20 0.27 0.35 0.42 0.41 0.37 0.32 0.25 0.25 0.27 0.29 0.28 0.26 0.23 0.19 0.19
0.07 0.01 0.02 0.04 0.07 0.06 0.03 0.03 0.03 0.03 0.05 0.03 0.03 0.03 0.03 0.02 0.01 0.01 0.01 0.01 0.01 0.00 0.00 0.00 0.01 0.02 0.02 0.03 0.05 0.06 0.06 0.07 0.10 0.10 0.10 0.10 0.12 0.18 0.24 0.29 0.37 0.46 0.46 0.42 0.50 0.57 0.53 0.53 0.55 0.52 0.47 0.41 0.35 0.31
0.00 0.01 0.01 0.03 0.04 0.04 0.05 0.05 0.03 0.03 0.03 0.02 0.02 0.03 0.03 0.03 0.02 0.01 0.01 0.00 0.01 0.01 0.01 0.01 0.01 0.02 0.03 0.04 0.06 0.09 0.09 0.11 0.14 0.14 0.15 0.18 0.20 0.23 0.28 0.34 0.38 0.44 0.49 0.49 0.45 0.43 0.40 0.34 0.30 0.29 0.30 0.30 0.27 0.25
0.03 0.02 0.03 0.05 0.09 0.11 0.10 0.07 0.03 0.02 0.02 0.02 0.01 0.01 0.01 0.01 0.01 0.00 0.00 0.00 0.01 0.01 0.01 0.02 0.03 0.05 0.06 0.08 0.11 0.14 0.18 0.18 0.18 0.19 0.21 0.22 0.23 0.25 0.30 0.37 0.44 0.47 0.49 0.49 0.44 0.40 0.36 0.37 0.39 0.38 0.40 0.41 0.39 0.33
0.15 0.11 0.11 0.12 0.16 0.19 0.15 0.10 0.09 0.08 0.08 0.04 0.02 0.01 0.01 0.01 0.01 0.00 0.00 0.00 0.01 0.03 0.04 0.06 0.09 0.12 0.15 0.16 0.19 0.23 0.26 0.29 0.31 0.34 0.38 0.36 0.34 0.37 0.43 0.45 0.45 0.45 0.43 0.43 0.46 0.49 0.48 0.47 0.45 0.41 0.39 0.38 0.37 0.36

GFSWCAN_prec_precacc_123.txt.gz
Total_Precipitation_Accumulation
0.91 0.80 0.75 0.78 0.87 0.91 0.92 0.98 1.03 0.92 0.68 0.53 0.59 0.41 0.35 0.28 0.12 0.04 0.06 0.09 0.22 0.12 0.02 0.00 0.00 0.01 0.01 0.02 0.03 0.01 0.02 0.02 0.06 0.14 0.13 0.07 0.03 0.01 0.00 0.00 0.00 0.02 0.04 0.06 0.07 0.09 0.01 0.00 0.00 0.00 0.00 0.00 0.00 0.00
0.81 0.82 0.71 0.67 0.76 0.79 0.88 1.00 1.15 1.20 1.09 0.91 0.73 0.39 0.28 0.20 0.13 0.07 0.04 0.08 0.15 0.14 0.04 0.00 0.00 0.00 0.00 0.01 0.01 0.00 0.03 0.01 0.04 0.12 0.16 0.10 0.04 0.01 0.00 0.00 0.00 0.00 0.00 0.00 0.00 0.00 0.00 0.00 0.00 0.00 0.00 0.00 0.00 0.01
0.69 0.74 0.75 0.76 0.92 0.80 0.73 0.72 0.71 0.66 0.73 0.78 0.68 0.43 0.24 0.20 0.17 0.23 0.10 0.04 0.10 0.13 0.02 0.00 0.01 0.00 0.00 0.00 0.01 0.01 0.02 0.01 0.04 0.12 0.26 0.11 0.06 0.04 0.02 0.01 0.00 0.00 0.00 0.00 0.00 0.00 0.00 0.00 0.00 0.00 0.00 0.00 0.00 0.02
0.82 0.70 0.75 0.75 0.95 1.09 0.87 0.72 0.59 0.57 0.56 0.58 0.48 0.29 0.19 0.17 0.21 0.17 0.05 0.06 0.12 0.12 0.10 0.02 0.00 0.00 0.00 0.00 0.01 0.02 0.04 0.02 0.08 0.16 0.18 0.14 0.06 0.03 0.02 0.01 0.00 0.01 0.00 0.00 0.00 0.00 0.00 0.00 0.00 0.00 0.00 0.00 0.00 0.00
0.76 0.94 0.89 0.81 0.70 0.91 1.49 1.24 0.71 0.55 0.60 0.61 0.31 0.17 0.17 0.18 0.11 0.06 0.02 0.04 0.08 0.16 0.20 0.05 0.05 0.00 0.00 0.01 0.04 0.04 0.08 0.15 0.15 0.27 0.31 0.16 0.07 0.05 0.01 0.00 0.00 0.00 0.00 0.00 0.00 0.00 0.00 0.00 0.00 0.00 0.00 0.00 0.00 0.00
0.72 0.80 1.24 1.13 0.76 0.61 0.79 1.31 0.90 0.53 0.51 0.61 0.28 0.22 0.18 0.08 0.10 0.07 0.08 0.23 0.16 0.16 0.38 0.18 0.23 0.03 0.03 0.05 0.14 0.15 0.17 0.30 0.40 0.30 0.28 0.28 0.14 0.15 0.12 0.03 0.00 0.00 0.00 0.00 0.00 0.00 0.00 0.00 0.00 0.00 0.00 0.00 0.00 0.00
0.80 0.71 0.87 1.43 1.22 0.84 0.72 0.86 0.75 0.48 0.47 0.40 0.22 0.17 0.07 0.04 0.07 0.04 0.13 0.56 0.28 0.21 0.34 0.41 0.58 0.15 0.13 0.21 0.20 0.41 0.29 0.47 0.50 0.46 0.29 0.21 0.22 0.48 0.31 0.05 0.00 0.00 0.00 0.00 0.00 0.00 0.00 0.00 0.00 0.00 0.00 0.00 0.00 0.00
1.08 0.85 0.78 1.06 1.32 0.94 0.81 0.85 0.48 0.38 0.40 0.27 0.12 0.06 0.06 0.06 0.03 0.03 0.02 0.10 0.28 0.64 0.61 0.89 0.88 0.45 0.49 0.56 0.44 0.55 0.56 0.66 0.74 0.61 0.28 0.29 0.27 0.34 0.20 0.01 0.01 0.02 0.01 0.01 0.01 0.00 0.00 0.00 0.00 0.00 0.00 0.00 0.00 0.00
1.09 1.03 0.75 0.78 1.08 0.83 0.82 0.88 0.45 0.32 0.26 0.15 0.05 0.03 0.14 0.08 0.04 0.03 0.05 0.15 0.45 0.91 0.79 0.70 0.67 0.62 0.68 0.67 0.65 0.56 0.82 0.72 0.65 0.49 0.19 0.27 0.35 0.32 0.07 0.04 0.05 0.08 0.14 0.16 0.17 0.11 0.05 0.02 0.02 0.02 0.02 0.01 0.01 0.02
1.11 1.11 0.79 0.86 0.92 0.74 0.85 0.77 0.43 0.32 0.28 0.15 0.04 0.03 0.10 0.01 0.00 0.06 0.28 0.67 0.79 0.72 0.50 0.53 0.61 0.67 0.88 0.67 0.56 0.61 0.64 0.50 0.60 0.31 0.22 0.23 0.16 0.07 0.05 0.07 0.08 0.08 0.19 0.26 0.33 0.36 0.30 0.18 0.06 0.04 0.07 0.10 0.09 0.08
1.04 1.12 0.91 1.00 0.88 0.69 0.83 0.63 0.42 0.40 0.31 0.08 0.04 0.01 0.02 0.00 0.15 0.47 0.75 0.74 0.55 0.36 0.30 0.37 0.52 0.47 0.41 0.52 0.48 0.57 0.74 0.40 0.45 0.55 0.30 0.24 0.22 0.15 0.07 0.03 0.02 0.02 0.05 0.09 0.15 0.32 0.38 0.26 0.22 0.12 0.11 0.17 0.24 0.23
0.99 1.04 0.95 1.10 0.84 0.70 0.75 0.59 0.50 0.27 0.12 0.12 0.09 0.04 0.02 0.13 0.38 0.50 0.62 0.46 0.21 0.15 0.21 0.38 0.37 0.35 0.26 0.30 0.38 0.39 0.44 0.36 0.41 0.56 0.41 0.30 0.27 0.12 0.15 0.15 0.09 0.05 0.10 0.06 0.09 0.13 0.14 0.12 0.16 0.18 0.13 0.13 0.15 0.24
1.11 1.01 0.96 1.20 0.95 0.79 0.65 0.59 0.55 0.32 0.29 0.32 0.25 0.20 0.13 0.16 0.29 0.36 0.35 0.28 0.07 0.07 0.10 0.11 0.21 0.21 0.24 0.29 0.20 0.24 0.18 0.10 0.21 0.37 0.44 0.20 0.03 0.03 0.02 0.03 0.10 0.23 0.32 0.24 0.11 0.15 0.16 0.17 0.15 0.12 0.13 0.11 0.08 0.07
1.25 1.09 1.12 1.29 0.99 0.75 0.68 0.74 0.84 0.58 0.58 0.56 0.40 0.26 0.11 0.10 0.14 0.14 0.12 0.12 0.05 0.04 0.03 0.05 0.10 0.14 0.24 0.18 0.19 0.16 0.05 0.08 0.25 0.28 0.17 0.06 0.06 0.03 0.00 0.00 0.00 0.03 0.13 0.29 0.35 0.41 0.39 0.46 0.43 0.44 0.45 0.40 0.31 0.24
1.48 1.27 1.42 1.54 1.07 0.81 0.87 1.06 1.05 0.79 0.78 0.68 0.49 0.14 0.03 0.03 0.02 0.01 0.02 0.05 0.03 0.04 0.05 0.03 0.05 0.05 0.12 0.16 0.13 0.16 0.12 0.31 0.38 0.21 0.14 0.08 0.03 0.01 0.01 0.01 0.00 0.00 0.01 0.01 0.07 0.24 0.32 0.38 0.49 0.44 0.39 0.31 0.23 0.21
1.95 2.39 2.25 1.73 1.17 0.97 1.11 1.50 1.82 1.44 1.11 0.79 0.54 0.09 0.00 0.01 0.00 0.00 0.00 0.01 0.01 0.04 0.06 0.09 0.14 0.13 0.09 0.19 0.18 0.11 0.17 0.35 0.32 0.14 0.06 0.01 0.01 0.04 0.02 0.02 0.01 0.00 0.00 0.00 0.00 0.02 0.06 0.07 0.11 0.12 0.10 0.18 0.23 0.21
3.07 3.17 1.91 1.25 1.15 1.23 1.62 2.18 2.20 1.81 1.27 1.00 0.26 0.01 0.01 0.01 0.00 0.00 0.00 0.00 0.02 0.09 0.23 0.37 0.36 0.14 0.13 0.18 0.07 0.05 0.18 0.16 0.07 0.03 0.02 0.01 0.01 0.05 0.05 0.02 0.02 0.02 0.03 0.04 0.03 0.06 0.10 0.10 0.14 0.19 0.14 0.09 0.10 0.16
2.55 1.50 1.18 1.17 1.50 1.94 2.70 2.47 2.06 2.09 1.49 0.41 0.04 0.01 0.00 0.00 0.01 0.01 0.00 0.01 0.02 0.09 0.27 0.60 0.41 0.36 0.14 0.06 0.02 0.02 0.02 0.03 0.02 0.01 0.00 0.00 0.00 0.02 0.04 0.02 0.01 0.04 0.08 0.21 0.23 0.18 0.15 0.16 0.16 0.14 0.12 0.09 0.07 0.08
1.55 1.05 1.29 1.48 2.03 2.38 2.37 2.01 1.79 1.46 0.44 0.08 0.02 0.00 0.00 0.00 0.01 0.02 0.03 0.02 0.02 0.06 0.25 0.61 0.61 0.24 0.01 0.00 0.01 0.01 0.00 0.00 0.00 0.00 0.01 0.00 0.00 0.02 0.06 0.08 0.08 0.06 0.07 0.13 0.13 0.10 0.08 0.06 0.05 0.07 0.09 0.09 0.06 0.05
1.91 1.90 1.90 2.21 2.22 2.44 2.50 1.98 1.20 0.65 0.28 0.06 0.01 0.00 0.01 0.01 0.01 0.02 0.03 0.04 0.06 0.28 0.63 0.57 0.17 0.03 0.03 0.04 0.06 0.04 0.01 0.01 0.00 0.00 0.01 0.01 0.00 0.00 0.00 0.02 0.05 0.05 0.05 0.05 0.06 0.07 0.07 0.05 0.05 0.06 0.08 0.09 0.07 0.07
3.43 2.80 2.77 3.19 3.27 2.99 2.42 1.44 0.70 0.28 0.11 0.06 0.02 0.01 0.02 0.01 0.01 0.01 0.04 0.09 0.43 0.64 0.31 0.05 0.02 0.02 0.04 0.05 0.06 0.05 0.03 0.02 0.01 0.00 0.00 0.00 0.00 0.00 0.00 0.00 0.01 0.02 0.02 0.02 0.01 0.02 0.04 0.03 0.05 0.07 0.05 0.05 0.09 0.10
3.05 2.76 4.14 4.30 3.45 3.05 2.21 1.16 0.51 0.23 0.15 0.11 0.07 0.07 0.09 0.04 0.01 0.02 0.06 0.34 0.47 0.13 0.02 0.02 0.04 0.05 0.05 0.06 0.07 0.07 0.05 0.02 0.01 0.01 0.00 0.00 0.00 0.00 0.00 0.00 0.01 0.00 0.00 0.00 0.00 0.00 0.01 0.01 0.03 0.03 0.03 0.05 0.09 0.10
3.10 3.26 3.60 3.42 3.09 2.70 1.61 0.62 0.29 0.18 0.11 0.11 0.14 0.18 0.11 0.04 0.02 0.04 0.14 0.11 0.04 0.00 0.00 0.02 0.04 0.07 0.10 0.10 0.14 0.12 0.11 0.08 0.04 0.02 0.01 0.01 0.00 0.00 0.01 0.00 0.00 0.00 0.00 0.00 0.00 0.00 0.00 0.00 0.00 0.00 0.02 0.04 0.06 0.08
3.20 3.79 3.98 3.67 2.54 1.77 1.14 0.81 0.52 0.27 0.26 0.16 0.14 0.12 0.04 0.01 0.06 0.12 0.09 0.01 0.00 0.00 0.00 0.01 0.03 0.03 0.04 0.06 0.09 0.16 0.22 0.21 0.15 0.10 0.06 0.04 0.02 0.01 0.02 0.01 0.00 0.00 0.00 0.00 0.00 0.00 0.00 0.00 0.00 0.00 0.00 0.00 0.01 0.04
4.90 5.36 3.88 3.23 1.88 0.93 0.58 0.41 0.28 0.21 0.16 0.10 0.08 0.04 0.03 0.08 0.13 0.17 0.04 0.00 0.00 0.00 0.00 0.01 0.02 0.03 0.03 0.03 0.05 0.07 0.10 0.18 0.20 0.19 0.18 0.18 0.12 0.10 0.06 0.03 0.02 0.01 0.00 0.00 0.00 0.00 0.00 0.00 0.00 0.00 0.00 0.00 0.02 0.04
4.64 2.90 1.91 0.89 0.51 0.21 0.14 0.14 0.10 0.05 0.04 0.08 0.08 0.04 0.05 0.17 0.29 0.16 0.01 0.00 0.00 0.00 0.00 0.00 0.00 0.01 0.02 0.03 0.04 0.07 0.09 0.13 0.17 0.15 0.11 0.19 0.21 0.21 0.16 0.12 0.08 0.04 0.02 0.04 0.04 0.03 0.02 0.01 0.01 0.01 0.01 0.01 0.04 0.10
3.51 2.15 0.93 0.20 0.08 0.09 0.06 0.04 0.03 0.06 0.08 0.07 0.05 0.06 0.15 0.31 0.13 0.01 0.00 0.00 0.00 0.00 0.00 0.00 0.01 0.01 0.01 0.02 0.03 0.05 0.08 0.12 0.14 0.10 0.10 0.13 0.14 0.14 0.15 0.14 0.12 0.09 0.10 0.11 0.11 0.10 0.07 0.05 0.04 0.04 0.05 0.05 0.04 0.04
1.53 0.43 0.18 0.13 0.05 0.04 0.07 0.08 0.09 0.10 0.08 0.06 0.10 0.16 0.27 0.19 0.05 0.00 0.00 0.00 0.01 0.02 0.02 0.01 0.00 0.00 0.00 0.01 0.02 0.04 0.06 0.09 0.12 0.12 0.13 0.14 0.13 0.13 0.14 0.16 0.22 0.27 0.28 0.21 0.16 0.17 0.18 0.17 0.14 0.13 0.15 0.12 0.09 0.07
0.32 0.09 0.03 0.07 0.06 0.07 0.08 0.08 0.05 0.02 0.02 0.03 0.05 0.05 0.05 0.01 0.00 0.00 0.00 0.00 0.00 0.00 0.00 0.00 0.00 0.00 0.01 0.02 0.03 0.04 0.06 0.09 0.12 0.11 0.08 0.09 0.13 0.16 0.20 0.27 0.35 0.42 0.41 0.37 0.32 0.25 0.25 0.27 0.29 0.28 0.26 0.23 0.19 0.19
0.07 0.01 0.03 0.05 0.09 0.09 0.04 0.03 0.03 0.03 0.05 0.03 0.03 0.03 0.03 0.02 0.01 0.01 0.01 0.01 0.01 0.00 0.00 0.00 0.01 0.02 0.02 0.03 0.05 0.06 0.06 0.07 0.10 0.10 0.10 0.10 0.12 0.18 0.24 0.29 0.37 0.46 0.46 0.42 0.50 0.57 0.53 0.53 0.55 0.52 0.47 0.41 0.35 0.31
0.00 0.01 0.02 0.03 0.05 0.05 0.05 0.05 0.03 0.03 0.03 0.02 0.02 0.03 0.03 0.03 0.02 0.01 0.01 0.00 0.01 0.01 0.01 0.01 0.01 0.02 0.03 0.04 0.06 0.09 0.09 0.11 0.14 0.14 0.15 0.18 0.20 0.23 0.28 0.34 0.38 0.44 0.49 0.49 0.45 0.43 0.40 0.34 0.30 0.29 0.30 0.30 0.27 0.25
0.03 0.02 0.03 0.05 0.09 0.11 0.10 0.07 0.03 0.02 0.02 0.02 0.01 0.01 0.01 0.01 0.01 0.00 0.00 0.00 0.01 0.01 0.01 0.02 0.03 0.05 0.06 0.08 0.11 0.14 0.18 0.18 0.18 0.19 0.21 0.22 0.24 0.26 0.31 0.37 0.44 0.47 0.49 0.49 0.44 0.40 0.36 0.37 0.39 0.38 0.40 0.41 0.39 0.33
0.15 0.12 0.11 0.12 0.16 0.19 0.15 0.10 0.09 0.08 0.08 0.04 0.02 0.01 0.01 0.01 0.01 0.00 0.00 0.00 0.01 0.03 0.04 0.06 0.09 0.12 0.15 0.16 0.19 0.23 0.26 0.29 0.31 0.34 0.38 0.36 0.34 0.37 0.43 0.45 0.45 0.45 0.43 0.43 0.46 0.49 0.48 0.47 0.45 0.41 0.39 0.38 0.37 0.36

GFSWCAN_prec_precacc_126.txt.gz
Total_Precipitation_Accumulation
0.91 0.80 0.75 0.78 0.88 0.91 0.92 0.98 1.03 0.92 0.68 0.53 0.59 0.41 0.35 0.28 0.12 0.04 0.06 0.09 0.22 0.12 0.02 0.00 0.00 0.01 0.01 0.02 0.03 0.01 0.02 0.02 0.06 0.14 0.13 0.07 0.03 0.01 0.00 0.00 0.00 0.02 0.04 0.06 0.07 0.09 0.01 0.00 0.00 0.00 0.00 0.00 0.00 0.00
0.81 0.82 0.72 0.68 0.77 0.80 0.89 1.00 1.15 1.20 1.09 0.91 0.73 0.39 0.28 0.20 0.13 0.07 0.04 0.08 0.15 0.14 0.04 0.00 0.00 0.00 0.00 0.01 0.01 0.00 0.03 0.01 0.04 0.12 0.16 0.10 0.04 0.01 0.00 0.00 0.00 0.00 0.00 0.00 0.00 0.00 0.00 0.00 0.00 0.00 0.00 0.00 0.00 0.01
0.70 0.74 0.75 0.76 0.93 0.81 0.74 0.72 0.71 0.66 0.73 0.79 0.68 0.43 0.24 0.20 0.17 0.23 0.10 0.04 0.10 0.13 0.02 0.00 0.01 0.00 0.00 0.00 0.01 0.01 0.02 0.01 0.04 0.12 0.26 0.11 0.06 0.04 0.02 0.01 0.00 0.00 0.00 0.00 0.00 0.00 0.00 0.00 0.00 0.00 0.00 0.00 0.00 0.02
0.83 0.70 0.76 0.76 0.97 1.11 0.87 0.72 0.59 0.57 0.56 0.58 0.49 0.29 0.19 0.17 0.21 0.17 0.05 0.06 0.12 0.12 0.10 0.02 0.00 0.00 0.00 0.00 0.01 0.02 0.04 0.02 0.08 0.16 0.18 0.14 0.06 0.03 0.02 0.01 0.00 0.01 0.00 0.00 0.00 0.00 0.00 0.00 0.00 0.00 0.00 0.00 0.00 0.00
0.77 0.95 0.90 0.81 0.71 0.93 1.50 1.24 0.71 0.55 0.60 0.61 0.32 0.17 0.17 0.18 0.11 0.06 0.02 0.04 0.08 0.16 0.20 0.05 0.05 0.00 0.00 0.01 0.04 0.04 0.08 0.15 0.15 0.27 0.31 0.16 0.07 0.05 0.01 0.00 0.00 0.00 0.00 0.00 0.00 0.00 0.00 0.00 0.00 0.00 0.00 0.00 0.00 0.00
0.73 0.80 1.25 1.13 0.77 0.62 0.80 1.32 0.90 0.53 0.51 0.61 0.28 0.23 0.18 0.08 0.10 0.07 0.08 0.23 0.16 0.16 0.38 0.18 0.23 0.03 0.03 0.05 0.14 0.15 0.17 0.30 0.40 0.30 0.28 0.28 0.14 0.15 0.12 0.03 0.00 0.00 0.00 0.00 0.00 0.00 0.00 0.00 0.00 0.00 0.00 0.00 0.00 0.00
0.82 0.72 0.87 1.43 1.23 0.85 0.75 0.87 0.76 0.48 0.47 0.40 0.22 0.17 0.07 0.04 0.07 0.04 0.13 0.56 0.28 0.21 0.34 0.41 0.58 0.15 0.13 0.21 0.20 0.41 0.29 0.47 0.50 0.46 0.29 0.21 0.22 0.48 0.31 0.05 0.00 0.00 0.00 0.00 0.00 0.00 0.00 0.00 0.00 0.00 0.00 0.00 0.00 0.00
1.10 0.87 0.79 1.07 1.33 0.95 0.84 0.87 0.48 0.39 0.40 0.27 0.12 0.06 0.06 0.06 0.03 0.03 0.02 0.10 0.28 0.64 0.61 0.89 0.88 0.45 0.49 0.56 0.44 0.55 0.56 0.66 0.74 0.61 0.28 0.29 0.27 0.34 0.20 0.01 0.01 0.02 0.01 0.01 0.01 0.00 0.00 0.00 0.00 0.00 0.00 0.00 0.00 0.00
1.13 1.06 0.78 0.79 1.09 0.84 0.85 0.92 0.46 0.32 0.27 0.15 0.05 0.03 0.14 0.08 0.04 0.03 0.05 0.15 0.45 0.91 0.79 0.70 0.67 0.62 0.68 0.67 0.65 0.56 0.82 0.72 0.65 0.49 0.19 0.27 0.35 0.32 0.07 0.04 0.05 0.08 0.14 0.16 0.17 0.11 0.05 0.02 0.02 0.02 0.02 0.01 0.01 0.02
1.16 1.17 0.84 0.91 0.95 0.77 0.89 0.82 0.46 0.32 0.29 0.16 0.04 0.03 0.10 0.01 0.00 0.06 0.28 0.67 0.79 0.72 0.50 0.53 0.61 0.67 0.88 0.67 0.56 0.61 0.64 0.50 0.60 0.31 0.22 0.23 0.16 0.07 0.05 0.07 0.08 0.08 0.19 0.26 0.33 0.36 0.30 0.18 0.06 0.04 0.07 0.10 0.09 0.08
1.10 1.19 0.96 1.05 0.94 0.75 0.88 0.73 0.50 0.42 0.34 0.09 0.04 0.01 0.02 0.00 0.15 0.47 0.75 0.74 0.55 0.36 0.30 0.37 0.52 0.47 0.41 0.52 0.48 0.57 0.74 0.40 0.45 0.55 0.30 0.24 0.22 0.15 0.07 0.03 0.02 0.02 0.05 0.09 0.15 0.32 0.38 0.26 0.22 0.12 0.11 0.17 0.24 0.23
1.09 1.11 1.00 1.16 0.92 0.80 0.87 0.77 0.72 0.38 0.15 0.13 0.10 0.05 0.03 0.14 0.39 0.50 0.62 0.46 0.21 0.15 0.21 0.38 0.37 0.35 0.26 0.30 0.38 0.39 0.44 0.36 0.41 0.56 0.41 0.30 0.27 0.12 0.15 0.15 0.09 0.05 0.10 0.06 0.09 0.13 0.14 0.12 0.16 0.18 0.13 0.13 0.15 0.24
1.23 1.09 1.03 1.29 1.06 0.92 0.81 0.77 0.79 0.51 0.42 0.43 0.31 0.24 0.16 0.19 0.30 0.36 0.35 0.28 0.07 0.07 0.10 0.11 0.21 0.21 0.24 0.29 0.20 0.24 0.18 0.10 0.21 0.37 0.44 0.20 0.03 0.03 0.02 0.03 0.10 0.23 0.32 0.24 0.11 0.15 0.16 0.17 0.15 0.12 0.13 0.11 0.08 0.07
1.41 1.25 1.23 1.41 1.13 0.91 0.87 0.99 1.11 0.81 0.79 0.78 0.52 0.35 0.16 0.13 0.14 0.14 0.12 0.12 0.05 0.04 0.03 0.05 0.10 0.14 0.24 0.18 0.19 0.16 0.05 0.08 0.25 0.28 0.17 0.06 0.06 0.03 0.00 0.00 0.00 0.03 0.13 0.29 0.35 0.41 0.39 0.46 0.43 0.44 0.45 0.40 0.31 0.24
1.73 1.48 1.60 1.66 1.25 1.07 1.22 1.49 1.41 1.01 0.95 0.86 0.60 0.22 0.06 0.03 0.02 0.01 0.02 0.05 0.03 0.04 0.05 0.03 0.05 0.05 0.13 0.17 0.13 0.16 0.12 0.31 0.38 0.21 0.14 0.08 0.03 0.01 0.01 0.01 0.00 0.00 0.01 0.01 0.07 0.24 0.32 0.38 0.49 0.44 0.39 0.31 0.23 0.21
2.21 2.62 2.51 1.95 1.41 1.39 1.57 1.90 2.18 1.65 1.26 0.92 0.63 0.13 0.01 0.01 0.00 0.00 0.00 0.01 0.01 0.04 0.06 0.09 0.14 0.13 0.10 0.20 0.19 0.11 0.17 0.35 0.32 0.14 0.06 0.01 0.01 0.04 0.02 0.02 0.01 0.00 0.00 0.00 0.00 0.02 0.06 0.07 0.11 0.12 0.10 0.18 0.23 0.21
3.26 3.44 2.21 1.57 1.56 1.61 1.95 2.46 2.41 1.92 1.37 1.08 0.30 0.02 0.01 0.01 0.01 0.00 0.00 0.00 0.02 0.09 0.24 0.38 0.37 0.14 0.13 0.19 0.07 0.05 0.18 0.16 0.07 0.03 0.02 0.01 0.01 0.05 0.05 0.02 0.02 0.02 0.03 0.04 0.03 0.06 0.10 0.10 0.14 0.19 0.14 0.09 0.10 0.16
2.77 1.74 1.43 1.44 1.76 2.15 2.88 2.57 2.12 2.12 1.52 0.43 0.05 0.02 0.01 0.00 0.01 0.01 0.00 0.01 0.02 0.09 0.28 0.60 0.41 0.36 0.14 0.06 0.02 0.02 0.02 0.03 0.02 0.01 0.00 0.00 0.00 0.02 0.04 0.02 0.01 0.04 0.08 0.21 0.23 0.18 0.15 0.16 0.16 0.14 0.12 0.09 0.07 0.08
1.69 1.23 1.49 1.63 2.11 2.44 2.44 2.06 1.80 1.48 0.45 0.09 0.03 0.01 0.01 0.00 0.01 0.02 0.03 0.02 0.02 0.06 0.25 0.61 0.61 0.24 0.01 0.00 0.01 0.01 0.00 0.00 0.00 0.00 0.01 0.00 0.00 0.02 0.06 0.08 0.08 0.06 0.07 0.13 0.13 0.10 0.08 0.06 0.05 0.07 0.09 0.09 0.06 0.05
2.00 2.01 1.96 2.23 2.23 2.45 2.52 2.01 1.21 0.67 0.29 0.06 0.01 0.00 0.01 0.01 0.01 0.02 0.03 0.04 0.06 0.28 0.63 0.57 0.17 0.03 0.03 0.04 0.06 0.04 0.01 0.01 0.00 0.00 0.01 0.01 0.00 0.00 0.00 0.02 0.05 0.05 0.05 0.05 0.06 0.07 0.07 0.05 0.05 0.06 0.08 0.09 0.07 0.07
3.53 2.84 2.77 3.19 3.27 2.99 2.43 1.44 0.71 0.28 0.11 0.06 0.02 0.01 0.02 0.01 0.01 0.01 0.04 0.09 0.43 0.64 0.31 0.05 0.02 0.02 0.04 0.05 0.06 0.05 0.03 0.02 0.01 0.00 0.00 0.00 0.00 0.00 0.00 0.00 0.01 0.02 0.02 0.02 0.01 0.02 0.04 0.03 0.05 0.07 0.05 0.05 0.09 0.10
3.07 2.76 4.14 4.30 3.45 3.05 2.21 1.16 0.51 0.23 0.15 0.11 0.07 0.08 0.09 0.04 0.01 0.02 0.06 0.34 0.47 0.13 0.02 0.02 0.04 0.05 0.05 0.06 0.07 0.07 0.05 0.02 0.01 0.01 0.00 0.00 0.00 0.00 0.00 0.00 0.01 0.00 0.00 0.00 0.00 0.00 0.01 0.01 0.03 0.03 0.03 0.05 0.09 0.10
3.10 3.26 3.60 3.42 3.09 2.70 1.61 0.62 0.29 0.18 0.12 0.11 0.14 0.18 0.11 0.04 0.03 0.05 0.14 0.11 0.04 0.00 0.00 0.02 0.04 0.07 0.10 0.10 0.14 0.12 0.11 0.08 0.04 0.02 0.01 0.01 0.00 0.00 0.01 0.00 0.00 0.00 0.00 0.00 0.00 0.00 0.00 0.00 0.00 0.00 0.02 0.04 0.06 0.08
3.20 3.79 3.98 3.67 2.54 1.77 1.14 0.82 0.52 0.27 0.26 0.16 0.15 0.12 0.04 0.02 0.06 0.12 0.09 0.01 0.00 0.00 0.00 0.01 0.03 0.03 0.04 0.06 0.09 0.16 0.22 0.21 0.15 0.10 0.06 0.04 0.02 0.01 0.02 0.01 0.00 0.00 0.00 0.00 0.00 0.00 0.00 0.00 0.00 0.00 0.00 0.00 0.01 0.04
4.91 5.38 3.88 3.23 1.88 0.93 0.58 0.42 0.29 0.22 0.17 0.11 0.08 0.04 0.03 0.08 0.13 0.17 0.04 0.00 0.00 0.00 0.00 0.01 0.02 0.03 0.03 0.03 0.05 0.07 0.10 0.18 0.20 0.19 0.18 0.18 0.12 0.10 0.06 0.03 0.02 0.01 0.00 0.00 0.00 0.00 0.00 0.00 0.00 0.00 0.00 0.00 0.02 0.04
4.68 2.92 1.91 0.89 0.51 0.21 0.14 0.14 0.10 0.05 0.04 0.08 0.09 0.04 0.05 0.17 0.29 0.16 0.01 0.00 0.00 0.00 0.00 0.00 0.00 0.01 0.02 0.03 0.04 0.07 0.09 0.13 0.17 0.15 0.11 0.19 0.21 0.21 0.16 0.12 0.08 0.04 0.02 0.04 0.04 0.03 0.02 0.01 0.01 0.01 0.01 0.01 0.04 0.10
3.63 2.22 0.94 0.20 0.08 0.09 0.06 0.04 0.03 0.06 0.08 0.07 0.05 0.06 0.15 0.31 0.13 0.01 0.00 0.00 0.00 0.00 0.00 0.00 0.01 0.01 0.01 0.02 0.03 0.05 0.08 0.12 0.14 0.10 0.10 0.13 0.14 0.14 0.15 0.14 0.12 0.09 0.10 0.11 0.11 0.10 0.07 0.05 0.04 0.04 0.05 0.05 0.04 0.04
1.68 0.46 0.18 0.13 0.05 0.04 0.07 0.08 0.09 0.10 0.08 0.06 0.10 0.16 0.27 0.19 0.05 0.00 0.00 0.00 0.01 0.02 0.02 0.01 0.00 0.00 0.00 0.01 0.02 0.04 0.06 0.09 0.12 0.12 0.13 0.14 0.13 0.13 0.14 0.16 0.22 0.27 0.28 0.21 0.16 0.17 0.18 0.17 0.14 0.13 0.15 0.12 0.09 0.07
0.36 0.10 0.03 0.08 0.07 0.07 0.09 0.08 0.05 0.02 0.02 0.03 0.05 0.05 0.05 0.01 0.00 0.00 0.00 0.00 0.00 0.00 0.00 0.00 0.00 0.00 0.01 0.02 0.03 0.04 0.06 0.09 0.12 0.11 0.08 0.09 0.13 0.16 0.20 0.27 0.35 0.42 0.41 0.37 0.32 0.25 0.25 0.27 0.29 0.29 0.26 0.23 0.19 0.19
0.07 0.01 0.03 0.06 0.10 0.09 0.04 0.03 0.03 0.03 0.05 0.03 0.03 0.03 0.03 0.02 0.01 0.01 0.01 0.01 0.01 0.00 0.00 0.00 0.01 0.02 0.02 0.03 0.05 0.06 0.06 0.07 0.10 0.10 0.10 0.10 0.12 0.18 0.24 0.29 0.37 0.46 0.46 0.42 0.50 0.57 0.53 0.53 0.55 0.52 0.47 0.41 0.35 0.31
0.00 0.01 0.02 0.04 0.05 0.05 0.05 0.05 0.03 0.03 0.03 0.02 0.02 0.03 0.03 0.03 0.02 0.01 0.01 0.00 0.01 0.01 0.01 0.01 0.01 0.02 0.03 0.04 0.06 0.09 0.09 0.11 0.14 0.14 0.15 0.18 0.20 0.23 0.28 0.34 0.38 0.44 0.51 0.53 0.47 0.43 0.41 0.35 0.31 0.29 0.30 0.30 0.27 0.25
0.03 0.02 0.03 0.05 0.10 0.11 0.10 0.07 0.03 0.02 0.02 0.02 0.01 0.01 0.01 0.01 0.01 0.00 0.00 0.00 0.01 0.01 0.01 0.02 0.03 0.05 0.06 0.08 0.11 0.14 0.18 0.18 0.18 0.19 0.21 0.22 0.24 0.27 0.32 0.39 0.46 0.48 0.50 0.51 0.46 0.41 0.37 0.38 0.40 0.38 0.40 0.41 0.39 0.33
0.15 0.12 0.11 0.12 0.16 0.19 0.15 0.10 0.09 0.08 0.08 0.04 0.02 0.01 0.01 0.01 0.01 0.00 0.00 0.00 0.01 0.03 0.04 0.06 0.09 0.12 0.15 0.16 0.19 0.23 0.26 0.29 0.31 0.34 0.38 0.37 0.36 0.40 0.47 0.48 0.47 0.45 0.43 0.43 0.46 0.49 0.49 0.47 0.45 0.41 0.39 0.38 0.37 0.36

GFSWCAN_prec_precacc_129.txt.gz
Total_Precipitation_Accumulation
0.91 0.80 0.75 0.78 0.88 0.92 0.93 0.99 1.03 0.92 0.68 0.53 0.59 0.41 0.35 0.28 0.12 0.04 0.06 0.09 0.22 0.12 0.02 0.00 0.00 0.01 0.01 0.02 0.03 0.01 0.02 0.02 0.06 0.14 0.13 0.07 0.03 0.01 0.00 0.00 0.00 0.02 0.04 0.06 0.07 0.09 0.01 0.00 0.00 0.00 0.00 0.00 0.00 0.00
0.82 0.82 0.72 0.68 0.77 0.80 0.89 1.00 1.15 1.20 1.09 0.92 0.73 0.39 0.28 0.20 0.13 0.07 0.04 0.08 0.15 0.14 0.04 0.00 0.00 0.00 0.00 0.01 0.01 0.00 0.03 0.01 0.04 0.12 0.16 0.10 0.04 0.01 0.00 0.00 0.00 0.00 0.00 0.00 0.00 0.00 0.00 0.00 0.00 0.00 0.00 0.00 0.00 0.01
0.72 0.75 0.76 0.76 0.93 0.81 0.74 0.73 0.71 0.66 0.73 0.79 0.69 0.43 0.24 0.20 0.17 0.23 0.10 0.04 0.10 0.13 0.02 0.00 0.01 0.00 0.00 0.00 0.01 0.01 0.02 0.01 0.04 0.12 0.26 0.11 0.06 0.04 0.02 0.01 0.00 0.00 0.00 0.00 0.00 0.00 0.00 0.00 0.00 0.00 0.00 0.00 0.00 0.02
0.88 0.73 0.77 0.77 0.97 1.11 0.88 0.73 0.60 0.57 0.56 0.59 0.49 0.30 0.19 0.17 0.21 0.17 0.05 0.06 0.12 0.12 0.10 0.02 0.00 0.00 0.00 0.00 0.01 0.02 0.04 0.02 0.08 0.16 0.18 0.14 0.06 0.03 0.02 0.01 0.00 0.01 0.00 0.00 0.00 0.00 0.00 0.00 0.00 0.00 0.00 0.00 0.00 0.00
0.80 0.99 0.93 0.83 0.72 0.93 1.51 1.25 0.71 0.55 0.60 0.61 0.32 0.18 0.17 0.18 0.11 0.06 0.02 0.04 0.08 0.16 0.20 0.05 0.05 0.00 0.00 0.01 0.04 0.04 0.08 0.15 0.15 0.27 0.31 0.16 0.07 0.05 0.01 0.00 0.00 0.00 0.00 0.00 0.00 0.00 0.00 0.00 0.00 0.00 0.00 0.00 0.00 0.00
0.74 0.82 1.27 1.14 0.78 0.62 0.80 1.32 0.90 0.54 0.51 0.61 0.28 0.23 0.18 0.08 0.10 0.07 0.08 0.23 0.16 0.16 0.38 0.18 0.23 0.03 0.03 0.05 0.14 0.15 0.17 0.30 0.40 0.30 0.28 0.28 0.14 0.15 0.12 0.03 0.00 0.00 0.00 0.00 0.00 0.00 0.00 0.00 0.00 0.00 0.00 0.00 0.00 0.00
0.83 0.73 0.89 1.44 1.23 0.86 0.75 0.88 0.76 0.48 0.48 0.40 0.22 0.17 0.07 0.04 0.07 0.04 0.13 0.56 0.28 0.21 0.34 0.41 0.58 0.15 0.13 0.21 0.20 0.41 0.29 0.47 0.50 0.46 0.29 0.21 0.22 0.48 0.31 0.05 0.00 0.00 0.00 0.00 0.00 0.00 0.00 0.00 0.00 0.00 0.00 0.00 0.00 0.00
1.11 0.88 0.81 1.08 1.34 0.96 0.85 0.88 0.49 0.39 0.40 0.27 0.12 0.06 0.06 0.06 0.03 0.03 0.02 0.10 0.28 0.64 0.61 0.89 0.88 0.45 0.49 0.56 0.44 0.55 0.56 0.66 0.74 0.61 0.28 0.29 0.27 0.34 0.20 0.01 0.01 0.02 0.01 0.01 0.01 0.00 0.00 0.00 0.00 0.00 0.00 0.00 0.00 0.00
1.14 1.07 0.80 0.82 1.11 0.87 0.87 0.94 0.49 0.34 0.28 0.16 0.06 0.03 0.14 0.08 0.04 0.03 0.05 0.15 0.45 0.91 0.79 0.70 0.67 0.62 0.68 0.67 0.65 0.56 0.82 0.72 0.65 0.49 0.19 0.27 0.35 0.32 0.07 0.04 0.05 0.08 0.14 0.16 0.17 0.11 0.05 0.02 0.02 0.02 0.02 0.01 0.01 0.02
1.17 1.18 0.85 0.94 0.99 0.80 0.92 0.85 0.55 0.41 0.35 0.18 0.05 0.03 0.10 0.01 0.00 0.06 0.28 0.67 0.79 0.72 0.50 0.53 0.61 0.67 0.88 0.67 0.56 0.61 0.64 0.50 0.60 0.31 0.22 0.23 0.16 0.07 0.05 0.07 0.08 0.08 0.19 0.26 0.33 0.36 0.30 0.18 0.06 0.04 0.07 0.10 0.09 0.08
1.11 1.20 0.98 1.08 0.98 0.80 0.93 0.76 0.65 0.75 0.56 0.16 0.09 0.01 0.02 0.00 0.15 0.47 0.75 0.74 0.55 0.36 0.30 0.37 0.52 0.47 0.41 0.52 0.48 0.57 0.74 0.40 0.45 0.55 0.30 0.24 0.22 0.15 0.07 0.03 0.02 0.02 0.05 0.09 0.15 0.32 0.38 0.26 0.22 0.12 0.11 0.17 0.24 0.23
1.10 1.13 1.03 1.21 0.98 0.86 0.93 0.86 0.91 0.78 0.44 0.17 0.13 0.11 0.08 0.18 0.42 0.51 0.62 0.46 0.21 0.15 0.21 0.38 0.37 0.35 0.26 0.30 0.38 0.39 0.44 0.36 0.41 0.56 0.41 0.30 0.27 0.12 0.15 0.15 0.09 0.05 0.10 0.06 0.09 0.13 0.14 0.12 0.16 0.18 0.13 0.13 0.15 0.24
1.24 1.12 1.07 1.34 1.14 1.02 0.92 0.92 1.01 0.75 0.64 0.56 0.40 0.33 0.30 0.36 0.43 0.41 0.35 0.28 0.07 0.07 0.10 0.11 0.21 0.21 0.24 0.29 0.20 0.24 0.18 0.10 0.21 0.38 0.44 0.20 0.03 0.03 0.02 0.03 0.10 0.23 0.32 0.24 0.11 0.15 0.16 0.17 0.15 0.12 0.13 0.11 0.08 0.07
1.43 1.28 1.27 1.47 1.22 1.03 1.04 1.25 1.44 1.06 1.01 1.12 0.74 0.51 0.26 0.22 0.16 0.14 0.12 0.12 0.05 0.04 0.03 0.05 0.10 0.14 0.24 0.18 0.19 0.16 0.05 0.08 0.26 0.29 0.17 0.06 0.06 0.03 0.00 0.00 0.00 0.03 0.13 0.29 0.35 0.41 0.39 0.46 0.43 0.44 0.45 0.40 0.31 0.24
1.76 1.53 1.67 1.75 1.36 1.23 1.47 1.86 1.64 1.16 1.17 1.19 0.82 0.33 0.11 0.03 0.02 0.01 0.02 0.05 0.03 0.04 0.05 0.03 0.05 0.05 0.13 0.17 0.13 0.16 0.13 0.31 0.38 0.21 0.14 0.08 0.03 0.01 0.01 0.01 0.00 0.00 0.01 0.01 0.07 0.24 0.32 0.38 0.49 0.44 0.39 0.31 0.23 0.21
2.33 2.83 2.74 2.11 1.60 1.73 2.05 2.31 2.38 1.86 1.61 1.19 0.79 0.21 0.02 0.01 0.00 0.00 0.00 0.01 0.01 0.04 0.06 0.09 0.14 0.13 0.10 0.20 0.19 0.11 0.18 0.35 0.32 0.14 0.06 0.01 0.01 0.04 0.02 0.02 0.01 0.00 0.00 0.00 0.00 0.02 0.06 0.07 0.11 0.12 0.10 0.18 0.23 0.21
3.62 3.82 2.54 1.86 2.00 2.13 2.33 2.73 2.69 2.21 1.65 1.29 0.40 0.04 0.02 0.01 0.01 0.00 0.00 0.00 0.02 0.09 0.24 0.38 0.37 0.14 0.13 0.19 0.08 0.05 0.18 0.16 0.07 0.03 0.02 0.01 0.01 0.05 0.05 0.02 0.02 0.02 0.03 0.04 0.03 0.06 0.10 0.10 0.14 0.19 0.14 0.09 0.10 0.16
3.22 2.06 1.76 1.91 2.19 2.45 3.19 2.90 2.41 2.36 1.67 0.50 0.08 0.03 0.03 0.01 0.01 0.01 0.01 0.01 0.03 0.09 0.28 0.60 0.41 0.36 0.14 0.06 0.02 0.02 0.02 0.03 0.02 0.01 0.00 0.00 0.00 0.02 0.04 0.02 0.01 0.04 0.08 0.21 0.23 0.18 0.15 0.16 0.16 0.14 0.12 0.09 0.07 0.08
2.27 1.69 1.86 1.88 2.27 2.64 2.71 2.33 1.93 1.54 0.49 0.10 0.04 0.06 0.06 0.02 0.01 0.02 0.03 0.03 0.03 0.06 0.25 0.61 0.61 0.24 0.01 0.00 0.01 0.01 0.00 0.00 0.00 0.00 0.01 0.00 0.00 0.02 0.06 0.08 0.08 0.06 0.07 0.13 0.13 0.10 0.08 0.06 0.05 0.07 0.09 0.09 0.06 0.05
2.45 2.38 2.27 2.49 2.39 2.58 2.68 2.16 1.27 0.70 0.32 0.08 0.06 0.08 0.05 0.02 0.02 0.02 0.03 0.05 0.07 0.28 0.63 0.57 0.17 0.03 0.03 0.04 0.06 0.04 0.01 0.01 0.00 0.00 0.01 0.01 0.00 0.00 0.00 0.02 0.05 0.05 0.05 0.05 0.06 0.07 0.07 0.05 0.05 0.06 0.08 0.09 0.07 0.07
3.69 3.00 2.90 3.29 3.35 3.06 2.52 1.52 0.76 0.34 0.14 0.08 0.07 0.05 0.03 0.02 0.01 0.01 0.04 0.09 0.43 0.64 0.31 0.05 0.02 0.02 0.04 0.05 0.06 0.05 0.03 0.02 0.01 0.00 0.00 0.00 0.00 0.00 0.00 0.00 0.01 0.02 0.02 0.02 0.01 0.02 0.04 0.03 0.05 0.07 0.05 0.05 0.09 0.10
3.11 2.78 4.16 4.31 3.48 3.09 2.25 1.18 0.53 0.25 0.15 0.12 0.07 0.08 0.09 0.04 0.01 0.02 0.06 0.34 0.47 0.13 0.02 0.02 0.04 0.05 0.05 0.06 0.07 0.07 0.05 0.02 0.01 0.01 0.00 0.00 0.00 0.00 0.00 0.00 0.01 0.00 0.00 0.00 0.00 0.00 0.01 0.01 0.03 0.03 0.03 0.05 0.09 0.10
3.10 3.26 3.60 3.42 3.10 2.72 1.63 0.62 0.29 0.18 0.12 0.12 0.14 0.18 0.11 0.04 0.03 0.05 0.14 0.11 0.04 0.00 0.00 0.02 0.04 0.07 0.10 0.10 0.14 0.12 0.11 0.08 0.04 0.02 0.01 0.01 0.00 0.00 0.01 0.00 0.00 0.00 0.00 0.00 0.00 0.00 0.00 0.00 0.00 0.00 0.02 0.04 0.06 0.08
3.20 3.79 3.98 3.67 2.54 1.78 1.15 0.82 0.52 0.27 0.26 0.16 0.15 0.12 0.04 0.02 0.07 0.12 0.09 0.01 0.00 0.00 0.00 0.01 0.03 0.03 0.04 0.06 0.09 0.16 0.22 0.21 0.15 0.10 0.06 0.04 0.02 0.01 0.02 0.01 0.00 0.00 0.00 0.00 0.00 0.00 0.00 0.00 0.00 0.00 0.00 0.00 0.01 0.04
4.91 5.38 3.88 3.23 1.88 0.93 0.58 0.42 0.29 0.22 0.17 0.11 0.08 0.04 0.03 0.08 0.13 0.17 0.04 0.00 0.00 0.00 0.00 0.01 0.02 0.03 0.03 0.03 0.05 0.07 0.10 0.18 0.20 0.19 0.18 0.18 0.12 0.10 0.06 0.03 0.02 0.01 0.00 0.00 0.00 0.00 0.00 0.00 0.00 0.00 0.00 0.00 0.02 0.04
4.68 2.92 1.91 0.89 0.51 0.21 0.14 0.14 0.10 0.05 0.04 0.08 0.09 0.04 0.05 0.17 0.29 0.16 0.01 0.00 0.00 0.00 0.00 0.00 0.00 0.01 0.02 0.03 0.04 0.07 0.09 0.13 0.17 0.15 0.11 0.19 0.21 0.21 0.16 0.12 0.08 0.04 0.02 0.04 0.04 0.03 0.02 0.01 0.01 0.01 0.01 0.01 0.04 0.10
3.64 2.22 0.94 0.20 0.08 0.09 0.06 0.04 0.03 0.06 0.08 0.07 0.05 0.06 0.15 0.31 0.13 0.01 0.00 0.00 0.00 0.00 0.00 0.00 0.01 0.01 0.01 0.02 0.03 0.05 0.08 0.12 0.14 0.10 0.10 0.13 0.14 0.14 0.15 0.14 0.12 0.09 0.10 0.11 0.11 0.10 0.07 0.05 0.04 0.04 0.05 0.05 0.04 0.04
1.69 0.46 0.19 0.14 0.05 0.04 0.07 0.08 0.09 0.10 0.08 0.06 0.10 0.16 0.27 0.19 0.05 0.00 0.00 0.00 0.01 0.02 0.02 0.01 0.00 0.00 0.00 0.01 0.02 0.04 0.06 0.09 0.12 0.12 0.13 0.14 0.13 0.13 0.14 0.16 0.22 0.27 0.28 0.21 0.16 0.17 0.18 0.17 0.14 0.13 0.15 0.12 0.09 0.07
0.38 0.10 0.03 0.08 0.07 0.07 0.09 0.08 0.05 0.02 0.02 0.03 0.05 0.05 0.05 0.01 0.00 0.00 0.00 0.00 0.00 0.00 0.00 0.00 0.00 0.00 0.01 0.02 0.03 0.04 0.06 0.09 0.12 0.11 0.08 0.09 0.13 0.16 0.20 0.27 0.35 0.42 0.41 0.37 0.32 0.25 0.25 0.27 0.33 0.33 0.29 0.24 0.20 0.19
0.08 0.02 0.03 0.06 0.10 0.10 0.04 0.03 0.03 0.03 0.05 0.03 0.03 0.03 0.03 0.02 0.01 0.01 0.01 0.01 0.01 0.00 0.00 0.00 0.01 0.02 0.02 0.03 0.05 0.06 0.06 0.07 0.10 0.10 0.10 0.10 0.12 0.18 0.24 0.29 0.37 0.46 0.46 0.43 0.52 0.58 0.53 0.53 0.56 0.54 0.49 0.43 0.37 0.32
0.00 0.01 0.02 0.04 0.05 0.05 0.05 0.05 0.03 0.03 0.03 0.02 0.02 0.03 0.03 0.03 0.02 0.01 0.01 0.00 0.01 0.01 0.01 0.01 0.01 0.02 0.03 0.04 0.06 0.09 0.09 0.11 0.14 0.14 0.15 0.18 0.20 0.23 0.28 0.34 0.38 0.45 0.52 0.56 0.50 0.46 0.43 0.37 0.33 0.31 0.31 0.31 0.28 0.25
0.03 0.02 0.03 0.05 0.10 0.11 0.10 0.07 0.03 0.02 0.02 0.02 0.01 0.01 0.01 0.01 0.01 0.00 0.00 0.00 0.01 0.01 0.01 0.02 0.03 0.05 0.06 0.08 0.11 0.14 0.18 0.18 0.18 0.19 0.21 0.22 0.24 0.27 0.32 0.39 0.46 0.49 0.52 0.52 0.47 0.43 0.39 0.41 0.42 0.40 0.41 0.41 0.39 0.34
0.16 0.12 0.11 0.12 0.16 0.19 0.15 0.10 0.09 0.08 0.08 0.04 0.02 0.01 0.01 0.01 0.01 0.00 0.00 0.00 0.01 0.03 0.04 0.06 0.09 0.12 0.15 0.16 0.19 0.23 0.26 0.29 0.31 0.34 0.38 0.37 0.36 0.41 0.50 0.51 0.48 0.46 0.44 0.44 0.47 0.49 0.50 0.48 0.46 0.42 0.39 0.38 0.38 0.36

GFSWCAN_prec_precacc_132.txt.gz
Total_Precipitation_Accumulation
0.94 0.81 0.75 0.78 0.88 0.92 0.93 0.99 1.04 0.93 0.68 0.53 0.59 0.41 0.35 0.28 0.12 0.04 0.06 0.09 0.22 0.12 0.02 0.00 0.00 0.01 0.01 0.02 0.03 0.01 0.02 0.02 0.06 0.14 0.13 0.07 0.03 0.01 0.00 0.00 0.00 0.02 0.04 0.06 0.07 0.09 0.01 0.00 0.00 0.00 0.00 0.00 0.00 0.00
0.92 0.85 0.72 0.68 0.77 0.80 0.89 1.01 1.16 1.20 1.09 0.92 0.74 0.39 0.28 0.20 0.13 0.07 0.04 0.08 0.15 0.14 0.04 0.00 0.00 0.00 0.00 0.01 0.01 0.00 0.03 0.01 0.04 0.12 0.16 0.10 0.04 0.01 0.00 0.00 0.00 0.00 0.00 0.00 0.00 0.00 0.00 0.00 0.00 0.00 0.00 0.00 0.00 0.01
0.81 0.83 0.79 0.77 0.93 0.82 0.74 0.73 0.71 0.66 0.73 0.79 0.69 0.43 0.24 0.20 0.17 0.23 0.10 0.04 0.10 0.13 0.02 0.00 0.01 0.00 0.00 0.00 0.01 0.01 0.02 0.01 0.04 0.12 0.26 0.11 0.06 0.04 0.02 0.01 0.00 0.00 0.00 0.00 0.00 0.00 0.00 0.00 0.00 0.00 0.00 0.00 0.00 0.02
0.93 0.79 0.83 0.79 0.98 1.11 0.88 0.73 0.60 0.57 0.56 0.59 0.49 0.30 0.20 0.17 0.21 0.17 0.05 0.06 0.12 0.12 0.10 0.02 0.00 0.00 0.00 0.00 0.01 0.02 0.04 0.02 0.08 0.16 0.18 0.14 0.06 0.03 0.02 0.01 0.00 0.01 0.00 0.00 0.00 0.00 0.00 0.00 0.00 0.00 0.00 0.00 0.00 0.00
0.83 1.04 0.99 0.88 0.74 0.93 1.51 1.25 0.71 0.56 0.61 0.61 0.32 0.18 0.17 0.18 0.11 0.06 0.02 0.04 0.08 0.16 0.20 0.05 0.05 0.00 0.00 0.01 0.04 0.04 0.08 0.15 0.15 0.27 0.31 0.16 0.07 0.05 0.01 0.00 0.00 0.00 0.00 0.00 0.00 0.00 0.00 0.00 0.00 0.00 0.00 0.00 0.00 0.00
0.74 0.84 1.31 1.21 0.82 0.65 0.82 1.33 0.90 0.54 0.52 0.61 0.28 0.23 0.18 0.08 0.10 0.07 0.08 0.23 0.16 0.16 0.38 0.18 0.23 0.03 0.03 0.05 0.14 0.15 0.17 0.30 0.40 0.30 0.28 0.28 0.14 0.15 0.12 0.03 0.00 0.00 0.00 0.00 0.00 0.00 0.00 0.00 0.00 0.00 0.00 0.00 0.00 0.00
0.83 0.73 0.90 1.47 1.27 0.89 0.78 0.90 0.77 0.49 0.48 0.41 0.22 0.17 0.07 0.04 0.07 0.04 0.13 0.56 0.28 0.21 0.34 0.41 0.58 0.15 0.13 0.21 0.20 0.41 0.29 0.47 0.50 0.46 0.29 0.21 0.22 0.48 0.31 0.05 0.00 0.00 0.00 0.00 0.00 0.00 0.00 0.00 0.00 0.00 0.00 0.00 0.00 0.00
1.11 0.88 0.81 1.08 1.36 0.99 0.88 0.93 0.52 0.41 0.41 0.29 0.13 0.07 0.06 0.06 0.03 0.03 0.02 0.10 0.28 0.64 0.61 0.89 0.88 0.45 0.49 0.56 0.44 0.55 0.56 0.66 0.74 0.61 0.28 0.29 0.27 0.34 0.20 0.01 0.01 0.02 0.01 0.01 0.01 0.00 0.00 0.00 0.00 0.00 0.00 0.00 0.00 0.00
1.14 1.07 0.80 0.82 1.12 0.89 0.91 1.00 0.56 0.38 0.31 0.23 0.08 0.04 0.14 0.08 0.04 0.03 0.05 0.15 0.45 0.91 0.79 0.70 0.67 0.62 0.68 0.67 0.65 0.56 0.82 0.72 0.65 0.49 0.19 0.27 0.35 0.32 0.07 0.04 0.05 0.08 0.14 0.16 0.17 0.11 0.05 0.02 0.02 0.02 0.02 0.01 0.01 0.02
1.17 1.18 0.86 0.94 1.00 0.83 0.96 0.91 0.62 0.51 0.50 0.37 0.13 0.04 0.11 0.01 0.00 0.06 0.28 0.67 0.79 0.72 0.50 0.53 0.61 0.67 0.88 0.67 0.56 0.61 0.64 0.50 0.60 0.31 0.22 0.23 0.16 0.07 0.05 0.07 0.08 0.08 0.19 0.26 0.33 0.36 0.30 0.18 0.06 0.04 0.07 0.10 0.09 0.08
1.11 1.20 0.99 1.09 0.99 0.82 0.98 0.85 0.76 0.96 0.98 0.51 0.25 0.04 0.02 0.00 0.15 0.47 0.75 0.74 0.55 0.36 0.30 0.37 0.52 0.47 0.41 0.52 0.48 0.57 0.74 0.40 0.45 0.55 0.30 0.24 0.22 0.15 0.07 0.03 0.02 0.02 0.05 0.09 0.15 0.32 0.38 0.26 0.22 0.12 0.11 0.17 0.24 0.23
1.10 1.13 1.04 1.21 1.00 0.89 0.99 0.99 1.12 1.06 0.74 0.34 0.18 0.13 0.10 0.23 0.48 0.54 0.63 0.46 0.21 0.15 0.21 0.38 0.37 0.35 0.26 0.30 0.38 0.39 0.44 0.36 0.41 0.56 0.41 0.30 0.27 0.12 0.15 0.15 0.09 0.05 0.10 0.06 0.09 0.13 0.14 0.12 0.16 0.18 0.13 0.13 0.15 0.24
1.25 1.12 1.07 1.35 1.15 1.05 0.99 1.10 1.27 0.97 0.78 0.69 0.60 0.53 0.46 0.58 0.56 0.46 0.36 0.28 0.07 0.07 0.10 0.11 0.21 0.21 0.24 0.29 0.20 0.24 0.18 0.10 0.21 0.38 0.44 0.20 0.03 0.03 0.02 0.03 0.10 0.23 0.32 0.24 0.11 0.15 0.16 0.17 0.15 0.12 0.13 0.11 0.08 0.07
1.44 1.29 1.27 1.48 1.24 1.06 1.14 1.51 1.84 1.32 1.15 1.38 1.09 0.80 0.41 0.32 0.17 0.14 0.12 0.12 0.05 0.04 0.03 0.05 0.10 0.14 0.24 0.18 0.19 0.16 0.05 0.08 0.26 0.29 0.17 0.06 0.06 0.03 0.00 0.00 0.00 0.03 0.13 0.29 0.35 0.41 0.39 0.46 0.43 0.44 0.45 0.40 0.31 0.24
1.76 1.53 1.67 1.75 1.37 1.28 1.63 2.22 1.96 1.30 1.38 1.54 1.17 0.51 0.18 0.04 0.02 0.01 0.02 0.05 0.03 0.04 0.05 0.03 0.06 0.07 0.15 0.20 0.15 0.17 0.13 0.31 0.38 0.21 0.14 0.08 0.03 0.01 0.01 0.01 0.00 0.00 0.01 0.01 0.07 0.24 0.32 0.38 0.49 0.44 0.39 0.31 0.23 0.21
2.34 2.83 2.74 2.12 1.63 1.84 2.29 2.66 2.67 2.14 2.02 1.53 1.02 0.31 0.03 0.01 0.00 0.00 0.01 0.01 0.01 0.04 0.06 0.10 0.17 0.17 0.14 0.22 0.20 0.12 0.18 0.35 0.32 0.14 0.06 0.01 0.01 0.04 0.02 0.02 0.01 0.00 0.00 0.00 0.00 0.02 0.06 0.07 0.11 0.12 0.10 0.18 0.23 0.21
3.65 3.83 2.56 1.89 2.10 2.37 2.63 3.11 3.20 2.73 2.11 1.68 0.56 0.06 0.02 0.01 0.01 0.00 0.00 0.00 0.02 0.09 0.25 0.41 0.40 0.16 0.16 0.21 0.08 0.05 0.18 0.16 0.07 0.03 0.02 0.01 0.01 0.05 0.05 0.02 0.02 0.02 0.03 0.04 0.03 0.06 0.10 0.10 0.14 0.19 0.14 0.09 0.10 0.16
3.27 2.09 1.82 2.08 2.47 2.83 3.69 3.45 2.89 2.80 2.03 0.71 0.14 0.04 0.03 0.01 0.01 0.01 0.01 0.01 0.03 0.10 0.29 0.62 0.42 0.38 0.16 0.06 0.02 0.02 0.02 0.03 0.02 0.01 0.00 0.00 0.00 0.02 0.04 0.02 0.01 0.04 0.08 0.21 0.23 0.18 0.15 0.16 0.16 0.14 0.12 0.09 0.07 0.08
2.52 1.85 2.01 2.07 2.50 3.01 3.24 2.85 2.31 1.79 0.61 0.14 0.05 0.06 0.06 0.02 0.01 0.03 0.03 0.04 0.04 0.07 0.29 0.64 0.62 0.24 0.01 0.00 0.01 0.01 0.00 0.00 0.00 0.00 0.01 0.00 0.00 0.02 0.06 0.08 0.08 0.06 0.07 0.13 0.13 0.10 0.08 0.06 0.05 0.07 0.09 0.09 0.06 0.05
3.11 3.04 2.78 2.80 2.62 2.87 2.97 2.43 1.42 0.75 0.34 0.11 0.08 0.11 0.07 0.03 0.04 0.05 0.07 0.10 0.12 0.34 0.67 0.58 0.17 0.03 0.03 0.04 0.06 0.04 0.01 0.01 0.00 0.00 0.01 0.01 0.00 0.00 0.00 0.02 0.05 0.05 0.05 0.05 0.06 0.07 0.07 0.05 0.05 0.06 0.08 0.09 0.07 0.07
4.23 3.63 3.53 3.75 3.72 3.32 2.71 1.63 0.83 0.39 0.18 0.13 0.14 0.09 0.09 0.07 0.08 0.09 0.12 0.15 0.47 0.65 0.32 0.05 0.02 0.03 0.04 0.05 0.06 0.05 0.03 0.02 0.01 0.00 0.00 0.00 0.00 0.00 0.00 0.00 0.01 0.02 0.02 0.02 0.01 0.02 0.04 0.03 0.05 0.07 0.05 0.05 0.09 0.10
3.49 3.15 4.52 4.64 3.77 3.31 2.39 1.28 0.58 0.31 0.19 0.19 0.14 0.12 0.14 0.09 0.05 0.06 0.09 0.35 0.47 0.13 0.02 0.02 0.04 0.05 0.05 0.06 0.07 0.07 0.05 0.02 0.01 0.01 0.00 0.00 0.00 0.00 0.00 0.00 0.01 0.00 0.00 0.00 0.00 0.00 0.01 0.01 0.03 0.03 0.03 0.05 0.09 0.10
3.17 3.40 3.80 3.64 3.34 2.91 1.80 0.73 0.37 0.26 0.21 0.20 0.19 0.21 0.14 0.06 0.04 0.05 0.14 0.11 0.04 0.00 0.00 0.02 0.04 0.07 0.10 0.10 0.14 0.12 0.11 0.08 0.04 0.02 0.01 0.01 0.00 0.00 0.01 0.00 0.00 0.00 0.00 0.00 0.00 0.00 0.00 0.00 0.00 0.00 0.02 0.04 0.06 0.08
3.20 3.81 4.04 3.76 2.64 1.89 1.23 0.87 0.57 0.32 0.34 0.21 0.17 0.14 0.05 0.02 0.07 0.12 0.09 0.01 0.00 0.00 0.00 0.01 0.03 0.03 0.04 0.06 0.09 0.16 0.22 0.21 0.15 0.10 0.06 0.04 0.02 0.01 0.02 0.01 0.00 0.00 0.00 0.00 0.00 0.00 0.00 0.00 0.00 0.00 0.00 0.00 0.01 0.04
4.91 5.38 3.89 3.25 1.90 0.95 0.60 0.43 0.30 0.22 0.19 0.12 0.08 0.04 0.03 0.08 0.13 0.17 0.04 0.00 0.00 0.00 0.00 0.01 0.02 0.03 0.03 0.03 0.05 0.07 0.10 0.18 0.20 0.19 0.18 0.18 0.12 0.10 0.06 0.03 0.02 0.01 0.00 0.00 0.00 0.00 0.00 0.00 0.00 0.00 0.00 0.00 0.02 0.04
4.69 2.93 1.92 0.89 0.52 0.21 0.14 0.14 0.10 0.05 0.04 0.08 0.09 0.04 0.05 0.17 0.29 0.16 0.01 0.00 0.00 0.00 0.00 0.00 0.00 0.01 0.02 0.03 0.04 0.07 0.09 0.13 0.17 0.15 0.11 0.19 0.21 0.21 0.16 0.12 0.08 0.04 0.02 0.04 0.04 0.03 0.02 0.01 0.01 0.01 0.01 0.01 0.04 0.10
3.64 2.23 0.95 0.20 0.08 0.09 0.06 0.04 0.03 0.06 0.08 0.07 0.05 0.06 0.15 0.31 0.13 0.01 0.00 0.00 0.00 0.00 0.00 0.00 0.01 0.01 0.01 0.02 0.03 0.05 0.08 0.12 0.14 0.10 0.10 0.13 0.14 0.14 0.15 0.14 0.12 0.09 0.10 0.11 0.11 0.10 0.07 0.05 0.04 0.04 0.05 0.05 0.04 0.05
1.69 0.47 0.19 0.14 0.05 0.04 0.07 0.08 0.09 0.10 0.08 0.06 0.10 0.16 0.27 0.19 0.05 0.00 0.00 0.00 0.01 0.02 0.02 0.01 0.00 0.00 0.00 0.01 0.02 0.04 0.06 0.09 0.12 0.12 0.13 0.14 0.13 0.13 0.14 0.16 0.22 0.27 0.28 0.21 0.16 0.17 0.18 0.17 0.14 0.14 0.16 0.13 0.09 0.07
0.38 0.10 0.03 0.08 0.08 0.07 0.09 0.08 0.05 0.02 0.02 0.03 0.05 0.05 0.05 0.01 0.00 0.00 0.00 0.00 0.00 0.00 0.00 0.00 0.00 0.00 0.01 0.02 0.03 0.04 0.06 0.09 0.12 0.11 0.08 0.09 0.13 0.16 0.20 0.27 0.35 0.42 0.41 0.37 0.32 0.25 0.25 0.27 0.34 0.37 0.34 0.28 0.22 0.21
0.09 0.03 0.03 0.06 0.10 0.10 0.04 0.03 0.03 0.03 0.05 0.03 0.03 0.03 0.03 0.02 0.01 0.01 0.01 0.01 0.01 0.00 0.00 0.00 0.01 0.02 0.02 0.03 0.05 0.06 0.06 0.07 0.10 0.10 0.10 0.10 0.12 0.18 0.24 0.29 0.37 0.46 0.46 0.43 0.52 0.58 0.53 0.53 0.57 0.55 0.49 0.44 0.38 0.33
0.00 0.01 0.02 0.04 0.05 0.05 0.05 0.05 0.03 0.03 0.03 0.02 0.02 0.03 0.03 0.03 0.02 0.01 0.01 0.00 0.01 0.01 0.01 0.01 0.01 0.02 0.03 0.04 0.06 0.09 0.09 0.11 0.14 0.14 0.15 0.18 0.20 0.23 0.28 0.34 0.38 0.45 0.53 0.56 0.50 0.47 0.44 0.38 0.34 0.32 0.32 0.31 0.28 0.26
0.03 0.03 0.03 0.05 0.10 0.11 0.10 0.07 0.03 0.02 0.02 0.02 0.01 0.01 0.01 0.01 0.01 0.00 0.00 0.00 0.01 0.01 0.01 0.02 0.03 0.05 0.06 0.08 0.11 0.14 0.18 0.18 0.18 0.19 0.21 0.22 0.24 0.27 0.32 0.39 0.46 0.49 0.53 0.55 0.50 0.45 0.40 0.42 0.43 0.41 0.42 0.42 0.40 0.35
0.16 0.13 0.11 0.13 0.16 0.19 0.15 0.10 0.09 0.08 0.08 0.04 0.02 0.01 0.01 0.01 0.01 0.00 0.00 0.00 0.01 0.03 0.04 0.06 0.09 0.12 0.15 0.16 0.19 0.23 0.26 0.29 0.31 0.34 0.38 0.37 0.36 0.41 0.50 0.54 0.53 0.51 0.47 0.47 0.48 0.50 0.50 0.49 0.47 0.42 0.40 0.39 0.38 0.37

GFSWCAN_prec_precacc_135.txt.gz
Total_Precipitation_Accumulation
1.05 0.89 0.80 0.80 0.89 0.92 0.94 0.99 1.04 0.93 0.69 0.53 0.59 0.41 0.35 0.28 0.12 0.04 0.06 0.09 0.22 0.12 0.02 0.00 0.00 0.01 0.01 0.02 0.03 0.01 0.02 0.02 0.06 0.14 0.13 0.07 0.03 0.01 0.00 0.00 0.00 0.02 0.04 0.06 0.07 0.09 0.01 0.00 0.00 0.00 0.00 0.00 0.00 0.00
1.05 0.99 0.81 0.73 0.80 0.80 0.90 1.01 1.16 1.21 1.09 0.92 0.74 0.39 0.28 0.20 0.13 0.07 0.04 0.08 0.15 0.14 0.04 0.00 0.00 0.00 0.00 0.01 0.01 0.00 0.03 0.01 0.04 0.12 0.16 0.10 0.04 0.01 0.00 0.00 0.00 0.00 0.00 0.00 0.00 0.00 0.00 0.00 0.00 0.00 0.00 0.00 0.00 0.01
0.91 0.95 0.88 0.84 0.97 0.83 0.75 0.73 0.72 0.67 0.73 0.79 0.69 0.43 0.25 0.20 0.17 0.23 0.10 0.04 0.10 0.13 0.02 0.00 0.01 0.00 0.00 0.00 0.01 0.01 0.02 0.01 0.04 0.12 0.26 0.11 0.06 0.04 0.02 0.01 0.00 0.00 0.00 0.00 0.00 0.00 0.00 0.00 0.00 0.00 0.00 0.00 0.00 0.02
0.96 0.86 0.92 0.87 1.04 1.15 0.90 0.73 0.60 0.57 0.56 0.59 0.49 0.30 0.20 0.17 0.21 0.17 0.05 0.06 0.12 0.12 0.10 0.02 0.00 0.00 0.00 0.00 0.01 0.02 0.04 0.02 0.08 0.16 0.18 0.14 0.06 0.03 0.02 0.01 0.00 0.01 0.00 0.00 0.00 0.00 0.00 0.00 0.00 0.00 0.00 0.00 0.00 0.00
0.84 1.07 1.05 0.95 0.81 0.99 1.55 1.26 0.71 0.56 0.61 0.61 0.32 0.18 0.17 0.18 0.11 0.06 0.02 0.04 0.08 0.16 0.20 0.05 0.05 0.00 0.00 0.01 0.04 0.04 0.08 0.15 0.15 0.27 0.31 0.16 0.07 0.05 0.01 0.00 0.00 0.00 0.00 0.00 0.00 0.00 0.00 0.00 0.00 0.00 0.00 0.00 0.00 0.00
0.74 0.84 1.34 1.27 0.90 0.72 0.87 1.37 0.92 0.54 0.52 0.61 0.28 0.23 0.18 0.08 0.10 0.07 0.08 0.23 0.16 0.16 0.38 0.18 0.23 0.03 0.03 0.05 0.14 0.15 0.17 0.30 0.40 0.30 0.28 0.28 0.14 0.15 0.12 0.03 0.00 0.00 0.00 0.00 0.00 0.00 0.00 0.00 0.00 0.00 0.00 0.00 0.00 0.00
0.83 0.73 0.90 1.48 1.32 0.96 0.85 0.98 0.84 0.51 0.49 0.41 0.22 0.18 0.07 0.04 0.07 0.04 0.13 0.56 0.28 0.21 0.34 0.41 0.58 0.15 0.13 0.21 0.20 0.41 0.29 0.47 0.50 0.46 0.29 0.21 0.22 0.48 0.31 0.05 0.00 0.00 0.00 0.00 0.00 0.00 0.00 0.00 0.00 0.00 0.00 0.00 0.00 0.00
1.11 0.88 0.81 1.08 1.36 1.02 0.94 1.01 0.61 0.49 0.46 0.32 0.16 0.09 0.07 0.06 0.03 0.03 0.02 0.10 0.28 0.64 0.61 0.89 0.88 0.45 0.49 0.56 0.44 0.55 0.56 0.66 0.74 0.61 0.28 0.29 0.27 0.34 0.20 0.01 0.01 0.02 0.01 0.01 0.01 0.00 0.00 0.00 0.00 0.00 0.00 0.00 0.00 0.00
1.14 1.08 0.80 0.82 1.12 0.89 0.92 1.07 0.67 0.50 0.43 0.34 0.29 0.20 0.19 0.09 0.04 0.03 0.05 0.15 0.45 0.91 0.79 0.70 0.67 0.62 0.68 0.67 0.65 0.56 0.82 0.72 0.65 0.49 0.19 0.27 0.35 0.32 0.07 0.04 0.05 0.08 0.14 0.16 0.17 0.11 0.05 0.02 0.02 0.02 0.02 0.01 0.01 0.02
1.17 1.18 0.86 0.94 1.00 0.83 0.96 0.93 0.73 0.70 0.76 0.60 0.44 0.25 0.17 0.01 0.00 0.06 0.28 0.67 0.79 0.72 0.50 0.53 0.61 0.67 0.88 0.67 0.56 0.61 0.64 0.50 0.60 0.31 0.22 0.23 0.16 0.07 0.05 0.07 0.08 0.08 0.19 0.26 0.33 0.36 0.30 0.18 0.06 0.04 0.07 0.10 0.09 0.08
1.11 1.20 0.99 1.09 0.99 0.82 0.98 0.85 0.83 1.26 1.46 0.84 0.50 0.16 0.04 0.00 0.16 0.49 0.76 0.74 0.55 0.36 0.30 0.37 0.52 0.47 0.41 0.52 0.48 0.57 0.74 0.40 0.45 0.55 0.30 0.24 0.22 0.15 0.07 0.03 0.02 0.02 0.05 0.09 0.15 0.32 0.38 0.26 0.22 0.12 0.11 0.17 0.24 0.23
1.11 1.13 1.04 1.22 1.00 0.89 0.99 1.00 1.23 1.42 1.12 0.50 0.23 0.18 0.16 0.29 0.58 0.63 0.67 0.47 0.21 0.15 0.21 0.38 0.37 0.35 0.26 0.30 0.38 0.39 0.44 0.36 0.41 0.56 0.41 0.30 0.27 0.12 0.15 0.15 0.09 0.05 0.10 0.06 0.09 0.13 0.14 0.12 0.16 0.18 0.13 0.13 0.15 0.24
1.26 1.13 1.07 1.35 1.16 1.06 0.99 1.10 1.39 1.31 1.06 0.84 0.76 0.76 0.70 0.80 0.70 0.51 0.37 0.28 0.07 0.07 0.10 0.11 0.21 0.21 0.24 0.29 0.20 0.24 0.18 0.10 0.21 0.38 0.44 0.20 0.03 0.03 0.02 0.03 0.10 0.23 0.32 0.24 0.11 0.15 0.16 0.17 0.15 0.12 0.13 0.11 0.08 0.07
1.45 1.30 1.28 1.48 1.25 1.07 1.15 1.51 1.99 1.62 1.34 1.67 1.39 1.09 0.59 0.47 0.19 0.14 0.12 0.12 0.05 0.04 0.03 0.05 0.10 0.14 0.24 0.18 0.19 0.16 0.05 0.08 0.26 0.29 0.17 0.06 0.06 0.03 0.00 0.00 0.00 0.03 0.13 0.29 0.35 0.41 0.39 0.46 0.43 0.44 0.45 0.40 0.31 0.24
1.77 1.54 1.68 1.75 1.38 1.28 1.64 2.22 2.08 1.53 1.67 1.91 1.52 0.72 0.25 0.04 0.02 0.01 0.02 0.05 0.03 0.04 0.05 0.03 0.06 0.07 0.15 0.21 0.16 0.19 0.15 0.32 0.38 0.21 0.14 0.08 0.03 0.01 0.01 0.01 0.00 0.00 0.01 0.01 0.07 0.24 0.32 0.38 0.49 0.44 0.39 0.31 0.23 0.21
2.34 2.84 2.74 2.12 1.63 1.84 2.30 2.67 2.80 2.41 2.46 1.94 1.31 0.41 0.03 0.01 0.00 0.00 0.01 0.01 0.01 0.04 0.06 0.10 0.17 0.17 0.14 0.24 0.21 0.12 0.18 0.35 0.32 0.14 0.06 0.01 0.01 0.04 0.02 0.02 0.01 0.00 0.00 0.00 0.00 0.02 0.06 0.07 0.11 0.12 0.10 0.18 0.23 0.21
3.65 3.83 2.56 1.89 2.10 2.38 2.65 3.19 3.42 3.07 2.56 2.12 0.82 0.10 0.02 0.01 0.01 0.00 0.00 0.00 0.02 0.09 0.25 0.41 0.40 0.16 0.17 0.22 0.09 0.05 0.18 0.16 0.07 0.03 0.02 0.01 0.01 0.05 0.05 0.02 0.02 0.02 0.03 0.04 0.03 0.06 0.10 0.10 0.14 0.19 0.14 0.09 0.10 0.16
3.28 2.09 1.82 2.08 2.48 2.86 3.75 3.57 3.09 3.11 2.38 0.97 0.24 0.05 0.03 0.01 0.01 0.01 0.01 0.01 0.03 0.10 0.29 0.62 0.42 0.39 0.16 0.06 0.02 0.02 0.02 0.03 0.02 0.01 0.00 0.00 0.00 0.02 0.04 0.02 0.01 0.04 0.08 0.21 0.23 0.18 0.15 0.16 0.16 0.14 0.12 0.09 0.07 0.08
2.55 1.87 2.03 2.09 2.54 3.08 3.40 3.13 2.56 2.06 0.81 0.23 0.07 0.06 0.06 0.02 0.01 0.03 0.03 0.04 0.04 0.07 0.29 0.64 0.63 0.24 0.01 0.00 0.01 0.01 0.00 0.00 0.00 0.00 0.01 0.00 0.00 0.02 0.06 0.08 0.08 0.06 0.07 0.13 0.13 0.10 0.08 0.06 0.05 0.07 0.09 0.09 0.06 0.05
3.31 3.26 2.88 2.89 2.69 2.92 3.09 2.66 1.61 0.88 0.43 0.16 0.11 0.12 0.07 0.04 0.04 0.05 0.07 0.11 0.13 0.35 0.69 0.58 0.17 0.03 0.03 0.04 0.06 0.04 0.01 0.01 0.00 0.00 0.01 0.01 0.00 0.00 0.00 0.02 0.05 0.05 0.05 0.05 0.06 0.07 0.07 0.05 0.05 0.06 0.08 0.09 0.07 0.07
4.61 4.28 4.04 3.95 3.81 3.40 2.80 1.73 0.92 0.45 0.23 0.18 0.19 0.11 0.13 0.11 0.13 0.14 0.17 0.20 0.53 0.71 0.34 0.06 0.02 0.03 0.04 0.05 0.06 0.05 0.03 0.02 0.01 0.00 0.00 0.00 0.00 0.00 0.00 0.00 0.01 0.02 0.02 0.02 0.01 0.02 0.04 0.03 0.05 0.07 0.05 0.05 0.09 0.10
4.02 3.67 4.95 4.90 3.93 3.44 2.47 1.35 0.64 0.39 0.25 0.27 0.21 0.19 0.24 0.20 0.17 0.18 0.19 0.45 0.52 0.14 0.02 0.02 0.04 0.05 0.05 0.06 0.07 0.07 0.05 0.02 0.01 0.01 0.00 0.00 0.00 0.00 0.00 0.00 0.01 0.00 0.00 0.00 0.00 0.00 0.01 0.01 0.03 0.03 0.03 0.05 0.09 0.10
3.51 3.85 4.17 4.01 3.60 3.05 1.92 0.85 0.45 0.36 0.30 0.30 0.25 0.28 0.24 0.17 0.16 0.16 0.23 0.16 0.05 0.00 0.01 0.03 0.05 0.07 0.10 0.10 0.14 0.12 0.11 0.08 0.04 0.02 0.01 0.01 0.00 0.00 0.01 0.00 0.00 0.00 0.00 0.00 0.00 0.00 0.00 0.00 0.00 0.00 0.02 0.04 0.06 0.08
3.30 4.01 4.27 4.00 2.86 2.04 1.36 0.98 0.67 0.43 0.45 0.31 0.26 0.23 0.14 0.10 0.14 0.16 0.11 0.01 0.00 0.00 0.00 0.01 0.03 0.03 0.04 0.06 0.09 0.16 0.22 0.21 0.15 0.10 0.06 0.04 0.02 0.01 0.02 0.01 0.00 0.00 0.00 0.00 0.00 0.00 0.00 0.00 0.00 0.00 0.00 0.00 0.01 0.04
4.93 5.45 3.97 3.36 2.04 1.06 0.71 0.56 0.42 0.33 0.31 0.22 0.17 0.14 0.11 0.13 0.17 0.19 0.06 0.01 0.00 0.00 0.00 0.01 0.02 0.03 0.03 0.03 0.05 0.07 0.10 0.18 0.20 0.19 0.18 0.18 0.12 0.10 0.06 0.03 0.02 0.01 0.00 0.00 0.00 0.00 0.00 0.00 0.00 0.00 0.00 0.00 0.02 0.04
4.70 2.96 1.95 0.94 0.57 0.25 0.19 0.20 0.19 0.13 0.11 0.15 0.15 0.10 0.08 0.18 0.30 0.17 0.01 0.00 0.00 0.00 0.00 0.00 0.00 0.01 0.02 0.03 0.04 0.07 0.09 0.13 0.17 0.15 0.11 0.19 0.21 0.21 0.16 0.12 0.08 0.04 0.02 0.04 0.04 0.03 0.02 0.01 0.01 0.01 0.01 0.01 0.04 0.10
3.65 2.23 0.95 0.21 0.09 0.09 0.06 0.04 0.04 0.06 0.09 0.08 0.05 0.06 0.15 0.31 0.13 0.01 0.00 0.00 0.00 0.00 0.00 0.00 0.01 0.01 0.01 0.02 0.03 0.05 0.08 0.12 0.14 0.10 0.10 0.13 0.14 0.14 0.15 0.14 0.12 0.09 0.10 0.11 0.11 0.10 0.07 0.05 0.04 0.04 0.05 0.05 0.04 0.05
1.69 0.47 0.19 0.14 0.05 0.04 0.07 0.08 0.09 0.10 0.08 0.06 0.10 0.16 0.27 0.19 0.05 0.00 0.00 0.00 0.01 0.02 0.02 0.01 0.00 0.00 0.00 0.01 0.02 0.04 0.06 0.09 0.12 0.12 0.13 0.14 0.13 0.13 0.14 0.16 0.22 0.27 0.28 0.21 0.16 0.17 0.18 0.17 0.14 0.14 0.16 0.13 0.10 0.07
0.38 0.10 0.03 0.08 0.08 0.07 0.09 0.08 0.05 0.02 0.02 0.03 0.05 0.05 0.05 0.01 0.00 0.00 0.00 0.00 0.00 0.00 0.00 0.00 0.00 0.00 0.01 0.02 0.03 0.04 0.06 0.09 0.12 0.11 0.08 0.09 0.13 0.16 0.20 0.27 0.35 0.42 0.41 0.37 0.32 0.25 0.25 0.27 0.34 0.38 0.37 0.33 0.26 0.24
0.09 0.03 0.03 0.06 0.10 0.10 0.04 0.03 0.03 0.03 0.05 0.03 0.03 0.03 0.03 0.02 0.01 0.01 0.01 0.01 0.01 0.00 0.00 0.00 0.01 0.02 0.02 0.03 0.05 0.06 0.06 0.07 0.10 0.10 0.10 0.10 0.12 0.18 0.24 0.29 0.37 0.46 0.46 0.43 0.52 0.58 0.53 0.53 0.57 0.56 0.52 0.46 0.38 0.33
0.01 0.01 0.02 0.04 0.05 0.05 0.05 0.05 0.03 0.03 0.03 0.02 0.02 0.03 0.03 0.03 0.02 0.01 0.01 0.00 0.01 0.01 0.01 0.01 0.01 0.02 0.03 0.04 0.06 0.09 0.09 0.11 0.14 0.14 0.15 0.18 0.20 0.23 0.28 0.34 0.38 0.45 0.53 0.56 0.50 0.47 0.45 0.40 0.37 0.35 0.33 0.31 0.28 0.26
0.04 0.03 0.03 0.05 0.10 0.11 0.10 0.07 0.03 0.02 0.02 0.02 0.01 0.01 0.01 0.01 0.01 0.00 0.00 0.00 0.01 0.01 0.01 0.02 0.03 0.05 0.06 0.08 0.11 0.14 0.18 0.18 0.18 0.19 0.21 0.22 0.24 0.27 0.32 0.39 0.46 0.49 0.53 0.55 0.51 0.47 0.43 0.44 0.45 0.41 0.42 0.42 0.40 0.35
0.16 0.13 0.12 0.13 0.16 0.19 0.15 0.10 0.09 0.08 0.08 0.04 0.02 0.01 0.01 0.01 0.01 0.00 0.00 0.00 0.01 0.03 0.04 0.06 0.09 0.12 0.15 0.16 0.19 0.23 0.26 0.29 0.31 0.34 0.38 0.37 0.36 0.41 0.50 0.54 0.53 0.52 0.48 0.48 0.49 0.51 0.51 0.50 0.48 0.42 0.40 0.39 0.39 0.37

GFSWCAN_prec_precacc_138.txt.gz
Total_Precipitation_Accumulation
1.17 1.05 0.92 0.85 0.90 0.92 0.94 0.99 1.04 0.94 0.70 0.53 0.59 0.41 0.35 0.28 0.12 0.04 0.06 0.09 0.22 0.12 0.02 0.00 0.00 0.01 0.01 0.02 0.03 0.01 0.02 0.02 0.06 0.14 0.13 0.07 0.03 0.01 0.00 0.00 0.00 0.02 0.04 0.06 0.07 0.09 0.01 0.00 0.00 0.00 0.00 0.00 0.00 0.00
1.12 1.16 1.03 0.87 0.85 0.81 0.90 1.01 1.16 1.21 1.10 0.92 0.74 0.39 0.28 0.20 0.13 0.07 0.04 0.08 0.15 0.14 0.04 0.00 0.00 0.00 0.00 0.01 0.01 0.00 0.03 0.01 0.04 0.12 0.16 0.10 0.04 0.01 0.00 0.00 0.00 0.00 0.00 0.00 0.00 0.00 0.00 0.00 0.00 0.00 0.00 0.00 0.00 0.01
0.93 1.04 1.05 1.03 1.09 0.88 0.76 0.73 0.72 0.67 0.74 0.80 0.69 0.43 0.25 0.20 0.17 0.23 0.10 0.04 0.10 0.13 0.02 0.00 0.01 0.00 0.00 0.00 0.01 0.01 0.02 0.01 0.04 0.12 0.26 0.11 0.06 0.04 0.02 0.01 0.00 0.00 0.00 0.00 0.00 0.00 0.00 0.00 0.00 0.00 0.00 0.00 0.00 0.02
0.96 0.89 1.01 1.01 1.17 1.26 0.95 0.74 0.60 0.58 0.57 0.59 0.50 0.30 0.20 0.17 0.21 0.17 0.05 0.06 0.12 0.12 0.10 0.02 0.00 0.00 0.00 0.00 0.01 0.02 0.04 0.02 0.08 0.16 0.18 0.14 0.06 0.03 0.02 0.01 0.00 0.01 0.00 0.00 0.00 0.00 0.00 0.00 0.00 0.00 0.00 0.00 0.00 0.00
0.84 1.07 1.07 1.03 0.94 1.11 1.64 1.33 0.73 0.56 0.61 0.62 0.32 0.18 0.17 0.18 0.11 0.06 0.02 0.04 0.08 0.16 0.20 0.05 0.05 0.00 0.00 0.01 0.04 0.04 0.08 0.15 0.15 0.27 0.31 0.16 0.07 0.05 0.01 0.00 0.00 0.00 0.00 0.00 0.00 0.00 0.00 0.00 0.00 0.00 0.00 0.00 0.00 0.00
0.74 0.84 1.34 1.28 0.94 0.84 0.99 1.46 1.00 0.56 0.52 0.61 0.28 0.23 0.18 0.08 0.10 0.07 0.08 0.23 0.16 0.16 0.38 0.18 0.23 0.03 0.03 0.05 0.14 0.15 0.17 0.30 0.40 0.30 0.28 0.28 0.14 0.15 0.12 0.03 0.00 0.00 0.00 0.00 0.00 0.00 0.00 0.00 0.00 0.00 0.00 0.00 0.00 0.00
0.83 0.73 0.90 1.48 1.33 1.01 0.95 1.08 0.93 0.61 0.52 0.41 0.22 0.18 0.07 0.04 0.07 0.04 0.13 0.56 0.28 0.21 0.34 0.41 0.58 0.15 0.13 0.21 0.20 0.41 0.29 0.47 0.50 0.46 0.29 0.21 0.22 0.48 0.31 0.05 0.00 0.00 0.00 0.00 0.00 0.00 0.00 0.00 0.00 0.00 0.00 0.00 0.00 0.00
1.12 0.88 0.81 1.09 1.36 1.04 1.01 1.12 0.73 0.60 0.57 0.35 0.17 0.10 0.11 0.07 0.03 0.03 0.02 0.10 0.28 0.64 0.61 0.89 0.88 0.45 0.49 0.56 0.44 0.55 0.56 0.66 0.74 0.61 0.28 0.29 0.27 0.34 0.20 0.01 0.01 0.02 0.01 0.01 0.01 0.00 0.00 0.00 0.00 0.00 0.00 0.00 0.00 0.00
1.15 1.08 0.80 0.82 1.12 0.89 0.93 1.14 0.79 0.63 0.61 0.47 0.37 0.35 0.37 0.15 0.04 0.03 0.05 0.15 0.45 0.91 0.79 0.70 0.67 0.62 0.68 0.67 0.65 0.56 0.82 0.72 0.65 0.49 0.19 0.27 0.35 0.32 0.07 0.04 0.05 0.08 0.14 0.16 0.17 0.11 0.05 0.02 0.02 0.02 0.02 0.01 0.01 0.02
1.17 1.18 0.86 0.94 1.00 0.83 0.96 0.93 0.79 0.84 1.03 0.95 0.66 0.44 0.28 0.05 0.00 0.06 0.28 0.67 0.79 0.72 0.50 0.53 0.61 0.67 0.88 0.67 0.56 0.61 0.64 0.50 0.60 0.31 0.22 0.23 0.16 0.07 0.05 0.07 0.08 0.08 0.19 0.26 0.33 0.36 0.30 0.18 0.06 0.04 0.07 0.10 0.09 0.08
1.11 1.20 0.99 1.09 0.99 0.83 0.98 0.85 0.84 1.36 1.91 1.33 0.77 0.27 0.07 0.01 0.16 0.52 0.77 0.75 0.55 0.36 0.30 0.37 0.52 0.47 0.41 0.52 0.48 0.57 0.74 0.40 0.45 0.55 0.30 0.24 0.22 0.15 0.07 0.03 0.02 0.02 0.05 0.09 0.15 0.32 0.38 0.26 0.22 0.12 0.11 0.17 0.24 0.23
1.11 1.14 1.05 1.22 1.00 0.89 0.99 1.00 1.23 1.51 1.51 0.81 0.34 0.22 0.23 0.37 0.66 0.70 0.71 0.47 0.21 0.15 0.21 0.38 0.37 0.35 0.26 0.30 0.38 0.39 0.44 0.36 0.41 0.56 0.41 0.30 0.27 0.12 0.15 0.15 0.09 0.05 0.10 0.06 0.09 0.13 0.14 0.12 0.16 0.18 0.13 0.13 0.15 0.24
1.26 1.14 1.08 1.36 1.16 1.06 1.00 1.10 1.39 1.33 1.25 1.18 1.07 1.02 0.93 1.02 0.81 0.55 0.38 0.28 0.07 0.07 0.10 0.11 0.21 0.21 0.24 0.29 0.20 0.24 0.18 0.10 0.21 0.38 0.44 0.20 0.03 0.03 0.02 0.03 0.10 0.23 0.32 0.24 0.11 0.15 0.16 0.17 0.15 0.12 0.13 0.11 0.08 0.07
1.46 1.31 1.29 1.50 1.25 1.07 1.15 1.52 2.00 1.65 1.41 1.97 1.78 1.50 0.84 0.61 0.21 0.14 0.12 0.12 0.05 0.04 0.03 0.05 0.10 0.14 0.24 0.18 0.19 0.16 0.05 0.08 0.26 0.29 0.17 0.06 0.06 0.03 0.00 0.00 0.00 0.03 0.13 0.29 0.35 0.41 0.39 0.46 0.43 0.44 0.45 0.40 0.31 0.24
1.79 1.55 1.69 1.77 1.39 1.29 1.64 2.23 2.08 1.57 1.82 2.11 1.81 0.94 0.37 0.05 0.02 0.01 0.02 0.05 0.03 0.04 0.05 0.03 0.06 0.07 0.15 0.21 0.16 0.19 0.15 0.32 0.38 0.21 0.14 0.08 0.03 0.01 0.01 0.01 0.00 0.00 0.01 0.01 0.07 0.24 0.32 0.38 0.49 0.44 0.39 0.31 0.23 0.21
2.37 2.88 2.76 2.13 1.64 1.85 2.32 2.68 2.81 2.44 2.57 2.10 1.51 0.51 0.04 0.01 0.00 0.00 0.01 0.01 0.01 0.04 0.06 0.10 0.17 0.17 0.14 0.24 0.21 0.12 0.18 0.35 0.32 0.14 0.06 0.01 0.01 0.04 0.02 0.02 0.01 0.00 0.00 0.00 0.00 0.02 0.06 0.07 0.11 0.12 0.10 0.18 0.23 0.21
3.70 3.86 2.56 1.89 2.10 2.38 2.67 3.22 3.46 3.12 2.62 2.21 0.89 0.12 0.02 0.01 0.01 0.00 0.00 0.00 0.02 0.09 0.25 0.41 0.40 0.16 0.17 0.22 0.09 0.05 0.18 0.16 0.07 0.03 0.02 0.01 0.01 0.05 0.05 0.02 0.02 0.02 0.03 0.04 0.03 0.06 0.10 0.10 0.14 0.19 0.14 0.09 0.10 0.16
3.31 2.10 1.82 2.08 2.48 2.87 3.78 3.61 3.17 3.18 2.42 0.98 0.24 0.05 0.03 0.01 0.01 0.01 0.01 0.01 0.03 0.10 0.29 0.62 0.42 0.39 0.16 0.06 0.02 0.02 0.02 0.03 0.02 0.01 0.00 0.00 0.00 0.02 0.04 0.02 0.01 0.04 0.08 0.21 0.23 0.18 0.15 0.16 0.16 0.14 0.12 0.09 0.07 0.08
2.57 1.88 2.04 2.11 2.57 3.13 3.50 3.23 2.66 2.13 0.82 0.23 0.07 0.06 0.06 0.02 0.01 0.03 0.03 0.04 0.04 0.07 0.29 0.64 0.63 0.25 0.01 0.00 0.01 0.01 0.00 0.00 0.00 0.00 0.01 0.00 0.00 0.02 0.06 0.08 0.08 0.06 0.07 0.13 0.13 0.10 0.08 0.06 0.05 0.07 0.09 0.09 0.06 0.05
3.34 3.29 2.91 2.95 2.81 3.10 3.26 2.81 1.70 0.90 0.43 0.16 0.12 0.12 0.07 0.04 0.04 0.05 0.07 0.11 0.13 0.35 0.69 0.59 0.17 0.03 0.03 0.04 0.06 0.04 0.01 0.01 0.00 0.00 0.01 0.01 0.00 0.00 0.00 0.02 0.05 0.05 0.05 0.05 0.06 0.07 0.07 0.05 0.05 0.06 0.08 0.09 0.07 0.07
4.66 4.39 4.27 4.06 4.00 3.63 2.93 1.81 0.98 0.48 0.23 0.18 0.21 0.13 0.16 0.14 0.15 0.15 0.18 0.22 0.57 0.77 0.37 0.06 0.02 0.03 0.04 0.05 0.06 0.05 0.03 0.02 0.01 0.00 0.00 0.00 0.00 0.00 0.00 0.00 0.01 0.02 0.02 0.02 0.01 0.02 0.04 0.03 0.05 0.07 0.05 0.05 0.09 0.10
4.18 3.96 5.42 5.31 4.19 3.63 2.57 1.41 0.66 0.41 0.26 0.29 0.25 0.24 0.30 0.28 0.24 0.26 0.26 0.54 0.59 0.16 0.02 0.02 0.04 0.05 0.05 0.06 0.07 0.07 0.05 0.02 0.01 0.01 0.00 0.00 0.00 0.00 0.00 0.00 0.01 0.00 0.00 0.00 0.00 0.00 0.01 0.01 0.03 0.03 0.03 0.05 0.09 0.10
3.70 4.18 4.50 4.34 3.84 3.17 2.02 0.92 0.48 0.39 0.32 0.34 0.28 0.31 0.31 0.25 0.23 0.24 0.34 0.27 0.10 0.00 0.01 0.03 0.05 0.08 0.11 0.10 0.14 0.12 0.11 0.08 0.04 0.02 0.01 0.01 0.00 0.00 0.01 0.00 0.00 0.00 0.00 0.00 0.00 0.00 0.00 0.00 0.00 0.00 0.02 0.04 0.06 0.08
3.46 4.24 4.52 4.20 3.00 2.14 1.43 1.04 0.72 0.45 0.50 0.38 0.31 0.25 0.16 0.15 0.23 0.26 0.19 0.04 0.01 0.00 0.02 0.05 0.05 0.05 0.06 0.07 0.09 0.16 0.22 0.21 0.15 0.10 0.06 0.04 0.02 0.01 0.02 0.01 0.00 0.00 0.00 0.00 0.00 0.00 0.00 0.00 0.00 0.00 0.00 0.00 0.01 0.04
5.00 5.55 4.07 3.45 2.12 1.13 0.75 0.59 0.44 0.34 0.33 0.24 0.20 0.18 0.14 0.17 0.22 0.24 0.09 0.02 0.02 0.04 0.06 0.09 0.06 0.04 0.04 0.03 0.05 0.07 0.10 0.18 0.20 0.19 0.18 0.18 0.12 0.10 0.06 0.03 0.02 0.01 0.00 0.00 0.00 0.00 0.00 0.00 0.00 0.00 0.00 0.00 0.02 0.04
4.76 3.02 2.00 0.99 0.61 0.28 0.22 0.23 0.23 0.16 0.13 0.18 0.19 0.16 0.16 0.26 0.37 0.22 0.05 0.03 0.03 0.04 0.04 0.03 0.01 0.01 0.02 0.03 0.04 0.07 0.09 0.13 0.17 0.15 0.11 0.19 0.21 0.21 0.16 0.12 0.08 0.04 0.02 0.04 0.04 0.03 0.02 0.01 0.01 0.01 0.01 0.01 0.04 0.10
3.70 2.31 0.99 0.23 0.10 0.10 0.10 0.08 0.09 0.12 0.16 0.15 0.11 0.11 0.21 0.39 0.20 0.06 0.04 0.03 0.02 0.01 0.01 0.00 0.01 0.01 0.01 0.02 0.03 0.05 0.08 0.12 0.14 0.10 0.10 0.13 0.14 0.14 0.15 0.14 0.12 0.09 0.10 0.11 0.11 0.10 0.07 0.05 0.04 0.04 0.05 0.05 0.04 0.05
1.70 0.47 0.19 0.15 0.06 0.05 0.08 0.09 0.10 0.11 0.10 0.08 0.12 0.19 0.31 0.22 0.07 0.01 0.00 0.00 0.01 0.02 0.02 0.01 0.00 0.00 0.00 0.01 0.02 0.04 0.06 0.09 0.12 0.12 0.13 0.14 0.13 0.13 0.14 0.16 0.22 0.27 0.28 0.21 0.16 0.17 0.18 0.17 0.14 0.14 0.16 0.13 0.10 0.08
0.38 0.10 0.03 0.08 0.08 0.07 0.09 0.08 0.05 0.02 0.02 0.03 0.06 0.06 0.06 0.01 0.00 0.00 0.00 0.00 0.00 0.00 0.00 0.00 0.00 0.00 0.01 0.02 0.03 0.04 0.06 0.09 0.12 0.11 0.08 0.09 0.13 0.16 0.20 0.27 0.35 0.42 0.41 0.37 0.32 0.25 0.25 0.27 0.34 0.38 0.37 0.35 0.29 0.27
0.09 0.03 0.03 0.06 0.10 0.10 0.04 0.03 0.03 0.03 0.05 0.03 0.03 0.03 0.03 0.02 0.01 0.01 0.01 0.01 0.01 0.00 0.00 0.00 0.01 0.02 0.02 0.03 0.05 0.06 0.06 0.07 0.10 0.10 0.10 0.10 0.12 0.18 0.24 0.29 0.37 0.46 0.46 0.43 0.52 0.58 0.53 0.53 0.57 0.56 0.53 0.48 0.40 0.35
0.01 0.01 0.02 0.04 0.05 0.05 0.05 0.05 0.03 0.03 0.03 0.02 0.02 0.03 0.03 0.03 0.02 0.01 0.01 0.00 0.01 0.01 0.01 0.01 0.01 0.02 0.03 0.04 0.06 0.09 0.09 0.11 0.14 0.14 0.15 0.18 0.20 0.23 0.28 0.34 0.38 0.45 0.53 0.56 0.50 0.47 0.45 0.40 0.37 0.36 0.34 0.32 0.28 0.27
0.04 0.03 0.03 0.05 0.10 0.11 0.10 0.07 0.03 0.02 0.02 0.02 0.01 0.01 0.01 0.01 0.01 0.00 0.00 0.00 0.01 0.01 0.01 0.02 0.03 0.05 0.06 0.08 0.11 0.14 0.18 0.18 0.18 0.19 0.21 0.22 0.24 0.27 0.32 0.39 0.46 0.49 0.53 0.55 0.51 0.47 0.43 0.45 0.46 0.42 0.42 0.43 0.41 0.36
0.16 0.13 0.12 0.13 0.16 0.19 0.15 0.10 0.09 0.08 0.08 0.04 0.02 0.01 0.01 0.01 0.01 0.00 0.00 0.00 0.01 0.03 0.04 0.06 0.09 0.12 0.15 0.16 0.19 0.23 0.26 0.29 0.31 0.34 0.38 0.37 0.36 0.41 0.50 0.54 0.53 0.52 0.49 0.48 0.50 0.52 0.52 0.51 0.48 0.43 0.41 0.40 0.40 0.38

GFSWCAN_prec_precacc_141.txt.gz
Total_Precipitation_Accumulation
1.26 1.15 1.02 0.96 0.97 0.94 0.94 0.99 1.04 0.94 0.70 0.54 0.59 0.41 0.35 0.28 0.12 0.04 0.06 0.09 0.22 0.12 0.02 0.00 0.00 0.01 0.01 0.02 0.03 0.01 0.02 0.02 0.06 0.14 0.13 0.07 0.03 0.01 0.00 0.00 0.00 0.02 0.04 0.06 0.07 0.09 0.01 0.00 0.00 0.00 0.00 0.00 0.00 0.00
1.20 1.29 1.20 1.06 0.99 0.88 0.92 1.02 1.16 1.21 1.10 0.93 0.74 0.39 0.28 0.20 0.13 0.07 0.04 0.08 0.15 0.14 0.04 0.00 0.00 0.00 0.00 0.01 0.01 0.00 0.03 0.01 0.04 0.12 0.16 0.10 0.04 0.01 0.00 0.00 0.00 0.00 0.00 0.00 0.00 0.00 0.00 0.00 0.00 0.00 0.00 0.00 0.00 0.01
0.94 1.11 1.18 1.17 1.29 1.07 0.82 0.77 0.73 0.68 0.74 0.80 0.70 0.44 0.25 0.20 0.17 0.23 0.10 0.04 0.10 0.13 0.02 0.00 0.01 0.00 0.00 0.00 0.01 0.01 0.02 0.01 0.04 0.12 0.26 0.11 0.06 0.04 0.02 0.01 0.00 0.00 0.00 0.00 0.00 0.00 0.00 0.00 0.00 0.00 0.00 0.00 0.00 0.02
0.96 0.90 1.08 1.07 1.25 1.37 1.09 0.82 0.64 0.60 0.57 0.60 0.50 0.30 0.20 0.17 0.21 0.17 0.05 0.06 0.12 0.12 0.10 0.02 0.00 0.00 0.00 0.00 0.01 0.02 0.04 0.02 0.08 0.16 0.18 0.14 0.06 0.03 0.02 0.01 0.00 0.01 0.00 0.00 0.00 0.00 0.00 0.00 0.00 0.00 0.00 0.00 0.00 0.00
0.84 1.07 1.09 1.09 1.00 1.21 1.76 1.45 0.82 0.60 0.63 0.62 0.33 0.19 0.17 0.18 0.11 0.06 0.02 0.04 0.08 0.16 0.20 0.05 0.05 0.00 0.00 0.01 0.04 0.04 0.08 0.15 0.15 0.27 0.31 0.16 0.07 0.05 0.01 0.00 0.00 0.00 0.00 0.00 0.00 0.00 0.00 0.00 0.00 0.00 0.00 0.00 0.00 0.00
0.75 0.84 1.34 1.30 0.99 0.90 1.09 1.59 1.11 0.65 0.56 0.63 0.29 0.24 0.18 0.08 0.10 0.07 0.08 0.23 0.16 0.16 0.38 0.18 0.23 0.03 0.03 0.05 0.14 0.15 0.17 0.30 0.40 0.30 0.28 0.28 0.14 0.15 0.12 0.03 0.00 0.00 0.00 0.00 0.00 0.00 0.00 0.00 0.00 0.00 0.00 0.00 0.00 0.00
0.83 0.74 0.90 1.48 1.34 1.05 1.01 1.17 1.06 0.73 0.62 0.46 0.26 0.19 0.08 0.04 0.07 0.04 0.13 0.56 0.28 0.21 0.34 0.41 0.58 0.15 0.13 0.21 0.20 0.41 0.29 0.47 0.50 0.46 0.29 0.21 0.22 0.48 0.31 0.05 0.00 0.00 0.00 0.00 0.00 0.00 0.00 0.00 0.00 0.00 0.00 0.00 0.00 0.00
1.12 0.89 0.82 1.09 1.36 1.05 1.02 1.15 0.80 0.73 0.71 0.46 0.23 0.15 0.18 0.15 0.04 0.03 0.02 0.10 0.28 0.64 0.61 0.89 0.88 0.45 0.49 0.56 0.44 0.55 0.56 0.66 0.74 0.61 0.28 0.29 0.27 0.34 0.20 0.01 0.01 0.02 0.01 0.01 0.01 0.00 0.00 0.00 0.00 0.00 0.00 0.00 0.00 0.00
1.15 1.08 0.81 0.82 1.12 0.89 0.94 1.15 0.81 0.73 0.76 0.66 0.55 0.54 0.61 0.28 0.06 0.03 0.05 0.15 0.45 0.91 0.79 0.70 0.67 0.62 0.68 0.67 0.65 0.56 0.82 0.72 0.65 0.49 0.19 0.27 0.35 0.32 0.07 0.04 0.05 0.08 0.14 0.16 0.17 0.11 0.05 0.02 0.02 0.02 0.02 0.01 0.01 0.02
1.17 1.18 0.86 0.95 1.01 0.83 0.96 0.94 0.80 0.89 1.17 1.32 1.01 0.71 0.46 0.13 0.02 0.06 0.28 0.67 0.79 0.72 0.50 0.53 0.61 0.67 0.88 0.67 0.56 0.61 0.64 0.50 0.60 0.31 0.22 0.23 0.16 0.07 0.05 0.07 0.08 0.08 0.19 0.26 0.33 0.36 0.30 0.18 0.06 0.04 0.07 0.10 0.09 0.08
1.11 1.20 0.99 1.09 1.00 0.83 0.98 0.85 0.84 1.38 2.13 1.80 1.21 0.46 0.16 0.04 0.16 0.55 0.81 0.75 0.55 0.36 0.30 0.37 0.52 0.47 0.41 0.52 0.48 0.57 0.74 0.40 0.45 0.55 0.30 0.24 0.22 0.15 0.07 0.03 0.02 0.02 0.05 0.09 0.15 0.32 0.38 0.26 0.22 0.12 0.11 0.17 0.24 0.23
1.11 1.14 1.05 1.22 1.01 0.90 1.00 1.00 1.23 1.51 1.70 1.22 0.62 0.34 0.35 0.47 0.75 0.80 0.76 0.48 0.22 0.15 0.21 0.38 0.37 0.35 0.26 0.30 0.38 0.39 0.44 0.36 0.41 0.56 0.41 0.30 0.27 0.12 0.15 0.15 0.09 0.05 0.10 0.06 0.09 0.13 0.14 0.12 0.16 0.18 0.13 0.13 0.15 0.24
1.26 1.14 1.08 1.36 1.17 1.07 1.00 1.11 1.39 1.34 1.32 1.37 1.38 1.37 1.23 1.29 0.95 0.62 0.40 0.28 0.07 0.07 0.10 0.11 0.21 0.21 0.24 0.29 0.20 0.24 0.18 0.10 0.21 0.38 0.44 0.20 0.03 0.03 0.02 0.03 0.10 0.23 0.32 0.24 0.11 0.15 0.16 0.17 0.15 0.12 0.13 0.11 0.08 0.07
1.46 1.31 1.30 1.50 1.26 1.09 1.16 1.53 2.00 1.66 1.46 2.09 2.08 1.82 1.12 0.83 0.24 0.14 0.12 0.12 0.05 0.04 0.03 0.05 0.10 0.14 0.24 0.18 0.19 0.16 0.05 0.08 0.26 0.29 0.17 0.06 0.06 0.03 0.00 0.00 0.00 0.03 0.13 0.29 0.35 0.41 0.39 0.46 0.43 0.44 0.45 0.40 0.31 0.24
1.80 1.56 1.70 1.78 1.42 1.32 1.65 2.23 2.09 1.58 1.87 2.18 1.93 1.14 0.51 0.08 0.02 0.01 0.02 0.05 0.03 0.04 0.05 0.03 0.06 0.07 0.15 0.21 0.16 0.19 0.15 0.32 0.38 0.21 0.14 0.08 0.03 0.01 0.01 0.01 0.00 0.00 0.01 0.01 0.07 0.24 0.32 0.38 0.49 0.44 0.39 0.31 0.23 0.21
2.37 2.89 2.77 2.16 1.69 1.88 2.35 2.72 2.83 2.45 2.61 2.16 1.52 0.54 0.07 0.01 0.00 0.00 0.01 0.01 0.01 0.04 0.06 0.10 0.17 0.17 0.14 0.24 0.21 0.12 0.18 0.35 0.32 0.14 0.06 0.01 0.01 0.04 0.02 0.02 0.01 0.00 0.00 0.00 0.00 0.02 0.06 0.07 0.11 0.12 0.10 0.18 0.23 0.21
3.70 3.89 2.57 1.93 2.14 2.40 2.69 3.27 3.50 3.14 2.63 2.23 0.89 0.12 0.02 0.01 0.01 0.00 0.00 0.00 0.02 0.09 0.25 0.41 0.40 0.16 0.17 0.22 0.09 0.05 0.18 0.16 0.07 0.03 0.02 0.01 0.01 0.05 0.05 0.02 0.02 0.02 0.03 0.04 0.03 0.06 0.10 0.10 0.14 0.19 0.14 0.09 0.10 0.16
3.35 2.13 1.85 2.12 2.49 2.88 3.78 3.65 3.26 3.24 2.45 0.98 0.24 0.05 0.03 0.01 0.01 0.01 0.01 0.01 0.03 0.10 0.29 0.62 0.42 0.39 0.16 0.06 0.02 0.02 0.02 0.03 0.02 0.01 0.00 0.00 0.00 0.02 0.04 0.02 0.01 0.04 0.08 0.21 0.23 0.18 0.15 0.16 0.16 0.14 0.12 0.09 0.07 0.08
2.61 1.91 2.09 2.18 2.58 3.14 3.53 3.28 2.68 2.17 0.82 0.23 0.07 0.06 0.06 0.02 0.01 0.03 0.03 0.04 0.05 0.09 0.30 0.65 0.63 0.25 0.01 0.00 0.01 0.01 0.00 0.00 0.00 0.00 0.01 0.00 0.00 0.02 0.06 0.08 0.08 0.06 0.07 0.13 0.13 0.10 0.08 0.06 0.05 0.07 0.09 0.09 0.06 0.05
3.43 3.39 3.01 3.06 2.85 3.13 3.31 2.87 1.74 0.90 0.43 0.16 0.12 0.12 0.07 0.04 0.04 0.05 0.07 0.11 0.14 0.42 0.84 0.71 0.19 0.03 0.03 0.04 0.06 0.04 0.01 0.01 0.00 0.00 0.01 0.01 0.00 0.00 0.00 0.02 0.05 0.05 0.05 0.05 0.06 0.07 0.07 0.05 0.05 0.06 0.08 0.09 0.07 0.07
4.77 4.51 4.37 4.17 4.27 3.81 2.97 1.81 1.01 0.49 0.23 0.18 0.21 0.13 0.16 0.14 0.15 0.15 0.18 0.22 0.61 0.84 0.45 0.08 0.02 0.03 0.04 0.05 0.06 0.05 0.03 0.02 0.01 0.00 0.00 0.00 0.00 0.00 0.00 0.00 0.01 0.02 0.02 0.02 0.01 0.02 0.04 0.03 0.05 0.07 0.05 0.05 0.09 0.10
4.20 4.01 5.50 5.47 4.45 3.89 2.69 1.42 0.66 0.42 0.27 0.29 0.26 0.25 0.30 0.28 0.25 0.27 0.27 0.55 0.61 0.17 0.02 0.02 0.04 0.05 0.05 0.06 0.07 0.07 0.05 0.02 0.01 0.01 0.00 0.00 0.00 0.00 0.00 0.00 0.01 0.00 0.00 0.00 0.00 0.00 0.01 0.01 0.03 0.03 0.03 0.05 0.09 0.10
3.77 4.31 4.65 4.48 4.00 3.29 2.09 0.95 0.50 0.41 0.35 0.37 0.31 0.34 0.33 0.26 0.24 0.25 0.36 0.29 0.11 0.01 0.01 0.03 0.05 0.08 0.11 0.10 0.14 0.12 0.11 0.08 0.04 0.02 0.01 0.01 0.00 0.00 0.01 0.00 0.00 0.00 0.00 0.00 0.00 0.00 0.00 0.00 0.00 0.00 0.02 0.04 0.06 0.08
3.59 4.41 4.67 4.31 3.06 2.19 1.49 1.12 0.78 0.51 0.56 0.43 0.35 0.28 0.17 0.16 0.24 0.29 0.21 0.05 0.01 0.00 0.02 0.05 0.05 0.05 0.06 0.07 0.10 0.17 0.23 0.21 0.15 0.11 0.06 0.04 0.02 0.01 0.02 0.01 0.00 0.00 0.00 0.00 0.00 0.00 0.00 0.00 0.00 0.00 0.00 0.00 0.01 0.04
5.14 5.68 4.20 3.55 2.17 1.16 0.78 0.61 0.47 0.38 0.35 0.26 0.21 0.18 0.14 0.18 0.23 0.26 0.10 0.02 0.02 0.04 0.06 0.09 0.07 0.06 0.06 0.06 0.07 0.08 0.11 0.19 0.21 0.19 0.18 0.18 0.12 0.10 0.06 0.03 0.02 0.01 0.00 0.00 0.00 0.00 0.00 0.00 0.00 0.00 0.00 0.00 0.02 0.04
4.84 3.09 2.07 1.05 0.66 0.31 0.24 0.25 0.24 0.17 0.14 0.18 0.20 0.17 0.16 0.28 0.39 0.22 0.05 0.03 0.04 0.05 0.06 0.07 0.05 0.04 0.06 0.07 0.08 0.08 0.09 0.13 0.17 0.15 0.11 0.19 0.21 0.21 0.16 0.12 0.08 0.04 0.02 0.04 0.04 0.03 0.02 0.01 0.01 0.01 0.01 0.01 0.04 0.10
3.75 2.37 1.04 0.28 0.16 0.15 0.13 0.10 0.11 0.14 0.20 0.20 0.16 0.15 0.24 0.43 0.23 0.06 0.05 0.04 0.02 0.01 0.02 0.04 0.07 0.05 0.03 0.03 0.04 0.05 0.08 0.12 0.14 0.10 0.10 0.13 0.14 0.14 0.15 0.14 0.12 0.09 0.10 0.11 0.11 0.10 0.07 0.05 0.04 0.04 0.05 0.05 0.04 0.05
1.73 0.53 0.27 0.24 0.15 0.12 0.14 0.14 0.15 0.15 0.15 0.12 0.15 0.23 0.33 0.23 0.07 0.02 0.01 0.01 0.02 0.03 0.04 0.04 0.02 0.01 0.01 0.01 0.02 0.04 0.06 0.09 0.12 0.12 0.13 0.14 0.13 0.13 0.14 0.16 0.22 0.27 0.28 0.21 0.16 0.17 0.18 0.17 0.14 0.14 0.16 0.13 0.10 0.08
0.38 0.11 0.04 0.10 0.09 0.09 0.10 0.09 0.06 0.03 0.03 0.04 0.06 0.06 0.06 0.01 0.00 0.00 0.00 0.00 0.00 0.00 0.00 0.00 0.00 0.00 0.01 0.02 0.03 0.04 0.06 0.09 0.12 0.11 0.08 0.09 0.13 0.16 0.20 0.27 0.35 0.42 0.41 0.37 0.32 0.25 0.25 0.27 0.34 0.38 0.37 0.35 0.29 0.27
0.09 0.03 0.03 0.06 0.10 0.10 0.04 0.03 0.03 0.03 0.05 0.03 0.03 0.03 0.03 0.02 0.01 0.01 0.01 0.01 0.01 0.00 0.00 0.00 0.01 0.02 0.02 0.03 0.05 0.06 0.06 0.07 0.10 0.10 0.10 0.10 0.12 0.18 0.24 0.29 0.37 0.46 0.46 0.43 0.52 0.58 0.53 0.53 0.57 0.56 0.53 0.48 0.40 0.35
0.01 0.01 0.02 0.04 0.05 0.05 0.05 0.05 0.03 0.03 0.03 0.02 0.02 0.03 0.03 0.03 0.02 0.01 0.01 0.00 0.01 0.01 0.01 0.01 0.01 0.02 0.03 0.04 0.06 0.09 0.09 0.11 0.14 0.14 0.15 0.18 0.20 0.23 0.28 0.34 0.38 0.45 0.53 0.56 0.50 0.47 0.45 0.40 0.37 0.36 0.34 0.32 0.28 0.27
0.04 0.03 0.03 0.05 0.10 0.11 0.10 0.07 0.03 0.02 0.02 0.02 0.01 0.01 0.01 0.01 0.01 0.00 0.00 0.00 0.01 0.01 0.01 0.02 0.03 0.05 0.06 0.08 0.11 0.14 0.18 0.18 0.18 0.19 0.21 0.22 0.24 0.27 0.32 0.39 0.46 0.49 0.53 0.55 0.51 0.47 0.43 0.45 0.46 0.43 0.43 0.43 0.41 0.36
0.16 0.13 0.12 0.13 0.16 0.19 0.15 0.10 0.09 0.08 0.08 0.04 0.02 0.01 0.01 0.01 0.01 0.00 0.00 0.00 0.01 0.03 0.04 0.06 0.09 0.12 0.15 0.16 0.19 0.23 0.26 0.29 0.31 0.34 0.38 0.37 0.36 0.41 0.50 0.54 0.53 0.52 0.49 0.48 0.50 0.52 0.53 0.52 0.49 0.44 0.41 0.40 0.40 0.38

GFSWCAN_prec_precacc_144.txt.gz
Total_Precipitation_Accumulation
1.28 1.22 1.15 1.16 1.21 1.04 0.96 1.00 1.04 0.94 0.70 0.55 0.59 0.41 0.35 0.28 0.12 0.04 0.06 0.09 0.22 0.12 0.02 0.00 0.00 0.01 0.01 0.02 0.03 0.01 0.02 0.02 0.06 0.14 0.13 0.07 0.03 0.01 0.00 0.00 0.00 0.02 0.04 0.06 0.07 0.09 0.01 0.00 0.00 0.00 0.00 0.00 0.00 0.00
1.21 1.34 1.34 1.26 1.20 1.05 1.00 1.04 1.17 1.21 1.10 0.94 0.75 0.39 0.28 0.20 0.13 0.07 0.04 0.08 0.15 0.14 0.04 0.00 0.00 0.00 0.00 0.01 0.01 0.00 0.03 0.01 0.04 0.12 0.16 0.10 0.04 0.01 0.00 0.00 0.00 0.00 0.00 0.00 0.00 0.00 0.00 0.00 0.00 0.00 0.00 0.00 0.00 0.01
0.94 1.13 1.27 1.39 1.55 1.40 1.04 0.85 0.76 0.68 0.74 0.80 0.71 0.44 0.25 0.20 0.17 0.23 0.10 0.04 0.10 0.13 0.02 0.00 0.01 0.00 0.00 0.00 0.01 0.01 0.02 0.01 0.04 0.12 0.26 0.11 0.06 0.04 0.02 0.01 0.00 0.00 0.00 0.00 0.00 0.00 0.00 0.00 0.00 0.00 0.00 0.00 0.00 0.02
0.96 0.91 1.11 1.21 1.46 1.58 1.32 0.99 0.72 0.63 0.59 0.60 0.51 0.31 0.20 0.17 0.21 0.17 0.05 0.06 0.12 0.12 0.10 0.02 0.00 0.00 0.00 0.00 0.01 0.02 0.04 0.02 0.08 0.16 0.18 0.14 0.06 0.03 0.02 0.01 0.00 0.01 0.00 0.00 0.00 0.00 0.00 0.00 0.00 0.00 0.00 0.00 0.00 0.00
0.85 1.07 1.09 1.13 1.12 1.35 1.91 1.60 0.95 0.68 0.68 0.64 0.33 0.19 0.18 0.18 0.11 0.06 0.02 0.04 0.08 0.16 0.20 0.05 0.05 0.00 0.00 0.01 0.04 0.04 0.08 0.15 0.15 0.27 0.31 0.16 0.07 0.05 0.01 0.00 0.00 0.00 0.00 0.00 0.00 0.00 0.00 0.00 0.00 0.00 0.00 0.00 0.00 0.00
0.76 0.85 1.34 1.30 1.04 1.02 1.19 1.71 1.27 0.82 0.66 0.69 0.31 0.25 0.20 0.08 0.10 0.07 0.08 0.23 0.16 0.16 0.38 0.18 0.23 0.03 0.03 0.05 0.14 0.15 0.17 0.30 0.40 0.30 0.28 0.28 0.14 0.15 0.12 0.03 0.00 0.00 0.00 0.00 0.00 0.00 0.00 0.00 0.00 0.00 0.00 0.00 0.00 0.00
0.83 0.74 0.91 1.48 1.35 1.09 1.10 1.27 1.18 0.90 0.79 0.56 0.32 0.25 0.13 0.07 0.07 0.04 0.13 0.56 0.28 0.21 0.34 0.41 0.58 0.15 0.13 0.21 0.20 0.41 0.29 0.47 0.50 0.46 0.29 0.21 0.22 0.48 0.31 0.05 0.00 0.00 0.00 0.00 0.00 0.00 0.00 0.00 0.00 0.00 0.00 0.00 0.00 0.00
1.12 0.89 0.82 1.09 1.37 1.06 1.06 1.22 0.89 0.84 0.88 0.64 0.35 0.26 0.29 0.26 0.08 0.03 0.02 0.10 0.28 0.64 0.61 0.89 0.88 0.45 0.49 0.56 0.44 0.55 0.56 0.66 0.74 0.61 0.28 0.29 0.27 0.34 0.20 0.01 0.01 0.02 0.01 0.01 0.01 0.00 0.00 0.00 0.00 0.00 0.00 0.00 0.00 0.00
1.15 1.08 0.81 0.83 1.13 0.90 0.95 1.18 0.85 0.78 0.87 0.84 0.80 0.84 0.84 0.42 0.11 0.03 0.05 0.15 0.45 0.91 0.79 0.70 0.67 0.62 0.68 0.67 0.65 0.56 0.82 0.72 0.65 0.49 0.19 0.27 0.35 0.32 0.07 0.04 0.05 0.08 0.14 0.16 0.17 0.11 0.05 0.02 0.02 0.02 0.02 0.01 0.01 0.02
1.17 1.18 0.86 0.95 1.01 0.84 0.96 0.95 0.82 0.91 1.21 1.47 1.41 1.10 0.66 0.21 0.05 0.07 0.31 0.67 0.79 0.72 0.50 0.53 0.61 0.67 0.88 0.67 0.56 0.61 0.64 0.50 0.60 0.31 0.22 0.23 0.16 0.07 0.05 0.07 0.08 0.08 0.19 0.26 0.33 0.36 0.30 0.18 0.06 0.04 0.07 0.10 0.09 0.08
1.11 1.20 0.99 1.09 1.00 0.83 0.98 0.85 0.85 1.39 2.16 2.00 1.59 0.73 0.27 0.08 0.18 0.63 0.88 0.77 0.55 0.37 0.30 0.37 0.52 0.47 0.41 0.52 0.48 0.57 0.74 0.40 0.45 0.55 0.30 0.24 0.22 0.15 0.07 0.03 0.02 0.02 0.05 0.09 0.15 0.32 0.38 0.26 0.22 0.12 0.11 0.17 0.24 0.23
1.11 1.14 1.05 1.22 1.01 0.90 1.01 1.00 1.24 1.53 1.74 1.43 0.86 0.52 0.50 0.61 0.88 0.93 0.83 0.49 0.22 0.15 0.21 0.38 0.37 0.35 0.26 0.30 0.38 0.39 0.44 0.36 0.41 0.56 0.42 0.30 0.27 0.12 0.15 0.15 0.09 0.05 0.10 0.06 0.09 0.13 0.14 0.12 0.16 0.18 0.13 0.13 0.15 0.24
1.26 1.14 1.09 1.36 1.17 1.07 1.02 1.11 1.40 1.35 1.36 1.44 1.58 1.63 1.51 1.56 1.10 0.68 0.42 0.29 0.07 0.07 0.10 0.11 0.21 0.21 0.24 0.29 0.20 0.24 0.18 0.10 0.21 0.38 0.45 0.20 0.03 0.03 0.02 0.03 0.10 0.23 0.32 0.24 0.11 0.15 0.16 0.17 0.15 0.12 0.13 0.11 0.08 0.07
1.47 1.31 1.30 1.51 1.26 1.09 1.18 1.54 2.01 1.67 1.52 2.13 2.24 2.02 1.29 1.00 0.28 0.14 0.12 0.12 0.05 0.04 0.03 0.05 0.10 0.14 0.24 0.18 0.19 0.16 0.05 0.08 0.26 0.29 0.17 0.06 0.06 0.03 0.00 0.00 0.00 0.03 0.13 0.29 0.35 0.41 0.39 0.46 0.43 0.44 0.45 0.40 0.31 0.24
1.80 1.56 1.70 1.79 1.42 1.32 1.67 2.25 2.11 1.59 1.89 2.26 2.02 1.25 0.61 0.10 0.02 0.01 0.02 0.05 0.03 0.04 0.05 0.03 0.06 0.07 0.15 0.21 0.16 0.19 0.15 0.32 0.38 0.21 0.14 0.08 0.03 0.01 0.01 0.01 0.00 0.00 0.01 0.01 0.07 0.24 0.32 0.38 0.49 0.44 0.39 0.31 0.23 0.21
2.38 2.90 2.78 2.16 1.70 1.90 2.38 2.75 2.86 2.46 2.64 2.18 1.56 0.57 0.08 0.01 0.00 0.00 0.01 0.01 0.01 0.04 0.06 0.10 0.17 0.17 0.14 0.24 0.21 0.12 0.18 0.35 0.32 0.14 0.06 0.01 0.01 0.04 0.02 0.02 0.01 0.00 0.00 0.00 0.00 0.02 0.06 0.07 0.11 0.12 0.10 0.18 0.23 0.21
3.74 3.90 2.57 1.94 2.16 2.43 2.73 3.29 3.53 3.15 2.66 2.24 0.89 0.12 0.02 0.01 0.01 0.00 0.00 0.00 0.02 0.09 0.25 0.41 0.40 0.16 0.17 0.22 0.09 0.05 0.18 0.16 0.07 0.03 0.02 0.01 0.01 0.05 0.05 0.02 0.02 0.02 0.03 0.04 0.03 0.06 0.10 0.10 0.14 0.19 0.14 0.09 0.10 0.16
3.36 2.13 1.85 2.13 2.53 2.96 3.86 3.67 3.31 3.27 2.47 0.99 0.24 0.05 0.03 0.01 0.01 0.01 0.01 0.01 0.04 0.11 0.31 0.64 0.43 0.39 0.16 0.06 0.02 0.02 0.02 0.03 0.02 0.01 0.00 0.00 0.00 0.02 0.04 0.02 0.01 0.04 0.08 0.21 0.23 0.18 0.15 0.16 0.16 0.14 0.12 0.09 0.07 0.08
2.61 1.91 2.10 2.23 2.65 3.18 3.57 3.30 2.70 2.19 0.82 0.23 0.07 0.06 0.06 0.02 0.01 0.03 0.03 0.04 0.06 0.11 0.41 0.79 0.75 0.29 0.01 0.00 0.01 0.01 0.00 0.00 0.00 0.00 0.01 0.00 0.00 0.02 0.06 0.08 0.08 0.06 0.07 0.13 0.13 0.10 0.08 0.06 0.05 0.07 0.09 0.09 0.06 0.05
3.44 3.42 3.04 3.17 2.96 3.23 3.36 2.89 1.75 0.90 0.43 0.16 0.12 0.12 0.07 0.04 0.04 0.05 0.07 0.11 0.14 0.43 0.89 0.81 0.26 0.04 0.03 0.04 0.06 0.04 0.01 0.01 0.00 0.00 0.01 0.01 0.00 0.00 0.00 0.02 0.05 0.05 0.05 0.05 0.06 0.07 0.07 0.05 0.05 0.06 0.08 0.09 0.07 0.07
4.83 4.56 4.46 4.35 4.57 3.94 2.99 1.82 1.02 0.49 0.23 0.18 0.21 0.13 0.16 0.14 0.15 0.15 0.18 0.22 0.61 0.84 0.45 0.08 0.02 0.03 0.04 0.05 0.06 0.05 0.03 0.02 0.01 0.00 0.00 0.00 0.00 0.00 0.00 0.00 0.01 0.02 0.02 0.02 0.01 0.02 0.04 0.03 0.05 0.07 0.05 0.05 0.09 0.10
4.31 4.09 5.61 5.67 4.76 4.05 2.75 1.43 0.66 0.43 0.28 0.30 0.26 0.25 0.30 0.28 0.25 0.27 0.27 0.56 0.61 0.17 0.02 0.02 0.04 0.05 0.05 0.06 0.07 0.07 0.05 0.02 0.01 0.01 0.00 0.00 0.00 0.00 0.00 0.00 0.01 0.00 0.00 0.00 0.00 0.00 0.01 0.01 0.03 0.03 0.03 0.05 0.09 0.10
3.84 4.35 4.70 4.57 4.14 3.41 2.14 0.97 0.51 0.42 0.35 0.38 0.32 0.35 0.33 0.26 0.24 0.26 0.39 0.29 0.11 0.01 0.01 0.03 0.05 0.08 0.11 0.10 0.14 0.12 0.11 0.08 0.04 0.02 0.01 0.01 0.00 0.00 0.01 0.00 0.00 0.00 0.00 0.00 0.00 0.00 0.00 0.00 0.00 0.00 0.02 0.04 0.06 0.08
3.62 4.45 4.72 4.35 3.09 2.22 1.52 1.14 0.80 0.53 0.58 0.44 0.36 0.29 0.17 0.16 0.25 0.31 0.22 0.05 0.01 0.00 0.02 0.05 0.05 0.05 0.06 0.07 0.10 0.17 0.23 0.21 0.15 0.11 0.07 0.04 0.02 0.01 0.02 0.01 0.00 0.00 0.00 0.00 0.00 0.00 0.00 0.00 0.00 0.00 0.00 0.00 0.01 0.04
5.19 5.74 4.25 3.59 2.20 1.18 0.79 0.62 0.48 0.38 0.36 0.27 0.21 0.18 0.15 0.18 0.24 0.28 0.10 0.02 0.02 0.04 0.06 0.09 0.07 0.06 0.06 0.06 0.07 0.08 0.11 0.19 0.21 0.19 0.18 0.18 0.13 0.11 0.06 0.03 0.02 0.01 0.00 0.00 0.00 0.00 0.00 0.00 0.00 0.00 0.00 0.00 0.02 0.04
4.88 3.13 2.10 1.07 0.68 0.31 0.25 0.25 0.24 0.17 0.14 0.18 0.20 0.17 0.17 0.29 0.40 0.23 0.05 0.03 0.04 0.05 0.06 0.07 0.05 0.04 0.06 0.07 0.08 0.09 0.09 0.14 0.17 0.15 0.12 0.19 0.21 0.21 0.16 0.13 0.08 0.04 0.02 0.04 0.04 0.03 0.02 0.01 0.01 0.01 0.01 0.01 0.04 0.10
3.79 2.39 1.06 0.29 0.17 0.17 0.15 0.12 0.12 0.15 0.21 0.20 0.16 0.16 0.26 0.45 0.24 0.06 0.05 0.04 0.02 0.01 0.02 0.04 0.07 0.06 0.04 0.05 0.05 0.06 0.10 0.14 0.15 0.11 0.11 0.14 0.14 0.14 0.15 0.14 0.12 0.09 0.10 0.11 0.11 0.10 0.07 0.05 0.04 0.04 0.05 0.05 0.04 0.05
1.77 0.58 0.32 0.29 0.20 0.17 0.19 0.18 0.19 0.20 0.19 0.15 0.17 0.25 0.36 0.25 0.07 0.02 0.01 0.01 0.02 0.03 0.06 0.10 0.08 0.07 0.08 0.09 0.06 0.06 0.07 0.10 0.12 0.12 0.13 0.14 0.13 0.13 0.14 0.16 0.22 0.27 0.28 0.21 0.16 0.17 0.18 0.17 0.14 0.14 0.16 0.13 0.10 0.08
0.42 0.15 0.09 0.17 0.16 0.15 0.15 0.13 0.11 0.07 0.06 0.06 0.08 0.06 0.06 0.01 0.00 0.00 0.00 0.00 0.00 0.02 0.03 0.05 0.05 0.03 0.02 0.02 0.03 0.04 0.06 0.09 0.12 0.11 0.08 0.09 0.13 0.16 0.20 0.27 0.35 0.42 0.41 0.37 0.32 0.25 0.25 0.27 0.34 0.38 0.37 0.35 0.29 0.27
0.09 0.03 0.04 0.06 0.12 0.13 0.07 0.06 0.06 0.06 0.06 0.03 0.03 0.03 0.03 0.02 0.01 0.01 0.01 0.01 0.01 0.00 0.00 0.00 0.01 0.02 0.02 0.03 0.05 0.06 0.06 0.07 0.10 0.10 0.10 0.10 0.12 0.18 0.24 0.29 0.37 0.46 0.46 0.43 0.52 0.58 0.53 0.53 0.57 0.56 0.53 0.48 0.40 0.35
0.01 0.01 0.02 0.04 0.05 0.05 0.05 0.05 0.03 0.03 0.03 0.02 0.02 0.03 0.03 0.03 0.02 0.01 0.01 0.00 0.01 0.01 0.01 0.01 0.01 0.02 0.03 0.04 0.06 0.09 0.09 0.11 0.14 0.14 0.15 0.18 0.20 0.23 0.28 0.34 0.38 0.45 0.53 0.56 0.50 0.47 0.45 0.40 0.37 0.36 0.34 0.32 0.28 0.28
0.04 0.03 0.03 0.05 0.10 0.11 0.10 0.07 0.03 0.02 0.02 0.02 0.01 0.01 0.01 0.01 0.01 0.00 0.00 0.00 0.01 0.01 0.01 0.02 0.03 0.05 0.06 0.08 0.11 0.14 0.18 0.18 0.18 0.19 0.21 0.22 0.24 0.27 0.32 0.39 0.46 0.49 0.53 0.55 0.51 0.47 0.43 0.45 0.46 0.43 0.44 0.44 0.41 0.36
0.16 0.13 0.12 0.13 0.16 0.19 0.15 0.10 0.09 0.08 0.08 0.04 0.02 0.01 0.01 0.01 0.01 0.00 0.00 0.00 0.01 0.03 0.04 0.06 0.09 0.12 0.15 0.16 0.19 0.23 0.26 0.29 0.31 0.34 0.38 0.37 0.36 0.41 0.50 0.54 0.53 0.52 0.49 0.48 0.50 0.52 0.53 0.52 0.50 0.44 0.42 0.41 0.40 0.38

GFSWCAN_prec_precacc_147.txt.gz
Total_Precipitation_Accumulation
1.28 1.23 1.17 1.21 1.29 1.16 1.05 1.03 1.05 0.94 0.70 0.55 0.60 0.41 0.35 0.28 0.12 0.04 0.06 0.09 0.22 0.12 0.02 0.00 0.00 0.01 0.01 0.02 0.03 0.01 0.02 0.02 0.06 0.14 0.13 0.07 0.03 0.01 0.00 0.00 0.00 0.02 0.04 0.06 0.07 0.09 0.01 0.00 0.00 0.00 0.00 0.00 0.00 0.00
1.21 1.34 1.35 1.32 1.29 1.19 1.13 1.12 1.19 1.21 1.10 0.94 0.75 0.39 0.28 0.20 0.13 0.07 0.04 0.08 0.15 0.14 0.04 0.00 0.00 0.00 0.00 0.01 0.01 0.00 0.03 0.01 0.04 0.12 0.16 0.10 0.04 0.01 0.00 0.00 0.00 0.00 0.00 0.00 0.00 0.00 0.00 0.00 0.00 0.00 0.00 0.00 0.00 0.01
0.95 1.13 1.28 1.42 1.65 1.58 1.32 1.08 0.89 0.73 0.75 0.80 0.71 0.45 0.25 0.20 0.17 0.23 0.10 0.04 0.10 0.13 0.02 0.00 0.01 0.00 0.00 0.00 0.01 0.01 0.02 0.01 0.04 0.12 0.26 0.11 0.06 0.04 0.02 0.01 0.00 0.00 0.00 0.00 0.00 0.00 0.00 0.00 0.00 0.00 0.00 0.00 0.00 0.02
0.98 0.92 1.12 1.22 1.52 1.73 1.57 1.42 1.06 0.79 0.64 0.60 0.51 0.32 0.21 0.17 0.21 0.17 0.05 0.06 0.12 0.12 0.10 0.02 0.00 0.00 0.00 0.00 0.01 0.02 0.04 0.02 0.08 0.16 0.18 0.14 0.06 0.03 0.02 0.01 0.00 0.01 0.00 0.00 0.00 0.00 0.00 0.00 0.00 0.00 0.00 0.00 0.00 0.00
0.86 1.09 1.10 1.14 1.14 1.45 2.11 1.82 1.16 0.84 0.78 0.69 0.34 0.20 0.20 0.18 0.11 0.06 0.02 0.04 0.08 0.16 0.20 0.05 0.05 0.00 0.00 0.01 0.04 0.04 0.08 0.15 0.15 0.27 0.31 0.16 0.07 0.05 0.01 0.00 0.00 0.00 0.00 0.00 0.00 0.00 0.00 0.00 0.00 0.00 0.00 0.00 0.00 0.00
0.76 0.86 1.36 1.31 1.05 1.06 1.31 1.84 1.41 0.96 0.84 0.80 0.37 0.27 0.21 0.08 0.10 0.07 0.08 0.23 0.16 0.16 0.38 0.18 0.23 0.03 0.03 0.05 0.14 0.15 0.17 0.30 0.40 0.30 0.28 0.28 0.14 0.15 0.12 0.03 0.00 0.00 0.00 0.00 0.00 0.00 0.00 0.00 0.00 0.00 0.00 0.00 0.00 0.00
0.83 0.74 0.91 1.50 1.36 1.10 1.15 1.37 1.29 1.02 0.94 0.73 0.43 0.34 0.19 0.08 0.07 0.04 0.13 0.56 0.28 0.21 0.34 0.41 0.58 0.15 0.13 0.21 0.20 0.41 0.29 0.47 0.50 0.46 0.29 0.21 0.22 0.48 0.31 0.05 0.00 0.00 0.00 0.00 0.00 0.00 0.00 0.00 0.00 0.00 0.00 0.00 0.00 0.00
1.12 0.89 0.82 1.10 1.38 1.07 1.07 1.25 0.96 0.95 1.03 0.86 0.59 0.43 0.49 0.43 0.15 0.05 0.02 0.10 0.28 0.64 0.61 0.89 0.88 0.45 0.49 0.56 0.44 0.55 0.56 0.66 0.74 0.61 0.28 0.29 0.27 0.34 0.20 0.01 0.01 0.02 0.01 0.01 0.01 0.00 0.00 0.00 0.00 0.00 0.00 0.00 0.00 0.00
1.15 1.08 0.81 0.83 1.13 0.91 0.96 1.19 0.87 0.86 0.99 1.02 1.10 1.22 1.16 0.61 0.19 0.06 0.07 0.15 0.45 0.91 0.79 0.70 0.67 0.62 0.68 0.67 0.65 0.56 0.82 0.72 0.65 0.49 0.19 0.27 0.35 0.32 0.07 0.04 0.05 0.08 0.14 0.16 0.17 0.11 0.05 0.02 0.02 0.02 0.02 0.01 0.01 0.02
1.17 1.18 0.86 0.95 1.01 0.84 0.97 0.95 0.84 0.94 1.34 1.72 1.87 1.58 0.92 0.31 0.08 0.11 0.38 0.70 0.80 0.72 0.50 0.53 0.61 0.67 0.88 0.67 0.56 0.61 0.64 0.50 0.60 0.31 0.22 0.23 0.16 0.07 0.05 0.07 0.08 0.08 0.19 0.26 0.33 0.36 0.30 0.18 0.06 0.04 0.07 0.10 0.09 0.08
1.12 1.20 0.99 1.09 1.00 0.83 0.98 0.86 0.85 1.42 2.26 2.28 1.89 1.02 0.40 0.14 0.25 0.76 0.99 0.80 0.55 0.37 0.30 0.37 0.52 0.47 0.41 0.52 0.48 0.57 0.74 0.40 0.45 0.55 0.30 0.24 0.22 0.15 0.07 0.03 0.02 0.02 0.05 0.09 0.15 0.32 0.38 0.26 0.22 0.12 0.11 0.17 0.24 0.23
1.12 1.14 1.05 1.22 1.01 0.90 1.01 1.01 1.24 1.54 1.77 1.57 1.08 0.69 0.70 0.75 1.04 1.09 0.92 0.51 0.22 0.15 0.21 0.38 0.37 0.35 0.26 0.30 0.38 0.39 0.44 0.36 0.41 0.56 0.42 0.30 0.27 0.12 0.15 0.15 0.09 0.05 0.10 0.06 0.09 0.13 0.14 0.12 0.16 0.18 0.13 0.13 0.15 0.24
1.29 1.14 1.09 1.36 1.17 1.07 1.02 1.12 1.40 1.39 1.39 1.46 1.74 1.82 1.74 1.78 1.26 0.76 0.45 0.30 0.07 0.07 0.10 0.11 0.21 0.21 0.24 0.29 0.20 0.24 0.18 0.10 0.21 0.38 0.45 0.20 0.03 0.03 0.02 0.03 0.10 0.23 0.32 0.24 0.11 0.15 0.16 0.17 0.15 0.12 0.13 0.11 0.08 0.07
1.48 1.31 1.30 1.51 1.27 1.09 1.18 1.54 2.02 1.72 1.57 2.13 2.31 2.15 1.40 1.12 0.30 0.15 0.12 0.12 0.05 0.04 0.03 0.05 0.10 0.14 0.24 0.18 0.19 0.16 0.05 0.08 0.26 0.29 0.17 0.06 0.06 0.03 0.00 0.00 0.00 0.03 0.13 0.29 0.35 0.41 0.39 0.46 0.43 0.44 0.45 0.40 0.31 0.24
1.81 1.56 1.70 1.79 1.42 1.33 1.67 2.25 2.13 1.59 1.94 2.28 2.03 1.30 0.66 0.11 0.03 0.02 0.02 0.05 0.03 0.04 0.05 0.03 0.06 0.07 0.15 0.21 0.16 0.19 0.15 0.32 0.38 0.21 0.14 0.08 0.03 0.01 0.01 0.01 0.00 0.00 0.01 0.01 0.07 0.24 0.32 0.38 0.49 0.44 0.39 0.31 0.23 0.21
2.41 2.90 2.78 2.16 1.70 1.90 2.39 2.78 2.87 2.46 2.65 2.21 1.57 0.57 0.08 0.01 0.00 0.01 0.01 0.01 0.01 0.04 0.06 0.10 0.17 0.17 0.14 0.24 0.21 0.12 0.18 0.35 0.32 0.14 0.06 0.01 0.01 0.04 0.02 0.02 0.01 0.00 0.00 0.00 0.00 0.02 0.06 0.07 0.11 0.12 0.10 0.18 0.23 0.21
3.76 3.90 2.57 1.94 2.16 2.44 2.77 3.30 3.53 3.15 2.66 2.24 0.90 0.12 0.02 0.01 0.01 0.00 0.01 0.03 0.05 0.11 0.27 0.42 0.40 0.16 0.17 0.22 0.09 0.05 0.18 0.16 0.07 0.03 0.02 0.01 0.01 0.05 0.05 0.02 0.02 0.02 0.03 0.04 0.03 0.06 0.10 0.10 0.14 0.19 0.14 0.09 0.10 0.16
3.37 2.13 1.85 2.13 2.53 2.98 3.95 3.75 3.34 3.27 2.47 0.99 0.25 0.05 0.03 0.01 0.01 0.02 0.01 0.02 0.09 0.23 0.45 0.78 0.50 0.41 0.16 0.06 0.02 0.02 0.02 0.03 0.02 0.01 0.00 0.00 0.00 0.02 0.04 0.02 0.01 0.04 0.08 0.21 0.23 0.18 0.15 0.16 0.16 0.14 0.12 0.09 0.07 0.08
2.61 1.91 2.10 2.24 2.66 3.21 3.70 3.42 2.72 2.20 0.82 0.23 0.07 0.06 0.06 0.02 0.01 0.03 0.03 0.04 0.06 0.14 0.51 0.97 0.94 0.39 0.02 0.00 0.01 0.01 0.00 0.00 0.00 0.00 0.01 0.00 0.00 0.02 0.06 0.08 0.08 0.06 0.07 0.13 0.13 0.10 0.08 0.06 0.05 0.07 0.09 0.09 0.06 0.05
3.46 3.43 3.07 3.22 2.97 3.25 3.43 2.97 1.77 0.91 0.43 0.16 0.12 0.12 0.07 0.04 0.04 0.05 0.07 0.11 0.14 0.43 0.91 0.84 0.28 0.05 0.03 0.04 0.06 0.04 0.01 0.01 0.00 0.00 0.01 0.01 0.00 0.00 0.00 0.02 0.05 0.05 0.05 0.05 0.06 0.07 0.07 0.05 0.05 0.06 0.08 0.09 0.07 0.07
4.85 4.57 4.51 4.41 4.62 3.99 3.03 1.86 1.05 0.49 0.23 0.18 0.21 0.13 0.16 0.14 0.15 0.15 0.18 0.22 0.61 0.85 0.45 0.08 0.02 0.03 0.04 0.05 0.06 0.05 0.03 0.02 0.01 0.00 0.00 0.00 0.00 0.00 0.00 0.00 0.01 0.02 0.02 0.02 0.01 0.02 0.04 0.03 0.05 0.07 0.05 0.05 0.09 0.10
4.32 4.10 5.63 5.72 4.85 4.13 2.81 1.45 0.68 0.44 0.28 0.30 0.26 0.25 0.30 0.28 0.25 0.27 0.27 0.56 0.61 0.17 0.02 0.02 0.04 0.05 0.05 0.06 0.07 0.07 0.05 0.02 0.01 0.01 0.00 0.00 0.00 0.00 0.00 0.00 0.01 0.00 0.00 0.00 0.00 0.00 0.01 0.01 0.03 0.03 0.03 0.05 0.09 0.10
3.88 4.42 4.76 4.63 4.22 3.52 2.23 1.00 0.52 0.43 0.36 0.39 0.32 0.35 0.33 0.26 0.24 0.26 0.39 0.29 0.11 0.01 0.01 0.03 0.05 0.08 0.11 0.10 0.14 0.12 0.11 0.08 0.04 0.02 0.01 0.01 0.00 0.00 0.01 0.00 0.00 0.00 0.00 0.00 0.00 0.00 0.00 0.00 0.00 0.00 0.02 0.04 0.06 0.08
3.68 4.59 4.85 4.41 3.14 2.25 1.55 1.18 0.83 0.54 0.59 0.45 0.37 0.29 0.17 0.16 0.25 0.31 0.22 0.05 0.01 0.00 0.02 0.05 0.05 0.05 0.06 0.07 0.10 0.17 0.23 0.21 0.15 0.11 0.07 0.04 0.02 0.01 0.02 0.01 0.00 0.00 0.00 0.00 0.00 0.00 0.00 0.00 0.00 0.00 0.00 0.00 0.01 0.04
5.25 5.78 4.28 3.62 2.22 1.20 0.79 0.62 0.48 0.39 0.36 0.27 0.21 0.18 0.15 0.18 0.25 0.28 0.10 0.02 0.02 0.04 0.06 0.09 0.07 0.06 0.06 0.06 0.07 0.08 0.11 0.19 0.21 0.19 0.18 0.18 0.13 0.11 0.06 0.03 0.02 0.01 0.00 0.00 0.00 0.00 0.00 0.00 0.00 0.00 0.00 0.00 0.02 0.04
4.90 3.15 2.10 1.08 0.68 0.31 0.25 0.25 0.24 0.17 0.14 0.18 0.20 0.17 0.17 0.29 0.40 0.23 0.05 0.03 0.04 0.05 0.06 0.07 0.05 0.04 0.06 0.07 0.08 0.09 0.09 0.14 0.17 0.15 0.12 0.19 0.21 0.21 0.16 0.13 0.08 0.04 0.02 0.04 0.04 0.03 0.02 0.01 0.01 0.01 0.01 0.01 0.04 0.10
3.80 2.40 1.06 0.29 0.17 0.18 0.16 0.13 0.12 0.15 0.21 0.20 0.17 0.16 0.27 0.47 0.24 0.06 0.05 0.04 0.02 0.01 0.02 0.04 0.07 0.06 0.04 0.05 0.05 0.06 0.10 0.15 0.16 0.12 0.12 0.15 0.14 0.15 0.16 0.14 0.12 0.09 0.10 0.11 0.11 0.10 0.07 0.05 0.04 0.04 0.05 0.05 0.04 0.05
1.79 0.59 0.33 0.30 0.22 0.19 0.22 0.20 0.20 0.21 0.20 0.16 0.18 0.26 0.37 0.25 0.07 0.02 0.01 0.01 0.02 0.04 0.06 0.10 0.09 0.08 0.09 0.12 0.10 0.10 0.14 0.15 0.15 0.14 0.14 0.15 0.14 0.13 0.14 0.16 0.22 0.27 0.28 0.21 0.16 0.17 0.18 0.17 0.14 0.14 0.16 0.13 0.10 0.08
0.45 0.19 0.13 0.19 0.17 0.16 0.17 0.15 0.12 0.08 0.07 0.08 0.10 0.08 0.07 0.01 0.00 0.00 0.00 0.00 0.00 0.03 0.07 0.08 0.08 0.08 0.06 0.06 0.06 0.06 0.06 0.09 0.12 0.11 0.09 0.09 0.13 0.16 0.20 0.27 0.35 0.42 0.41 0.37 0.32 0.25 0.25 0.27 0.34 0.38 0.37 0.35 0.29 0.27
0.10 0.05 0.06 0.09 0.15 0.15 0.10 0.09 0.09 0.09 0.10 0.07 0.05 0.04 0.03 0.02 0.01 0.01 0.01 0.01 0.01 0.00 0.01 0.00 0.01 0.02 0.02 0.03 0.05 0.06 0.06 0.07 0.10 0.10 0.10 0.10 0.12 0.18 0.24 0.29 0.37 0.46 0.46 0.43 0.52 0.58 0.53 0.53 0.57 0.56 0.53 0.48 0.40 0.35
0.01 0.01 0.02 0.04 0.06 0.05 0.05 0.06 0.04 0.03 0.05 0.04 0.02 0.04 0.03 0.03 0.02 0.01 0.01 0.00 0.01 0.01 0.01 0.01 0.01 0.02 0.03 0.04 0.06 0.09 0.09 0.11 0.14 0.14 0.15 0.18 0.20 0.23 0.28 0.34 0.38 0.45 0.53 0.56 0.50 0.47 0.45 0.40 0.37 0.36 0.34 0.32 0.28 0.28
0.04 0.03 0.03 0.05 0.10 0.11 0.10 0.07 0.03 0.02 0.02 0.02 0.01 0.01 0.01 0.01 0.01 0.00 0.00 0.00 0.01 0.01 0.01 0.02 0.03 0.05 0.06 0.08 0.11 0.14 0.18 0.18 0.18 0.19 0.21 0.22 0.24 0.27 0.32 0.39 0.46 0.49 0.53 0.55 0.51 0.47 0.43 0.45 0.46 0.43 0.44 0.44 0.41 0.37
0.16 0.13 0.12 0.13 0.16 0.19 0.15 0.10 0.09 0.08 0.08 0.04 0.02 0.01 0.01 0.01 0.01 0.00 0.00 0.00 0.01 0.03 0.04 0.06 0.09 0.12 0.15 0.16 0.19 0.23 0.26 0.29 0.31 0.34 0.38 0.37 0.36 0.41 0.50 0.54 0.53 0.52 0.49 0.48 0.50 0.52 0.53 0.52 0.50 0.44 0.42 0.41 0.40 0.38

GFSWCAN_prec_precacc_153.txt.gz
Total_Precipitation_Accumulation
1.30 1.24 1.18 1.21 1.31 1.18 1.10 1.12 1.08 0.95 0.70 0.55 0.60 0.42 0.35 0.29 0.12 0.04 0.06 0.09 0.22 0.12 0.02 0.00 0.00 0.01 0.01 0.02 0.03 0.01 0.02 0.02 0.06 0.14 0.13 0.07 0.03 0.01 0.00 0.00 0.00 0.02 0.04 0.06 0.07 0.09 0.01 0.00 0.00 0.00 0.00 0.00 0.00 0.00
1.22 1.36 1.36 1.32 1.30 1.20 1.14 1.19 1.32 1.30 1.11 0.94 0.75 0.41 0.29 0.20 0.13 0.07 0.04 0.08 0.15 0.14 0.04 0.00 0.00 0.00 0.00 0.01 0.01 0.00 0.03 0.01 0.04 0.12 0.16 0.10 0.04 0.01 0.00 0.00 0.00 0.00 0.00 0.00 0.00 0.00 0.00 0.00 0.00 0.00 0.00 0.00 0.00 0.01
0.96 1.16 1.30 1.42 1.65 1.61 1.37 1.18 1.05 0.98 0.90 0.82 0.71 0.46 0.27 0.21 0.17 0.23 0.10 0.04 0.10 0.13 0.02 0.00 0.01 0.00 0.00 0.00 0.01 0.01 0.02 0.01 0.04 0.12 0.26 0.11 0.06 0.04 0.02 0.01 0.00 0.00 0.00 0.00 0.00 0.00 0.00 0.00 0.00 0.00 0.00 0.00 0.00 0.02
0.98 0.93 1.14 1.23 1.52 1.75 1.64 1.59 1.57 1.31 1.01 0.83 0.56 0.33 0.23 0.18 0.22 0.17 0.05 0.06 0.12 0.12 0.10 0.02 0.00 0.00 0.00 0.00 0.01 0.02 0.04 0.02 0.08 0.16 0.18 0.14 0.06 0.03 0.02 0.01 0.00 0.01 0.00 0.00 0.00 0.00 0.00 0.00 0.00 0.00 0.00 0.00 0.00 0.00
0.86 1.09 1.11 1.15 1.15 1.46 2.15 1.94 1.40 1.25 1.36 1.04 0.53 0.27 0.23 0.19 0.11 0.06 0.02 0.04 0.08 0.16 0.20 0.05 0.05 0.00 0.00 0.01 0.04 0.04 0.08 0.15 0.15 0.27 0.31 0.16 0.07 0.05 0.01 0.00 0.00 0.00 0.00 0.00 0.00 0.00 0.00 0.00 0.00 0.00 0.00 0.00 0.00 0.00
0.76 0.86 1.36 1.33 1.07 1.07 1.32 1.91 1.56 1.27 1.37 1.30 0.58 0.40 0.29 0.12 0.10 0.07 0.08 0.23 0.16 0.16 0.38 0.18 0.23 0.03 0.03 0.05 0.14 0.15 0.17 0.30 0.40 0.30 0.28 0.28 0.14 0.15 0.12 0.03 0.00 0.00 0.00 0.00 0.00 0.00 0.00 0.00 0.00 0.00 0.00 0.00 0.00 0.00
0.84 0.74 0.91 1.50 1.37 1.11 1.15 1.38 1.35 1.18 1.19 1.04 0.72 0.53 0.38 0.25 0.14 0.04 0.13 0.56 0.28 0.21 0.34 0.41 0.58 0.15 0.13 0.21 0.20 0.41 0.29 0.47 0.50 0.46 0.29 0.21 0.22 0.48 0.31 0.05 0.00 0.00 0.00 0.00 0.00 0.00 0.00 0.00 0.00 0.00 0.00 0.00 0.00 0.00
1.14 0.89 0.82 1.10 1.38 1.08 1.08 1.25 0.97 0.99 1.17 1.10 0.99 0.76 0.79 0.84 0.59 0.20 0.03 0.10 0.28 0.64 0.61 0.89 0.88 0.45 0.49 0.56 0.44 0.55 0.56 0.66 0.74 0.61 0.28 0.29 0.27 0.34 0.20 0.01 0.01 0.02 0.01 0.01 0.01 0.00 0.00 0.00 0.00 0.00 0.00 0.00 0.00 0.00
1.18 1.09 0.81 0.83 1.13 0.91 0.97 1.19 0.87 0.87 1.06 1.22 1.55 1.90 1.72 0.99 0.46 0.21 0.15 0.17 0.45 0.91 0.79 0.70 0.67 0.62 0.68 0.67 0.65 0.56 0.82 0.72 0.65 0.49 0.19 0.27 0.35 0.32 0.07 0.04 0.05 0.08 0.14 0.16 0.17 0.11 0.05 0.02 0.02 0.02 0.02 0.01 0.01 0.02
1.21 1.21 0.86 0.95 1.01 0.84 0.97 0.96 0.84 0.94 1.40 1.96 2.58 2.42 1.40 0.47 0.17 0.23 0.71 0.94 0.93 0.74 0.50 0.53 0.61 0.67 0.88 0.67 0.56 0.61 0.64 0.50 0.60 0.31 0.22 0.23 0.16 0.07 0.05 0.07 0.08 0.08 0.19 0.26 0.33 0.36 0.30 0.18 0.06 0.04 0.07 0.10 0.09 0.08
1.14 1.24 1.00 1.09 1.00 0.83 0.98 0.86 0.85 1.43 2.33 2.58 2.40 1.51 0.60 0.31 0.48 1.10 1.29 0.99 0.66 0.42 0.31 0.37 0.52 0.47 0.41 0.52 0.48 0.57 0.74 0.40 0.45 0.55 0.30 0.24 0.22 0.15 0.07 0.03 0.02 0.02 0.05 0.09 0.15 0.32 0.38 0.26 0.22 0.12 0.11 0.17 0.24 0.23
1.15 1.18 1.06 1.22 1.01 0.90 1.01 1.01 1.24 1.56 1.83 1.80 1.45 1.10 1.08 1.09 1.42 1.43 1.15 0.60 0.25 0.16 0.21 0.38 0.37 0.35 0.26 0.30 0.38 0.39 0.44 0.36 0.41 0.56 0.42 0.30 0.27 0.12 0.15 0.15 0.09 0.05 0.10 0.06 0.09 0.13 0.14 0.12 0.16 0.18 0.13 0.13 0.15 0.24
1.32 1.18 1.10 1.36 1.17 1.07 1.02 1.12 1.41 1.45 1.42 1.55 2.00 2.27 2.23 2.21 1.61 0.98 0.52 0.34 0.08 0.07 0.10 0.11 0.21 0.21 0.26 0.31 0.21 0.24 0.18 0.10 0.21 0.38 0.45 0.20 0.03 0.03 0.02 0.03 0.10 0.23 0.32 0.24 0.11 0.15 0.16 0.17 0.15 0.12 0.13 0.11 0.08 0.07
1.53 1.35 1.30 1.51 1.27 1.09 1.18 1.54 2.07 1.93 1.62 2.14 2.39 2.39 1.66 1.39 0.42 0.19 0.13 0.12 0.05 0.04 0.03 0.05 0.10 0.15 0.25 0.20 0.22 0.17 0.05 0.08 0.26 0.29 0.17 0.06 0.06 0.03 0.00 0.00 0.00 0.03 0.13 0.29 0.35 0.41 0.39 0.46 0.43 0.44 0.45 0.40 0.31 0.24
1.84 1.58 1.71 1.79 1.43 1.33 1.67 2.25 2.15 1.63 2.02 2.31 2.04 1.34 0.77 0.22 0.10 0.06 0.05 0.05 0.03 0.04 0.05 0.03 0.06 0.07 0.16 0.25 0.17 0.19 0.15 0.32 0.38 0.21 0.14 0.08 0.03 0.01 0.01 0.01 0.00 0.00 0.01 0.01 0.07 0.24 0.32 0.38 0.49 0.44 0.39 0.31 0.23 0.21
2.49 2.95 2.78 2.16 1.70 1.90 2.39 2.79 2.89 2.46 2.65 2.25 1.60 0.60 0.11 0.04 0.05 0.04 0.06 0.06 0.05 0.04 0.07 0.13 0.21 0.20 0.16 0.25 0.22 0.12 0.18 0.35 0.32 0.14 0.06 0.01 0.01 0.04 0.02 0.02 0.01 0.00 0.00 0.00 0.00 0.02 0.06 0.07 0.11 0.12 0.10 0.18 0.23 0.21
3.80 3.90 2.57 1.94 2.16 2.44 2.78 3.30 3.53 3.15 2.66 2.26 0.94 0.13 0.03 0.05 0.08 0.08 0.09 0.15 0.17 0.26 0.41 0.53 0.48 0.21 0.22 0.23 0.09 0.05 0.18 0.16 0.07 0.03 0.02 0.01 0.01 0.05 0.05 0.02 0.02 0.02 0.03 0.04 0.03 0.06 0.10 0.10 0.14 0.19 0.14 0.09 0.10 0.16
3.37 2.13 1.85 2.13 2.53 2.99 3.97 3.77 3.35 3.27 2.47 0.99 0.26 0.05 0.03 0.03 0.06 0.07 0.06 0.06 0.21 0.48 0.75 1.07 0.66 0.49 0.17 0.06 0.02 0.02 0.02 0.03 0.02 0.01 0.00 0.00 0.00 0.02 0.04 0.02 0.01 0.04 0.08 0.21 0.23 0.18 0.15 0.16 0.16 0.14 0.12 0.09 0.07 0.08
2.62 1.91 2.10 2.25 2.66 3.21 3.71 3.47 2.80 2.24 0.82 0.23 0.07 0.06 0.06 0.02 0.01 0.03 0.03 0.04 0.06 0.18 0.62 1.11 1.05 0.45 0.03 0.00 0.01 0.01 0.00 0.00 0.00 0.00 0.01 0.00 0.00 0.02 0.06 0.08 0.08 0.06 0.07 0.13 0.13 0.10 0.08 0.06 0.05 0.07 0.09 0.09 0.06 0.05
3.55 3.47 3.09 3.26 2.98 3.25 3.43 3.03 1.86 0.94 0.44 0.16 0.12 0.12 0.07 0.04 0.04 0.05 0.07 0.11 0.14 0.44 0.93 0.85 0.29 0.05 0.03 0.04 0.07 0.05 0.02 0.01 0.01 0.01 0.01 0.01 0.00 0.00 0.00 0.02 0.05 0.05 0.05 0.05 0.06 0.07 0.07 0.05 0.05 0.06 0.08 0.09 0.07 0.07
5.04 4.68 4.62 4.47 4.63 3.99 3.03 1.88 1.08 0.51 0.24 0.18 0.21 0.13 0.16 0.14 0.15 0.15 0.18 0.22 0.61 0.85 0.45 0.08 0.02 0.03 0.04 0.05 0.06 0.05 0.03 0.02 0.01 0.01 0.00 0.00 0.00 0.00 0.00 0.00 0.01 0.02 0.02 0.02 0.01 0.02 0.04 0.03 0.05 0.07 0.05 0.05 0.09 0.10
4.41 4.19 5.66 5.76 4.87 4.15 2.82 1.45 0.70 0.48 0.29 0.30 0.26 0.25 0.30 0.28 0.25 0.27 0.27 0.56 0.61 0.17 0.02 0.02 0.04 0.05 0.05 0.06 0.07 0.07 0.05 0.02 0.01 0.01 0.00 0.00 0.00 0.00 0.00 0.00 0.01 0.00 0.00 0.00 0.00 0.00 0.01 0.01 0.03 0.03 0.03 0.05 0.09 0.10
3.91 4.50 4.77 4.65 4.24 3.55 2.27 1.01 0.53 0.45 0.36 0.39 0.33 0.35 0.33 0.26 0.24 0.26 0.39 0.29 0.11 0.01 0.01 0.03 0.05 0.08 0.11 0.10 0.14 0.12 0.11 0.08 0.04 0.02 0.01 0.01 0.00 0.00 0.01 0.00 0.00 0.00 0.00 0.00 0.00 0.00 0.01 0.01 0.01 0.01 0.02 0.05 0.06 0.08
3.70 4.64 4.90 4.43 3.14 2.27 1.56 1.21 0.87 0.56 0.60 0.45 0.37 0.29 0.18 0.16 0.25 0.31 0.23 0.05 0.01 0.00 0.02 0.05 0.05 0.05 0.06 0.07 0.10 0.17 0.23 0.21 0.15 0.11 0.07 0.04 0.02 0.01 0.02 0.01 0.00 0.00 0.00 0.00 0.00 0.00 0.00 0.00 0.00 0.00 0.00 0.01 0.02 0.04
5.37 5.88 4.44 3.77 2.28 1.21 0.80 0.63 0.49 0.40 0.37 0.28 0.22 0.18 0.15 0.19 0.25 0.28 0.10 0.02 0.02 0.04 0.06 0.09 0.07 0.06 0.06 0.06 0.07 0.08 0.11 0.19 0.21 0.19 0.18 0.18 0.13 0.11 0.06 0.03 0.02 0.01 0.00 0.00 0.00 0.00 0.00 0.00 0.00 0.00 0.00 0.00 0.02 0.04
4.98 3.19 2.12 1.10 0.70 0.32 0.25 0.26 0.25 0.17 0.14 0.19 0.21 0.17 0.17 0.30 0.41 0.23 0.05 0.03 0.04 0.05 0.06 0.07 0.05 0.04 0.06 0.07 0.08 0.09 0.09 0.14 0.17 0.15 0.12 0.19 0.21 0.21 0.16 0.13 0.08 0.04 0.02 0.04 0.04 0.03 0.02 0.01 0.01 0.01 0.01 0.01 0.04 0.10
3.83 2.42 1.07 0.29 0.18 0.18 0.17 0.13 0.13 0.16 0.21 0.21 0.17 0.17 0.30 0.49 0.24 0.06 0.05 0.04 0.02 0.01 0.02 0.04 0.08 0.07 0.05 0.06 0.05 0.06 0.10 0.15 0.16 0.12 0.12 0.15 0.14 0.15 0.16 0.14 0.12 0.09 0.10 0.11 0.12 0.11 0.08 0.06 0.04 0.04 0.05 0.05 0.04 0.05
1.82 0.61 0.35 0.32 0.26 0.22 0.27 0.23 0.22 0.21 0.20 0.17 0.20 0.27 0.38 0.25 0.07 0.02 0.01 0.01 0.02 0.04 0.10 0.15 0.14 0.12 0.12 0.13 0.10 0.10 0.14 0.15 0.16 0.14 0.14 0.15 0.14 0.13 0.14 0.16 0.22 0.28 0.28 0.21 0.16 0.17 0.18 0.17 0.14 0.14 0.16 0.13 0.10 0.08
0.47 0.20 0.15 0.22 0.21 0.20 0.20 0.17 0.13 0.09 0.08 0.10 0.11 0.09 0.08 0.01 0.00 0.00 0.00 0.00 0.00 0.03 0.10 0.13 0.13 0.14 0.13 0.11 0.09 0.09 0.09 0.12 0.14 0.11 0.09 0.09 0.13 0.16 0.20 0.27 0.35 0.42 0.41 0.37 0.32 0.25 0.25 0.27 0.34 0.38 0.37 0.35 0.29 0.27
0.11 0.06 0.09 0.12 0.16 0.17 0.12 0.12 0.12 0.13 0.14 0.12 0.10 0.07 0.05 0.04 0.04 0.02 0.01 0.01 0.01 0.00 0.01 0.02 0.01 0.02 0.03 0.04 0.05 0.06 0.06 0.07 0.10 0.10 0.10 0.10 0.12 0.18 0.24 0.29 0.37 0.46 0.46 0.43 0.52 0.58 0.53 0.53 0.57 0.56 0.53 0.48 0.40 0.35
0.01 0.01 0.03 0.06 0.07 0.06 0.07 0.07 0.05 0.05 0.08 0.08 0.07 0.10 0.09 0.07 0.06 0.04 0.02 0.00 0.01 0.01 0.01 0.01 0.01 0.02 0.03 0.04 0.06 0.09 0.09 0.11 0.14 0.14 0.15 0.18 0.20 0.23 0.28 0.34 0.38 0.45 0.53 0.56 0.50 0.47 0.45 0.40 0.37 0.36 0.34 0.32 0.29 0.28
0.04 0.04 0.03 0.05 0.10 0.11 0.10 0.07 0.03 0.02 0.02 0.03 0.03 0.05 0.06 0.05 0.03 0.01 0.00 0.00 0.01 0.01 0.01 0.02 0.03 0.05 0.06 0.08 0.11 0.14 0.18 0.18 0.18 0.19 0.21 0.22 0.24 0.27 0.32 0.39 0.46 0.49 0.53 0.55 0.51 0.47 0.43 0.45 0.47 0.43 0.44 0.44 0.42 0.37
0.16 0.13 0.12 0.13 0.16 0.19 0.15 0.10 0.09 0.08 0.08 0.04 0.02 0.02 0.02 0.01 0.01 0.00 0.00 0.00 0.01 0.03 0.04 0.06 0.09 0.12 0.15 0.16 0.19 0.23 0.26 0.29 0.31 0.34 0.38 0.37 0.36 0.41 0.50 0.54 0.53 0.52 0.49 0.48 0.50 0.52 0.53 0.52 0.50 0.44 0.42 0.41 0.41 0.38

GFSWCAN_prec_precacc_156.txt.gz
Total_Precipitation_Accumulation
1.30 1.24 1.19 1.22 1.31 1.19 1.13 1.14 1.12 1.03 0.81 0.56 0.60 0.43 0.36 0.29 0.12 0.04 0.06 0.09 0.22 0.12 0.02 0.00 0.00 0.01 0.01 0.02 0.03 0.01 0.02 0.02 0.06 0.14 0.13 0.07 0.03 0.01 0.00 0.00 0.00 0.02 0.04 0.06 0.07 0.09 0.01 0.00 0.00 0.00 0.00 0.00 0.00 0.00
1.22 1.36 1.38 1.34 1.30 1.20 1.15 1.19 1.34 1.34 1.17 0.96 0.75 0.41 0.29 0.20 0.13 0.07 0.04 0.08 0.15 0.14 0.04 0.00 0.00 0.00 0.00 0.01 0.01 0.00 0.03 0.01 0.04 0.12 0.16 0.10 0.04 0.01 0.00 0.00 0.00 0.00 0.00 0.00 0.00 0.00 0.00 0.00 0.00 0.00 0.00 0.00 0.00 0.01
0.96 1.16 1.31 1.45 1.66 1.61 1.37 1.18 1.05 0.99 0.92 0.84 0.72 0.46 0.27 0.21 0.17 0.23 0.10 0.04 0.10 0.13 0.02 0.00 0.01 0.00 0.00 0.00 0.01 0.01 0.02 0.01 0.04 0.12 0.26 0.11 0.06 0.04 0.02 0.01 0.00 0.00 0.00 0.00 0.00 0.00 0.00 0.00 0.00 0.00 0.00 0.00 0.00 0.02
0.98 0.93 1.14 1.23 1.53 1.75 1.64 1.59 1.57 1.31 1.02 0.86 0.60 0.35 0.23 0.18 0.22 0.17 0.05 0.06 0.12 0.12 0.10 0.02 0.00 0.00 0.00 0.00 0.01 0.02 0.04 0.02 0.08 0.16 0.18 0.14 0.06 0.03 0.02 0.01 0.00 0.01 0.00 0.00 0.00 0.00 0.00 0.00 0.00 0.00 0.00 0.00 0.00 0.00
0.87 1.09 1.11 1.15 1.15 1.46 2.15 1.94 1.40 1.26 1.41 1.22 0.70 0.37 0.25 0.20 0.11 0.06 0.02 0.04 0.08 0.16 0.20 0.05 0.05 0.00 0.00 0.01 0.04 0.04 0.08 0.15 0.15 0.27 0.31 0.16 0.07 0.05 0.01 0.00 0.00 0.00 0.00 0.00 0.00 0.00 0.00 0.00 0.00 0.00 0.00 0.00 0.00 0.00
0.76 0.86 1.36 1.33 1.07 1.07 1.32 1.91 1.56 1.28 1.40 1.50 0.88 0.62 0.43 0.17 0.12 0.07 0.08 0.23 0.16 0.16 0.38 0.18 0.23 0.03 0.03 0.05 0.14 0.15 0.17 0.30 0.40 0.30 0.28 0.28 0.14 0.15 0.12 0.03 0.00 0.00 0.00 0.00 0.00 0.00 0.00 0.00 0.00 0.00 0.00 0.00 0.00 0.00
0.85 0.75 0.91 1.50 1.37 1.11 1.15 1.38 1.35 1.18 1.21 1.14 1.03 0.77 0.59 0.43 0.23 0.08 0.13 0.56 0.28 0.21 0.34 0.41 0.58 0.15 0.13 0.21 0.20 0.41 0.29 0.47 0.50 0.46 0.29 0.21 0.22 0.48 0.31 0.05 0.00 0.00 0.00 0.00 0.00 0.00 0.00 0.00 0.00 0.00 0.00 0.00 0.00 0.00
1.15 0.91 0.82 1.10 1.38 1.08 1.08 1.25 0.97 1.00 1.19 1.19 1.24 0.99 1.00 1.12 0.88 0.39 0.04 0.10 0.28 0.64 0.61 0.89 0.88 0.45 0.49 0.56 0.44 0.55 0.56 0.66 0.74 0.61 0.28 0.29 0.27 0.34 0.20 0.01 0.01 0.02 0.01 0.01 0.01 0.00 0.00 0.00 0.00 0.00 0.00 0.00 0.00 0.00
1.19 1.12 0.82 0.83 1.13 0.91 0.97 1.19 0.87 0.87 1.06 1.27 1.73 2.28 2.12 1.29 0.65 0.36 0.24 0.19 0.46 0.91 0.79 0.70 0.67 0.62 0.68 0.67 0.65 0.56 0.82 0.72 0.65 0.49 0.19 0.27 0.35 0.32 0.07 0.04 0.05 0.08 0.14 0.16 0.17 0.11 0.05 0.02 0.02 0.02 0.02 0.01 0.01 0.02
1.21 1.23 0.88 0.95 1.01 0.84 0.97 0.96 0.84 0.94 1.40 2.04 2.94 2.90 1.72 0.58 0.21 0.30 0.91 1.14 1.05 0.78 0.51 0.53 0.61 0.67 0.88 0.67 0.56 0.61 0.64 0.50 0.60 0.31 0.22 0.23 0.16 0.07 0.05 0.07 0.08 0.08 0.19 0.26 0.33 0.36 0.30 0.18 0.06 0.04 0.07 0.10 0.09 0.08
1.14 1.24 1.02 1.10 1.00 0.83 0.98 0.86 0.85 1.43 2.34 2.67 2.62 1.74 0.74 0.43 0.63 1.30 1.47 1.10 0.72 0.44 0.31 0.37 0.52 0.47 0.41 0.52 0.48 0.57 0.74 0.40 0.45 0.55 0.30 0.24 0.22 0.15 0.07 0.03 0.02 0.02 0.05 0.09 0.15 0.32 0.38 0.26 0.22 0.12 0.11 0.17 0.24 0.23
1.15 1.18 1.09 1.23 1.01 0.90 1.01 1.01 1.24 1.56 1.83 1.89 1.56 1.28 1.30 1.30 1.63 1.59 1.26 0.63 0.26 0.16 0.21 0.38 0.37 0.35 0.26 0.30 0.39 0.39 0.44 0.36 0.41 0.56 0.42 0.30 0.27 0.12 0.15 0.15 0.09 0.05 0.10 0.06 0.09 0.13 0.14 0.12 0.16 0.18 0.13 0.13 0.15 0.24
1.32 1.19 1.13 1.37 1.17 1.07 1.02 1.12 1.41 1.46 1.43 1.62 2.09 2.43 2.45 2.40 1.79 1.09 0.55 0.35 0.08 0.07 0.10 0.11 0.21 0.21 0.27 0.33 0.27 0.29 0.21 0.10 0.21 0.38 0.45 0.20 0.03 0.03 0.02 0.03 0.10 0.23 0.32 0.24 0.11 0.15 0.16 0.17 0.15 0.12 0.13 0.11 0.08 0.07
1.53 1.36 1.34 1.51 1.27 1.09 1.18 1.54 2.09 1.96 1.62 2.17 2.45 2.47 1.74 1.50 0.49 0.24 0.15 0.12 0.05 0.04 0.03 0.05 0.10 0.16 0.30 0.29 0.34 0.25 0.08 0.09 0.26 0.29 0.17 0.06 0.06 0.03 0.00 0.00 0.00 0.03 0.13 0.29 0.35 0.41 0.39 0.46 0.43 0.44 0.45 0.40 0.31 0.24
1.84 1.61 1.73 1.79 1.43 1.33 1.67 2.25 2.16 1.64 2.02 2.31 2.07 1.39 0.81 0.25 0.11 0.08 0.08 0.07 0.03 0.04 0.05 0.03 0.06 0.08 0.21 0.37 0.26 0.24 0.17 0.33 0.38 0.21 0.14 0.08 0.03 0.01 0.01 0.01 0.00 0.00 0.01 0.01 0.07 0.24 0.32 0.38 0.49 0.44 0.39 0.31 0.23 0.21
2.49 2.97 2.80 2.17 1.70 1.90 2.39 2.79 2.89 2.47 2.66 2.26 1.61 0.63 0.12 0.06 0.07 0.07 0.09 0.10 0.06 0.05 0.09 0.16 0.25 0.24 0.20 0.30 0.25 0.13 0.18 0.35 0.32 0.14 0.06 0.01 0.01 0.04 0.02 0.02 0.01 0.00 0.00 0.00 0.00 0.02 0.06 0.07 0.11 0.12 0.10 0.18 0.23 0.21
3.81 3.90 2.58 1.95 2.16 2.44 2.78 3.31 3.53 3.15 2.66 2.26 0.95 0.14 0.04 0.09 0.13 0.10 0.11 0.18 0.22 0.34 0.50 0.61 0.55 0.25 0.24 0.24 0.09 0.05 0.18 0.16 0.07 0.03 0.02 0.01 0.01 0.05 0.05 0.02 0.02 0.02 0.03 0.04 0.03 0.06 0.10 0.10 0.14 0.19 0.14 0.09 0.10 0.16
3.38 2.13 1.86 2.13 2.53 2.99 3.97 3.77 3.36 3.27 2.47 1.00 0.26 0.05 0.03 0.04 0.08 0.09 0.06 0.07 0.27 0.57 0.85 1.14 0.70 0.52 0.19 0.07 0.02 0.02 0.02 0.03 0.02 0.01 0.00 0.00 0.00 0.02 0.04 0.02 0.01 0.04 0.08 0.21 0.23 0.18 0.15 0.16 0.16 0.14 0.12 0.09 0.07 0.08
2.62 1.92 2.13 2.26 2.66 3.21 3.71 3.47 2.80 2.24 0.82 0.23 0.07 0.06 0.06 0.02 0.01 0.03 0.03 0.04 0.06 0.19 0.63 1.13 1.09 0.47 0.03 0.01 0.01 0.01 0.00 0.00 0.00 0.00 0.01 0.00 0.00 0.02 0.06 0.08 0.08 0.06 0.07 0.13 0.13 0.10 0.08 0.06 0.05 0.07 0.09 0.09 0.06 0.05
3.58 3.50 3.14 3.28 2.98 3.25 3.43 3.03 1.87 0.94 0.44 0.16 0.12 0.12 0.07 0.04 0.04 0.05 0.07 0.11 0.14 0.44 0.93 0.85 0.29 0.05 0.03 0.05 0.07 0.06 0.02 0.01 0.01 0.01 0.01 0.01 0.00 0.00 0.00 0.02 0.05 0.05 0.05 0.05 0.06 0.07 0.07 0.05 0.05 0.06 0.08 0.09 0.07 0.07
5.10 4.71 4.64 4.47 4.63 3.99 3.03 1.88 1.08 0.51 0.24 0.18 0.21 0.13 0.16 0.14 0.15 0.15 0.18 0.22 0.61 0.85 0.45 0.08 0.02 0.03 0.04 0.05 0.06 0.05 0.03 0.02 0.01 0.01 0.00 0.00 0.00 0.00 0.00 0.00 0.01 0.02 0.02 0.02 0.01 0.02 0.04 0.03 0.05 0.07 0.05 0.05 0.09 0.10
4.52 4.20 5.66 5.76 4.87 4.15 2.82 1.45 0.70 0.48 0.29 0.30 0.26 0.25 0.30 0.28 0.25 0.27 0.27 0.56 0.61 0.17 0.02 0.02 0.04 0.05 0.05 0.06 0.07 0.07 0.05 0.02 0.01 0.01 0.00 0.00 0.00 0.00 0.00 0.00 0.01 0.00 0.00 0.00 0.00 0.00 0.01 0.01 0.03 0.03 0.03 0.05 0.09 0.11
3.96 4.52 4.77 4.65 4.24 3.55 2.27 1.01 0.54 0.45 0.36 0.40 0.33 0.35 0.33 0.26 0.24 0.26 0.39 0.29 0.11 0.01 0.01 0.03 0.05 0.08 0.11 0.10 0.14 0.12 0.11 0.08 0.04 0.02 0.01 0.01 0.00 0.00 0.01 0.00 0.00 0.00 0.00 0.00 0.00 0.00 0.01 0.01 0.01 0.01 0.02 0.05 0.06 0.08
3.70 4.67 4.92 4.43 3.14 2.27 1.56 1.21 0.87 0.57 0.60 0.46 0.37 0.29 0.18 0.16 0.25 0.31 0.23 0.05 0.01 0.00 0.02 0.05 0.05 0.05 0.06 0.07 0.10 0.17 0.23 0.21 0.15 0.11 0.07 0.04 0.02 0.01 0.02 0.01 0.00 0.00 0.00 0.00 0.00 0.00 0.00 0.00 0.00 0.00 0.00 0.01 0.02 0.04
5.37 5.88 4.44 3.78 2.28 1.21 0.80 0.63 0.50 0.41 0.37 0.28 0.22 0.19 0.15 0.19 0.25 0.28 0.10 0.02 0.02 0.04 0.06 0.09 0.07 0.06 0.06 0.06 0.07 0.08 0.11 0.19 0.21 0.19 0.18 0.18 0.13 0.11 0.06 0.03 0.02 0.01 0.00 0.00 0.00 0.00 0.00 0.00 0.00 0.00 0.00 0.00 0.02 0.04
4.98 3.20 2.12 1.10 0.71 0.32 0.25 0.26 0.25 0.17 0.14 0.19 0.21 0.17 0.17 0.30 0.42 0.23 0.05 0.03 0.04 0.05 0.06 0.07 0.05 0.04 0.06 0.07 0.08 0.09 0.09 0.14 0.17 0.15 0.12 0.19 0.21 0.21 0.16 0.13 0.08 0.04 0.02 0.04 0.04 0.03 0.02 0.01 0.01 0.01 0.01 0.02 0.05 0.10
3.84 2.43 1.07 0.30 0.18 0.19 0.18 0.14 0.13 0.16 0.22 0.21 0.17 0.17 0.30 0.50 0.24 0.06 0.05 0.04 0.02 0.01 0.02 0.05 0.09 0.07 0.05 0.06 0.06 0.07 0.10 0.15 0.16 0.12 0.12 0.15 0.14 0.15 0.16 0.14 0.12 0.09 0.10 0.11 0.12 0.11 0.08 0.06 0.05 0.04 0.05 0.05 0.04 0.05
1.86 0.64 0.38 0.35 0.29 0.25 0.30 0.24 0.22 0.22 0.20 0.18 0.20 0.27 0.38 0.25 0.07 0.02 0.01 0.01 0.02 0.04 0.10 0.17 0.16 0.14 0.14 0.15 0.13 0.12 0.15 0.15 0.16 0.14 0.14 0.15 0.14 0.13 0.14 0.16 0.22 0.28 0.28 0.21 0.16 0.18 0.19 0.17 0.14 0.14 0.16 0.13 0.10 0.08
0.50 0.22 0.17 0.24 0.24 0.22 0.21 0.17 0.14 0.09 0.09 0.11 0.12 0.10 0.08 0.01 0.00 0.00 0.00 0.00 0.00 0.03 0.10 0.19 0.18 0.19 0.19 0.16 0.12 0.11 0.09 0.12 0.14 0.11 0.09 0.09 0.13 0.16 0.20 0.27 0.35 0.42 0.41 0.37 0.32 0.25 0.25 0.27 0.34 0.38 0.37 0.35 0.29 0.27
0.12 0.06 0.10 0.13 0.17 0.18 0.13 0.13 0.14 0.15 0.16 0.14 0.11 0.08 0.05 0.04 0.04 0.03 0.01 0.02 0.01 0.00 0.01 0.02 0.01 0.03 0.05 0.04 0.05 0.06 0.07 0.07 0.10 0.10 0.10 0.10 0.12 0.18 0.24 0.29 0.37 0.46 0.46 0.43 0.52 0.58 0.53 0.53 0.57 0.56 0.53 0.48 0.40 0.35
0.01 0.01 0.03 0.06 0.07 0.07 0.08 0.08 0.06 0.06 0.10 0.10 0.09 0.12 0.10 0.09 0.09 0.07 0.03 0.01 0.01 0.01 0.01 0.01 0.01 0.02 0.03 0.04 0.06 0.09 0.09 0.11 0.14 0.14 0.15 0.18 0.20 0.23 0.28 0.34 0.38 0.45 0.53 0.56 0.50 0.47 0.45 0.40 0.37 0.36 0.34 0.32 0.29 0.28
0.04 0.04 0.03 0.05 0.10 0.11 0.10 0.07 0.03 0.02 0.02 0.04 0.06 0.08 0.09 0.07 0.05 0.01 0.00 0.00 0.01 0.01 0.01 0.02 0.04 0.05 0.07 0.08 0.11 0.14 0.18 0.18 0.18 0.19 0.21 0.22 0.24 0.27 0.32 0.39 0.46 0.49 0.53 0.55 0.51 0.47 0.43 0.45 0.47 0.43 0.44 0.44 0.42 0.37
0.16 0.13 0.12 0.13 0.16 0.19 0.15 0.10 0.09 0.08 0.08 0.04 0.03 0.04 0.04 0.03 0.01 0.00 0.00 0.00 0.01 0.03 0.04 0.06 0.09 0.13 0.15 0.16 0.19 0.23 0.26 0.29 0.31 0.34 0.38 0.37 0.36 0.41 0.50 0.54 0.53 0.52 0.49 0.48 0.50 0.52 0.53 0.52 0.50 0.44 0.42 0.41 0.41 0.38

GFSWCAN_prec_precacc_159.txt.gz
Total_Precipitation_Accumulation
1.30 1.25 1.20 1.25 1.32 1.19 1.14 1.17 1.19 1.25 1.15 0.80 0.67 0.44 0.36 0.29 0.13 0.04 0.06 0.09 0.22 0.12 0.02 0.00 0.00 0.01 0.01 0.02 0.03 0.01 0.02 0.02 0.06 0.14 0.13 0.07 0.03 0.01 0.00 0.00 0.00 0.02 0.04 0.06 0.07 0.09 0.01 0.00 0.00 0.00 0.00 0.00 0.00 0.00
1.22 1.36 1.39 1.36 1.33 1.21 1.15 1.20 1.35 1.38 1.32 1.24 0.89 0.41 0.30 0.20 0.13 0.07 0.04 0.08 0.15 0.14 0.04 0.00 0.00 0.00 0.00 0.01 0.01 0.00 0.03 0.01 0.04 0.12 0.16 0.10 0.04 0.01 0.00 0.00 0.00 0.00 0.00 0.00 0.00 0.00 0.00 0.00 0.00 0.00 0.00 0.00 0.00 0.01
0.96 1.16 1.31 1.45 1.67 1.62 1.37 1.18 1.06 0.99 0.96 0.97 0.91 0.51 0.27 0.21 0.17 0.23 0.10 0.04 0.10 0.13 0.02 0.00 0.01 0.00 0.00 0.00 0.01 0.01 0.02 0.01 0.04 0.12 0.26 0.11 0.06 0.04 0.02 0.01 0.00 0.00 0.00 0.00 0.00 0.00 0.00 0.00 0.00 0.00 0.00 0.00 0.00 0.02
0.98 0.93 1.14 1.23 1.53 1.76 1.64 1.59 1.57 1.31 1.04 0.93 0.79 0.46 0.24 0.18 0.22 0.17 0.05 0.06 0.12 0.12 0.10 0.02 0.00 0.00 0.00 0.00 0.01 0.02 0.04 0.02 0.08 0.16 0.18 0.14 0.06 0.03 0.02 0.01 0.00 0.01 0.00 0.00 0.00 0.00 0.00 0.00 0.00 0.00 0.00 0.00 0.00 0.00
0.87 1.09 1.11 1.15 1.15 1.46 2.15 1.95 1.40 1.26 1.42 1.25 0.91 0.53 0.34 0.21 0.12 0.06 0.02 0.04 0.08 0.16 0.20 0.05 0.05 0.00 0.00 0.01 0.04 0.04 0.08 0.15 0.15 0.27 0.31 0.16 0.07 0.05 0.01 0.00 0.00 0.00 0.00 0.00 0.00 0.00 0.00 0.00 0.00 0.00 0.00 0.00 0.00 0.00
0.76 0.86 1.36 1.33 1.07 1.07 1.32 1.91 1.56 1.28 1.40 1.51 0.99 0.86 0.58 0.25 0.18 0.09 0.11 0.24 0.16 0.16 0.38 0.18 0.23 0.03 0.03 0.05 0.14 0.15 0.17 0.30 0.40 0.30 0.28 0.28 0.14 0.15 0.12 0.03 0.00 0.00 0.00 0.00 0.00 0.00 0.00 0.00 0.00 0.00 0.00 0.00 0.00 0.00
0.86 0.76 0.91 1.50 1.37 1.11 1.15 1.38 1.35 1.18 1.22 1.15 1.10 1.02 0.85 0.57 0.35 0.18 0.15 0.56 0.28 0.21 0.34 0.41 0.58 0.15 0.13 0.21 0.20 0.41 0.29 0.47 0.50 0.46 0.29 0.21 0.22 0.48 0.31 0.05 0.00 0.00 0.00 0.00 0.00 0.00 0.00 0.00 0.00 0.00 0.00 0.00 0.00 0.00
1.15 0.92 0.83 1.10 1.38 1.08 1.08 1.25 0.97 1.00 1.19 1.20 1.37 1.30 1.44 1.46 1.15 0.59 0.09 0.10 0.28 0.64 0.61 0.89 0.88 0.45 0.49 0.56 0.44 0.55 0.56 0.66 0.74 0.61 0.28 0.29 0.27 0.34 0.20 0.01 0.01 0.02 0.01 0.01 0.01 0.00 0.00 0.00 0.00 0.00 0.00 0.00 0.00 0.00
1.19 1.13 0.84 0.84 1.13 0.91 0.97 1.19 0.87 0.87 1.06 1.31 1.90 2.74 2.73 1.77 0.93 0.53 0.35 0.24 0.47 0.91 0.79 0.70 0.67 0.62 0.68 0.67 0.65 0.56 0.82 0.72 0.65 0.49 0.19 0.27 0.35 0.32 0.07 0.04 0.05 0.08 0.14 0.16 0.17 0.11 0.05 0.02 0.02 0.02 0.02 0.01 0.01 0.02
1.22 1.23 0.89 0.97 1.01 0.84 0.97 0.96 0.84 0.94 1.41 2.11 3.15 3.26 2.00 0.75 0.27 0.41 1.13 1.38 1.26 0.87 0.52 0.53 0.61 0.67 0.88 0.67 0.56 0.61 0.64 0.50 0.60 0.31 0.22 0.23 0.16 0.07 0.05 0.07 0.08 0.08 0.19 0.26 0.33 0.36 0.30 0.18 0.06 0.04 0.07 0.10 0.09 0.08
1.14 1.24 1.02 1.12 1.01 0.83 0.98 0.86 0.85 1.43 2.36 2.76 2.76 1.88 0.85 0.59 0.78 1.54 1.69 1.28 0.85 0.50 0.33 0.37 0.52 0.47 0.41 0.52 0.48 0.57 0.74 0.40 0.45 0.55 0.30 0.24 0.22 0.15 0.07 0.03 0.02 0.02 0.05 0.09 0.15 0.32 0.38 0.26 0.22 0.12 0.11 0.17 0.24 0.23
1.15 1.18 1.09 1.25 1.02 0.90 1.01 1.01 1.24 1.56 1.86 2.02 1.68 1.42 1.53 1.53 1.87 1.78 1.39 0.69 0.28 0.16 0.21 0.38 0.37 0.35 0.26 0.30 0.39 0.39 0.44 0.36 0.41 0.56 0.42 0.30 0.27 0.12 0.15 0.15 0.09 0.05 0.10 0.06 0.09 0.13 0.14 0.12 0.16 0.18 0.13 0.13 0.15 0.24
1.33 1.19 1.14 1.39 1.17 1.07 1.02 1.12 1.42 1.47 1.46 1.75 2.24 2.63 2.69 2.64 1.98 1.17 0.59 0.37 0.09 0.07 0.10 0.11 0.21 0.21 0.27 0.33 0.29 0.30 0.23 0.12 0.21 0.38 0.45 0.20 0.03 0.03 0.02 0.03 0.10 0.23 0.32 0.24 0.11 0.15 0.16 0.17 0.15 0.12 0.13 0.11 0.08 0.07
1.53 1.36 1.37 1.52 1.27 1.09 1.18 1.54 2.09 1.97 1.63 2.26 2.54 2.59 1.87 1.63 0.56 0.27 0.16 0.13 0.05 0.04 0.03 0.05 0.10 0.16 0.31 0.32 0.42 0.29 0.12 0.10 0.26 0.29 0.17 0.06 0.06 0.03 0.00 0.00 0.00 0.03 0.13 0.29 0.35 0.41 0.39 0.46 0.43 0.44 0.45 0.40 0.31 0.24
1.84 1.61 1.77 1.79 1.43 1.33 1.67 2.25 2.16 1.64 2.02 2.35 2.14 1.48 0.88 0.31 0.13 0.09 0.10 0.08 0.03 0.04 0.05 0.03 0.07 0.09 0.22 0.41 0.30 0.26 0.19 0.33 0.38 0.21 0.14 0.08 0.03 0.01 0.01 0.01 0.00 0.00 0.01 0.01 0.07 0.24 0.32 0.38 0.49 0.44 0.39 0.31 0.23 0.21
2.49 2.97 2.83 2.18 1.70 1.90 2.39 2.79 2.89 2.47 2.66 2.26 1.65 0.67 0.15 0.09 0.09 0.08 0.11 0.11 0.07 0.05 0.09 0.18 0.27 0.26 0.21 0.31 0.25 0.14 0.19 0.35 0.32 0.14 0.06 0.01 0.01 0.04 0.02 0.02 0.01 0.00 0.00 0.00 0.00 0.02 0.06 0.07 0.11 0.12 0.10 0.18 0.23 0.21
3.81 3.90 2.59 1.96 2.16 2.44 2.78 3.31 3.53 3.15 2.66 2.26 0.95 0.15 0.08 0.13 0.15 0.12 0.13 0.20 0.25 0.37 0.54 0.64 0.58 0.27 0.26 0.25 0.10 0.05 0.18 0.16 0.07 0.03 0.02 0.01 0.01 0.05 0.05 0.02 0.02 0.02 0.03 0.04 0.03 0.06 0.10 0.10 0.14 0.19 0.14 0.09 0.10 0.16
3.38 2.13 1.86 2.13 2.53 2.99 3.97 3.77 3.36 3.27 2.47 1.00 0.26 0.05 0.04 0.06 0.11 0.11 0.09 0.10 0.30 0.60 0.87 1.15 0.70 0.53 0.20 0.08 0.03 0.02 0.02 0.03 0.02 0.01 0.00 0.00 0.00 0.02 0.04 0.02 0.01 0.04 0.08 0.21 0.23 0.18 0.15 0.16 0.16 0.14 0.12 0.09 0.07 0.08
2.63 1.92 2.16 2.27 2.66 3.21 3.71 3.47 2.80 2.24 0.82 0.23 0.07 0.06 0.06 0.03 0.01 0.03 0.03 0.04 0.06 0.19 0.64 1.15 1.11 0.48 0.05 0.02 0.01 0.01 0.00 0.00 0.00 0.00 0.01 0.00 0.00 0.02 0.06 0.08 0.08 0.06 0.07 0.13 0.13 0.10 0.08 0.06 0.05 0.07 0.09 0.09 0.06 0.05
3.61 3.53 3.18 3.28 2.98 3.25 3.43 3.03 1.87 0.94 0.44 0.16 0.12 0.12 0.07 0.04 0.04 0.05 0.07 0.11 0.14 0.44 0.93 0.85 0.30 0.06 0.05 0.08 0.07 0.06 0.02 0.01 0.01 0.01 0.01 0.01 0.00 0.00 0.00 0.02 0.05 0.05 0.05 0.05 0.06 0.07 0.07 0.05 0.05 0.06 0.08 0.09 0.07 0.07
5.11 4.74 4.65 4.47 4.63 3.99 3.03 1.88 1.08 0.51 0.24 0.18 0.21 0.13 0.16 0.14 0.15 0.15 0.18 0.22 0.61 0.85 0.45 0.08 0.02 0.03 0.04 0.05 0.06 0.05 0.03 0.02 0.01 0.01 0.00 0.00 0.00 0.00 0.00 0.00 0.01 0.02 0.02 0.02 0.01 0.02 0.04 0.03 0.05 0.07 0.05 0.05 0.09 0.10
4.52 4.21 5.66 5.76 4.87 4.15 2.82 1.45 0.70 0.48 0.29 0.30 0.26 0.25 0.30 0.28 0.25 0.27 0.27 0.56 0.61 0.17 0.02 0.02 0.04 0.05 0.05 0.06 0.07 0.07 0.05 0.02 0.01 0.01 0.00 0.00 0.00 0.00 0.00 0.00 0.01 0.00 0.00 0.00 0.00 0.00 0.01 0.01 0.03 0.03 0.03 0.05 0.09 0.11
3.97 4.53 4.77 4.65 4.24 3.55 2.27 1.01 0.54 0.45 0.36 0.40 0.33 0.35 0.33 0.26 0.24 0.26 0.39 0.29 0.11 0.01 0.01 0.03 0.05 0.08 0.11 0.10 0.14 0.12 0.11 0.08 0.04 0.02 0.01 0.01 0.00 0.00 0.01 0.00 0.00 0.00 0.00 0.00 0.00 0.00 0.01 0.01 0.01 0.01 0.02 0.05 0.06 0.08
3.71 4.69 4.92 4.43 3.14 2.27 1.56 1.22 0.88 0.57 0.60 0.46 0.37 0.29 0.18 0.16 0.25 0.31 0.23 0.05 0.01 0.00 0.02 0.05 0.05 0.05 0.06 0.07 0.10 0.17 0.23 0.21 0.15 0.11 0.07 0.04 0.02 0.01 0.02 0.01 0.00 0.00 0.00 0.00 0.00 0.00 0.00 0.00 0.00 0.00 0.00 0.01 0.02 0.04
5.38 5.90 4.44 3.78 2.28 1.21 0.81 0.64 0.50 0.41 0.37 0.28 0.22 0.19 0.15 0.19 0.25 0.28 0.10 0.02 0.02 0.04 0.06 0.09 0.07 0.06 0.06 0.06 0.07 0.08 0.11 0.19 0.21 0.19 0.18 0.18 0.13 0.11 0.06 0.03 0.02 0.01 0.00 0.00 0.00 0.00 0.00 0.00 0.00 0.00 0.00 0.00 0.02 0.04
4.98 3.20 2.12 1.10 0.71 0.32 0.25 0.26 0.25 0.18 0.15 0.19 0.21 0.18 0.18 0.31 0.42 0.23 0.05 0.03 0.04 0.05 0.06 0.07 0.05 0.05 0.06 0.07 0.08 0.09 0.09 0.14 0.17 0.15 0.12 0.19 0.21 0.21 0.16 0.13 0.08 0.04 0.02 0.04 0.04 0.03 0.02 0.01 0.01 0.01 0.01 0.02 0.05 0.10
3.84 2.43 1.08 0.30 0.18 0.19 0.18 0.14 0.13 0.16 0.22 0.21 0.17 0.17 0.31 0.50 0.24 0.06 0.05 0.04 0.02 0.01 0.02 0.05 0.10 0.08 0.06 0.06 0.06 0.07 0.10 0.15 0.16 0.12 0.12 0.15 0.14 0.15 0.16 0.14 0.12 0.09 0.10 0.11 0.12 0.11 0.08 0.06 0.05 0.04 0.05 0.05 0.04 0.05
1.87 0.65 0.40 0.37 0.31 0.26 0.31 0.25 0.23 0.22 0.20 0.18 0.21 0.27 0.38 0.25 0.07 0.02 0.01 0.01 0.02 0.04 0.10 0.17 0.17 0.15 0.15 0.16 0.14 0.13 0.16 0.16 0.16 0.14 0.14 0.15 0.14 0.13 0.14 0.16 0.22 0.28 0.28 0.21 0.16 0.18 0.19 0.17 0.14 0.14 0.16 0.13 0.10 0.08
0.53 0.25 0.19 0.27 0.27 0.24 0.22 0.18 0.14 0.09 0.09 0.11 0.12 0.10 0.08 0.02 0.01 0.01 0.01 0.00 0.00 0.03 0.10 0.20 0.18 0.20 0.22 0.17 0.13 0.14 0.12 0.14 0.14 0.11 0.09 0.09 0.13 0.16 0.20 0.27 0.35 0.42 0.41 0.37 0.32 0.25 0.25 0.27 0.34 0.38 0.37 0.35 0.29 0.27
0.13 0.07 0.11 0.14 0.19 0.19 0.14 0.14 0.15 0.16 0.17 0.16 0.12 0.08 0.05 0.05 0.06 0.03 0.01 0.02 0.02 0.01 0.01 0.02 0.01 0.03 0.06 0.04 0.06 0.10 0.09 0.08 0.11 0.10 0.10 0.10 0.12 0.18 0.24 0.29 0.37 0.46 0.46 0.43 0.52 0.58 0.53 0.53 0.57 0.56 0.53 0.48 0.40 0.35
0.01 0.01 0.03 0.06 0.08 0.07 0.09 0.09 0.07 0.07 0.12 0.12 0.11 0.13 0.11 0.10 0.11 0.09 0.03 0.01 0.01 0.01 0.01 0.01 0.01 0.02 0.03 0.04 0.06 0.09 0.10 0.11 0.14 0.14 0.15 0.18 0.20 0.23 0.28 0.34 0.38 0.45 0.53 0.56 0.50 0.47 0.45 0.40 0.37 0.36 0.34 0.32 0.29 0.28
0.04 0.04 0.03 0.05 0.10 0.11 0.10 0.07 0.03 0.02 0.02 0.05 0.07 0.09 0.10 0.09 0.06 0.01 0.00 0.00 0.01 0.01 0.02 0.02 0.04 0.05 0.07 0.09 0.11 0.15 0.18 0.18 0.18 0.19 0.21 0.22 0.24 0.27 0.32 0.39 0.46 0.49 0.53 0.55 0.51 0.47 0.43 0.45 0.47 0.43 0.44 0.44 0.42 0.37
0.16 0.13 0.12 0.13 0.16 0.19 0.15 0.10 0.09 0.08 0.08 0.04 0.04 0.05 0.06 0.04 0.02 0.00 0.00 0.00 0.01 0.03 0.04 0.06 0.09 0.13 0.15 0.16 0.19 0.23 0.26 0.29 0.31 0.34 0.38 0.37 0.36 0.41 0.50 0.54 0.53 0.52 0.49 0.48 0.50 0.52 0.53 0.52 0.50 0.44 0.42 0.41 0.41 0.38

GFSWCAN_prec_precacc_162.txt.gz
Total_Precipitation_Accumulation
1.30 1.25 1.20 1.26 1.36 1.22 1.15 1.19 1.22 1.31 1.51 1.63 1.12 0.66 0.49 0.36 0.16 0.04 0.06 0.09 0.22 0.12 0.02 0.00 0.00 0.01 0.01 0.02 0.03 0.01 0.02 0.02 0.06 0.14 0.13 0.07 0.03 0.01 0.00 0.00 0.00 0.02 0.04 0.06 0.07 0.09 0.01 0.00 0.00 0.00 0.00 0.00 0.00 0.00
1.23 1.36 1.39 1.37 1.34 1.23 1.17 1.22 1.38 1.42 1.52 1.67 1.34 0.69 0.47 0.29 0.15 0.07 0.04 0.08 0.15 0.14 0.04 0.00 0.00 0.00 0.00 0.01 0.01 0.00 0.03 0.01 0.04 0.12 0.16 0.10 0.04 0.01 0.00 0.00 0.00 0.00 0.00 0.00 0.00 0.00 0.00 0.00 0.00 0.00 0.00 0.00 0.00 0.01
0.96 1.16 1.31 1.45 1.68 1.63 1.39 1.20 1.08 1.02 1.05 1.20 1.35 0.83 0.43 0.31 0.20 0.23 0.10 0.04 0.10 0.13 0.02 0.00 0.01 0.00 0.00 0.00 0.01 0.01 0.02 0.01 0.04 0.12 0.26 0.11 0.06 0.04 0.02 0.01 0.00 0.00 0.00 0.00 0.00 0.00 0.00 0.00 0.00 0.00 0.00 0.00 0.00 0.02
0.99 0.93 1.14 1.23 1.53 1.76 1.65 1.60 1.58 1.32 1.07 1.01 0.99 0.85 0.46 0.26 0.25 0.18 0.05 0.06 0.12 0.12 0.10 0.02 0.00 0.00 0.00 0.00 0.01 0.02 0.04 0.02 0.08 0.16 0.18 0.14 0.06 0.03 0.02 0.01 0.00 0.01 0.00 0.00 0.00 0.00 0.00 0.00 0.00 0.00 0.00 0.00 0.00 0.00
0.87 1.09 1.11 1.15 1.15 1.46 2.15 1.95 1.40 1.26 1.43 1.27 0.98 0.74 0.60 0.33 0.14 0.06 0.02 0.04 0.08 0.16 0.20 0.05 0.05 0.00 0.00 0.01 0.04 0.04 0.08 0.15 0.15 0.27 0.31 0.16 0.07 0.05 0.01 0.00 0.00 0.00 0.00 0.00 0.00 0.00 0.00 0.00 0.00 0.00 0.00 0.00 0.00 0.00
0.76 0.86 1.37 1.33 1.07 1.07 1.32 1.91 1.56 1.28 1.40 1.51 1.04 1.03 0.86 0.47 0.31 0.14 0.16 0.24 0.16 0.16 0.38 0.18 0.23 0.03 0.03 0.05 0.14 0.15 0.17 0.30 0.40 0.30 0.28 0.28 0.14 0.15 0.12 0.03 0.00 0.00 0.00 0.00 0.00 0.00 0.00 0.00 0.00 0.00 0.00 0.00 0.00 0.00
0.86 0.77 0.92 1.51 1.37 1.11 1.15 1.38 1.35 1.18 1.22 1.16 1.14 1.19 1.18 0.83 0.50 0.29 0.17 0.57 0.28 0.21 0.34 0.41 0.58 0.15 0.13 0.21 0.20 0.41 0.29 0.47 0.50 0.46 0.29 0.21 0.22 0.48 0.31 0.05 0.00 0.00 0.00 0.00 0.00 0.00 0.00 0.00 0.00 0.00 0.00 0.00 0.00 0.00
1.15 0.92 0.86 1.13 1.39 1.08 1.08 1.25 0.97 1.00 1.19 1.20 1.39 1.42 1.92 1.83 1.40 0.73 0.11 0.11 0.28 0.64 0.61 0.89 0.88 0.45 0.49 0.56 0.44 0.55 0.56 0.66 0.74 0.61 0.28 0.29 0.27 0.34 0.20 0.01 0.01 0.02 0.01 0.01 0.01 0.00 0.00 0.00 0.00 0.00 0.00 0.00 0.00 0.00
1.21 1.13 0.85 0.86 1.15 0.91 0.97 1.19 0.87 0.87 1.06 1.31 2.02 3.00 3.50 2.44 1.33 0.69 0.42 0.27 0.50 0.94 0.79 0.70 0.67 0.62 0.68 0.67 0.65 0.56 0.82 0.72 0.65 0.49 0.19 0.27 0.35 0.32 0.07 0.04 0.05 0.08 0.14 0.16 0.17 0.11 0.05 0.02 0.02 0.02 0.02 0.01 0.01 0.02
1.26 1.24 0.89 0.98 1.04 0.85 0.97 0.96 0.84 0.94 1.41 2.16 3.44 3.63 2.58 1.23 0.48 0.59 1.39 1.58 1.42 0.98 0.54 0.53 0.61 0.67 0.88 0.67 0.56 0.61 0.64 0.50 0.60 0.31 0.22 0.23 0.16 0.07 0.05 0.07 0.08 0.08 0.19 0.26 0.33 0.36 0.30 0.18 0.06 0.04 0.07 0.10 0.09 0.08
1.14 1.24 1.02 1.12 1.02 0.84 0.99 0.86 0.85 1.43 2.37 2.86 2.99 2.04 1.08 0.79 0.94 1.79 1.93 1.45 0.96 0.56 0.34 0.37 0.52 0.47 0.41 0.52 0.48 0.57 0.74 0.40 0.45 0.55 0.30 0.24 0.22 0.15 0.07 0.03 0.02 0.02 0.05 0.09 0.15 0.32 0.38 0.26 0.22 0.12 0.11 0.17 0.24 0.23
1.16 1.18 1.09 1.26 1.03 0.91 1.01 1.01 1.25 1.56 1.87 2.12 1.88 1.58 1.68 1.65 2.08 1.95 1.49 0.73 0.31 0.16 0.21 0.38 0.37 0.35 0.26 0.30 0.39 0.39 0.44 0.36 0.41 0.56 0.42 0.30 0.27 0.12 0.15 0.15 0.09 0.05 0.10 0.06 0.09 0.13 0.14 0.12 0.16 0.18 0.13 0.13 0.15 0.24
1.36 1.20 1.14 1.41 1.18 1.07 1.02 1.12 1.43 1.48 1.50 1.85 2.43 2.82 2.83 2.79 2.14 1.23 0.61 0.38 0.09 0.08 0.11 0.11 0.21 0.21 0.27 0.33 0.29 0.31 0.24 0.14 0.21 0.38 0.45 0.20 0.03 0.03 0.02 0.03 0.10 0.23 0.32 0.24 0.11 0.15 0.16 0.17 0.15 0.12 0.13 0.11 0.08 0.07
1.54 1.36 1.37 1.52 1.27 1.09 1.18 1.54 2.10 1.97 1.66 2.35 2.66 2.73 1.97 1.73 0.61 0.28 0.16 0.13 0.05 0.04 0.03 0.05 0.10 0.17 0.31 0.34 0.46 0.31 0.15 0.10 0.26 0.29 0.17 0.06 0.06 0.03 0.00 0.00 0.00 0.03 0.13 0.29 0.35 0.41 0.39 0.46 0.43 0.44 0.45 0.40 0.31 0.24
1.84 1.61 1.80 1.80 1.43 1.33 1.67 2.25 2.17 1.64 2.03 2.42 2.21 1.56 0.94 0.34 0.14 0.10 0.10 0.08 0.03 0.04 0.05 0.03 0.08 0.10 0.26 0.46 0.32 0.26 0.20 0.34 0.38 0.21 0.14 0.08 0.03 0.01 0.01 0.01 0.00 0.00 0.01 0.01 0.07 0.24 0.32 0.38 0.49 0.44 0.39 0.31 0.23 0.21
2.50 2.99 2.85 2.19 1.70 1.90 2.39 2.79 2.89 2.47 2.66 2.29 1.70 0.73 0.19 0.11 0.11 0.10 0.12 0.11 0.07 0.05 0.10 0.19 0.29 0.28 0.22 0.32 0.26 0.14 0.19 0.35 0.32 0.14 0.06 0.01 0.01 0.04 0.02 0.02 0.01 0.00 0.00 0.00 0.00 0.02 0.06 0.07 0.11 0.12 0.10 0.18 0.23 0.21
3.81 3.90 2.59 1.96 2.16 2.44 2.78 3.31 3.53 3.15 2.66 2.26 0.98 0.19 0.11 0.14 0.17 0.14 0.14 0.22 0.27 0.39 0.56 0.65 0.59 0.27 0.27 0.26 0.10 0.06 0.18 0.16 0.07 0.03 0.02 0.01 0.01 0.05 0.05 0.02 0.02 0.02 0.03 0.04 0.03 0.06 0.10 0.10 0.14 0.19 0.14 0.09 0.10 0.16
3.38 2.13 1.86 2.13 2.53 2.99 3.97 3.77 3.36 3.27 2.47 1.00 0.27 0.07 0.07 0.10 0.14 0.15 0.15 0.17 0.36 0.65 0.90 1.16 0.70 0.53 0.20 0.08 0.03 0.02 0.02 0.03 0.02 0.01 0.00 0.00 0.00 0.02 0.04 0.02 0.01 0.04 0.08 0.21 0.23 0.18 0.15 0.16 0.16 0.14 0.12 0.09 0.07 0.08
2.63 1.92 2.17 2.27 2.66 3.21 3.71 3.47 2.80 2.24 0.82 0.23 0.08 0.07 0.07 0.04 0.03 0.06 0.06 0.06 0.08 0.22 0.67 1.17 1.13 0.49 0.06 0.03 0.01 0.01 0.00 0.00 0.00 0.00 0.01 0.00 0.00 0.02 0.06 0.08 0.08 0.06 0.07 0.13 0.13 0.10 0.08 0.06 0.05 0.07 0.09 0.09 0.06 0.05
3.62 3.56 3.22 3.28 2.98 3.25 3.43 3.03 1.87 0.94 0.44 0.17 0.12 0.12 0.07 0.04 0.04 0.05 0.07 0.11 0.14 0.44 0.93 0.85 0.31 0.08 0.07 0.09 0.08 0.06 0.02 0.01 0.01 0.01 0.01 0.01 0.00 0.00 0.00 0.02 0.05 0.05 0.05 0.05 0.06 0.07 0.07 0.05 0.05 0.06 0.08 0.09 0.07 0.07
5.12 4.76 4.66 4.47 4.63 3.99 3.03 1.88 1.08 0.51 0.24 0.18 0.21 0.13 0.16 0.14 0.15 0.15 0.18 0.22 0.61 0.85 0.45 0.08 0.02 0.03 0.04 0.05 0.06 0.05 0.03 0.02 0.01 0.01 0.00 0.00 0.00 0.00 0.00 0.00 0.01 0.02 0.02 0.02 0.01 0.02 0.04 0.03 0.05 0.07 0.05 0.05 0.09 0.10
4.52 4.21 5.66 5.76 4.87 4.15 2.82 1.46 0.70 0.48 0.29 0.30 0.26 0.25 0.30 0.28 0.25 0.27 0.27 0.56 0.61 0.17 0.02 0.02 0.04 0.05 0.05 0.06 0.07 0.07 0.05 0.02 0.01 0.01 0.00 0.00 0.00 0.00 0.00 0.00 0.01 0.00 0.00 0.00 0.00 0.00 0.01 0.01 0.03 0.03 0.03 0.05 0.09 0.11
3.97 4.53 4.77 4.65 4.24 3.55 2.27 1.01 0.54 0.45 0.37 0.40 0.33 0.35 0.33 0.27 0.25 0.27 0.39 0.29 0.11 0.01 0.01 0.03 0.05 0.08 0.11 0.10 0.14 0.12 0.11 0.08 0.04 0.02 0.01 0.01 0.00 0.00 0.01 0.00 0.00 0.00 0.00 0.00 0.00 0.00 0.01 0.01 0.01 0.01 0.02 0.05 0.06 0.08
3.71 4.69 4.92 4.43 3.14 2.27 1.56 1.22 0.88 0.57 0.60 0.46 0.37 0.29 0.18 0.16 0.25 0.32 0.23 0.05 0.01 0.00 0.02 0.05 0.05 0.05 0.06 0.07 0.10 0.17 0.23 0.21 0.15 0.11 0.07 0.04 0.02 0.01 0.02 0.01 0.00 0.00 0.00 0.00 0.00 0.00 0.00 0.00 0.00 0.00 0.00 0.01 0.02 0.04
5.38 5.91 4.44 3.78 2.28 1.22 0.81 0.64 0.51 0.41 0.38 0.28 0.22 0.19 0.15 0.19 0.25 0.29 0.10 0.02 0.02 0.04 0.06 0.09 0.07 0.06 0.06 0.06 0.07 0.08 0.11 0.19 0.21 0.19 0.18 0.18 0.13 0.11 0.06 0.03 0.02 0.01 0.00 0.00 0.00 0.00 0.00 0.00 0.00 0.00 0.00 0.00 0.02 0.04
4.98 3.20 2.12 1.10 0.71 0.32 0.25 0.26 0.25 0.18 0.15 0.20 0.21 0.18 0.18 0.31 0.42 0.23 0.05 0.03 0.04 0.05 0.06 0.07 0.06 0.05 0.06 0.07 0.08 0.09 0.09 0.14 0.18 0.16 0.12 0.19 0.21 0.21 0.16 0.13 0.08 0.04 0.02 0.04 0.04 0.03 0.02 0.01 0.01 0.01 0.01 0.02 0.05 0.10
3.85 2.44 1.08 0.30 0.18 0.19 0.19 0.14 0.13 0.16 0.22 0.22 0.18 0.17 0.31 0.50 0.24 0.06 0.05 0.04 0.02 0.01 0.02 0.05 0.10 0.09 0.06 0.06 0.06 0.07 0.10 0.15 0.17 0.13 0.13 0.15 0.14 0.15 0.16 0.14 0.12 0.09 0.10 0.11 0.12 0.11 0.08 0.06 0.05 0.04 0.05 0.05 0.04 0.05
1.87 0.65 0.40 0.38 0.33 0.28 0.32 0.25 0.23 0.22 0.20 0.18 0.21 0.27 0.38 0.25 0.07 0.02 0.02 0.02 0.02 0.04 0.10 0.17 0.17 0.15 0.16 0.17 0.14 0.14 0.16 0.17 0.17 0.14 0.14 0.15 0.15 0.14 0.14 0.16 0.22 0.28 0.28 0.21 0.16 0.18 0.19 0.17 0.14 0.14 0.16 0.13 0.10 0.08
0.54 0.26 0.20 0.29 0.28 0.26 0.24 0.19 0.14 0.09 0.09 0.11 0.12 0.10 0.08 0.02 0.01 0.02 0.02 0.00 0.00 0.03 0.11 0.21 0.18 0.20 0.22 0.18 0.15 0.15 0.14 0.15 0.14 0.12 0.11 0.11 0.14 0.16 0.20 0.27 0.35 0.42 0.41 0.37 0.32 0.25 0.25 0.27 0.34 0.38 0.37 0.35 0.29 0.27
0.13 0.07 0.11 0.15 0.20 0.20 0.15 0.16 0.16 0.17 0.19 0.17 0.14 0.09 0.07 0.07 0.07 0.04 0.01 0.02 0.02 0.01 0.03 0.03 0.01 0.04 0.06 0.05 0.08 0.13 0.12 0.10 0.11 0.11 0.10 0.10 0.12 0.18 0.24 0.29 0.37 0.46 0.46 0.43 0.52 0.58 0.53 0.53 0.57 0.56 0.53 0.48 0.40 0.35
0.01 0.01 0.03 0.06 0.08 0.08 0.10 0.10 0.08 0.08 0.13 0.13 0.12 0.15 0.13 0.12 0.12 0.09 0.03 0.01 0.02 0.02 0.04 0.02 0.02 0.02 0.03 0.05 0.08 0.10 0.10 0.11 0.14 0.14 0.15 0.18 0.20 0.23 0.28 0.34 0.38 0.45 0.53 0.56 0.50 0.47 0.45 0.40 0.37 0.36 0.34 0.32 0.29 0.28
0.04 0.04 0.03 0.05 0.10 0.11 0.10 0.07 0.03 0.02 0.03 0.06 0.08 0.10 0.11 0.11 0.08 0.02 0.01 0.00 0.02 0.03 0.04 0.04 0.05 0.06 0.08 0.09 0.12 0.15 0.18 0.18 0.18 0.19 0.21 0.22 0.24 0.27 0.32 0.39 0.46 0.49 0.53 0.55 0.51 0.47 0.43 0.45 0.47 0.43 0.44 0.44 0.42 0.37
0.16 0.13 0.12 0.13 0.16 0.19 0.15 0.10 0.09 0.08 0.08 0.05 0.05 0.07 0.07 0.05 0.03 0.01 0.01 0.02 0.04 0.05 0.05 0.07 0.10 0.14 0.16 0.17 0.20 0.23 0.26 0.30 0.31 0.34 0.38 0.37 0.36 0.41 0.50 0.54 0.53 0.52 0.49 0.48 0.50 0.52 0.53 0.52 0.50 0.44 0.42 0.41 0.41 0.38

GFSWCAN_prec_precacc_165.txt.gz
Total_Precipitation_Accumulation
1.31 1.25 1.21 1.26 1.36 1.22 1.17 1.20 1.23 1.34 1.56 1.80 1.67 0.99 0.74 0.63 0.43 0.10 0.06 0.09 0.22 0.12 0.02 0.00 0.00 0.01 0.01 0.02 0.03 0.01 0.02 0.02 0.06 0.14 0.13 0.07 0.03 0.01 0.00 0.00 0.00 0.02 0.04 0.06 0.07 0.09 0.01 0.00 0.00 0.00 0.00 0.00 0.00 0.00
1.23 1.36 1.39 1.37 1.34 1.23 1.18 1.23 1.38 1.43 1.53 1.76 1.83 1.45 0.94 0.62 0.43 0.20 0.06 0.08 0.15 0.14 0.04 0.00 0.00 0.00 0.00 0.01 0.01 0.00 0.03 0.01 0.04 0.12 0.16 0.10 0.04 0.01 0.00 0.00 0.00 0.00 0.00 0.00 0.00 0.00 0.00 0.00 0.00 0.00 0.00 0.00 0.00 0.01
0.96 1.16 1.31 1.45 1.68 1.63 1.39 1.21 1.09 1.03 1.06 1.26 1.60 1.50 1.09 0.75 0.48 0.38 0.13 0.04 0.10 0.13 0.02 0.00 0.01 0.00 0.00 0.00 0.01 0.01 0.02 0.01 0.04 0.12 0.26 0.11 0.06 0.04 0.02 0.01 0.00 0.00 0.00 0.00 0.00 0.00 0.00 0.00 0.00 0.00 0.00 0.00 0.00 0.02
0.99 0.93 1.14 1.23 1.53 1.76 1.65 1.60 1.59 1.33 1.07 1.04 1.13 1.24 1.11 0.73 0.55 0.34 0.11 0.06 0.12 0.12 0.10 0.02 0.00 0.00 0.00 0.00 0.01 0.02 0.04 0.02 0.08 0.16 0.18 0.14 0.06 0.03 0.02 0.01 0.00 0.01 0.00 0.00 0.00 0.00 0.00 0.00 0.00 0.00 0.00 0.00 0.00 0.00
0.87 1.09 1.11 1.15 1.16 1.46 2.15 1.95 1.40 1.26 1.43 1.28 1.06 0.94 0.99 0.75 0.47 0.20 0.09 0.05 0.08 0.16 0.20 0.05 0.05 0.00 0.00 0.01 0.04 0.04 0.08 0.15 0.15 0.27 0.31 0.16 0.07 0.05 0.01 0.00 0.00 0.00 0.00 0.00 0.00 0.00 0.00 0.00 0.00 0.00 0.00 0.00 0.00 0.00
0.76 0.86 1.37 1.33 1.07 1.07 1.32 1.91 1.56 1.28 1.41 1.52 1.07 1.20 1.20 0.87 0.70 0.37 0.31 0.27 0.16 0.16 0.38 0.18 0.23 0.03 0.03 0.05 0.14 0.15 0.17 0.30 0.40 0.30 0.28 0.28 0.14 0.15 0.12 0.03 0.00 0.00 0.00 0.00 0.00 0.00 0.00 0.00 0.00 0.00 0.00 0.00 0.00 0.00
0.86 0.77 0.92 1.51 1.38 1.11 1.15 1.38 1.35 1.18 1.22 1.16 1.14 1.24 1.46 1.36 0.89 0.55 0.26 0.58 0.28 0.21 0.34 0.41 0.58 0.15 0.13 0.21 0.20 0.41 0.29 0.47 0.50 0.46 0.29 0.21 0.22 0.48 0.31 0.05 0.00 0.00 0.00 0.00 0.00 0.00 0.00 0.00 0.00 0.00 0.00 0.00 0.00 0.00
1.16 0.93 0.86 1.13 1.40 1.09 1.08 1.25 0.97 1.00 1.19 1.20 1.39 1.43 2.10 2.43 1.81 0.94 0.13 0.11 0.28 0.64 0.61 0.89 0.88 0.45 0.49 0.56 0.44 0.55 0.56 0.66 0.74 0.61 0.28 0.29 0.27 0.34 0.20 0.01 0.01 0.02 0.01 0.01 0.01 0.00 0.00 0.00 0.00 0.00 0.00 0.00 0.00 0.00
1.23 1.15 0.85 0.86 1.17 0.93 0.97 1.19 0.87 0.87 1.06 1.31 2.02 3.04 3.86 3.08 1.72 0.90 0.51 0.35 0.57 0.98 0.80 0.70 0.67 0.62 0.68 0.67 0.65 0.56 0.82 0.72 0.65 0.49 0.19 0.27 0.35 0.32 0.07 0.04 0.05 0.08 0.14 0.16 0.17 0.11 0.05 0.02 0.02 0.02 0.02 0.01 0.01 0.02
1.27 1.26 0.90 0.98 1.04 0.86 0.98 0.96 0.84 0.94 1.41 2.16 3.52 3.86 2.98 1.70 0.70 0.71 1.67 1.88 1.69 1.12 0.55 0.53 0.61 0.67 0.88 0.67 0.56 0.61 0.64 0.50 0.60 0.31 0.22 0.23 0.16 0.07 0.05 0.07 0.08 0.08 0.19 0.26 0.33 0.36 0.30 0.18 0.06 0.04 0.07 0.10 0.09 0.08
1.14 1.25 1.03 1.12 1.02 0.86 0.99 0.86 0.86 1.44 2.37 2.89 3.29 2.37 1.42 1.12 1.17 2.09 2.31 1.65 1.08 0.61 0.35 0.37 0.52 0.47 0.41 0.52 0.48 0.57 0.74 0.40 0.45 0.55 0.30 0.24 0.22 0.15 0.07 0.03 0.02 0.02 0.05 0.09 0.15 0.32 0.38 0.26 0.22 0.12 0.11 0.17 0.24 0.23
1.16 1.19 1.09 1.26 1.04 0.93 1.01 1.01 1.26 1.57 1.87 2.19 2.16 1.87 1.97 1.92 2.47 2.30 1.67 0.77 0.31 0.16 0.21 0.38 0.37 0.35 0.27 0.31 0.39 0.39 0.44 0.36 0.41 0.56 0.42 0.30 0.27 0.12 0.15 0.15 0.09 0.05 0.10 0.06 0.09 0.13 0.14 0.12 0.16 0.18 0.13 0.13 0.15 0.24
1.37 1.21 1.15 1.41 1.20 1.08 1.02 1.12 1.44 1.50 1.52 1.99 2.75 3.10 3.09 3.04 2.33 1.33 0.65 0.39 0.10 0.08 0.11 0.11 0.21 0.21 0.27 0.35 0.31 0.31 0.25 0.14 0.21 0.38 0.45 0.20 0.03 0.03 0.02 0.03 0.10 0.23 0.32 0.24 0.11 0.15 0.16 0.17 0.15 0.12 0.13 0.11 0.08 0.07
1.56 1.39 1.37 1.53 1.29 1.10 1.18 1.54 2.11 1.98 1.69 2.51 2.90 2.92 2.13 1.85 0.65 0.28 0.16 0.13 0.05 0.04 0.03 0.05 0.10 0.17 0.32 0.36 0.52 0.36 0.20 0.11 0.27 0.29 0.17 0.06 0.06 0.03 0.00 0.00 0.00 0.03 0.13 0.29 0.35 0.41 0.39 0.46 0.43 0.44 0.45 0.40 0.31 0.24
1.84 1.61 1.82 1.83 1.43 1.33 1.67 2.25 2.18 1.64 2.06 2.54 2.33 1.67 1.01 0.37 0.16 0.11 0.10 0.08 0.03 0.04 0.05 0.03 0.10 0.14 0.33 0.55 0.38 0.28 0.22 0.34 0.38 0.21 0.14 0.08 0.03 0.01 0.01 0.01 0.00 0.00 0.01 0.01 0.07 0.24 0.32 0.38 0.49 0.44 0.39 0.31 0.23 0.21
2.50 3.01 2.87 2.21 1.70 1.90 2.39 2.79 2.89 2.47 2.67 2.36 1.76 0.77 0.21 0.12 0.14 0.12 0.12 0.11 0.07 0.05 0.10 0.20 0.32 0.32 0.27 0.36 0.27 0.14 0.19 0.35 0.32 0.14 0.06 0.01 0.01 0.04 0.02 0.02 0.01 0.00 0.00 0.00 0.00 0.02 0.06 0.07 0.11 0.12 0.10 0.18 0.23 0.21
3.81 3.90 2.61 1.97 2.16 2.44 2.78 3.31 3.53 3.15 2.67 2.29 1.02 0.22 0.13 0.16 0.19 0.16 0.16 0.23 0.27 0.40 0.58 0.67 0.60 0.29 0.29 0.27 0.10 0.06 0.18 0.16 0.07 0.03 0.02 0.01 0.01 0.06 0.05 0.02 0.02 0.02 0.03 0.04 0.03 0.06 0.10 0.10 0.14 0.19 0.14 0.09 0.10 0.16
3.38 2.13 1.86 2.13 2.53 2.99 3.97 3.77 3.36 3.27 2.47 1.01 0.30 0.12 0.10 0.14 0.17 0.20 0.20 0.23 0.41 0.70 0.92 1.17 0.71 0.54 0.21 0.08 0.03 0.02 0.02 0.03 0.02 0.01 0.00 0.00 0.00 0.02 0.04 0.02 0.01 0.04 0.08 0.21 0.23 0.18 0.15 0.16 0.16 0.14 0.12 0.09 0.07 0.08
2.63 1.92 2.18 2.27 2.66 3.21 3.71 3.47 2.80 2.24 0.83 0.24 0.10 0.11 0.11 0.08 0.09 0.12 0.10 0.11 0.11 0.24 0.69 1.20 1.15 0.50 0.07 0.03 0.01 0.01 0.00 0.00 0.00 0.00 0.01 0.00 0.00 0.02 0.06 0.08 0.08 0.06 0.07 0.13 0.13 0.10 0.08 0.06 0.05 0.07 0.09 0.09 0.06 0.05
3.64 3.58 3.22 3.28 2.98 3.25 3.43 3.03 1.87 0.94 0.45 0.17 0.13 0.14 0.09 0.05 0.06 0.08 0.10 0.12 0.15 0.46 0.96 0.88 0.35 0.10 0.08 0.10 0.08 0.06 0.02 0.01 0.01 0.01 0.01 0.01 0.00 0.00 0.00 0.02 0.05 0.05 0.05 0.05 0.06 0.07 0.07 0.05 0.05 0.06 0.08 0.09 0.07 0.07
5.12 4.76 4.66 4.47 4.63 3.99 3.03 1.88 1.08 0.52 0.25 0.19 0.22 0.13 0.16 0.14 0.15 0.15 0.18 0.22 0.61 0.85 0.47 0.10 0.03 0.03 0.04 0.05 0.06 0.05 0.03 0.02 0.01 0.01 0.00 0.00 0.00 0.00 0.00 0.00 0.01 0.02 0.02 0.02 0.01 0.02 0.04 0.03 0.05 0.07 0.05 0.05 0.09 0.10
4.52 4.21 5.66 5.76 4.87 4.15 2.82 1.46 0.71 0.48 0.29 0.31 0.26 0.25 0.30 0.28 0.25 0.27 0.27 0.56 0.61 0.17 0.02 0.02 0.04 0.05 0.05 0.06 0.07 0.07 0.05 0.02 0.01 0.01 0.00 0.00 0.00 0.00 0.00 0.00 0.01 0.00 0.00 0.00 0.00 0.00 0.01 0.01 0.03 0.03 0.03 0.05 0.09 0.11
3.97 4.53 4.77 4.65 4.24 3.55 2.27 1.01 0.54 0.45 0.37 0.40 0.33 0.35 0.34 0.27 0.25 0.27 0.39 0.29 0.11 0.01 0.01 0.03 0.05 0.08 0.11 0.10 0.14 0.12 0.11 0.08 0.04 0.02 0.01 0.01 0.00 0.00 0.01 0.00 0.00 0.00 0.00 0.00 0.00 0.00 0.01 0.01 0.01 0.01 0.02 0.05 0.06 0.08
3.71 4.69 4.92 4.43 3.14 2.27 1.56 1.22 0.88 0.57 0.60 0.46 0.37 0.29 0.18 0.16 0.25 0.32 0.23 0.05 0.01 0.00 0.02 0.05 0.05 0.05 0.06 0.07 0.10 0.17 0.23 0.21 0.15 0.11 0.07 0.04 0.02 0.01 0.02 0.01 0.00 0.00 0.00 0.00 0.00 0.00 0.00 0.00 0.00 0.00 0.00 0.01 0.02 0.04
5.38 5.91 4.44 3.78 2.28 1.22 0.81 0.64 0.51 0.42 0.38 0.28 0.22 0.19 0.15 0.19 0.25 0.29 0.10 0.02 0.02 0.04 0.06 0.09 0.07 0.06 0.06 0.06 0.07 0.08 0.11 0.19 0.21 0.19 0.18 0.18 0.13 0.11 0.06 0.03 0.02 0.01 0.00 0.00 0.00 0.00 0.00 0.00 0.00 0.00 0.00 0.00 0.02 0.04
4.98 3.20 2.12 1.10 0.71 0.32 0.25 0.26 0.25 0.18 0.15 0.20 0.21 0.18 0.18 0.31 0.42 0.23 0.05 0.03 0.04 0.05 0.06 0.07 0.06 0.05 0.06 0.07 0.08 0.09 0.09 0.14 0.18 0.16 0.12 0.19 0.21 0.21 0.16 0.13 0.08 0.04 0.02 0.04 0.04 0.03 0.02 0.01 0.01 0.01 0.01 0.02 0.05 0.10
3.85 2.44 1.08 0.30 0.18 0.19 0.19 0.14 0.13 0.16 0.22 0.22 0.18 0.18 0.31 0.50 0.24 0.06 0.05 0.04 0.02 0.01 0.02 0.05 0.10 0.09 0.06 0.07 0.06 0.07 0.11 0.16 0.18 0.14 0.13 0.15 0.15 0.15 0.16 0.14 0.12 0.09 0.10 0.11 0.12 0.11 0.08 0.06 0.05 0.04 0.05 0.05 0.04 0.05
1.88 0.65 0.40 0.38 0.33 0.29 0.33 0.25 0.23 0.22 0.20 0.18 0.21 0.27 0.38 0.25 0.07 0.02 0.02 0.02 0.02 0.04 0.10 0.18 0.18 0.15 0.16 0.18 0.15 0.14 0.17 0.18 0.18 0.15 0.16 0.16 0.17 0.15 0.15 0.16 0.22 0.28 0.28 0.21 0.16 0.18 0.19 0.17 0.14 0.14 0.16 0.13 0.10 0.08
0.54 0.26 0.21 0.30 0.29 0.26 0.24 0.19 0.15 0.10 0.09 0.11 0.12 0.10 0.08 0.02 0.02 0.03 0.02 0.00 0.00 0.03 0.11 0.21 0.18 0.21 0.23 0.18 0.15 0.16 0.15 0.16 0.16 0.15 0.14 0.13 0.15 0.16 0.20 0.27 0.35 0.42 0.41 0.37 0.32 0.25 0.25 0.27 0.34 0.38 0.37 0.35 0.29 0.27
0.13 0.07 0.11 0.15 0.20 0.21 0.17 0.17 0.18 0.19 0.20 0.18 0.14 0.10 0.08 0.07 0.07 0.04 0.01 0.02 0.02 0.01 0.03 0.03 0.02 0.04 0.07 0.06 0.10 0.14 0.13 0.12 0.15 0.13 0.11 0.10 0.12 0.18 0.24 0.29 0.37 0.46 0.46 0.43 0.52 0.58 0.53 0.53 0.57 0.56 0.53 0.48 0.40 0.35
0.01 0.01 0.03 0.06 0.08 0.09 0.11 0.11 0.09 0.09 0.14 0.15 0.14 0.16 0.15 0.13 0.12 0.09 0.03 0.01 0.02 0.02 0.05 0.04 0.03 0.02 0.03 0.08 0.12 0.12 0.11 0.12 0.14 0.14 0.15 0.18 0.20 0.23 0.28 0.34 0.38 0.45 0.53 0.56 0.50 0.47 0.45 0.40 0.37 0.36 0.34 0.32 0.29 0.28
0.04 0.04 0.03 0.05 0.10 0.11 0.10 0.07 0.03 0.02 0.03 0.06 0.09 0.11 0.12 0.12 0.09 0.03 0.02 0.01 0.03 0.04 0.06 0.07 0.08 0.07 0.09 0.10 0.14 0.17 0.19 0.18 0.18 0.19 0.21 0.22 0.24 0.27 0.32 0.39 0.46 0.49 0.53 0.55 0.51 0.47 0.43 0.45 0.47 0.43 0.44 0.44 0.42 0.37
0.16 0.13 0.12 0.13 0.16 0.19 0.15 0.10 0.09 0.08 0.08 0.05 0.06 0.07 0.08 0.06 0.04 0.03 0.03 0.04 0.07 0.08 0.07 0.09 0.12 0.15 0.16 0.17 0.20 0.24 0.27 0.30 0.31 0.34 0.38 0.37 0.36 0.41 0.50 0.54 0.53 0.52 0.49 0.48 0.50 0.52 0.53 0.52 0.50 0.44 0.42 0.41 0.41 0.38